ECMWFFLT1_con_mucape_000.txt.gz
CAPE
1 0 0 0 3 5 2 0 0 0 0 0 0 0 0 0 0 21 105 183 214 150 90 80 97 63 47 104 228 146 0 0 5 0 0 0 0 0 0 0 0 4 1 0 0 0 0 0 0 0 0 0 0 0 0 0 0 0 0 0 0 0 84
0 0 0 0 4 8 8 5 1 0 0 0 0 0 0 0 0 2 21 78 196 286 197 159 137 117 97 129 118 189 142 41 4 0 0 0 0 0 0 0 0 0 0 0 0 0 0 0 0 0 0 0 0 0 0 0 0 0 0 0 1 1 6
0 0 0 0 2 5 8 10 11 4 0 0 0 0 0 0 0 0 6 36 70 174 335 396 235 160 123 131 208 204 262 132 17 3 0 0 0 0 0 0 0 0 0 0 0 0 0 0 0 0 0 0 0 0 0 0 0 0 0 0 0 2 0
0 0 0 0 0 1 5 6 10 10 6 1 0 0 0 0 0 0 5 18 47 84 127 282 404 324 233 180 157 238 216 262 195 102 0 0 0 0 0 0 0 0 0 0 0 0 0 0 0 0 0 0 0 0 0 0 0 0 0 1 1 0 106
0 0 0 0 0 2 4 4 4 10 12 12 4 0 0 0 0 0 4 19 27 54 88 138 180 339 305 244 192 181 267 225 168 218 9 0 0 0 0 0 0 0 0 0 0 0 0 0 0 0 0 0 0 0 0 0 0 0 0 4 48 108 135
1 3 3 4 4 4 3 3 4 3 5 7 14 8 1 0 1 1 0 7 17 15 55 150 150 160 224 230 151 117 121 151 118 119 52 0 0 0 0 0 0 0 0 0 0 0 0 0 0 0 0 0 0 0 1 0 0 0 4 1 0 85 128
4 3 2 3 5 6 6 4 4 3 4 8 10 14 11 5 2 3 6 6 20 35 49 76 134 181 149 137 158 126 119 112 114 125 112 38 0 0 0 0 0 0 0 0 0 0 0 0 0 0 0 0 0 0 1 2 1 3 3 3 4 35 114
2 4 3 3 2 4 5 6 6 7 8 8 11 16 16 14 10 7 8 7 5 11 26 52 82 126 160 200 196 120 87 27 62 26 118 42 13 0 0 0 0 0 0 0 0 0 0 0 0 0 0 6 9 17 24 5 6 6 0 0 46 60 108
3 4 4 4 4 7 8 8 5 4 5 8 9 12 13 13 16 16 11 7 5 4 6 29 55 83 97 84 116 162 76 36 13 10 25 71 21 0 0 0 1 0 0 0 0 0 0 0 0 0 0 3 7 18 27 18 10 16 13 12 13 45 110
0 0 1 4 7 9 10 8 7 7 7 8 11 19 18 19 17 17 16 12 11 6 1 3 32 63 91 102 78 78 111 50 22 31 56 61 40 5 0 5 4 4 0 0 0 0 0 0 0 0 0 0 1 5 37 44 20 14 1 25 25 46 148
3 2 2 2 6 9 10 8 7 6 7 11 10 6 4 6 11 14 25 15 6 8 6 3 9 33 59 80 82 80 48 62 29 46 66 74 68 27 29 1 1 0 0 0 0 0 0 0 0 0 0 0 0 2 38 65 47 0 0 6 0 46 146
4 4 3 3 6 11 10 10 11 9 8 7 7 8 7 5 7 9 4 8 16 14 10 8 10 17 36 54 62 62 56 10 12 22 38 53 69 81 71 21 4 4 0 0 0 0 0 0 1 0 0 0 0 3 30 46 56 0 0 0 0 0 144
4 7 9 11 14 14 12 12 12 13 11 10 9 10 12 10 7 9 19 28 30 19 12 8 8 17 26 30 39 49 60 43 12 15 21 30 29 36 69 57 0 5 4 0 0 0 0 0 1 2 5 4 6 11 20 41 24 0 0 0 0 0 120
6 10 14 15 16 15 14 11 11 15 13 13 12 10 7 6 6 8 14 16 20 26 21 16 8 7 16 21 28 33 46 59 32 18 37 33 17 11 0 0 1 1 6 0 0 0 0 0 0 0 4 6 6 13 18 23 6 0 0 0 0 0 34
6 11 15 15 15 16 19 19 18 13 14 12 20 16 9 6 5 6 14 26 39 33 25 18 15 14 11 15 16 24 36 60 40 19 57 69 40 33 54 21 2 0 0 0 0 0 0 0 0 0 5 12 4 2 6 7 0 0 0 0 0 23 102
7 8 11 12 12 10 11 13 12 12 12 11 10 11 8 6 4 5 8 7 10 41 34 14 18 21 17 15 17 12 22 48 66 31 5 29 33 55 22 19 25 32 0 0 0 0 0 0 0 0 0 0 6 0 0 0 0 0 0 0 0 22 0
7 8 11 12 14 12 13 15 12 9 6 6 5 5 6 6 6 4 7 14 11 8 41 29 14 13 23 23 20 19 19 44 66 43 18 2 20 40 39 28 55 0 25 1 0 0 0 0 0 0 0 0 0 0 0 10 145 0 0 0 0 0 0
5 7 9 10 12 12 12 13 14 8 8 8 4 4 6 8 8 6 6 7 10 22 32 34 16 13 16 29 32 32 31 40 53 46 29 5 0 14 12 40 40 64 35 4 2 0 0 0 0 0 0 0 96 60 83 73 41 47 0 0 0 0 0
3 5 8 10 11 14 16 14 11 11 6 4 3 3 3 4 8 7 6 6 8 16 30 30 20 15 12 11 26 40 48 52 50 48 46 23 8 37 0 0 62 42 37 4 1 0 0 0 0 0 0 85 125 120 80 122 102 0 21 0 0 0 0
5 6 7 8 11 12 12 15 15 12 10 7 5 5 3 4 6 7 6 6 8 12 23 33 25 13 12 10 10 21 40 61 61 47 46 37 12 18 0 0 32 26 27 6 0 0 0 0 0 0 16 24 28 165 78 108 70 145 62 0 0 0 0
5 7 8 11 12 13 12 12 14 13 10 10 8 6 4 3 2 5 6 8 8 15 25 30 26 14 13 14 10 18 21 36 56 56 41 38 15 2 0 11 15 21 5 0 0 0 0 0 0 0 0 0 143 214 60 0 227 249 64 0 0 0 0
6 10 14 17 18 17 15 14 10 6 6 6 7 7 8 6 5 4 4 8 10 11 24 36 37 18 12 14 16 23 27 36 39 42 39 16 8 5 0 0 0 7 0 0 0 0 0 0 0 0 0 24 25 158 223 223 214 324 310 0 114 127 88
10 11 16 19 20 16 12 8 7 8 8 9 8 7 6 5 7 7 8 9 12 14 19 29 31 18 12 15 18 30 45 57 52 41 40 31 20 14 0 0 13 20 0 0 0 0 0 0 0 0 157 157 57 191 225 285 279 216 408 280 32 164 118
14 12 13 17 16 12 9 6 8 8 9 9 9 8 7 5 7 11 10 7 8 12 15 33 32 21 14 18 15 21 51 69 66 48 39 34 34 24 13 0 1 0 0 0 0 0 0 0 0 136 153 142 148 198 234 217 295 278 178 373 348 156 147
15 14 15 14 12 8 8 7 6 8 10 12 11 14 16 10 9 11 12 8 5 7 11 14 29 22 8 17 16 12 38 72 76 37 36 28 31 39 30 0 0 0 0 0 0 0 0 0 0 0 77 112 144 196 220 206 266 308 156 117 235 192 15
13 12 11 9 7 7 6 6 6 6 8 8 11 13 11 13 12 12 12 8 10 9 9 11 29 20 2 11 17 7 20 26 50 39 44 41 49 43 25 0 0 0 0 0 0 0 0 0 12 82 82 122 169 145 144 161 211 330 322 254 243 42 0
8 6 6 6 7 5 4 4 4 4 6 6 8 10 11 10 10 12 12 8 9 10 8 17 40 23 6 11 16 15 11 21 32 50 51 64 71 56 0 0 2 0 0 0 0 0 0 25 4 44 83 53 0 0 180 240 278 170 0 100 204 196 103
7 8 8 6 5 4 2 2 2 2 3 3 5 9 8 9 9 10 17 15 12 12 9 24 49 34 13 13 8 18 19 24 43 36 52 85 92 74 0 0 3 8 0 0 0 0 0 32 8 24 0 0 90 154 242 350 396 336 220 251 301 203 183
8 7 7 7 5 4 2 2 3 2 4 3 4 6 4 6 10 26 24 17 27 22 21 45 61 50 34 16 14 13 20 18 38 51 38 22 68 58 0 0 4 16 2 0 0 0 0 0 0 11 0 102 171 249 303 326 366 394 302 182 86 72 37
6 8 9 8 4 2 2 2 2 2 2 2 3 3 2 3 8 35 25 23 43 36 34 57 82 78 51 31 31 27 18 17 25 27 28 48 100 50 46 4 3 35 16 0 0 0 0 0 0 0 0 187 209 228 256 274 276 101 16 0 1 0 2
8 15 11 5 2 1 1 2 2 3 3 3 3 2 1 3 2 18 37 51 54 52 54 60 77 65 45 7 41 29 10 11 13 4 8 8 16 36 62 14 19 32 3 0 1 0 2 7 0 0 23 125 148 154 77 0 0 0 0 0 2 0 3
8 12 6 1 0 0 0 1 2 3 3 2 1 0 1 6 4 3 20 33 30 38 47 22 0 28 20 31 44 6 19 12 10 0 9 2 7 73 53 41 41 28 10 0 1 1 0 24 0 0 23 94 78 0 0 0 0 21 0 1 0 60 0
6 7 3 1 0 0 0 0 0 1 2 2 1 0 1 3 0 1 18 39 53 44 30 0 0 0 15 9 15 28 20 12 6 14 7 15 38 62 46 34 25 33 3 0 33 38 18 0 0 0 0 16 53 64 64 80 67 36 0 1 0 0 0
4 4 3 2 0 0 0 0 1 3 2 0 0 0 0 0 1 6 21 24 23 6 0 0 0 0 0 6 32 10 6 10 15 9 0 24 66 60 54 57 71 124 47 23 57 61 50 41 0 0 0 74 84 100 109 83 68 77 50 0 0 0 0
1 3 2 1 0 0 0 0 2 2 1 0 0 0 1 1 2 7 2 2 2 0 0 0 0 0 2 9 23 22 1 2 7 13 20 35 62 91 105 99 108 115 72 21 21 4 0 0 0 0 0 66 118 86 27 61 57 18 0 0 0 0 0
0 2 1 0 0 0 0 0 1 0 0 1 4 2 4 4 2 22 8 34 35 20 5 0 0 1 13 16 25 7 0 3 7 6 19 40 43 98 149 126 105 84 64 14 0 8 0 21 41 52 26 0 2 17 26 0 0 0 0 0 0 0 0
0 1 1 0 0 0 0 0 0 0 2 2 2 1 0 3 6 10 19 17 34 34 22 4 14 22 30 25 24 5 0 4 5 2 30 31 61 88 97 160 191 71 8 17 1 4 26 10 43 48 30 1 7 18 26 0 0 0 0 0 0 0 0

ECMWFFLT1_con_mucape_003.txt.gz
CAPE
0 1 2 2 3 1 0 1 2 4 3 0 0 0 0 0 0 0 0 0 1 72 176 114 136 113 100 77 97 130 46 7 9 24 36 43 44 30 10 9 4 0 0 0 0 0 0 0 0 0 0 2 4 28 30 16 6 7 15 7 0 0 0
0 0 0 0 1 2 1 0 1 3 3 5 3 0 0 0 0 0 0 0 0 0 37 81 138 172 156 122 105 64 56 57 20 23 108 139 8 49 6 5 1 1 0 0 0 0 0 0 0 0 0 31 81 58 62 49 19 18 32 23 2 0 0
0 1 0 0 1 2 2 2 2 1 1 3 4 3 0 0 0 0 0 0 0 1 5 1 56 130 173 119 108 134 84 54 37 19 24 133 76 24 11 2 0 1 0 0 0 0 0 0 0 0 0 0 0 0 42 81 56 36 40 71 58 0 0
0 2 2 1 0 2 2 1 2 2 2 2 2 3 3 0 0 0 0 0 1 6 2 0 4 46 129 184 217 352 107 62 65 48 29 18 42 25 21 9 13 17 14 0 0 0 0 0 0 0 0 0 0 0 32 64 49 33 41 111 78 35 2
2 2 2 2 2 2 2 2 2 2 2 3 4 3 4 5 4 0 0 0 0 3 8 11 10 38 181 145 327 586 444 164 65 50 53 37 43 52 42 8 21 21 28 16 12 2 0 0 0 0 0 0 0 0 14 92 34 18 21 51 36 8 0
2 2 2 2 2 2 3 4 5 5 2 2 2 3 7 8 5 6 2 1 0 0 4 6 5 4 58 216 252 389 394 243 92 54 52 25 70 75 32 4 11 3 12 30 10 12 9 0 0 0 0 0 0 0 3 24 10 12 30 21 12 1 0
2 2 2 2 2 2 2 3 5 4 5 6 6 5 7 11 10 9 7 4 1 0 0 1 6 12 10 48 168 192 171 336 212 115 54 60 50 48 52 28 0 1 0 6 7 34 17 4 27 0 2 0 0 0 2 4 8 8 1 1 0 0 1
2 2 2 2 2 2 2 3 4 5 6 6 7 7 7 10 9 10 11 8 4 1 0 0 0 4 17 27 40 88 123 259 406 290 99 75 76 32 28 13 19 7 2 3 9 52 5 13 19 2 13 2 0 0 42 14 10 8 1 0 0 0 0
2 3 2 2 2 3 2 2 2 3 4 6 7 9 9 9 9 8 9 10 7 5 4 2 0 1 6 16 26 62 132 206 63 185 262 142 116 155 100 84 38 11 26 25 19 35 9 7 18 17 16 4 7 2 18 32 20 14 3 0 0 1 0
1 2 2 3 3 3 3 1 1 2 4 5 6 8 9 8 10 11 10 8 9 7 6 3 1 3 5 12 14 31 70 181 174 206 217 193 142 131 186 111 18 12 12 23 32 46 38 17 8 19 10 6 15 1 1 12 41 15 2 0 0 0 6
0 1 3 3 3 4 3 2 1 1 3 4 5 8 9 9 9 9 11 10 12 12 10 5 3 1 2 5 14 15 12 88 187 101 109 177 217 228 131 226 55 36 13 31 53 86 68 48 50 16 28 6 41 9 1 2 49 51 1 1 0 0 0
0 0 1 2 2 3 3 2 2 1 2 3 5 7 8 9 9 9 9 9 8 8 10 10 7 6 4 5 12 24 10 22 92 149 88 133 118 88 92 61 70 23 33 40 190 114 118 192 64 24 21 13 35 34 26 13 18 94 2 0 0 0 0
0 0 1 2 2 3 2 3 3 2 2 3 3 3 4 6 7 8 8 8 8 9 8 6 7 6 5 5 10 20 29 26 30 58 137 160 228 297 193 79 22 29 45 128 242 201 162 153 75 43 30 22 28 42 38 26 9 85 1 0 0 0 0
0 0 2 3 4 4 4 4 3 3 2 2 4 4 4 4 7 7 6 8 8 10 8 6 5 10 8 6 7 12 18 29 27 25 42 64 83 67 107 28 22 42 52 92 272 163 142 167 172 96 58 32 33 79 46 59 29 30 0 0 0 0 0
0 1 3 4 4 3 3 3 3 3 3 2 2 4 3 5 5 5 6 6 7 7 7 8 11 12 7 6 6 8 13 13 28 30 34 36 64 132 95 96 58 51 59 165 238 168 160 199 183 155 90 80 48 86 130 28 27 6 0 0 0 0 34
0 2 4 4 4 3 3 4 4 4 4 3 4 3 2 2 4 5 5 6 5 6 6 8 8 10 12 10 8 8 10 11 17 31 35 20 27 79 131 87 84 125 114 66 84 154 96 145 157 124 112 102 93 88 98 67 58 10 0 0 0 0 0
0 2 5 5 5 5 5 4 4 4 3 4 3 3 2 3 3 3 4 4 5 5 4 7 9 10 9 14 12 8 6 12 13 16 26 22 16 39 72 119 89 85 75 82 78 105 213 141 215 140 124 118 162 116 146 154 103 0 0 0 0 0 0
1 4 6 6 6 5 5 6 6 4 4 4 3 4 4 3 4 3 4 4 4 5 4 4 6 8 11 9 15 13 8 9 12 13 19 29 13 31 58 140 109 137 100 79 113 86 28 152 94 158 94 107 185 244 271 289 70 10 5 4 2 0 0
3 6 5 6 6 6 6 5 7 7 5 5 4 4 4 4 4 2 3 4 4 6 7 6 5 5 7 10 16 19 10 8 13 13 15 24 27 16 28 53 213 174 133 51 50 75 61 112 181 134 117 177 218 287 400 194 21 39 21 16 11 6 0
4 5 6 6 6 5 6 6 5 5 5 4 5 4 3 3 3 3 4 5 5 5 5 6 8 8 7 8 9 16 18 8 12 19 16 18 34 21 24 52 261 235 148 72 93 72 44 44 186 187 171 225 206 298 348 124 1 0 31 41 12 0 0
5 5 6 7 8 8 6 10 7 5 5 5 6 5 2 2 2 3 2 4 4 6 6 7 7 6 7 7 8 13 9 9 7 16 22 20 32 37 15 61 236 254 150 122 164 188 114 20 49 86 175 198 306 329 41 13 0 29 0 8 9 8 4
8 9 8 9 8 8 8 7 6 4 5 6 7 4 2 3 3 2 2 3 4 5 7 7 6 6 7 6 8 12 16 10 7 6 19 23 28 45 34 34 168 259 144 125 86 68 73 27 36 32 44 109 218 269 0 0 0 0 0 39 42 24 0
7 8 8 8 8 5 3 2 3 4 5 6 4 3 4 3 3 4 4 3 3 6 7 8 5 3 4 7 10 9 17 18 11 5 14 24 29 38 35 33 122 86 95 118 125 124 56 54 23 100 5 89 193 248 16 0 0 0 0 44 17 0 0
8 7 8 5 4 3 2 3 2 3 3 4 4 4 4 4 3 5 4 4 5 4 6 7 2 2 4 7 7 11 20 22 19 10 11 18 25 23 34 29 94 60 94 106 128 128 120 125 109 101 54 28 82 198 35 0 0 0 0 0 0 0 0
8 7 4 1 0 0 1 1 2 2 2 2 5 6 4 4 4 6 6 7 6 5 5 4 3 4 4 6 7 9 14 29 27 19 11 18 20 27 35 56 172 174 95 65 88 106 130 131 143 86 58 42 32 0 0 0 0 0 0 0 0 0 0
7 4 2 0 0 2 1 2 2 3 3 6 5 4 4 4 5 6 8 7 8 9 8 1 4 5 5 7 8 3 10 14 30 32 18 17 22 22 30 49 121 88 32 52 78 82 127 120 105 72 62 82 70 21 0 0 0 73 81 0 115 163 205
4 3 1 0 1 2 2 2 2 2 3 3 4 5 7 8 9 8 7 7 8 9 9 4 4 5 5 5 3 2 4 10 26 39 30 22 33 28 42 34 56 20 22 39 26 83 101 0 0 28 68 70 47 4 0 0 0 49 0 0 42 149 232
5 2 1 1 2 2 2 2 2 2 4 2 6 8 8 10 9 10 8 8 10 11 11 4 5 6 9 3 2 1 4 9 26 41 22 26 21 24 34 29 35 4 2 34 64 71 82 55 0 16 64 36 0 0 0 0 0 0 0 80 3 0 142
0 1 0 1 2 2 2 2 3 4 2 2 6 6 9 10 9 10 10 10 12 15 12 5 5 5 5 4 2 2 4 12 26 48 35 20 11 18 30 46 49 5 0 5 49 95 124 94 0 5 50 27 0 0 0 0 0 0 0 66 62 121 90
3 1 0 1 2 1 2 2 4 5 4 4 4 5 6 6 7 8 9 10 12 15 15 9 6 4 0 1 1 2 4 17 34 48 29 31 11 22 20 27 23 1 0 0 27 89 112 84 21 11 24 11 0 0 0 0 0 31 80 112 137 148 109
4 0 0 1 1 3 2 4 5 4 4 3 3 2 5 5 5 8 8 7 8 16 19 12 11 7 0 0 0 2 8 24 39 47 37 32 20 18 6 0 15 17 0 0 6 57 79 50 23 3 22 0 0 0 0 0 0 0 5 67 158 131 60
3 0 0 1 1 1 1 2 3 3 3 4 5 6 7 6 5 4 5 6 6 7 10 13 18 16 1 1 3 7 12 43 39 31 20 25 15 4 4 7 15 4 0 0 0 0 0 0 41 26 1 0 0 0 0 0 0 60 130 138 166 132 22
1 0 0 1 2 2 2 2 0 0 0 5 5 5 6 8 8 2 4 6 6 6 8 10 18 17 4 6 14 19 26 33 28 12 20 23 13 6 6 7 6 0 0 0 0 0 0 0 16 26 6 0 0 0 0 0 46 125 139 174 200 192 201
0 0 1 1 2 1 1 0 1 5 7 6 5 4 5 4 3 5 5 6 8 8 9 8 10 1 1 9 20 18 15 19 3 7 21 18 9 5 6 13 8 3 0 0 0 0 58 43 32 36 12 0 0 0 0 13 0 0 85 220 236 237 184
0 1 1 0 1 0 0 1 3 11 6 6 6 3 1 2 0 0 0 0 0 0 0 0 0 0 0 8 18 10 3 18 4 4 10 9 6 6 2 0 4 1 0 4 62 112 78 39 18 0 1 0 28 43 54 3 0 50 37 218 246 128 61
0 0 1 2 0 0 0 0 2 8 4 1 3 3 0 1 1 0 0 0 0 1 0 0 5 7 14 16 21 20 24 16 3 0 1 4 5 3 0 0 0 1 0 19 54 25 9 0 1 0 0 0 8 21 28 22 86 163 225 248 205 113 27
1 1 1 2 0 0 0 0 1 8 4 4 3 3 1 0 0 0 0 0 0 0 7 14 4 7 13 32 47 55 46 7 12 2 7 3 0 0 0 0 0 0 26 44 35 10 2 0 0 1 6 11 14 17 12 0 114 78 233 196 165 32 2

ECMWFFLT1_con_mucape_006.txt.gz
CAPE
0 0 0 0 0 0 0 0 0 3 6 5 5 2 2 0 1 1 0 0 0 0 1 13 44 169 360 378 364 400 380 328 199 18 13 333 10 4 0 5 10 2 47 7 7 7 3 20 14 4 4 0 0 0 0 0 0 0 0 0 0 0 0
0 0 0 0 0 0 0 0 0 0 0 4 4 4 2 1 4 2 4 3 0 0 0 0 28 80 155 315 523 547 181 134 77 88 69 273 327 205 0 0 1 11 19 16 7 2 0 1 1 5 6 5 0 0 0 0 0 0 4 0 0 0 0
0 0 0 0 0 0 0 0 0 0 0 0 0 4 4 2 3 6 4 4 4 0 0 0 2 20 120 176 235 347 351 119 107 68 40 51 371 740 173 19 8 50 118 38 4 19 3 8 6 5 4 0 0 0 0 0 0 8 5 6 0 0 0
0 0 0 0 0 0 0 0 0 0 0 0 0 0 2 4 7 6 3 3 3 3 0 0 2 4 29 107 142 276 217 191 188 127 14 16 208 595 380 272 108 113 87 114 69 50 46 12 1 0 0 0 0 0 0 0 1 0 1 17 6 0 0
0 0 0 0 0 0 0 0 0 0 0 0 0 0 0 2 6 8 8 9 3 2 1 0 0 2 9 31 108 323 246 216 230 146 68 4 24 113 352 399 310 185 93 120 95 58 26 19 8 0 0 1 0 0 0 0 0 0 0 2 1 0 6
0 0 0 0 0 0 0 0 0 0 0 0 0 0 0 2 3 4 6 9 7 5 4 0 0 0 3 10 30 107 162 269 290 261 114 60 42 46 80 248 399 299 175 88 239 210 127 53 22 7 0 0 1 0 0 0 0 0 0 0 5 0 3
0 0 0 0 0 0 0 0 0 0 0 0 0 0 0 1 1 3 5 7 10 9 7 6 1 0 0 1 1 12 94 239 236 112 84 89 133 120 91 106 189 310 291 315 158 131 25 120 66 8 4 3 8 0 0 0 0 0 0 0 0 2 6
0 0 0 0 0 0 0 0 0 0 0 0 0 0 0 0 1 1 3 3 4 7 9 9 9 1 0 0 0 0 4 71 121 70 96 71 129 153 160 45 61 153 245 268 304 216 52 131 96 18 14 4 10 8 3 0 0 0 0 0 4 6 12
0 0 0 0 0 0 0 0 0 0 0 0 0 0 0 0 1 1 1 2 2 5 9 11 9 6 6 0 0 0 0 0 52 116 53 24 15 33 175 192 85 68 179 293 392 358 269 46 170 59 16 5 8 14 4 2 2 0 0 1 0 13 17
0 0 0 0 0 0 0 0 0 0 0 0 0 0 0 0 0 1 2 2 8 11 11 7 6 8 10 12 2 0 0 0 3 8 45 94 290 423 451 422 224 100 66 143 203 226 160 52 58 49 14 13 8 6 10 3 6 5 10 3 2 5 9
0 0 0 0 0 0 0 0 0 0 0 0 0 0 0 0 0 1 2 2 3 6 8 8 8 9 8 8 9 5 0 0 0 2 18 114 144 79 146 312 234 268 209 160 73 98 145 89 107 196 46 11 11 2 6 11 11 14 14 12 0 0 4
0 0 0 0 0 0 0 0 0 0 0 0 0 1 0 0 0 0 2 2 3 4 7 8 7 9 10 8 9 7 7 4 0 0 2 20 53 266 216 122 300 202 137 288 186 112 47 90 318 307 203 21 30 18 2 6 12 29 11 25 13 2 0
0 0 0 0 0 0 0 0 0 0 0 0 0 0 0 0 0 2 0 1 2 6 7 8 8 10 11 10 7 7 3 5 4 2 0 2 11 41 117 159 282 330 241 329 306 214 147 112 249 461 405 151 27 25 10 7 12 19 26 11 1 1 0
0 0 0 0 0 0 0 0 0 0 0 0 0 0 0 0 0 2 0 0 2 2 4 4 10 10 11 12 5 6 5 4 4 6 3 0 1 21 39 66 346 162 355 403 250 192 214 351 316 339 373 374 67 54 24 4 6 15 51 16 8 0 0
0 0 0 0 0 0 0 0 0 0 0 1 0 0 0 0 0 3 2 2 2 2 2 2 4 12 13 13 14 13 8 6 6 4 8 6 0 1 24 40 77 406 163 272 518 314 134 222 538 348 489 276 60 77 68 16 4 24 67 18 15 0 0
0 0 0 0 0 0 0 0 0 2 1 0 1 2 1 1 2 4 3 1 0 2 2 3 3 4 8 11 9 8 10 8 11 9 9 6 4 0 6 23 45 68 97 111 394 515 290 351 458 395 311 243 177 87 32 32 9 27 97 15 0 0 0
0 0 0 0 0 0 0 0 0 0 2 2 2 3 6 4 3 4 3 2 0 0 0 2 2 2 2 6 12 9 11 9 12 13 9 5 3 6 6 5 30 43 411 406 278 219 267 389 379 289 248 200 245 58 153 76 33 54 135 4 1 0 0
0 0 0 0 0 0 0 0 0 0 2 3 5 6 6 5 4 4 6 3 3 4 1 0 1 2 1 4 8 9 10 10 16 10 13 9 2 7 9 2 14 57 29 130 104 233 356 371 262 349 318 221 197 288 326 141 71 28 75 32 3 0 0
0 0 0 0 0 0 0 0 1 3 6 8 9 5 6 4 4 2 3 2 2 2 2 1 0 1 0 0 4 10 11 9 13 14 10 13 7 6 13 9 1 11 37 45 244 183 214 526 354 449 276 303 311 68 189 200 119 43 50 16 0 0 0
0 0 0 0 0 0 0 1 2 5 6 5 6 4 3 4 4 4 3 4 2 2 1 1 1 0 0 1 2 5 9 10 8 12 16 9 12 8 8 7 7 1 11 34 82 371 677 304 613 561 434 830 402 340 438 291 64 68 38 28 0 0 0
0 0 0 0 0 0 1 4 6 5 4 4 4 3 4 3 5 4 3 3 2 2 2 1 0 0 1 2 2 1 4 6 8 12 14 13 10 14 12 12 15 3 0 12 44 256 302 492 742 690 526 384 212 341 313 213 98 124 146 40 0 0 0
0 0 0 0 0 1 4 4 4 5 4 3 3 2 2 4 4 3 3 2 2 3 2 3 2 1 3 1 2 3 2 4 6 9 14 13 13 10 13 13 12 9 0 0 0 119 207 408 679 675 892 682 275 141 210 349 357 281 66 14 0 0 0
0 0 0 0 0 2 3 5 3 3 2 0 2 3 2 3 2 3 2 2 4 5 3 2 1 0 0 0 7 2 5 10 9 9 10 16 11 12 12 15 10 0 0 0 0 0 168 248 257 492 844 680 335 281 264 352 278 141 52 2 0 0 0
0 0 0 0 2 3 0 5 0 2 2 2 4 4 4 3 1 2 3 4 4 4 3 2 0 0 0 0 0 4 7 7 13 10 10 12 17 15 22 11 12 6 0 0 0 12 177 215 192 166 189 138 78 319 408 306 372 259 66 10 0 0 0
0 0 0 0 4 3 3 2 2 1 2 3 4 4 2 2 2 1 4 3 4 3 4 1 0 0 0 0 1 5 7 8 11 14 12 13 18 18 21 18 17 15 14 2 0 18 79 200 198 173 127 128 61 99 212 311 185 141 30 0 0 0 0
0 0 0 2 4 4 0 2 1 4 4 6 7 0 0 3 0 4 3 1 3 3 4 0 0 0 0 0 0 1 12 11 9 9 10 13 17 21 22 21 23 20 14 0 0 1 185 161 220 193 119 132 81 0 59 104 120 98 69 53 0 0 0
0 0 1 2 2 2 2 1 5 4 4 5 3 3 2 2 2 0 2 1 4 3 0 0 0 0 0 0 2 1 10 11 12 11 9 5 8 23 24 24 23 20 18 13 11 10 26 126 96 242 91 165 117 80 98 120 103 112 77 58 45 0 0
0 0 3 3 3 2 4 0 1 0 0 0 3 0 4 2 2 0 2 2 5 4 0 0 0 0 0 1 1 1 11 14 13 14 13 12 0 1 23 27 25 22 19 20 12 18 41 31 126 48 119 112 119 24 51 105 80 76 78 52 30 3 0
0 0 1 0 2 2 0 0 0 3 2 6 3 3 3 0 1 2 2 0 0 6 1 0 0 1 2 1 1 3 11 14 11 13 13 13 9 0 2 16 26 25 25 23 2 0 10 32 90 175 34 76 66 86 78 28 40 29 66 50 31 1 0
0 0 0 2 3 2 0 3 8 0 0 1 0 2 0 0 2 2 2 5 8 0 4 0 0 0 0 0 2 9 13 13 14 13 14 12 16 6 0 6 29 29 33 18 5 0 21 0 14 148 76 14 77 70 2 0 10 9 35 36 13 0 0
0 0 0 2 1 2 0 0 10 0 0 0 1 0 2 3 1 6 2 5 6 7 8 4 0 0 1 1 2 10 12 12 18 17 13 12 13 11 1 0 3 36 40 28 0 0 52 3 194 147 93 11 10 24 29 2 3 28 36 34 29 12 0
0 0 1 2 2 0 0 3 0 2 0 2 0 1 4 2 4 5 4 6 8 9 10 5 0 0 0 0 1 9 10 14 17 18 14 14 15 14 11 2 0 13 20 50 0 0 48 101 204 109 5 0 29 53 70 67 40 10 35 46 23 8 2
0 0 2 6 0 6 5 0 0 0 0 0 0 2 4 1 0 3 0 9 10 9 8 9 6 0 0 0 0 4 10 12 21 20 18 14 18 17 12 14 22 18 5 6 10 0 0 1 90 13 0 0 9 73 77 69 41 4 46 53 28 0 0
0 1 3 5 1 12 9 0 0 0 0 2 3 3 4 5 0 1 0 7 6 8 10 13 12 0 0 0 0 0 9 16 16 19 17 14 17 19 17 21 45 18 4 12 22 22 2 0 0 0 0 0 0 30 85 83 0 34 26 44 12 0 0
0 5 3 0 0 3 2 0 1 3 2 3 2 2 4 6 0 0 5 0 6 6 7 6 9 5 0 0 0 0 3 13 18 19 20 22 22 20 18 22 28 4 8 22 43 37 7 0 13 0 0 0 1 56 81 85 51 12 1 20 4 0 0
1 1 6 5 0 2 1 0 0 4 4 2 2 3 4 3 1 1 0 4 9 7 4 4 1 2 0 1 0 0 1 2 6 8 22 36 32 18 25 26 18 1 30 59 40 16 0 0 0 0 0 0 2 31 29 90 48 25 18 19 0 0 0
0 0 4 5 8 1 4 1 1 4 3 2 1 2 3 0 1 1 4 1 1 10 8 6 2 0 0 0 0 0 0 0 1 4 28 42 28 22 23 28 5 0 7 18 15 6 1 2 5 7 6 4 2 19 6 7 18 8 11 17 0 0 0

ECMWFFLT1_con_mucape_009.txt.gz
CAPE
0 0 0 0 0 0 0 0 0 0 0 0 0 0 0 0 0 0 0 1 0 0 0 0 0 19 74 110 261 377 278 289 433 406 393 343 233 316 462 290 79 123 15 55 20 13 20 60 88 47 30 21 30 24 4 0 0 0 0 0 0 0 0
0 0 0 0 0 0 0 0 0 0 0 0 0 0 0 0 0 0 0 0 0 0 0 0 0 0 2 80 106 226 460 902 780 836 679 499 451 440 595 372 407 370 139 3 8 2 9 22 47 143 84 47 45 48 2 0 0 0 0 0 0 0 0
0 0 0 0 0 0 0 0 0 0 0 0 0 0 0 0 0 1 0 0 0 0 0 0 0 0 3 15 76 145 313 656 851 949 743 628 698 810 788 513 329 174 18 0 0 1 6 13 3 38 228 53 51 33 26 10 0 0 0 0 0 0 0
0 0 0 0 0 0 0 0 0 0 0 0 0 0 0 0 0 0 0 0 1 2 0 0 0 0 0 0 2 51 256 378 576 662 779 729 778 806 1045 1188 374 14 1 11 1 1 5 12 19 12 8 12 47 64 28 9 16 0 0 2 2 0 0
0 0 0 0 0 0 0 0 0 0 0 0 0 0 0 0 0 0 0 0 0 1 0 0 0 0 1 0 0 2 37 220 407 579 669 623 690 554 739 964 731 458 337 54 11 26 3 13 40 8 12 10 8 18 13 42 0 1 2 1 2 0 0
0 0 0 0 0 0 0 0 0 0 0 0 0 0 0 0 0 0 0 0 0 0 2 2 2 1 2 6 5 3 5 40 322 474 633 510 465 534 461 658 800 639 616 529 310 275 760 544 152 223 4 3 15 27 7 16 0 0 0 5 2 2 0
0 0 0 0 0 0 0 0 0 0 0 0 0 0 0 0 0 0 0 0 0 0 0 0 0 0 1 2 3 1 0 4 42 319 652 341 390 337 474 442 497 187 404 548 469 343 278 400 429 275 105 34 8 21 18 8 27 0 0 2 4 2 2
0 0 0 0 0 0 0 0 0 0 0 0 0 0 0 0 0 0 0 0 0 0 0 0 0 1 2 0 0 0 2 0 1 24 202 395 313 272 158 174 370 459 419 602 482 230 135 79 253 320 244 2 13 26 69 18 23 7 0 0 2 4 4
0 0 0 0 0 0 0 0 0 0 0 0 0 0 0 0 0 0 0 0 0 0 0 0 0 0 1 2 0 2 0 0 1 0 28 220 465 480 333 297 132 81 173 329 454 493 441 411 525 638 481 239 36 38 19 31 19 10 2 0 3 3 4
0 0 0 0 0 0 0 0 0 0 0 0 0 0 0 0 0 0 0 0 0 0 0 0 0 0 2 3 1 2 1 0 1 0 2 23 88 439 604 459 404 148 170 252 233 312 352 371 515 471 436 371 323 84 3 18 3 8 7 0 0 2 4
0 0 0 0 0 0 0 0 0 0 0 0 0 0 0 0 0 0 0 0 0 0 0 0 1 0 4 3 2 2 2 2 2 5 3 1 8 49 113 112 252 227 160 200 197 204 244 294 409 580 602 556 393 207 113 10 3 2 14 12 1 2 7
0 0 0 0 0 0 0 0 0 0 0 0 0 0 0 0 0 0 0 0 1 0 0 0 1 7 5 2 2 2 3 4 4 6 5 7 7 7 30 119 174 201 136 215 176 263 177 149 172 334 354 326 166 110 160 186 56 11 16 45 2 1 1
0 0 0 0 0 0 0 0 0 0 0 0 0 0 0 0 0 0 0 0 0 0 0 0 0 4 8 7 5 2 3 3 6 8 5 4 2 7 12 34 131 166 179 203 161 141 279 191 89 84 140 163 110 162 178 184 109 36 63 12 1 0 0
0 0 0 0 0 0 0 0 0 0 0 0 0 0 0 0 0 0 0 0 0 0 0 0 0 0 5 8 7 11 5 2 2 7 5 6 7 4 6 5 13 94 242 255 188 112 94 221 142 64 82 117 140 155 120 102 85 1 2 26 17 0 1
0 0 0 0 0 0 0 0 0 0 0 0 0 0 0 0 0 0 0 0 0 0 0 0 0 0 1 3 6 10 10 8 6 4 8 6 8 7 2 7 0 2 37 148 258 189 130 163 348 242 112 85 73 111 140 120 68 58 47 67 18 23 0
0 0 0 0 0 0 0 0 0 0 0 0 0 0 0 0 0 0 0 0 0 0 0 0 0 0 0 1 2 4 8 8 6 6 6 7 4 6 6 4 3 3 7 32 115 281 327 312 271 285 267 160 86 44 131 244 141 59 29 52 90 3 1
0 0 0 0 0 0 0 0 0 0 0 0 0 0 0 0 0 0 0 0 0 0 0 0 0 0 0 1 0 2 1 5 6 7 6 4 7 8 7 5 7 10 3 5 43 225 360 275 214 223 236 332 260 175 181 352 327 178 197 94 245 22 5
0 0 0 0 0 0 0 0 0 0 0 0 0 0 0 0 0 0 0 0 0 0 0 0 0 0 0 2 1 4 2 2 3 3 4 6 5 8 13 11 8 13 11 7 13 64 131 242 304 329 336 376 434 409 399 362 356 294 150 178 348 85 7
0 0 0 0 0 0 0 0 0 0 0 0 0 0 0 0 3 2 1 1 1 0 2 3 1 0 2 0 3 4 6 4 2 2 2 3 4 9 11 12 9 16 10 6 6 15 57 234 398 437 291 194 173 340 368 344 321 301 200 222 107 89 1
0 0 0 0 0 0 0 0 0 0 0 0 0 0 0 1 3 4 4 3 2 1 1 2 2 4 1 0 1 0 1 3 2 3 2 1 2 2 5 10 14 10 15 13 17 25 31 98 544 787 384 299 360 464 375 409 257 262 200 155 184 63 10
0 0 0 0 0 0 0 0 0 0 0 0 0 0 0 1 3 4 4 4 2 3 3 2 1 0 0 2 0 1 0 0 3 3 3 2 1 1 2 2 7 14 12 13 13 16 44 51 88 360 361 545 623 379 137 186 324 238 194 120 13 12 6
0 0 0 0 0 0 0 0 0 0 0 0 0 0 3 4 1 4 3 1 1 3 2 2 2 0 0 0 2 2 1 2 1 4 5 6 6 5 2 4 0 5 14 5 0 1 10 15 130 202 306 626 738 316 264 348 502 333 199 94 12 20 14
0 0 0 0 0 0 0 0 0 0 0 0 1 2 3 4 1 2 1 0 3 4 3 3 2 0 0 0 0 0 4 4 4 4 5 8 6 8 4 8 10 1 0 3 0 0 0 0 0 58 230 444 646 445 219 278 665 592 341 98 34 36 2
0 0 0 0 0 0 0 0 0 0 0 0 5 6 6 6 0 4 2 3 5 4 3 2 0 0 0 0 0 1 1 0 2 6 12 6 12 7 10 4 8 7 0 0 0 0 0 0 0 0 0 8 378 530 230 267 766 411 249 165 79 12 2
0 0 0 0 0 0 0 0 0 0 0 2 5 3 4 4 3 3 6 5 5 4 4 0 0 0 0 0 0 0 1 3 4 2 4 6 8 11 11 9 6 12 14 11 16 12 1 0 0 0 0 0 50 128 294 504 817 421 290 200 192 36 2
0 0 0 0 0 0 0 0 0 0 0 5 5 5 5 1 1 0 0 0 0 4 4 0 0 0 0 0 0 0 0 0 0 4 3 7 6 7 14 15 10 8 13 2 8 24 25 12 0 0 0 0 81 6 0 152 430 504 397 186 133 26 0
0 0 0 0 0 0 0 0 0 0 1 1 0 3 2 6 2 3 2 4 4 2 2 0 0 0 0 0 1 2 2 1 3 3 4 5 7 9 9 12 13 9 6 14 21 18 27 20 46 33 0 0 4 66 0 6 218 90 321 349 240 41 6
0 0 0 0 0 0 0 0 0 0 1 0 4 0 0 4 1 1 5 5 4 5 3 0 0 0 0 0 0 0 0 0 1 8 4 7 7 6 10 9 10 12 10 8 19 27 36 30 28 51 111 48 60 216 57 7 140 179 224 202 236 40 16
0 0 0 0 0 0 0 0 0 2 0 0 0 0 0 2 0 0 1 0 5 2 2 0 0 0 0 0 0 0 1 0 4 5 7 6 3 10 9 8 9 6 10 0 0 6 20 31 52 52 72 207 150 200 307 113 13 110 197 183 224 75 0
0 0 0 0 0 0 0 0 1 0 1 0 0 3 0 0 0 0 0 0 4 4 0 0 0 0 1 1 2 0 0 0 0 1 10 2 13 4 14 12 10 8 6 2 0 0 8 22 56 53 55 121 228 238 317 55 0 0 102 120 191 45 15
0 0 0 0 0 0 0 0 1 1 1 0 0 0 0 2 3 1 3 3 0 1 2 1 0 1 2 1 0 0 7 0 0 0 9 6 11 10 11 11 15 10 8 5 0 0 0 6 26 59 74 104 275 227 238 0 0 0 0 115 84 130 8
0 0 0 0 0 0 0 0 1 1 1 0 1 0 3 2 2 3 2 0 3 0 2 1 0 1 1 1 0 4 5 6 3 3 6 9 1 11 12 12 10 7 5 4 0 0 0 4 9 54 96 82 136 180 147 0 0 0 6 0 72 131 14
0 0 0 0 0 0 0 0 0 1 0 0 0 1 1 0 0 4 1 3 2 4 2 3 0 1 1 2 2 0 2 5 8 4 0 0 2 12 12 13 7 3 0 0 0 0 4 5 5 27 99 114 83 172 60 0 0 0 0 0 0 0 8
0 0 0 0 0 0 0 1 1 2 0 2 3 2 0 0 3 0 2 2 4 2 2 0 1 0 1 1 1 0 0 8 12 13 8 1 11 3 13 12 14 6 4 2 0 0 1 7 2 8 121 91 109 174 0 0 1 0 0 0 101 117 59
0 0 0 0 2 0 0 1 0 1 0 3 3 0 3 4 4 3 1 2 2 5 3 0 0 1 1 1 0 0 0 14 14 14 7 8 4 6 13 14 16 5 3 3 0 0 3 3 0 8 15 12 42 78 2 0 0 0 2 0 0 92 127
0 0 0 1 0 0 1 2 0 0 0 0 0 1 0 4 3 4 2 3 2 4 4 0 1 1 0 0 0 0 0 0 1 5 6 8 11 6 16 16 10 6 0 0 0 0 2 7 4 8 0 60 17 36 19 0 0 0 0 0 2 44 6
0 0 0 0 0 0 1 2 0 0 0 1 1 0 2 0 2 2 2 2 1 1 2 0 1 2 1 0 0 0 0 0 0 2 4 4 8 14 16 15 17 8 2 2 0 0 0 11 11 8 18 64 25 18 0 0 0 0 2 4 34 75 0

ECMWFFLT1_con_mucape_012.txt.gz
CAPE
0 0 0 0 0 0 0 0 0 0 0 0 7 0 0 0 0 1 0 1 1 0 0 0 1 3 6 23 177 344 321 327 704 757 643 621 478 527 479 439 305 90 182 32 33 28 23 23 26 43 25 4 0 0 0 0 0 0 0 0 0 0 0
0 0 0 0 0 0 0 0 0 0 0 0 0 0 0 0 0 0 0 0 2 3 0 0 0 0 7 24 44 166 340 482 414 507 628 610 529 422 127 339 289 178 254 223 9 124 2 0 18 20 41 26 36 33 0 0 0 0 0 0 0 0 0
0 0 0 0 0 0 0 0 0 0 0 1 0 0 0 0 0 0 0 0 0 0 0 0 0 0 0 0 0 3 134 294 421 428 485 563 548 398 273 269 12 247 234 201 182 76 18 0 0 0 51 32 42 40 92 18 0 0 0 0 0 0 0
0 0 0 0 0 0 0 0 0 0 0 0 0 0 0 0 0 0 0 0 0 0 0 0 0 0 0 1 3 8 4 9 63 275 395 470 464 366 292 275 375 413 66 256 14 17 0 0 32 6 2 9 15 3 24 66 0 0 0 0 0 0 0
0 0 0 0 0 0 0 0 0 0 0 0 0 0 0 0 0 0 0 0 0 0 0 0 0 0 0 1 1 1 0 2 38 170 404 508 555 524 417 453 481 414 341 243 134 8 1 0 1 165 104 166 64 7 8 3 22 0 0 0 0 0 0
0 0 0 0 0 0 0 0 0 0 0 0 0 0 0 0 0 0 0 0 0 0 0 0 0 0 0 0 0 0 1 2 10 56 239 446 391 461 508 485 526 408 355 281 95 26 12 432 232 52 175 326 164 121 98 0 0 0 3 0 0 0 0
0 0 0 0 0 0 0 0 0 0 0 0 0 0 0 0 0 0 0 0 0 0 0 0 0 0 0 0 0 0 0 0 1 1 5 192 383 273 303 447 591 532 548 401 369 193 241 587 419 294 354 493 252 180 128 44 2 0 0 0 0 0 0
0 0 0 0 0 0 0 0 0 0 0 0 0 0 0 0 0 0 0 0 0 0 0 0 0 0 0 0 0 0 0 0 0 0 0 2 50 246 292 247 373 433 433 389 464 471 341 361 392 363 366 176 70 92 128 112 61 6 0 0 0 0 0
0 0 0 0 0 0 0 0 0 0 0 0 0 0 0 0 0 0 0 0 0 0 0 0 0 0 0 0 0 0 0 0 0 0 0 0 5 84 258 270 190 254 295 362 387 380 354 403 395 322 272 181 49 8 65 89 140 29 0 1 1 0 0
0 0 0 0 0 0 0 0 0 0 0 0 0 0 0 0 0 0 0 0 0 0 0 0 1 1 0 0 0 0 0 0 0 0 0 0 0 0 89 342 270 210 219 200 251 285 233 277 337 280 204 138 81 10 0 10 39 54 37 24 0 2 0
0 0 0 0 0 0 0 0 0 0 0 0 0 0 0 0 0 0 0 0 0 0 0 0 0 0 0 0 0 0 2 3 1 0 0 0 0 0 0 54 257 228 172 205 181 178 274 286 326 295 298 299 205 76 10 2 5 64 70 28 3 2 47
0 0 0 0 0 0 0 0 0 0 0 0 0 0 0 0 0 0 0 0 0 0 0 0 0 1 2 2 2 0 0 1 3 2 1 1 0 0 0 0 29 185 290 263 212 128 223 320 340 263 238 274 334 235 126 48 3 5 72 37 46 35 60
0 0 0 0 0 0 0 0 0 0 0 0 0 0 0 0 0 0 0 0 0 0 0 0 0 0 0 2 2 0 0 0 0 2 0 0 0 1 2 0 0 5 87 174 203 204 179 204 272 231 219 278 314 298 218 76 18 0 70 81 38 16 42
0 0 0 0 0 0 0 0 0 0 0 0 0 0 0 0 0 0 0 0 0 0 0 0 0 1 0 0 1 4 2 0 0 1 6 4 0 0 2 1 0 1 11 46 119 211 234 230 232 256 202 185 202 260 237 152 39 8 33 84 64 61 50
0 0 0 0 0 0 0 0 0 0 0 0 0 0 0 0 0 0 0 0 0 0 0 0 0 0 0 0 0 4 8 8 3 0 1 4 3 0 1 3 3 1 1 26 52 92 154 238 228 203 201 230 182 163 192 150 94 46 15 80 49 99 32
0 0 0 0 0 0 0 0 0 0 0 0 0 0 0 0 0 0 0 0 0 0 0 0 0 0 1 0 0 0 1 4 7 6 2 0 0 0 0 1 4 8 10 6 11 57 108 170 206 221 251 266 204 165 155 145 105 61 18 23 36 75 34
0 0 0 0 0 0 0 0 0 0 0 0 0 0 0 0 0 0 0 0 0 0 0 0 0 0 0 0 0 0 0 0 1 7 9 4 0 0 0 0 0 4 10 16 14 12 57 144 160 141 178 259 214 173 152 128 58 20 10 10 11 54 16
0 0 0 0 0 0 0 0 0 0 0 0 0 0 0 0 0 0 0 0 0 0 0 0 0 0 0 0 0 0 0 0 0 0 2 8 7 1 0 0 0 2 6 7 8 22 19 27 76 157 173 181 212 175 175 160 124 60 5 4 10 77 44
0 0 0 0 0 0 0 0 0 0 0 0 0 0 0 0 0 0 0 0 0 0 0 0 0 0 0 0 0 0 0 0 0 0 0 0 2 5 2 0 0 0 1 4 5 6 27 37 33 55 130 232 256 253 249 207 170 110 16 2 3 75 56
0 0 0 0 0 0 0 0 0 0 0 0 0 0 0 0 0 0 0 0 0 0 0 0 0 0 0 0 0 0 0 0 0 1 2 0 0 0 3 3 0 0 0 2 2 0 3 18 52 49 55 115 164 219 231 286 248 197 154 123 35 49 46
0 0 0 0 0 0 0 0 0 0 0 0 0 0 0 0 0 0 0 0 0 0 0 0 0 0 1 1 1 1 1 0 0 0 0 2 4 2 1 4 2 0 0 0 1 6 0 0 6 36 44 77 161 199 229 267 281 283 281 232 147 91 6
0 0 0 0 0 0 0 0 0 0 0 0 0 0 0 0 0 0 0 0 2 2 2 3 3 2 2 1 2 4 4 3 2 0 0 0 0 1 2 2 2 3 0 0 0 0 3 3 6 7 15 36 108 224 264 311 300 292 322 322 255 176 136
0 0 0 0 0 0 0 0 0 0 0 0 0 0 0 0 0 0 0 0 0 0 0 3 4 0 0 0 0 0 0 0 0 0 0 1 1 1 0 0 2 5 5 1 0 0 0 0 0 0 0 0 14 160 209 226 301 307 293 284 275 273 191
0 0 0 0 0 0 0 0 0 0 0 0 0 0 0 0 0 0 0 0 0 1 3 3 0 0 0 0 0 0 0 0 0 0 0 0 0 0 0 0 0 0 0 0 0 0 0 0 0 0 0 0 0 0 11 126 237 176 291 260 326 382 273
0 0 0 0 0 0 0 0 0 0 0 0 0 0 0 0 0 0 0 0 1 1 2 1 0 0 0 0 0 0 0 0 0 0 0 0 0 0 0 0 0 0 0 1 4 2 0 0 0 0 0 0 0 0 0 0 12 141 314 295 214 208 246
0 0 0 0 0 0 0 0 0 0 0 0 0 0 0 0 0 0 0 0 0 1 1 0 0 0 0 0 0 0 0 0 1 0 0 0 0 0 0 0 0 0 0 0 0 0 0 0 0 0 0 0 0 0 0 0 3 17 190 384 290 226 197
0 0 0 0 0 0 0 0 0 0 0 0 0 0 0 0 0 0 0 1 2 1 1 2 0 0 0 0 0 0 0 0 0 0 0 1 2 2 1 2 0 0 0 0 0 0 2 3 0 6 11 3 0 0 0 0 0 12 9 196 213 92 269
0 0 0 0 0 0 0 0 0 0 0 0 0 0 0 0 0 0 1 2 1 1 1 0 0 0 0 0 0 0 0 0 0 0 0 0 0 0 0 2 2 3 3 1 0 0 0 4 5 11 13 26 15 1 0 0 0 0 0 10 143 138 209
0 0 0 0 0 0 0 0 0 0 0 0 0 0 0 0 0 0 0 0 1 1 1 0 0 1 1 1 1 2 1 0 0 0 0 0 1 0 1 0 1 1 2 8 5 1 0 0 0 0 0 1 9 33 22 0 0 0 0 0 5 98 231
0 0 0 0 0 0 0 0 0 0 0 0 0 0 0 0 0 0 0 0 2 1 0 1 1 1 1 1 1 0 0 0 1 1 0 0 1 1 0 1 0 2 1 2 3 2 1 0 0 0 0 0 3 3 28 44 15 0 0 0 0 64 208
0 0 0 0 0 0 0 0 0 0 0 0 0 0 0 0 0 0 0 0 0 1 1 0 0 0 1 0 0 0 0 1 1 1 1 1 4 5 4 3 3 1 2 3 2 1 5 1 0 0 0 0 2 4 0 30 116 119 73 74 24 0 278
0 0 0 0 0 0 0 0 0 0 0 0 0 0 0 0 0 0 0 0 2 0 2 1 1 0 0 1 1 2 2 2 3 2 3 4 2 2 2 1 1 1 2 2 2 1 1 6 1 0 0 0 4 5 0 5 81 107 154 186 153 33 230
0 0 0 0 0 0 0 0 0 0 0 0 0 0 0 0 0 0 1 1 1 2 1 1 2 0 0 0 0 0 1 1 1 1 1 4 2 1 3 2 2 1 1 2 1 0 1 4 4 0 0 0 4 3 0 14 56 80 109 178 194 162 234
0 0 0 0 0 0 0 0 0 0 0 0 0 0 0 0 1 1 0 0 0 0 0 0 0 0 0 0 0 0 1 3 0 0 0 0 2 2 3 3 2 1 1 0 2 0 1 1 0 0 0 0 0 3 5 0 19 82 114 146 201 194 182
0 0 0 0 0 0 0 0 0 0 0 0 0 0 0 0 1 1 0 0 0 0 0 0 0 0 0 0 0 0 0 2 0 1 1 2 2 2 1 2 1 1 1 1 0 4 0 2 0 0 0 0 0 6 7 0 6 1 101 143 127 150 142
0 0 0 0 0 0 0 0 0 0 0 0 0 0 0 1 2 3 2 1 0 0 0 0 0 0 0 0 0 0 0 0 0 4 2 3 2 1 6 1 6 5 1 1 0 0 0 1 2 1 0 0 0 4 11 4 5 14 6 40 74 3 148
0 0 0 0 0 0 0 0 0 0 0 0 0 0 0 2 4 4 1 0 0 0 0 0 0 0 0 0 0 0 0 0 0 0 0 0 1 1 0 1 3 3 2 3 0 0 0 2 4 1 0 0 0 2 20 23 20 13 7 4 1 125 64

ECMWFFLT1_con_mucape_015.txt.gz
CAPE
0 0 0 0 0 0 0 0 0 0 0 0 0 0 0 0 0 0 0 0 0 0 0 0 0 0 0 0 0 2 22 49 191 353 282 425 447 446 530 555 615 568 494 438 5 140 97 2 0 0 0 0 0 0 0 0 0 0 0 0 0 0 0
0 0 0 0 0 0 0 0 0 0 0 0 0 0 0 0 0 0 0 0 0 0 0 0 0 0 0 0 0 0 0 1 50 264 432 460 474 474 441 429 418 401 442 358 360 74 97 56 11 0 0 0 0 0 0 0 0 0 0 0 0 0 0
0 0 0 0 0 0 0 0 0 0 0 0 0 0 0 0 0 0 0 0 0 0 0 0 0 0 0 0 0 0 0 0 0 12 116 288 406 481 467 448 383 321 238 352 306 385 256 63 60 4 0 5 22 24 0 0 0 0 0 0 0 0 0
0 0 0 0 0 0 0 0 0 0 0 0 0 0 0 0 0 0 0 0 0 0 0 0 0 0 0 0 0 0 0 0 0 0 1 21 100 202 326 414 403 296 16 22 79 238 277 303 70 1 0 0 5 0 0 0 0 0 0 0 0 0 0
0 0 0 0 0 0 0 0 0 0 0 0 0 0 0 0 0 0 0 0 0 0 0 0 0 0 0 0 0 0 0 0 0 0 0 0 17 121 225 283 328 349 300 66 33 18 13 10 24 0 0 0 0 0 13 1 0 0 0 0 0 0 0
0 0 0 0 0 0 0 0 0 0 0 0 0 0 0 0 0 0 0 0 0 0 0 0 0 0 0 0 0 0 0 0 0 0 0 0 0 70 203 288 301 277 334 284 63 48 7 0 0 0 0 0 11 36 102 1 0 0 0 0 0 0 0
0 0 0 0 0 0 0 0 0 0 0 0 0 0 0 0 0 0 0 0 0 0 0 0 0 0 0 0 0 0 0 0 0 0 0 0 0 0 50 152 226 212 261 321 285 265 27 1 76 0 0 0 78 2 54 70 12 0 0 0 0 2 0
0 0 0 0 0 0 0 0 0 0 0 0 0 0 0 0 0 0 0 0 0 0 0 0 0 0 0 0 0 0 0 0 0 0 0 0 0 0 0 34 130 166 159 111 133 270 321 184 64 43 21 69 60 133 103 92 119 2 0 0 0 4 5
0 0 0 0 0 0 0 0 0 0 0 0 0 0 0 0 0 0 0 0 0 0 0 0 0 0 0 0 0 0 0 0 0 0 0 0 0 0 0 0 35 122 192 179 178 191 291 274 263 210 153 103 60 46 32 36 28 16 9 18 15 9 0
0 0 0 0 0 0 0 0 0 0 0 0 0 0 0 0 0 0 0 0 0 0 0 0 0 0 0 0 0 0 0 0 0 0 0 0 0 0 0 0 1 33 103 165 173 167 162 210 201 150 140 141 120 79 46 30 0 12 10 24 39 9 10
0 0 0 0 0 0 0 0 0 0 0 0 0 0 0 0 0 0 0 0 0 0 0 0 0 0 0 0 0 0 0 0 0 0 0 0 0 0 0 0 0 3 34 125 172 193 220 228 209 210 192 162 183 110 81 52 14 0 16 62 28 12 48
0 0 0 0 0 0 0 0 0 0 0 0 0 0 0 0 0 0 0 0 0 0 0 0 0 0 0 0 0 0 0 0 0 0 0 0 0 0 0 0 0 0 11 97 165 201 211 214 227 217 146 203 217 203 141 88 64 0 4 8 28 76 111
0 0 0 0 0 0 0 0 0 0 0 0 0 0 0 0 0 0 0 0 0 0 0 0 0 0 0 0 0 0 0 0 0 0 0 0 0 0 0 0 0 0 0 22 100 157 180 181 183 189 194 206 246 211 236 179 114 21 2 66 59 68 97
0 0 0 0 0 0 0 0 0 0 0 0 0 0 0 0 0 0 0 0 0 0 0 0 0 0 0 0 0 0 0 0 0 0 1 0 0 0 0 0 0 0 0 2 24 92 160 192 196 179 176 171 178 208 232 204 176 113 23 29 92 72 94
0 0 0 0 0 0 0 0 0 0 0 0 0 0 0 0 0 0 0 0 0 0 0 0 0 0 0 0 0 0 0 0 0 0 4 3 0 0 0 0 0 0 0 0 0 18 81 158 198 194 179 181 174 170 225 282 234 200 79 100 104 105 74
0 0 0 0 0 0 0 0 0 0 0 0 0 0 0 0 0 0 0 0 0 0 0 0 0 0 0 0 0 0 0 0 0 0 0 0 0 1 0 0 0 0 0 0 0 0 15 81 174 227 239 257 256 232 236 276 316 281 213 145 107 118 110
0 0 0 0 0 0 0 0 0 0 0 0 0 0 0 0 0 0 0 0 0 0 0 0 0 0 0 0 0 0 0 0 0 0 0 0 0 1 6 6 0 0 0 0 0 0 1 3 45 108 188 254 292 313 317 333 319 301 254 185 136 106 119
0 0 0 0 0 0 0 0 0 0 0 0 0 0 0 0 0 0 0 0 0 0 0 0 0 0 0 0 0 0 0 0 0 0 0 0 0 0 0 2 5 5 2 0 0 0 0 2 2 33 89 113 170 251 308 316 325 324 282 230 168 146 152
0 0 0 0 0 0 0 0 0 0 0 0 0 0 0 0 0 0 0 0 0 0 0 0 0 0 0 0 0 0 0 0 0 0 0 0 0 0 0 0 0 0 0 0 0 0 0 7 3 0 8 50 79 80 191 291 337 314 296 280 242 196 136
0 0 0 0 0 0 0 0 0 0 0 0 0 0 0 0 0 0 0 0 0 0 0 0 0 0 0 0 0 0 0 0 0 0 0 0 0 0 0 0 0 0 0 1 0 0 0 0 2 7 7 11 14 55 54 110 193 268 273 256 228 199 149
0 0 0 0 0 0 0 0 0 0 0 0 0 0 0 0 0 0 0 0 0 0 0 0 0 0 0 0 0 1 0 0 0 0 0 0 0 0 0 0 0 0 0 4 5 2 0 0 0 0 0 7 12 13 12 47 88 154 203 249 219 181 172
0 0 0 0 0 0 0 0 0 0 0 0 0 0 0 0 0 0 0 0 0 0 0 0 0 0 0 0 0 0 0 0 0 0 0 0 0 0 0 0 0 0 0 1 0 1 3 1 0 0 0 0 8 12 11 6 38 60 141 249 276 252 222
0 0 0 0 0 0 0 0 0 0 0 0 0 0 0 0 0 0 0 0 0 0 0 0 0 0 0 0 0 0 0 0 0 0 0 0 0 0 0 0 0 0 0 0 0 0 0 0 0 0 0 0 0 4 7 6 0 21 47 100 241 331 280
0 0 0 0 0 0 0 0 0 0 0 0 0 0 0 0 0 0 0 0 0 0 0 0 0 0 0 0 0 0 0 0 0 0 0 0 0 0 0 0 0 0 0 0 0 0 0 0 0 0 0 0 0 0 0 0 0 0 14 61 132 324 333
0 0 0 0 0 0 0 0 0 0 0 0 0 0 0 0 0 0 0 0 0 0 0 0 0 0 0 0 0 0 0 0 0 0 0 0 0 0 0 0 0 0 0 0 0 0 0 0 0 0 0 0 0 0 0 0 0 0 0 11 57 76 150
0 0 0 0 0 0 0 0 0 0 0 0 0 0 0 0 0 0 0 0 0 0 0 0 0 0 0 0 0 0 0 0 0 0 0 0 0 0 0 0 0 0 0 0 0 0 0 0 0 0 0 0 0 0 0 0 0 0 0 0 8 7 43
0 0 0 0 0 0 0 0 0 0 0 0 0 0 0 0 0 0 0 0 0 0 0 0 0 0 0 0 0 0 0 0 0 0 0 0 0 0 0 0 0 0 0 0 0 0 0 0 0 0 0 0 0 0 0 0 0 0 0 0 3 4 1
0 0 0 0 0 0 0 0 0 0 0 0 0 0 0 0 0 0 0 0 0 0 0 0 0 0 0 0 0 0 0 1 0 0 0 0 0 0 0 0 0 0 0 0 0 0 0 0 0 0 0 0 0 0 0 0 0 0 0 0 0 0 0
0 0 0 0 0 0 0 0 0 0 0 0 0 0 0 0 0 0 0 0 0 0 0 0 0 0 0 0 0 0 0 0 0 0 0 0 0 0 0 0 0 1 4 1 1 1 0 0 0 0 0 0 0 0 0 0 0 0 0 0 0 0 0
0 0 0 0 0 0 0 0 0 0 0 0 0 0 0 0 0 0 0 0 0 0 0 0 0 0 0 0 0 0 0 0 0 0 0 0 0 0 0 1 2 3 5 8 3 3 3 3 1 4 2 1 0 0 0 0 0 0 0 2 1 0 0
0 0 0 0 0 0 0 0 0 0 0 0 0 0 0 0 0 0 0 0 0 0 0 0 0 0 0 0 0 0 0 0 0 1 0 0 1 1 1 10 3 2 5 10 10 3 3 5 4 4 2 2 1 0 0 0 0 0 0 2 7 12 6
0 0 0 0 0 0 0 0 0 0 0 0 0 0 0 0 0 0 0 0 0 0 0 0 0 0 0 0 0 0 0 0 0 0 0 0 0 0 0 4 11 9 1 5 1 0 0 3 8 8 5 4 1 2 0 0 0 0 0 2 14 16 22
0 0 0 0 0 0 0 0 0 0 0 0 0 0 0 0 0 0 0 0 0 0 0 0 0 0 0 0 0 0 0 0 0 0 0 0 0 0 0 1 1 2 3 2 1 0 0 0 1 3 4 5 4 3 3 2 2 1 17 8 7 11 9
0 0 0 0 0 0 0 0 0 0 0 0 0 0 0 0 0 0 0 0 0 0 0 0 0 0 0 0 0 0 0 0 0 0 0 0 0 0 0 2 2 4 5 7 5 2 2 0 0 0 3 4 2 1 2 2 2 2 0 0 4 7 2
0 0 0 0 0 0 0 0 0 0 0 0 0 0 0 0 0 0 0 0 0 0 0 0 0 0 0 1 0 0 0 0 1 1 0 1 0 0 1 2 7 12 2 10 12 7 4 3 2 1 1 2 2 0 0 0 0 0 0 0 4 6 4
0 0 0 0 0 0 0 0 0 0 0 0 0 0 0 0 0 0 0 0 0 0 0 0 0 0 3 3 2 0 0 0 0 0 0 1 0 1 1 1 8 2 4 9 9 8 7 7 6 4 0 0 0 0 0 0 0 0 0 0 1 6 5
0 0 0 0 0 0 0 0 0 0 0 0 0 0 0 0 0 0 0 0 0 0 0 0 2 4 4 4 3 3 3 2 1 1 0 1 1 0 1 0 1 1 2 4 7 6 7 8 5 2 1 0 0 0 0 1 0 0 0 0 0 1 3

ECMWFFLT1_con_mucape_018.txt.gz
CAPE
0 0 0 0 0 0 0 0 0 0 0 0 0 0 0 0 0 0 0 0 0 0 0 0 0 0 0 0 0 0 0 0 0 19 31 72 140 251 411 422 391 380 372 303 217 177 165 104 81 3 0 0 0 0 0 0 0 0 0 0 0 0 0
0 0 0 0 0 0 0 0 0 0 0 0 0 0 0 0 0 0 0 0 0 0 0 0 0 0 0 0 0 0 0 0 0 0 4 8 54 141 268 311 340 352 342 320 232 174 181 262 257 0 3 0 0 0 0 0 0 0 0 0 0 0 0
0 0 0 0 0 0 0 0 0 0 0 0 0 0 0 0 0 0 0 0 0 0 0 0 0 0 0 0 0 0 0 0 0 0 0 0 0 14 85 192 204 197 239 263 202 125 79 68 78 104 185 1 0 0 0 0 0 0 0 0 0 0 0
0 0 0 0 0 0 0 0 0 0 0 0 0 0 0 0 0 0 0 0 0 0 0 0 0 0 0 0 0 0 0 0 0 0 0 0 0 0 1 32 69 98 121 124 127 77 49 20 20 52 59 66 161 2 0 0 0 2 0 0 0 0 0
0 0 0 0 0 0 0 0 0 0 0 0 0 0 0 0 0 0 0 0 0 0 0 0 0 0 0 0 0 0 0 0 0 0 0 0 0 0 0 4 17 55 117 166 180 134 97 68 50 25 24 27 7 0 0 140 44 0 0 0 0 0 0
0 0 0 0 0 0 0 0 0 0 0 0 0 0 0 0 0 0 0 0 0 0 0 0 0 0 0 0 0 0 0 0 0 0 0 0 0 0 0 0 10 22 49 97 137 173 179 154 149 80 0 5 12 0 0 0 74 0 0 37 0 0 21
0 0 0 0 0 0 0 0 0 0 0 0 0 0 0 0 0 0 0 0 0 0 0 0 0 0 0 0 0 0 0 0 0 0 0 0 0 0 0 0 0 2 12 38 85 112 127 132 117 112 143 148 56 6 0 0 0 0 0 0 0 38 38
0 0 0 0 0 0 0 0 0 0 0 0 0 0 0 0 0 0 0 0 0 0 0 0 0 0 0 0 0 0 0 0 0 0 0 0 0 0 0 0 0 0 0 5 41 80 111 130 116 99 105 77 77 36 2 0 0 0 0 0 0 4 0
0 0 0 0 0 0 0 0 0 0 0 0 0 0 0 0 0 0 0 0 0 0 0 0 0 0 0 0 0 0 0 0 0 0 0 0 0 0 0 0 0 0 0 0 25 58 97 129 113 131 119 74 30 30 38 18 0 0 0 0 0 14 1
0 0 0 0 0 0 0 0 0 0 0 0 0 0 0 0 0 0 0 0 0 0 0 0 0 0 0 0 0 0 0 0 0 0 0 0 0 0 0 0 0 0 0 0 5 39 79 114 140 142 130 113 43 31 23 55 51 5 0 0 2 0 32
0 0 0 0 0 0 0 0 0 0 0 0 0 0 0 0 0 0 0 0 0 0 0 0 0 0 0 0 0 0 0 0 0 0 0 0 0 0 0 0 0 0 0 0 0 1 21 52 80 104 119 134 142 110 56 36 30 24 13 0 0 3 20
0 0 0 0 0 0 0 0 0 0 0 0 0 0 0 0 0 0 0 0 0 0 0 0 0 0 0 0 0 0 0 0 0 0 0 0 0 0 0 0 0 0 0 0 0 0 6 32 60 86 123 150 150 143 90 59 46 1 23 25 9 0 38
0 0 0 0 0 0 0 0 0 0 0 0 0 0 0 0 0 0 0 0 0 0 0 0 0 0 0 0 0 0 0 0 0 0 0 0 0 0 0 0 0 0 0 0 0 0 0 2 24 55 100 136 140 131 132 118 95 39 18 58 65 74 71
0 0 0 0 0 0 0 0 0 0 0 0 0 0 0 0 0 0 0 0 0 0 0 0 0 0 0 0 0 0 0 0 0 0 0 0 0 0 0 0 0 0 0 0 0 0 0 0 0 9 40 78 124 146 168 180 163 130 34 28 65 47 67
0 0 0 0 0 0 0 0 0 0 0 0 0 0 0 0 0 0 0 0 0 0 0 0 0 0 0 0 0 0 0 0 0 0 0 0 0 0 0 0 0 0 0 0 0 0 0 0 0 0 0 28 71 118 154 174 140 103 44 10 0 75 115
0 0 0 0 0 0 0 0 0 0 0 0 0 0 0 0 0 0 0 0 0 0 0 0 0 0 0 0 0 0 0 0 0 0 0 0 0 0 0 0 0 0 0 0 0 0 0 0 0 0 0 0 12 46 103 162 177 139 92 27 14 71 101
212 0 0 0 0 0 0 0 0 0 0 0 0 0 0 0 0 0 0 0 0 0 0 0 0 0 0 0 0 0 0 0 0 0 0 0 0 0 0 0 0 0 0 0 0 0 0 0 0 0 0 0 0 4 34 76 150 167 131 67 5 102 123
348 0 0 0 0 0 0 0 0 0 0 0 0 0 0 0 0 0 0 0 0 0 0 0 0 0 0 0 0 0 0 0 0 0 0 0 0 0 0 0 0 0 0 0 0 0 0 0 0 0 0 0 4 1 6 46 74 98 121 123 90 104 138
395 0 0 0 0 0 0 0 0 0 0 0 0 0 0 0 0 0 0 0 0 0 0 0 0 0 0 0 0 0 0 0 0 0 0 0 0 0 0 0 0 0 0 0 0 0 0 0 0 0 0 0 0 0 0 0 13 33 44 26 58 143 142
395 0 0 0 0 0 0 0 0 0 0 0 0 0 0 0 0 0 0 0 0 0 0 0 0 0 0 0 0 0 0 0 0 0 0 0 0 0 0 0 0 0 0 0 0 0 0 0 0 0 0 0 0 0 0 0 0 0 3 11 6 38 136
378 0 0 0 0 0 0 0 0 0 0 0 0 0 0 0 0 0 0 0 0 0 0 0 0 0 0 0 0 0 0 0 0 0 0 0 0 0 0 0 0 0 0 0 0 0 0 0 0 0 0 0 0 0 0 0 0 0 0 0 0 2 24
370 0 0 0 0 0 0 0 0 0 0 0 0 0 0 0 0 0 0 0 0 0 0 0 0 0 0 0 0 0 0 0 0 0 0 0 0 0 0 0 0 0 0 0 0 0 0 0 0 0 0 0 0 0 0 0 0 0 0 1 0 0 1
368 0 0 0 0 0 0 0 0 0 0 0 0 0 0 0 0 0 0 0 0 0 0 0 0 0 0 0 0 0 0 0 0 0 0 0 0 0 0 0 0 0 0 0 0 0 0 0 0 0 0 0 0 0 0 0 0 0 0 0 0 0 0
314 0 0 0 0 0 0 0 0 0 0 0 0 0 0 0 0 0 0 0 0 0 0 0 0 0 0 0 0 0 0 0 0 0 0 0 0 0 0 0 0 0 0 0 0 0 0 0 0 0 0 0 0 0 0 0 0 0 0 0 0 0 0
278 0 0 0 0 0 0 0 0 0 0 0 0 0 0 0 0 0 0 0 0 0 0 0 0 0 0 0 0 0 0 0 0 0 0 0 0 0 0 0 0 0 0 0 0 0 0 0 0 0 0 0 0 0 0 0 0 0 0 0 0 0 0
139 0 0 0 0 0 0 0 0 0 0 0 0 0 0 0 0 0 0 0 0 0 0 0 0 0 0 0 0 0 0 0 0 0 0 0 0 0 0 0 0 0 0 0 0 0 0 0 0 0 0 0 0 0 0 0 0 0 0 0 0 0 0
61 0 0 0 0 0 0 0 0 0 0 0 0 0 0 0 0 0 0 0 0 0 0 0 0 0 0 0 0 0 0 0 0 0 0 0 0 0 0 0 0 0 0 0 0 0 0 0 0 0 0 0 0 0 0 0 0 0 0 0 0 0 0
0 0 0 0 0 0 0 0 0 0 0 0 0 0 0 0 0 0 0 0 0 0 0 0 0 0 0 0 0 0 0 0 0 0 0 0 0 0 0 0 0 0 0 0 0 0 0 0 0 0 0 0 0 0 0 0 0 0 0 0 0 0 0
0 0 0 0 0 0 0 0 0 0 0 0 0 0 0 0 0 0 0 0 0 0 0 0 0 0 0 0 0 0 0 0 0 0 0 0 0 0 0 0 0 0 0 0 0 0 0 0 0 0 0 0 0 0 0 0 0 0 0 0 0 0 0
0 0 0 0 0 0 0 0 0 0 0 0 0 0 0 0 0 0 0 0 0 0 0 0 0 0 0 0 0 0 0 0 0 0 0 0 0 0 0 0 0 0 0 0 0 0 0 0 0 0 0 0 0 0 0 0 0 0 0 0 0 0 0
0 0 0 0 0 0 0 0 0 0 0 0 0 0 0 0 0 0 0 0 0 0 0 0 0 0 0 0 0 0 0 0 0 0 0 0 0 0 0 0 0 0 0 0 0 0 0 0 2 3 1 1 0 2 1 0 0 0 0 0 0 0 0
0 0 0 0 0 0 0 0 0 0 0 0 0 0 0 0 0 0 0 0 0 0 0 0 0 0 0 0 0 0 0 0 0 0 0 0 0 0 0 0 0 0 0 0 0 0 0 0 2 1 2 3 2 1 1 1 0 0 0 0 0 0 0
0 0 0 0 0 0 0 0 0 0 0 0 0 0 0 0 0 0 0 0 0 0 0 0 0 0 0 0 0 0 0 1 1 1 1 2 1 1 1 0 0 0 0 0 0 0 0 0 0 2 3 4 4 3 0 1 6 1 0 6 2 0 0
0 0 0 0 0 0 0 0 0 0 0 0 0 0 0 0 0 0 0 0 0 0 0 0 0 0 0 0 0 0 1 3 5 6 6 5 4 4 4 4 2 1 0 0 0 0 0 0 0 0 3 6 6 6 4 1 2 1 1 2 2 2 4
0 0 0 0 0 0 0 0 0 0 0 0 0 0 0 0 0 0 0 0 0 0 0 0 0 0 0 0 0 2 4 6 8 7 6 5 5 7 6 6 6 5 4 2 2 2 1 1 0 0 0 1 4 7 4 1 1 1 1 2 4 3 0
0 0 0 0 0 0 0 0 0 0 0 0 0 0 0 0 0 0 0 0 0 0 0 0 0 0 0 0 1 4 6 7 8 6 5 5 4 5 6 6 5 3 4 3 2 1 1 1 1 1 1 0 0 1 2 1 0 0 1 2 3 2 0
0 0 0 0 0 0 0 0 0 0 0 0 0 0 0 0 0 0 0 0 0 0 0 0 0 0 0 0 2 6 7 7 6 5 3 3 3 4 5 5 6 6 6 5 4 4 3 3 2 1 1 1 0 2 1 0 0 0 1 2 3 2 1

ECMWFFLT1_con_mucape_021.txt.gz
CAPE
0 0 0 0 0 0 0 0 0 0 0 0 0 0 0 0 0 0 0 0 0 0 0 0 0 0 0 0 0 0 0 0 0 0 0 0 0 0 0 66 182 134 130 142 208 76 18 8 94 86 88 0 0 0 0 0 0 0 0 0 0 0 0
0 0 0 0 0 0 0 0 0 0 0 0 0 0 0 0 0 0 0 0 0 0 0 0 0 0 0 0 0 0 0 0 0 0 0 0 0 0 0 0 13 96 90 115 120 98 52 18 11 4 0 0 36 66 61 59 0 0 0 0 0 0 0
0 0 0 0 0 0 0 0 0 0 0 0 0 0 0 0 0 0 0 0 0 0 0 0 0 0 0 0 0 0 0 0 0 0 0 0 0 0 0 1 2 6 18 131 169 157 118 108 24 6 2 2 0 0 0 0 0 0 0 0 0 0 0
0 0 0 0 0 0 0 0 0 0 0 0 0 0 0 0 0 0 0 0 0 0 0 0 0 0 0 0 0 0 0 0 0 0 0 0 0 0 0 0 0 3 11 8 20 35 50 46 30 33 42 22 17 5 0 21 0 0 0 0 0 0 0
0 0 0 0 0 0 0 0 0 0 0 0 0 0 0 0 0 0 0 0 0 0 0 0 0 0 0 0 0 0 0 0 0 0 0 0 0 0 0 0 0 1 15 22 38 43 35 41 53 39 39 44 30 13 1 0 0 0 0 0 0 0 0
0 0 0 0 0 0 0 0 0 0 0 0 0 0 0 0 0 0 0 0 0 0 0 0 0 0 0 0 0 0 0 0 0 0 0 0 0 0 0 0 0 0 0 2 29 47 54 49 42 21 17 36 36 20 4 0 0 0 0 0 0 0 4
0 0 0 0 0 0 0 0 0 0 0 0 0 0 0 0 0 0 0 0 0 0 0 0 0 0 0 0 0 0 0 0 0 0 0 0 0 0 0 0 0 0 0 0 0 7 22 20 12 20 19 27 26 17 10 5 0 0 0 0 0 0 0
0 0 0 0 0 0 0 0 0 0 0 0 0 0 0 0 0 0 0 0 0 0 0 0 0 0 0 0 0 0 0 0 0 0 0 0 0 0 0 0 0 0 0 0 0 0 3 25 33 31 35 18 6 7 10 3 0 0 0 0 0 0 0
0 0 0 0 0 0 0 0 0 0 0 0 0 0 0 0 0 0 0 0 0 0 0 0 0 0 0 0 0 0 0 0 0 0 0 0 0 0 0 0 0 0 0 0 0 0 0 12 27 35 49 44 24 9 10 8 0 0 0 0 0 0 0
0 0 0 0 0 0 0 0 0 0 0 0 0 0 0 0 0 0 0 0 0 0 0 0 0 0 0 0 0 0 0 0 0 0 0 0 0 0 0 0 0 0 0 0 0 0 0 3 10 22 42 43 50 33 19 18 7 3 0 0 0 0 0
0 0 0 0 0 0 0 0 0 0 0 0 0 0 0 0 0 0 0 0 0 0 0 0 0 0 0 0 0 0 0 0 0 0 0 0 0 0 0 0 0 0 0 0 0 0 0 1 10 12 15 29 51 42 56 39 14 11 1 0 0 0 0
0 0 0 0 0 0 0 0 0 0 0 0 0 0 0 0 0 0 0 0 0 0 0 0 0 0 0 0 0 0 0 0 0 0 0 0 0 0 0 0 0 0 0 0 0 0 0 0 1 7 7 14 24 48 52 65 46 10 8 0 0 0 0
0 0 0 0 0 0 0 0 0 0 0 0 0 0 0 0 0 0 0 0 0 0 0 0 0 0 0 0 0 0 0 0 0 0 0 0 0 0 0 0 0 0 0 0 0 0 0 0 0 0 0 4 10 28 44 30 29 24 7 9 0 0 0
275 0 0 0 0 0 0 0 0 0 0 0 0 0 0 0 0 0 0 0 0 0 0 0 0 0 0 0 0 0 0 0 0 0 0 0 0 0 0 0 0 0 0 0 0 0 0 0 0 0 0 1 10 22 35 31 8 1 0 9 21 12 0
344 233 0 0 0 0 0 0 0 0 0 0 0 0 0 0 0 0 0 0 0 0 0 0 0 0 0 0 0 0 0 0 0 0 0 0 0 0 0 0 0 0 0 0 0 0 0 0 0 0 0 0 0 0 1 24 18 24 5 0 9 10 16
428 354 270 0 0 0 0 0 0 0 0 0 0 0 0 0 0 0 0 0 0 0 0 0 0 0 0 0 0 0 0 0 0 0 0 0 0 0 0 0 0 0 0 0 0 0 0 0 0 0 0 0 0 0 0 11 42 28 9 0 3 20 21
520 473 389 248 0 0 0 0 0 0 0 0 0 0 0 0 0 0 0 0 0 0 0 0 0 0 0 0 0 0 0 0 0 0 0 0 0 0 0 0 0 0 0 0 0 0 0 0 0 0 0 0 0 0 0 2 42 57 36 22 0 8 12
619 580 506 398 88 0 0 0 0 0 0 0 0 0 0 0 0 0 0 0 0 0 0 0 0 0 0 0 0 0 0 0 0 0 0 0 0 0 0 0 0 0 0 0 0 0 0 0 0 0 0 0 0 0 0 0 1 31 47 14 0 0 1
711 670 615 502 371 0 0 0 0 0 0 0 0 0 0 0 0 0 0 0 0 0 0 0 0 0 0 0 0 0 0 0 0 0 0 0 0 0 0 0 0 0 0 0 0 0 0 0 0 0 0 0 0 0 0 0 0 0 0 0 0 0 0
796 752 710 618 466 318 0 0 0 0 0 0 0 0 0 0 0 0 0 0 0 0 0 0 0 0 0 0 0 0 0 0 0 0 0 0 0 0 0 0 0 0 0 0 0 0 0 0 0 0 0 0 0 0 0 0 0 0 0 0 0 0 0
868 844 815 725 575 422 122 0 0 0 0 0 0 0 0 0 0 0 0 0 0 0 0 0 0 0 0 0 0 0 0 0 0 0 0 0 0 0 0 0 0 0 0 0 0 0 0 0 0 0 0 0 0 0 0 0 0 0 0 0 0 0 0
986 935 906 810 662 515 113 0 0 0 0 0 0 0 0 0 0 0 0 0 0 0 0 0 0 0 0 0 0 0 0 0 0 0 0 0 0 0 0 0 0 0 0 0 0 0 0 0 0 0 0 0 0 0 0 0 0 0 0 0 0 0 0
1055 1022 955 822 714 533 74 0 0 0 0 0 0 0 0 0 0 0 0 0 0 0 0 0 0 0 0 0 0 0 0 0 0 0 0 0 0 0 0 0 0 0 0 0 0 0 0 0 0 0 0 0 0 0 0 0 0 0 0 0 0 0 0
650 855 979 835 772 500 55 0 0 0 0 0 0 0 0 0 0 0 0 0 0 0 0 0 0 0 0 0 0 0 0 0 0 0 0 0 0 0 0 0 0 0 0 0 0 0 0 0 0 0 0 0 0 0 0 0 0 0 0 0 0 0 0
416 519 652 685 767 406 38 0 0 0 0 0 0 0 0 0 0 0 0 0 0 0 0 0 0 0 0 0 0 0 0 0 0 0 0 0 0 0 0 0 0 0 0 0 0 0 0 0 0 0 0 0 0 0 0 0 0 0 0 0 0 0 0
127 256 534 634 756 408 5 0 0 0 0 0 0 0 0 0 0 0 0 0 0 0 0 0 0 0 0 0 0 0 0 0 0 0 0 0 0 0 0 0 0 0 0 0 0 0 0 0 0 0 0 0 0 0 0 0 0 0 0 0 0 0 0
78 179 202 352 134 0 2 0 0 0 0 0 0 0 0 0 0 0 0 0 0 0 0 0 0 0 0 0 0 0 0 0 0 0 0 0 0 0 0 0 0 0 0 0 0 0 0 0 0 0 0 0 0 0 0 0 0 0 0 0 0 0 0
0 216 373 15 12 1 0 0 0 0 0 0 0 0 0 0 0 0 0 0 0 0 0 0 0 0 0 0 0 0 0 0 0 0 0 0 0 0 0 0 0 0 0 0 0 0 0 0 0 0 0 0 0 0 0 0 0 0 0 0 0 0 0
218 339 93 0 16 7 40 9 6 0 0 0 0 0 0 0 0 0 0 0 0 0 0 0 0 0 0 0 0 0 0 0 0 0 0 0 0 0 0 0 0 0 0 0 0 0 0 0 0 0 0 0 0 0 0 0 0 0 0 0 0 0 0
306 296 184 63 50 38 31 30 6 1 0 0 0 0 0 0 0 0 0 0 0 0 0 0 0 0 0 0 0 0 0 0 0 0 0 0 0 0 0 0 0 0 0 0 0 0 0 0 0 0 0 0 0 0 0 0 0 0 0 0 0 0 0
214 198 182 112 82 68 43 10 0 0 0 0 0 0 0 0 0 0 0 0 0 0 0 0 0 0 0 0 0 0 0 0 0 0 0 0 0 0 0 0 2 0 0 0 0 0 0 0 0 0 0 0 0 0 0 0 0 0 0 0 0 0 0
20 52 26 27 32 34 17 7 0 0 0 0 0 0 0 0 0 0 0 0 0 0 0 0 0 0 0 0 0 0 0 0 0 0 0 0 0 0 0 1 1 1 0 1 0 0 0 0 0 0 0 0 0 0 0 0 0 0 0 0 0 0 0
46 86 1 1 4 0 0 0 0 0 0 0 0 0 0 0 0 0 0 0 0 0 0 0 0 0 0 0 0 0 0 0 0 0 0 1 2 2 3 5 5 5 4 3 2 1 1 1 1 1 0 0 1 1 2 2 2 2 2 5 2 1 0
127 80 0 0 0 0 0 0 0 0 0 0 0 0 0 0 0 0 0 0 0 0 0 0 0 0 0 0 0 0 0 0 0 1 2 4 6 6 6 6 5 5 3 4 4 5 4 3 2 2 2 2 2 1 1 1 1 1 2 2 2 3 3
3 0 26 57 4 2 0 0 0 0 0 0 0 0 0 0 0 0 0 0 0 0 0 0 0 0 0 0 0 0 0 0 0 2 4 4 6 7 6 6 5 4 4 4 5 5 6 6 6 6 5 6 6 5 5 4 4 2 2 1 4 5 6
0 0 0 0 0 0 0 0 0 0 0 0 0 0 0 0 0 0 0 0 0 0 0 0 0 0 0 0 0 0 0 0 0 2 4 5 5 7 7 7 6 4 6 7 8 9 9 10 11 10 10 10 9 8 7 6 6 5 3 3 2 5 8
0 0 0 0 0 0 0 0 0 0 0 0 0 0 0 0 0 0 0 0 0 0 0 0 0 0 0 0 0 0 0 0 2 4 5 6 6 7 7 7 8 8 10 10 12 12 12 12 10 10 9 9 8 8 6 4 6 6 6 4 4 3 6

ECMWFFLT1_con_mucape_024.txt.gz
CAPE
0 0 0 0 0 0 0 0 0 0 0 0 0 0 0 0 0 0 0 0 0 0 0 0 0 0 0 0 0 0 0 0 0 0 0 0 0 0 0 0 1 35 107 118 113 85 61 49 18 85 121 141 121 64 38 72 0 0 0 0 0 0 0
0 0 0 0 0 0 0 0 0 0 0 0 0 0 0 0 0 0 0 0 0 0 0 0 0 0 0 0 0 0 0 0 0 0 0 0 0 0 0 0 0 0 0 67 135 155 35 1 5 1 1 22 97 122 27 74 78 0 0 0 0 0 0
0 0 0 0 0 0 0 0 0 0 0 0 0 0 0 0 0 0 0 0 0 0 0 0 0 0 0 0 0 0 0 0 0 0 0 0 0 0 0 0 0 0 0 18 11 0 8 55 12 3 6 7 1 0 2 5 24 0 0 0 0 0 0
0 0 0 0 0 0 0 0 0 0 0 0 0 0 0 0 0 0 0 0 0 0 0 0 0 0 0 0 0 0 0 0 0 0 0 0 0 0 0 0 0 0 0 0 2 4 3 4 1 1 1 1 2 0 0 0 0 0 0 0 0 0 0
0 0 0 0 0 0 0 0 0 0 0 0 0 0 0 0 0 0 0 0 0 0 0 0 0 0 0 0 0 0 0 0 0 0 0 0 0 0 0 0 0 0 0 0 0 1 2 1 2 2 2 2 1 0 0 0 0 0 0 0 0 0 0
0 0 0 0 0 0 0 0 0 0 0 0 0 0 0 0 0 0 0 0 0 0 0 0 0 0 0 0 0 0 0 0 0 0 0 0 0 0 0 0 0 0 0 0 0 0 1 4 4 3 1 4 9 0 0 0 0 0 0 0 0 0 0
0 0 0 0 0 0 0 0 0 0 0 0 0 0 0 0 0 0 0 0 0 0 0 0 0 0 0 0 0 0 0 0 0 0 0 0 0 0 0 0 0 0 0 0 0 0 0 2 1 1 2 2 8 2 1 1 0 0 0 0 0 0 0
0 0 0 0 0 0 0 0 0 0 0 0 0 0 0 0 0 0 0 0 0 0 0 0 0 0 0 0 0 0 0 0 0 0 0 0 0 0 0 0 0 0 0 0 0 0 0 6 14 11 12 6 2 1 0 2 0 0 0 0 0 0 0
0 0 0 0 0 0 0 0 0 0 0 0 0 0 0 0 0 0 0 0 0 0 0 0 0 0 0 0 0 0 0 0 0 0 0 0 0 0 0 0 0 0 0 0 0 0 0 6 13 28 22 18 12 6 2 2 0 0 0 0 0 0 0
0 0 0 0 0 0 0 0 0 0 0 0 0 0 0 0 0 0 0 0 0 0 0 0 0 0 0 0 0 0 0 0 0 0 0 0 0 0 0 0 0 0 0 0 0 0 0 0 13 24 45 40 28 15 10 7 2 1 0 0 0 0 0
0 0 0 0 0 0 0 0 0 0 0 0 0 0 0 0 0 0 0 0 0 0 0 0 0 0 0 0 0 0 0 0 0 0 0 0 0 0 0 0 0 0 0 0 0 0 0 0 0 8 26 39 68 34 19 15 2 4 9 5 0 0 0
0 0 0 0 0 0 0 0 0 0 0 0 0 0 0 0 0 0 0 0 0 0 0 0 0 0 0 0 0 0 0 0 0 0 0 0 0 0 0 0 0 0 0 0 0 0 0 0 0 0 0 8 26 58 49 36 8 3 30 33 26 2 1
0 0 0 0 0 0 0 0 0 0 0 0 0 0 0 0 0 0 0 0 0 0 0 0 0 0 0 0 0 0 0 0 0 0 0 0 0 0 0 0 0 0 0 0 0 0 0 0 0 0 0 0 3 16 43 44 18 1 1 0 3 18 14
0 0 0 0 0 0 0 0 0 0 0 0 0 0 0 0 0 0 0 0 0 0 0 0 0 0 0 0 0 0 0 0 0 0 0 0 0 0 0 0 0 0 0 0 0 0 0 0 0 0 0 0 0 5 28 41 23 3 0 3 18 28 34
258 258 0 0 0 0 0 0 0 0 0 0 0 0 0 0 0 0 0 0 0 0 0 0 0 0 0 0 0 0 0 0 0 0 0 0 0 0 0 0 0 0 0 0 0 0 0 0 0 0 0 0 0 0 3 15 17 18 2 0 0 2 31
315 363 324 284 291 280 0 0 0 0 0 0 0 0 0 0 0 0 0 0 0 0 0 0 0 0 0 0 0 0 0 0 0 0 0 0 0 0 0 0 0 0 0 0 0 0 0 0 0 0 0 0 0 0 0 2 16 12 12 1 4 10 23
427 438 406 371 357 362 329 0 0 0 0 0 0 0 0 0 0 0 0 0 0 0 0 0 0 0 0 0 0 0 0 0 0 0 0 0 0 0 0 0 0 0 0 0 0 0 0 0 0 0 0 0 0 0 0 1 3 2 1 2 0 9 8
530 523 507 468 438 419 404 350 184 0 0 0 0 0 0 0 0 0 0 0 0 0 0 0 0 0 0 0 0 0 0 0 0 0 0 0 0 0 0 0 0 0 0 0 0 0 0 0 0 0 0 0 0 0 0 0 0 1 0 0 0 0 0
620 640 637 613 549 494 458 435 370 234 0 0 0 0 0 0 0 0 0 0 0 0 0 0 0 0 0 0 0 0 0 0 0 0 0 0 0 0 0 0 0 0 0 0 0 0 0 0 0 0 0 0 0 0 0 0 0 0 0 0 0 0 0
696 676 693 695 653 589 521 493 463 404 244 0 0 0 0 0 0 0 0 0 0 0 0 0 0 0 0 0 0 0 0 0 0 0 0 0 0 0 0 0 0 0 0 0 0 0 0 0 0 0 0 0 0 0 0 0 0 0 0 0 0 0 0
837 804 777 761 733 678 545 491 538 539 405 182 0 0 0 0 0 0 0 0 0 0 0 0 0 0 0 0 0 0 0 0 0 0 0 0 0 0 0 0 0 0 0 0 0 0 0 0 0 0 0 0 0 0 0 0 0 0 0 0 0 0 0
1051 867 840 825 684 650 478 0 206 329 343 315 122 0 0 0 0 0 0 0 0 0 0 0 0 0 0 0 0 0 0 0 0 0 0 0 0 0 0 0 0 0 0 0 0 0 0 0 0 0 0 0 0 0 0 0 0 0 0 0 0 0 0
1080 1098 973 896 885 756 596 196 91 8 18 110 117 0 0 0 0 0 0 0 0 0 0 0 0 0 0 0 0 0 0 0 0 0 0 0 0 0 0 0 0 0 0 0 0 0 0 0 0 0 0 0 0 0 0 0 0 0 0 0 0 0 0
966 977 1029 1055 1025 985 901 597 353 143 19 0 0 0 0 0 0 0 0 0 0 0 0 0 0 0 0 0 0 0 0 0 0 0 0 0 0 0 0 0 0 0 0 0 0 0 0 0 0 0 0 0 0 0 0 0 0 0 0 1 0 1 1
718 833 933 1005 1062 984 801 629 448 338 22 1 0 0 0 0 0 0 0 0 0 0 0 0 0 0 0 0 0 0 0 0 0 0 0 0 0 0 0 0 0 0 0 0 0 0 0 0 0 0 0 0 0 0 0 0 0 0 1 0 1 2 1
499 628 739 882 979 954 766 506 423 347 213 0 0 0 0 0 0 0 0 0 0 0 0 0 0 0 0 0 0 0 0 0 0 0 0 0 0 0 0 0 0 0 0 0 0 0 0 0 0 0 0 0 0 0 0 0 0 0 0 0 0 0 0
0 415 566 658 749 805 525 407 382 355 224 49 3 0 0 0 0 0 0 0 0 0 0 0 0 0 0 0 0 0 0 0 0 0 0 0 0 0 0 0 0 0 0 0 0 0 0 0 0 0 0 0 0 0 0 0 0 0 0 0 0 0 0
0 0 227 528 644 622 349 297 256 182 57 24 1 0 0 0 0 0 0 0 0 0 0 0 0 0 0 0 0 0 0 0 0 0 0 0 0 0 0 0 0 0 0 0 0 0 0 0 0 0 0 0 0 0 0 0 0 0 0 0 0 0 0
0 0 0 354 476 469 292 185 235 186 59 38 32 18 0 0 0 0 0 0 0 0 0 0 0 0 0 0 0 0 0 0 0 0 0 0 0 0 0 0 0 0 0 0 0 0 0 0 0 0 0 0 0 0 0 0 0 0 0 0 0 0 0
0 0 0 160 325 375 328 273 203 74 17 19 2 0 0 0 3 2 0 0 0 0 0 0 0 0 0 0 0 0 0 0 0 0 0 0 0 0 0 0 0 0 0 0 0 0 0 0 0 0 0 2 1 2 1 2 0 0 0 0 0 0 0
0 0 0 0 244 350 321 224 143 68 25 14 6 6 0 0 0 0 0 0 0 0 0 0 0 0 0 0 0 0 0 0 0 0 0 0 0 0 0 0 4 1 0 1 2 2 2 2 1 1 2 2 1 2 1 1 4 0 1 0 0 0 0
0 2 0 71 212 332 258 152 50 37 19 4 2 2 0 1 1 0 0 0 0 0 0 0 0 0 0 0 0 0 0 0 0 0 0 0 0 0 0 1 2 1 1 1 1 1 2 3 2 1 1 2 2 2 1 2 0 1 3 3 2 0 0
0 0 13 3 207 277 100 95 1 3 0 15 10 6 1 2 2 1 1 0 0 0 0 0 0 0 0 0 0 0 0 0 0 0 0 0 0 0 0 1 1 0 0 0 1 2 4 6 4 2 2 2 1 2 2 1 1 2 1 1 1 2 2
4 13 46 182 190 148 50 12 2 6 1 4 6 3 0 1 1 0 0 0 0 0 0 0 0 0 0 0 0 0 0 0 0 0 0 0 1 1 0 0 1 1 3 4 5 6 8 8 9 8 7 4 2 1 3 4 2 5 2 2 2 2 2
0 76 94 126 139 63 42 10 6 0 0 0 0 0 0 0 0 0 0 0 0 0 0 0 0 0 0 0 0 0 0 0 0 0 0 0 1 1 1 2 2 1 3 5 8 11 12 12 13 11 6 9 8 8 8 6 5 4 4 3 3 3 2
35 60 97 108 39 34 37 14 2 0 0 0 0 0 0 0 0 0 0 0 0 0 0 0 0 0 0 0 0 0 0 0 0 0 0 1 1 1 1 1 2 2 4 7 9 8 8 7 7 6 7 7 8 8 8 6 8 5 4 3 3 3 2
38 18 77 50 11 11 11 8 2 0 0 0 0 0 0 0 0 0 0 0 0 0 0 0 0 0 0 0 0 0 0 0 0 0 1 0 0 2 2 2 3 7 11 10 10 9 7 5 3 1 0 0 0 0 2 6 5 6 4 3 3 3 2

ECMWFFLT1_con_mucape_027.txt.gz
CAPE
6 0 9 13 18 4 0 0 0 0 0 0 0 0 0 0 0 0 0 0 0 0 0 0 0 0 0 0 0 0 0 0 0 0 0 0 2 0 0 4 15 72 218 340 237 162 187 465 647 548 170 188 199 116 156 123 66 175 88 212 146 208 337
2 10 1 0 4 9 0 0 0 0 0 0 0 0 0 0 0 0 0 0 0 0 0 0 0 0 0 0 0 0 0 0 0 0 0 0 0 0 0 0 2 11 60 131 106 88 98 74 184 108 204 310 79 478 362 136 145 184 116 42 52 82 156
0 0 0 5 14 1 0 0 0 0 0 0 0 0 0 0 0 0 0 0 0 0 0 0 0 0 0 0 0 0 0 0 0 0 0 0 0 0 0 0 0 0 0 6 2 1 5 45 10 2 3 0 1 282 35 162 21 68 103 65 200 136 154
6 4 0 2 5 0 2 0 0 0 0 0 0 0 0 0 0 0 0 0 0 0 0 0 0 0 0 0 0 0 0 0 0 0 0 0 0 0 0 0 0 0 0 0 1 0 1 4 1 0 1 0 0 1 4 9 1 0 0 166 153 114 104
16 12 6 2 4 2 4 0 0 0 0 0 0 0 0 0 0 0 0 0 0 0 0 0 0 0 0 0 0 0 0 0 0 0 0 0 0 0 0 0 0 0 0 0 1 3 3 1 3 0 0 0 0 0 0 0 0 0 0 0 0 0 22
33 20 22 18 11 3 0 1 0 0 0 0 0 0 0 0 0 0 0 0 0 0 0 0 0 0 0 0 0 0 0 0 0 0 0 0 0 0 0 0 0 0 0 0 0 2 6 10 8 3 0 0 0 0 0 0 0 0 0 0 0 0 0
22 26 29 14 10 2 0 1 0 0 0 0 0 0 0 0 0 0 0 0 0 0 0 0 0 0 0 0 0 0 0 0 0 0 0 0 0 0 0 0 0 0 0 0 0 0 4 8 6 9 8 3 6 0 0 0 0 0 0 0 0 0 0
32 12 10 12 17 3 0 2 4 4 0 0 0 1 0 0 0 0 0 0 0 0 0 0 0 0 0 0 0 0 0 0 0 0 0 0 0 0 0 0 0 0 0 0 0 0 0 8 14 15 13 4 0 0 0 0 0 0 0 0 0 0 0
4 12 7 0 2 13 3 0 2 2 0 4 3 1 0 0 0 0 0 0 0 0 0 0 0 0 0 0 0 0 0 0 0 0 0 0 0 0 0 0 0 0 0 0 0 0 0 1 5 12 13 12 0 0 0 0 0 0 0 0 0 0 0
2 11 12 7 2 0 2 2 3 1 5 0 0 3 0 0 0 0 0 0 0 0 0 0 0 0 0 0 0 0 0 0 0 0 0 0 0 0 0 0 0 0 0 0 0 0 0 0 0 1 7 10 13 3 0 0 0 0 0 0 0 0 0
2 18 28 21 6 0 0 0 0 0 0 0 0 0 0 0 0 0 0 0 0 0 0 0 0 0 0 0 0 0 0 0 0 0 0 0 0 0 0 0 0 0 0 0 0 0 0 0 0 0 0 1 7 7 4 2 0 0 0 0 0 0 5
0 3 17 16 4 0 0 0 0 0 0 0 0 0 0 0 0 0 0 0 0 0 0 0 0 0 0 0 0 0 0 0 0 0 0 0 0 0 0 0 0 0 0 0 0 0 0 0 0 0 0 0 0 6 4 5 0 0 0 1 4 3 0
0 0 0 7 2 1 1 0 0 0 0 0 0 0 0 0 0 0 0 0 0 0 0 0 0 0 0 0 0 0 0 0 0 0 0 0 0 0 0 0 0 0 0 0 0 0 0 0 0 0 0 0 0 3 7 6 1 0 0 0 0 0 0
0 0 0 0 11 34 33 2 0 0 0 0 0 0 0 0 0 0 0 0 0 0 0 0 0 0 0 0 0 0 0 0 0 0 0 0 0 0 0 0 0 0 0 0 0 0 0 0 0 0 0 0 0 1 3 6 2 0 0 0 0 0 0
204 172 175 134 0 4 12 1 0 0 0 0 0 0 0 0 0 0 0 0 0 0 0 0 0 0 0 0 0 0 0 0 0 0 0 0 0 0 0 0 0 0 0 0 0 0 0 0 0 0 0 0 0 0 7 4 0 0 0 0 0 6 7
232 226 228 232 222 194 10 1 0 0 0 0 0 0 0 0 0 0 0 0 0 0 0 0 0 0 0 0 0 0 0 0 0 0 0 0 0 0 0 0 0 0 0 0 0 0 0 0 0 0 0 0 0 0 0 1 1 1 0 0 1 0 1
239 204 236 282 294 300 286 244 15 0 0 11 2 0 0 0 0 0 0 0 0 0 0 0 0 0 0 0 0 0 0 0 0 0 0 0 0 0 0 0 0 0 0 0 0 0 0 0 0 0 0 0 0 0 0 0 1 0 0 0 0 0 0
467 400 305 234 293 303 326 355 341 292 284 255 244 132 0 0 0 0 0 0 0 0 0 0 0 0 0 0 0 0 0 0 0 0 0 0 0 0 0 0 0 0 0 0 0 0 0 0 0 0 0 0 0 0 0 0 0 0 0 0 0 0 0
572 564 582 574 496 387 362 381 387 376 314 254 303 325 184 6 0 0 0 0 0 0 0 0 0 0 0 0 0 0 0 0 0 0 0 0 0 0 0 0 0 0 0 0 0 0 0 0 0 0 0 0 0 0 0 0 0 0 0 0 0 0 0
713 757 780 752 704 677 616 530 494 450 283 177 48 0 0 182 17 0 0 0 0 0 0 0 0 0 0 0 0 0 0 0 0 0 0 0 0 0 0 0 0 0 0 0 0 0 0 0 0 0 0 0 0 0 0 0 0 0 0 0 0 0 0
596 695 793 907 920 903 826 750 688 593 592 512 28 0 4 0 0 41 0 0 0 0 0 0 0 0 0 0 0 0 0 0 0 0 0 0 0 0 0 0 0 0 0 0 0 0 0 0 0 0 0 0 0 0 0 0 0 0 0 0 0 0 0
562 524 662 720 809 855 878 882 835 734 659 657 413 29 48 3 0 142 0 0 0 0 0 0 0 0 0 0 0 0 0 0 0 0 0 0 0 0 0 0 0 0 0 0 0 0 0 0 0 0 0 0 0 0 0 0 0 0 0 0 0 0 0
440 495 470 614 482 582 704 690 672 657 684 680 536 334 273 101 15 7 2 0 0 0 0 0 0 0 0 0 0 0 0 0 0 0 0 0 0 0 0 0 0 0 0 0 0 0 0 0 0 0 0 0 0 0 0 0 0 0 0 0 0 0 0
215 343 435 496 424 542 515 563 580 581 591 616 584 521 307 0 0 0 0 0 0 0 0 0 0 0 0 0 0 0 0 0 0 0 0 0 0 0 0 0 0 0 0 0 0 0 0 0 0 0 0 0 0 0 0 0 0 0 0 0 0 0 0
68 150 272 334 322 341 354 403 454 572 618 529 496 452 370 123 0 0 0 0 0 0 0 0 0 0 0 0 0 0 0 0 0 0 0 0 0 0 0 0 0 0 0 0 0 0 0 0 0 0 0 0 0 0 0 0 0 0 0 0 0 0 0
6 63 138 173 176 26 277 317 354 522 584 548 435 358 331 311 148 60 4 0 0 0 0 0 0 0 0 0 0 0 0 0 0 0 0 0 0 0 0 0 0 0 0 0 0 0 0 0 0 0 0 0 0 0 0 0 0 0 0 0 0 0 0
0 0 50 62 70 30 0 246 255 355 460 427 361 322 252 275 231 163 67 0 3 0 0 0 0 0 0 0 0 0 0 0 0 0 0 0 0 0 0 0 0 0 0 0 0 0 0 0 0 0 0 0 0 0 0 0 0 0 0 4 1 0 0
0 0 0 0 1 34 0 0 0 203 335 314 310 296 253 242 196 173 141 49 4 9 0 0 0 1 0 0 0 0 0 0 0 0 0 0 0 0 0 0 0 0 0 0 0 0 0 0 0 0 0 0 0 0 0 0 3 6 5 6 4 1 1
0 0 0 0 1 1 0 0 99 248 327 156 0 228 207 204 186 166 98 0 9 15 2 2 6 0 0 0 0 0 0 0 0 0 0 0 0 0 0 0 0 0 0 0 0 0 0 0 1 1 1 0 0 0 0 0 0 1 1 1 1 0 1
0 0 0 0 1 2 0 0 43 0 309 276 180 160 220 196 145 118 26 8 14 12 6 0 0 0 0 0 0 0 0 0 0 0 0 0 0 0 0 0 0 0 0 0 0 0 0 0 0 2 1 2 1 1 1 1 1 0 0 0 0 0 0
0 0 0 0 1 2 0 0 104 121 291 284 226 222 177 104 1 0 1 9 3 17 8 4 0 0 0 0 0 0 0 0 0 0 0 0 0 0 0 0 0 0 0 0 0 0 0 1 0 3 3 3 2 1 0 0 0 2 0 0 0 1 0
0 0 0 0 2 0 1 26 5 254 278 273 253 155 7 1 1 2 0 5 9 8 3 4 2 7 4 0 0 0 0 0 0 0 0 0 0 0 0 0 0 0 0 0 0 0 0 0 5 0 2 3 2 1 1 0 3 1 0 3 2 2 3
0 0 0 0 0 1 1 0 3 222 279 247 110 15 2 3 2 2 3 5 8 8 6 4 7 6 5 1 0 0 0 0 0 0 0 0 0 0 0 0 0 0 0 0 0 0 0 3 1 5 0 0 0 0 3 3 2 0 3 0 1 2 0
0 0 1 0 1 2 2 28 2 195 173 42 71 40 3 1 3 3 4 1 0 0 1 8 3 0 0 0 0 0 0 0 0 0 0 0 0 0 0 0 0 0 0 0 0 0 1 2 3 3 2 2 1 1 0 0 0 3 0 7 2 3 0
1 0 0 0 0 0 16 53 106 190 142 54 13 3 4 0 2 0 0 0 0 0 0 0 0 0 0 0 0 0 0 0 0 0 0 0 0 0 0 1 1 0 0 0 0 0 0 2 3 3 1 0 1 0 1 0 0 1 0 2 1 0 0
0 0 0 2 4 17 15 0 63 56 10 5 3 0 0 1 2 2 1 0 0 0 0 0 0 0 0 0 0 0 0 0 0 0 0 0 0 1 2 0 0 1 0 0 0 1 1 1 2 1 0 0 0 0 0 0 1 1 0 0 0 2 2
0 0 5 13 22 33 8 1 12 16 4 0 1 2 3 0 0 1 2 4 0 0 0 0 0 0 0 0 0 0 0 0 0 0 0 0 1 2 2 0 0 0 0 1 0 1 2 2 2 1 0 1 0 1 0 0 2 1 1 1 1 0 0

ECMWFFLT1_con_mucape_030.txt.gz
CAPE
0 4 14 22 9 0 0 0 3 2 0 0 0 0 0 0 0 0 0 0 0 0 0 0 0 0 0 0 0 0 0 10 47 28 55 61 155 89 102 160 192 201 182 386 280 323 343 540 536 553 363 293 226 514 250 252 241 229 441 746 631 640 819
0 0 0 1 1 1 2 0 0 1 1 0 0 0 0 0 0 0 0 0 0 0 0 0 0 0 0 0 0 0 0 0 0 1 2 4 12 10 41 109 57 77 113 168 118 139 148 213 497 340 290 256 242 742 279 209 188 312 267 217 218 209 255
0 0 0 0 3 3 0 2 1 0 0 0 0 0 0 0 0 0 0 0 0 0 0 0 0 0 0 0 0 0 0 0 0 0 0 0 0 0 0 0 1 0 11 18 56 20 66 101 111 152 232 183 143 570 375 153 423 400 224 368 241 417 401
0 0 0 6 4 7 0 0 0 0 0 0 0 0 0 0 0 0 0 0 0 0 0 0 0 0 0 0 0 0 0 0 0 0 0 0 0 0 0 0 0 0 0 0 0 0 0 2 2 1 2 17 52 109 404 140 307 93 116 282 155 87 275
1 0 1 3 22 12 9 0 0 0 0 0 0 0 0 0 0 0 0 0 0 0 0 0 0 0 0 0 0 0 0 0 0 0 0 0 0 0 0 0 0 0 0 0 0 0 0 0 0 0 0 0 0 0 0 81 52 7 36 52 132 219 172
22 0 0 4 13 2 9 0 0 0 0 0 0 0 0 0 0 0 0 0 0 0 0 0 0 0 0 0 0 0 0 0 0 0 0 0 0 0 0 0 0 0 0 0 0 0 0 0 0 0 0 0 0 0 0 0 0 0 0 0 0 0 4
155 9 4 6 11 0 0 5 2 0 0 0 0 0 0 0 0 0 0 0 0 0 0 0 0 0 0 0 0 0 0 0 0 0 0 0 0 0 0 0 0 0 0 0 0 0 0 0 0 0 0 0 0 0 0 0 0 0 0 0 0 0 0
277 46 7 7 34 6 3 5 0 0 0 0 0 0 4 5 3 2 0 0 0 0 0 0 0 0 0 0 0 0 0 0 0 0 0 0 0 0 0 0 0 0 0 0 0 0 0 0 0 0 0 0 0 0 0 0 0 0 0 0 0 0 0
218 113 26 8 56 26 18 0 0 0 0 0 0 4 13 18 30 18 0 0 0 0 0 0 0 0 0 0 0 0 0 0 0 0 0 0 0 0 0 0 0 0 0 0 0 0 0 0 0 0 0 0 0 0 0 0 0 0 0 0 0 0 0
573 412 210 218 260 168 58 14 0 2 0 0 4 46 16 24 31 23 0 0 0 0 0 0 0 0 0 0 0 0 0 0 0 0 0 0 0 0 0 0 0 0 0 0 0 0 0 0 0 0 0 0 0 0 0 0 0 0 0 0 0 0 0
740 649 586 527 523 302 154 69 7 14 7 8 62 67 13 24 38 7 5 0 0 0 0 0 0 0 0 0 0 0 0 0 0 0 0 0 0 0 0 0 0 0 0 0 0 0 0 0 0 0 0 0 0 0 0 0 0 0 0 0 0 0 0
796 716 677 664 685 475 299 106 75 66 38 19 5 17 30 23 35 12 6 0 0 0 0 0 0 0 0 0 0 0 0 0 0 0 0 0 0 0 0 0 0 0 0 0 0 0 0 0 0 0 0 0 0 0 0 0 0 0 0 0 0 0 0
759 686 687 718 662 605 370 242 179 150 115 52 1 11 11 16 28 12 9 0 0 0 0 0 0 0 0 0 0 0 0 0 0 0 0 0 0 0 0 0 0 0 0 0 0 0 0 0 0 0 0 0 0 0 0 0 0 0 0 0 0 0 0
853 768 733 699 652 577 439 297 260 269 265 210 12 24 3 9 10 12 4 0 0 0 0 0 0 0 0 0 0 0 0 0 0 0 0 0 0 0 0 0 0 0 0 0 0 0 0 0 0 0 0 0 0 0 0 0 0 0 0 0 0 0 0
783 817 811 802 759 574 524 499 481 413 352 369 159 104 6 9 11 13 1 0 0 0 0 0 0 0 0 0 0 0 0 0 0 0 0 0 0 0 0 0 0 0 0 0 0 0 0 0 0 0 0 0 0 0 0 0 0 0 0 0 0 0 0
649 752 782 792 792 722 538 579 625 687 570 479 351 235 68 51 37 22 2 0 0 0 0 0 0 0 0 0 0 0 0 0 0 0 0 0 0 0 0 0 0 0 0 0 0 0 0 0 0 0 0 0 0 0 0 0 0 0 0 0 0 0 0
828 813 839 802 716 746 630 570 614 681 570 491 487 348 157 96 90 43 20 1 0 0 0 0 0 0 0 0 0 0 0 0 0 0 0 0 0 0 0 0 0 0 0 0 0 0 0 0 0 0 0 0 0 0 0 0 0 0 0 0 0 0 0
879 849 947 914 853 863 829 711 637 568 523 429 451 411 210 142 139 71 50 9 0 0 0 0 0 0 0 0 0 0 0 0 0 0 0 0 0 0 0 0 0 0 0 0 0 0 0 0 0 0 0 0 0 0 0 0 0 0 0 0 0 0 0
983 1037 1041 1012 1051 1029 993 1000 884 779 542 455 441 247 265 208 133 121 64 36 7 0 0 0 0 0 0 0 0 0 0 0 0 0 0 0 0 0 0 0 0 0 0 0 0 0 0 0 0 0 0 0 0 0 0 0 0 0 0 0 0 0 0
1145 1015 1006 1010 943 1010 1037 1038 1025 913 677 593 362 422 360 226 179 138 85 51 18 2 0 0 0 0 0 0 0 0 0 0 0 0 0 0 0 0 0 0 0 0 0 0 0 0 0 0 0 0 0 0 0 0 0 0 0 0 0 0 0 0 0
1215 1304 1015 837 686 870 1104 998 994 961 840 658 612 577 510 385 229 192 103 63 25 0 0 0 0 0 0 0 0 0 0 0 0 0 0 0 0 0 0 0 0 0 0 0 0 0 0 0 0 0 0 0 0 0 0 0 0 0 0 0 0 0 0
250 471 776 901 859 896 985 1026 1022 943 731 720 658 714 529 421 300 198 46 32 1 0 0 0 0 0 0 0 0 0 0 0 0 0 0 0 0 0 0 0 0 0 0 0 0 0 0 0 0 0 0 0 0 0 0 0 0 0 0 0 0 0 0
73 196 401 460 671 817 765 846 917 848 643 747 759 722 592 401 355 226 104 18 0 0 0 0 0 0 0 0 0 0 0 0 0 0 0 0 0 0 0 0 0 0 0 0 0 0 0 0 0 0 0 0 0 0 0 0 0 0 0 0 0 0 0
65 83 152 260 475 519 594 690 880 810 616 345 210 510 460 356 302 44 72 57 46 0 0 0 0 0 0 0 0 0 0 0 0 0 0 0 0 0 0 0 0 0 0 0 0 0 0 0 0 0 0 0 0 0 0 0 0 0 0 0 0 0 0
0 11 87 111 213 407 548 536 508 571 503 256 223 392 551 446 362 101 61 17 29 12 1 0 129 118 48 0 0 0 0 0 0 0 0 0 0 0 0 0 0 0 0 0 0 0 0 0 0 0 0 0 0 0 0 0 0 0 0 0 0 0 0
0 0 24 110 217 291 358 512 480 427 400 408 295 266 369 383 168 168 118 36 0 0 0 0 0 48 40 28 19 2 0 0 0 0 0 0 0 0 0 0 0 0 0 0 0 0 0 0 0 0 0 0 0 0 0 0 0 0 0 0 0 0 0
0 0 4 53 177 264 293 362 451 415 336 364 252 327 284 289 281 294 264 106 0 0 0 0 43 34 19 18 17 6 0 0 0 0 0 0 0 0 0 0 0 0 0 0 0 0 0 0 0 0 0 0 0 0 0 0 0 0 0 0 0 0 0
0 0 4 17 86 240 325 440 416 341 217 284 295 217 225 255 315 262 208 106 0 0 8 68 41 22 11 5 0 0 0 0 0 0 0 0 0 0 0 0 0 0 0 0 0 0 0 0 0 0 0 0 0 0 0 0 0 1 0 0 0 0 0
0 0 0 28 86 127 229 405 422 275 164 253 338 317 113 195 275 230 0 0 0 53 69 48 34 2 10 0 0 0 0 1 3 0 0 0 0 0 0 0 0 0 0 0 0 0 0 0 0 0 0 0 0 0 0 0 0 0 2 0 3 2 0
0 0 0 0 24 119 208 265 269 165 131 145 110 81 40 214 175 0 0 0 36 48 39 20 14 4 0 0 0 0 0 0 0 0 0 0 0 0 0 0 0 0 0 0 0 0 0 0 0 0 0 0 0 0 0 0 0 0 0 0 0 0 0
0 0 0 0 12 64 177 189 148 72 100 52 12 88 111 23 0 0 108 94 60 46 37 12 0 0 0 0 6 3 0 0 0 0 0 0 0 0 0 0 0 0 0 0 0 0 0 0 0 0 1 0 0 0 0 0 0 0 0 0 0 0 0
0 0 0 3 30 81 95 97 54 72 39 3 0 114 150 169 0 24 14 36 40 16 3 0 0 0 0 2 3 1 0 0 0 0 0 0 0 0 0 0 0 0 0 0 0 0 0 0 0 2 3 3 1 1 0 2 2 1 1 3 3 2 3
9 15 6 10 24 24 56 0 0 1 0 0 84 156 185 8 4 22 26 0 2 0 1 1 2 3 2 1 0 0 0 0 0 0 0 0 0 0 0 0 0 0 0 0 0 0 0 0 0 2 2 3 3 0 2 4 4 0 0 0 0 0 0
12 12 21 20 8 38 1 0 1 6 4 21 45 54 6 10 78 22 0 2 1 1 3 5 8 3 4 5 0 0 0 0 0 0 0 0 0 0 0 0 0 0 0 0 0 0 0 0 0 2 5 7 3 0 0 2 2 0 2 4 3 3 4
0 0 3 8 23 0 0 1 1 1 2 6 11 21 3 1 0 0 0 7 5 6 4 9 0 5 0 1 0 0 0 0 0 0 0 0 0 0 0 0 0 0 0 0 0 0 0 0 0 1 2 0 0 0 1 1 0 4 0 0 4 4 3
0 2 5 12 3 0 0 2 2 1 2 5 4 5 7 0 1 2 2 2 1 0 0 1 6 1 0 0 0 0 0 0 0 0 0 0 0 0 0 0 0 0 0 0 0 0 0 0 0 0 0 0 0 1 1 0 0 2 1 0 0 3 0
2 7 8 2 2 2 1 2 3 5 5 3 0 4 5 4 2 2 4 6 1 0 0 0 0 0 0 0 0 0 0 0 0 0 0 0 0 0 0 0 0 0 0 0 0 0 0 0 0 0 0 0 0 0 4 6 0 0 0 4 3 3 0

ECMWFFLT1_con_mucape_033.txt.gz
CAPE
8 78 15 43 2 1 12 16 13 12 10 6 2 0 0 0 0 0 0 0 0 0 0 0 0 0 0 0 0 0 0 1 15 44 25 174 94 99 273 318 378 388 334 172 310 457 538 532 542 372 719 718 696 530 603 793 385 505 537 667 475 479 546
42 25 3 1 0 2 19 7 10 2 4 1 0 0 0 0 0 0 0 0 0 0 0 0 0 0 0 0 0 0 0 0 0 1 7 3 4 12 6 25 96 221 360 269 373 264 217 175 644 491 418 710 718 697 531 592 364 383 342 527 443 310 269
4 0 0 0 2 6 29 34 8 9 2 0 0 0 0 0 0 0 0 0 0 0 0 0 0 0 0 0 0 0 0 0 0 0 0 0 0 0 0 0 0 0 1 248 310 268 206 137 138 124 429 254 260 804 968 634 263 239 445 404 139 154 165
0 0 7 1 2 8 5 12 6 3 1 0 0 0 0 0 0 0 0 0 0 0 0 0 0 0 0 0 0 0 0 0 0 0 0 0 0 0 0 0 0 0 0 0 0 2 0 0 0 2 50 87 181 345 959 347 111 64 159 632 542 266 341
21 8 45 1 9 16 7 8 14 3 6 1 0 0 0 0 0 0 0 0 0 0 0 0 0 0 0 0 0 0 0 0 0 0 0 0 0 0 0 0 0 0 0 0 0 0 0 0 0 0 0 0 0 0 0 389 145 26 14 3 48 222 227
83 6 104 17 26 18 12 4 9 6 12 1 2 0 2 0 0 0 0 0 0 0 0 0 0 0 0 0 0 0 0 0 0 0 0 0 0 0 0 0 0 0 0 0 0 0 0 0 0 0 0 0 0 0 0 7 7 2 0 0 0 0 0
35 24 31 33 42 2 30 7 10 3 8 6 5 4 9 0 0 0 0 0 0 0 0 0 0 0 0 0 0 0 0 0 0 0 0 0 0 0 0 0 0 0 0 0 0 0 0 0 0 0 0 0 0 0 0 0 0 0 0 0 0 0 0
144 32 5 10 44 3 13 23 4 1 4 1 0 0 15 0 3 0 0 0 0 0 0 0 0 0 0 0 0 0 0 0 0 0 0 0 0 0 0 0 0 0 0 0 0 0 0 0 0 0 0 0 0 0 0 0 0 0 0 0 0 0 0
221 52 10 4 51 12 4 42 7 0 1 2 4 2 37 4 26 11 0 0 0 0 0 0 0 0 0 0 0 0 0 0 0 0 0 0 0 0 0 0 0 0 0 0 0 0 0 0 0 0 0 0 0 0 0 0 0 0 0 0 0 0 0
438 237 57 26 154 84 33 16 15 0 1 1 4 10 66 10 57 42 1 0 0 0 0 0 0 0 0 0 0 0 0 0 0 0 0 0 0 0 0 0 0 0 0 0 0 0 0 0 0 0 0 0 0 0 0 0 0 0 0 0 0 0 2
568 441 250 137 178 266 89 32 6 2 0 0 7 49 120 9 82 37 8 9 0 0 0 0 0 0 0 0 0 0 0 0 0 0 0 0 0 0 0 0 0 0 0 0 0 0 0 0 0 0 0 0 0 0 0 0 0 0 0 0 0 0 0
798 611 470 382 412 383 261 109 30 15 43 4 14 173 198 28 115 66 9 17 5 0 0 0 0 0 0 0 0 0 0 0 0 0 0 0 0 0 0 0 0 0 0 0 0 0 0 0 0 0 0 0 0 0 0 0 0 0 0 0 0 0 0
775 644 617 534 533 612 435 278 171 94 119 41 54 280 205 49 134 140 25 56 8 0 0 0 0 0 0 0 0 0 0 0 0 0 0 0 0 0 0 0 0 0 0 0 0 0 0 0 0 0 0 0 0 0 0 0 0 0 0 0 0 0 0
885 719 682 619 575 545 599 433 250 246 209 206 130 190 181 103 131 174 96 78 42 0 0 0 0 0 0 0 0 0 0 0 0 0 0 0 0 0 0 0 0 0 0 0 0 0 0 0 0 0 0 0 0 0 0 0 0 0 0 0 0 0 0
808 784 696 689 688 552 600 626 465 312 226 214 222 143 149 144 112 167 132 94 89 35 1 0 0 0 0 0 0 0 0 0 0 0 0 0 0 0 0 0 0 0 0 0 0 0 0 0 0 0 0 0 0 0 0 0 0 0 0 0 0 0 0
520 408 698 706 736 703 652 555 495 377 329 285 273 226 169 140 97 150 171 164 148 100 32 6 2 0 0 0 0 0 0 0 0 0 0 0 0 0 0 0 0 0 0 0 0 0 0 0 0 0 0 0 0 0 0 0 0 0 0 0 0 0 0
917 890 789 790 801 629 619 513 344 468 420 346 309 334 225 104 129 184 181 208 187 144 96 37 19 3 0 0 0 0 0 0 0 0 0 0 0 0 0 0 0 0 0 0 0 0 0 0 0 0 0 0 0 0 0 0 0 0 0 0 0 0 0
1276 1026 1070 967 1144 1094 1141 1167 881 804 652 570 516 423 430 327 232 231 308 246 222 201 155 84 42 18 0 0 0 0 0 0 0 0 0 0 0 0 0 0 0 0 0 0 0 0 0 0 0 0 0 0 0 0 0 0 0 0 0 0 0 0 0
1226 1124 1034 1163 1154 1088 1153 957 646 993 784 870 810 672 513 468 302 266 364 388 310 288 212 152 74 41 9 1 0 0 0 0 0 0 0 0 0 0 0 0 0 0 0 0 0 0 0 0 0 0 0 0 0 0 0 0 0 0 0 0 0 0 0
1041 1162 1221 1199 1277 1263 1229 1176 1022 1083 1007 886 886 878 752 665 623 513 508 496 472 405 322 194 112 68 43 21 5 0 0 0 0 0 0 0 0 0 0 0 0 0 0 0 0 0 0 0 0 0 0 0 0 0 0 0 0 0 0 0 0 0 0
979 1196 1166 1202 1252 1198 1095 1113 1179 1325 1174 1133 1063 857 856 819 604 596 397 514 552 494 404 282 204 101 75 42 3 6 0 0 0 0 0 0 0 0 0 0 0 0 0 0 0 0 0 0 0 0 0 0 0 0 0 0 0 0 0 0 0 0 0
11 41 406 920 860 866 973 1046 998 991 987 1134 1188 1076 746 772 441 393 405 210 196 393 397 231 233 156 153 36 0 1 5 0 0 0 0 0 0 0 0 0 0 0 0 0 0 0 0 0 0 0 0 0 0 0 0 0 0 0 0 0 0 0 0
0 3 35 167 322 651 784 935 1051 1047 1121 1001 1069 850 793 758 486 148 247 228 324 315 709 359 691 146 6 6 1 1 1 1 0 0 0 0 0 0 0 0 0 0 0 0 0 0 0 0 0 0 0 0 0 0 0 0 0 0 0 0 0 0 0
3 1 0 2 47 178 343 536 744 905 1137 1289 1296 1120 964 626 523 516 468 226 531 466 228 229 139 59 91 24 0 2 3 0 0 0 0 0 0 0 0 0 0 0 0 0 0 0 0 0 0 0 0 0 0 0 0 0 0 0 0 0 0 0 0
0 0 0 8 9 11 80 287 400 561 794 1011 1135 945 927 798 562 267 180 84 101 103 38 34 0 17 0 1 0 1 0 3 0 21 1 0 0 0 2 0 0 0 0 0 0 0 0 0 0 0 0 0 0 0 0 0 0 0 0 0 0 0 0
0 0 0 0 6 62 66 64 169 296 391 636 650 709 649 678 454 419 443 393 274 199 188 0 0 0 0 0 0 0 0 1 10 24 4 0 3 0 0 0 0 0 0 0 0 0 0 0 0 0 0 0 0 0 0 0 0 0 0 0 0 0 0
0 0 0 0 0 7 43 69 85 169 227 324 523 425 519 528 564 550 252 248 76 68 252 194 0 0 0 0 1 0 0 0 28 14 0 0 0 0 0 0 0 0 0 0 0 0 0 0 0 0 0 0 0 0 0 0 0 0 0 0 0 0 0
0 0 0 0 3 6 23 94 162 228 259 268 291 350 395 582 555 516 348 254 0 12 121 0 0 0 0 1 1 0 2 0 14 2 0 0 0 0 0 0 0 0 0 0 0 0 0 0 0 0 0 0 0 0 0 0 0 0 0 0 0 0 0
0 0 0 1 4 17 49 91 195 274 256 239 210 219 275 420 567 373 397 0 0 0 0 0 54 130 32 12 0 8 5 8 3 0 0 0 0 0 0 0 0 0 0 0 0 0 0 0 0 0 0 0 0 0 0 0 0 0 0 0 1 1 3
0 0 0 0 0 2 4 42 162 234 247 273 237 183 272 380 424 310 0 0 0 0 0 147 185 170 99 44 30 22 18 11 9 7 3 0 0 0 0 0 0 0 0 0 0 0 0 0 0 0 0 0 0 0 0 0 0 0 0 0 0 0 0
0 5 12 10 21 52 87 100 153 220 207 189 138 98 238 208 110 0 0 0 0 54 91 66 47 48 40 23 25 15 9 9 9 1 0 0 1 0 0 0 0 0 0 0 0 0 0 0 0 0 0 0 0 0 0 0 0 0 0 0 0 0 0
6 17 29 37 33 23 37 117 195 162 180 170 132 118 0 0 29 0 0 0 29 66 47 12 3 5 7 8 4 6 8 2 3 1 2 2 4 2 0 0 0 0 0 0 0 0 0 0 0 0 0 0 0 0 0 0 0 0 0 0 1 4 4
59 82 96 116 119 92 77 115 152 212 235 29 1 0 0 0 3 9 8 7 11 11 6 3 0 3 2 2 0 0 1 6 4 4 6 2 2 1 0 0 0 0 0 0 0 0 0 0 0 0 0 0 0 0 0 1 2 0 0 2 2 2 0
78 108 145 131 140 129 111 120 170 220 105 0 0 0 0 0 0 2 5 7 4 3 2 4 0 4 1 4 6 5 4 5 7 6 2 1 1 0 0 0 0 0 0 0 0 0 0 0 0 0 0 0 0 0 0 0 0 0 0 3 0 4 0
52 73 106 90 69 42 128 131 131 134 15 0 0 1 0 0 3 1 4 9 8 5 2 1 5 6 5 4 3 6 8 9 7 5 2 0 0 0 0 0 0 0 0 0 0 0 0 0 0 0 0 0 0 0 0 2 2 2 0 2 0 0 0
7 24 33 25 16 83 86 96 18 1 0 1 2 3 2 0 1 0 1 8 7 2 4 8 7 4 1 3 2 3 3 2 2 1 0 0 0 0 0 0 0 0 0 0 0 0 0 0 0 0 0 0 0 0 0 1 1 0 0 1 0 1 1
0 4 15 26 65 98 77 6 0 0 0 1 1 0 0 0 0 0 1 0 2 8 9 6 3 1 4 4 0 2 1 0 0 0 0 0 0 0 0 0 0 0 0 0 0 0 0 0 0 0 0 0 0 0 0 0 0 0 0 1 1 2 2

ECMWFFLT1_con_mucape_036.txt.gz
CAPE
569 301 525 436 397 248 200 80 28 64 2 3 52 0 0 0 0 0 0 0 3 0 0 0 0 0 0 3 1 2 1 3 7 86 279 541 283 387 594 333 158 354 234 164 227 278 316 411 724 800 900 740 574 507 466 621 494 522 399 520 531 544 548
381 345 106 3 204 224 68 147 121 0 9 3 0 0 0 0 0 0 0 0 0 0 0 0 0 0 1 1 6 13 3 0 0 0 0 0 0 0 381 616 346 313 299 170 114 249 412 202 393 432 518 915 814 750 551 749 546 502 454 508 623 387 395
185 118 25 116 127 222 138 101 46 194 0 0 0 0 0 0 0 0 0 0 0 0 0 0 0 0 1 0 2 2 4 2 0 0 0 0 0 0 0 0 5 263 424 253 319 272 148 72 41 98 585 204 101 712 939 805 417 310 334 232 358 216 205
193 271 98 115 70 209 149 92 100 89 36 0 0 0 0 0 0 0 0 0 0 0 0 0 0 1 20 26 14 5 4 9 8 8 11 11 0 0 0 0 0 0 0 0 0 0 0 3 6 0 0 9 70 130 955 767 342 97 61 212 523 404 246
189 302 102 154 96 121 168 86 324 98 36 14 5 3 0 0 0 0 0 0 0 0 0 0 0 0 0 0 1 2 1 3 4 0 0 0 2 0 0 0 0 0 0 0 0 0 0 0 0 0 0 0 0 0 30 604 466 127 40 31 141 420 523
314 448 158 266 122 284 133 112 220 101 89 4 13 37 0 0 1 0 2 0 0 0 0 0 0 0 0 0 0 0 0 0 0 0 0 0 0 0 6 0 0 0 0 0 0 0 0 0 0 0 0 0 0 0 0 20 190 203 22 1 0 0 15
537 661 256 325 246 313 177 251 200 223 160 137 100 98 12 5 3 3 5 0 0 0 0 0 0 0 0 0 0 0 0 0 0 0 0 0 0 0 0 0 0 0 0 0 0 0 0 0 0 0 0 0 0 0 0 0 0 0 4 0 0 0 0
687 560 489 426 281 426 324 236 227 334 299 146 100 282 5 87 81 3 1 0 0 0 0 0 0 0 0 0 0 0 0 0 0 0 0 0 0 0 0 0 0 0 0 0 0 0 0 0 0 0 0 0 0 0 0 0 0 0 0 0 0 0 0
339 416 447 443 490 526 604 304 282 280 376 246 149 300 29 117 193 52 23 0 0 0 0 0 0 0 0 2 0 0 0 0 0 0 0 0 0 0 0 0 0 0 0 0 0 0 0 0 0 0 0 0 0 0 0 0 0 0 0 0 0 0 0
457 458 380 582 545 477 697 600 346 254 477 343 300 419 110 166 312 191 16 8 1 0 0 0 0 0 0 2 0 0 0 0 0 0 0 0 0 0 0 0 0 0 0 0 0 0 0 0 0 0 0 0 0 0 0 0 0 0 0 0 0 0 0
851 737 531 832 858 404 552 766 602 295 436 441 398 336 235 177 345 327 157 111 2 0 0 0 0 0 0 0 0 0 0 0 0 0 0 0 0 0 0 0 0 0 0 0 0 0 0 0 0 0 0 0 0 0 0 0 0 0 0 0 0 0 0
1117 1033 818 875 831 669 565 522 544 472 324 399 353 352 432 198 335 276 238 126 68 21 0 0 0 0 0 0 0 0 0 0 0 0 0 0 0 0 0 0 0 0 0 0 0 0 0 0 0 0 0 0 0 0 0 0 0 0 0 0 0 0 0
958 967 944 885 933 871 824 606 634 618 590 379 398 517 438 258 249 319 181 190 174 29 0 0 0 3 0 0 0 0 0 0 0 0 0 0 0 0 0 0 0 0 0 0 0 0 0 0 0 0 0 0 0 0 0 0 0 0 0 0 0 0 0
1260 922 697 698 786 731 662 680 663 701 585 582 355 547 498 380 184 252 186 138 135 86 18 7 0 0 0 1 0 0 0 0 0 0 0 0 0 0 0 0 0 0 0 0 0 0 0 0 0 0 0 0 0 0 0 0 0 0 0 0 0 0 0
807 568 540 1019 835 722 835 721 687 594 546 704 513 442 433 477 319 255 229 135 143 128 65 4 5 0 0 0 0 0 0 0 0 0 0 0 0 0 0 0 0 0 0 0 0 0 0 0 0 0 0 0 0 0 0 0 0 0 0 0 0 0 0
970 834 980 1027 787 370 440 746 736 616 581 421 392 344 350 453 366 251 241 284 186 169 117 42 32 2 0 0 0 0 0 0 0 0 0 0 0 0 0 0 0 0 0 0 0 0 0 0 0 0 0 0 0 0 0 0 0 0 0 0 0 0 0
865 826 856 1149 504 513 871 1107 718 838 878 842 448 422 406 302 300 269 218 263 252 258 200 152 121 30 1 0 0 0 0 0 0 0 0 0 0 0 0 0 0 0 0 0 0 0 0 0 0 0 0 0 0 0 0 0 0 0 0 0 0 0 0
1418 1362 1045 1044 701 438 311 421 663 444 512 550 404 15 430 233 237 219 246 214 251 268 265 203 118 114 94 80 17 8 3 0 0 0 0 0 0 0 0 0 0 0 0 0 0 0 0 0 0 0 0 0 0 0 0 0 0 0 0 0 0 0 0
1081 851 758 634 786 1061 1008 1129 998 620 554 561 654 481 268 330 314 244 254 71 37 267 293 251 191 154 97 81 56 30 17 6 1 0 1 0 0 0 0 0 0 0 0 0 0 0 0 0 0 0 0 0 0 0 0 0 0 0 0 0 0 0 0
1279 1079 791 805 964 1154 1203 1195 1195 954 920 787 628 433 342 384 429 551 418 61 294 215 216 213 262 181 85 118 82 53 51 26 2 0 3 1 0 0 0 0 0 0 0 0 0 0 0 0 0 0 0 0 0 0 0 0 0 0 0 0 0 0 0
1281 955 754 740 839 1225 1350 999 810 645 514 634 699 600 601 807 556 434 317 335 203 95 484 430 273 230 156 156 129 118 78 31 0 0 0 0 0 0 0 0 0 0 0 0 0 0 0 0 0 0 0 0 0 0 0 0 0 0 0 0 0 0 0
1409 1320 1018 986 958 976 975 1038 867 746 703 763 975 821 553 542 470 481 379 400 371 358 288 351 380 35 68 65 188 131 44 6 0 0 0 0 0 0 0 0 0 0 0 0 0 0 0 0 0 0 0 0 0 0 0 0 0 0 0 0 0 0 0
83 147 369 528 890 1142 1008 1040 1077 952 982 1071 996 888 801 677 634 603 588 528 409 208 282 435 178 282 209 167 12 8 11 0 0 0 0 0 0 0 0 0 0 0 0 0 0 0 0 0 0 0 0 0 0 0 0 0 0 0 0 0 0 0 0
9 21 49 72 85 134 351 787 939 941 1072 1140 1157 1228 1056 846 719 696 689 596 400 252 861 659 461 345 310 85 68 67 0 0 0 0 0 0 0 0 0 1 2 0 0 0 0 0 0 0 0 0 0 0 0 0 0 0 0 0 0 0 0 0 0
0 6 18 35 52 55 72 101 175 443 672 905 1106 1149 1035 1109 982 931 826 689 567 465 306 304 277 333 317 270 175 28 0 0 0 0 0 0 0 0 2 3 4 3 2 0 0 0 0 0 0 0 0 0 0 0 0 0 0 0 0 0 0 0 0
0 0 0 1 19 69 50 77 88 134 287 638 746 869 1032 952 1036 859 684 555 504 451 350 384 403 399 373 296 109 113 38 0 0 0 0 0 0 1 3 3 5 4 2 0 0 0 0 0 0 0 0 0 0 0 0 0 0 0 0 0 0 0 0
0 0 0 1 4 1 0 8 80 149 138 226 632 736 793 815 690 812 684 731 482 399 418 432 406 388 381 362 235 131 0 11 28 44 26 0 2 5 9 7 3 2 0 0 0 0 0 0 0 0 0 0 0 0 0 0 0 0 0 0 0 0 0
0 0 0 0 1 0 1 27 66 89 172 275 288 546 642 540 560 496 510 238 311 368 367 343 333 364 325 340 244 64 26 72 69 54 26 12 7 12 14 10 2 0 0 0 0 0 0 0 0 0 0 0 0 0 0 0 0 0 0 0 0 0 0
0 0 0 0 0 4 17 119 164 200 186 237 253 250 364 402 469 448 179 186 288 326 310 238 217 226 117 0 52 145 100 57 48 37 24 12 11 13 10 2 1 0 0 0 0 0 0 0 0 0 0 0 0 0 0 0 0 0 0 0 0 0 0
0 0 0 0 0 0 15 32 47 59 108 217 255 291 209 343 196 208 223 252 270 311 283 234 173 105 0 0 63 13 0 2 10 19 18 18 18 11 3 0 0 0 0 0 0 0 0 0 0 0 0 0 0 0 0 0 0 0 0 0 0 0 0
0 0 14 26 51 108 118 100 102 116 136 162 202 232 205 5 0 30 28 43 237 287 293 243 123 10 118 136 87 56 0 1 0 2 9 8 3 0 0 0 0 0 0 0 0 0 0 0 0 0 0 0 0 0 0 0 0 0 0 0 0 0 0
7 21 25 53 118 122 94 87 58 98 177 166 86 0 0 0 0 0 0 0 0 0 136 200 181 154 142 152 158 6 0 0 0 2 3 1 0 1 4 4 2 0 0 0 0 0 0 0 0 0 0 0 0 0 0 0 0 0 0 0 0 0 0
69 60 61 95 158 138 136 130 183 194 217 20 0 0 0 0 0 0 0 0 0 0 64 118 89 82 61 45 48 20 19 7 4 1 0 1 7 13 3 1 0 0 0 0 0 0 0 0 0 0 0 0 0 0 0 0 0 0 0 0 0 0 0
99 125 90 110 121 128 146 142 166 211 168 0 0 0 0 0 0 0 0 0 0 0 0 0 0 0 10 22 26 23 19 16 8 0 1 1 1 0 5 2 0 0 0 0 0 0 0 0 0 0 0 0 0 0 0 0 0 0 0 0 0 0 0
79 98 72 60 72 67 63 68 89 196 176 0 0 27 131 22 0 0 0 0 0 0 0 0 0 3 2 5 0 0 2 6 2 11 15 13 10 4 1 4 2 0 0 0 0 0 0 0 0 0 0 0 0 0 0 0 0 0 0 0 0 0 0
36 27 22 19 13 25 26 17 137 197 137 0 0 0 0 0 0 0 3 1 0 0 1 1 4 5 6 3 0 2 3 8 11 10 4 1 0 8 12 8 4 1 0 0 0 0 0 0 0 0 0 0 0 0 0 0 0 0 0 1 1 2 2
3 14 20 29 16 25 88 193 210 118 121 40 115 0 0 0 2 3 3 0 0 1 1 2 6 0 2 1 2 6 8 7 8 6 1 8 15 19 15 8 0 0 0 0 0 0 0 0 0 0 0 0 0 0 0 0 0 1 3 2 0 0 0

ECMWFFLT1_con_mucape_039.txt.gz
CAPE
0 0 0 0 0 0 0 0 0 0 0 0 0 0 0 0 0 0 0 0 0 0 0 0 0 0 0 0 0 0 0 0 0 135 236 421 534 463 410 23 88 182 28 10 19 190 319 334 588 695 749 466 330 267 323 466 398 458 296 230 465 526 417
0 0 0 0 0 0 0 0 0 0 0 0 0 0 0 0 0 0 0 0 0 0 0 0 0 0 0 0 0 0 0 0 0 0 0 0 0 170 482 325 241 309 225 45 35 218 266 3 30 186 146 788 636 414 173 520 512 390 305 348 544 470 426
0 0 0 0 0 0 0 0 0 0 0 0 0 0 0 0 0 0 0 0 0 0 0 0 0 0 0 0 0 0 0 0 0 0 0 0 0 0 0 288 321 296 206 216 160 117 33 39 0 1 48 49 9 29 674 574 498 321 284 193 160 333 225
0 0 0 0 0 0 0 0 0 0 0 0 0 0 0 0 0 0 0 0 0 0 0 0 0 0 0 0 0 0 0 0 0 0 0 0 0 0 0 0 0 0 0 0 0 0 0 0 0 0 0 0 0 0 169 503 370 282 177 120 97 178 133
0 0 0 0 0 0 0 0 0 0 0 0 0 0 0 0 0 0 0 0 0 0 0 0 0 0 0 0 0 0 0 0 0 0 0 0 0 0 0 0 0 0 0 0 0 0 0 0 0 0 0 0 0 0 0 730 564 290 72 16 2 145 227
0 0 0 0 0 0 0 0 0 0 0 0 0 0 0 0 0 0 0 0 0 0 0 0 0 0 0 0 0 0 0 0 0 0 0 0 0 0 0 0 0 0 0 0 0 0 0 0 0 0 0 0 0 0 0 0 0 96 165 1 0 9 138
0 0 0 0 0 0 0 0 0 0 0 0 0 0 0 0 0 0 0 0 0 0 0 0 0 0 0 0 0 0 0 0 0 0 0 0 0 0 0 0 0 0 0 0 0 0 0 0 0 0 0 0 0 0 0 0 0 0 0 0 0 0 0
0 0 0 0 0 0 0 0 0 0 0 0 0 0 0 0 0 0 0 0 0 0 0 0 0 0 0 0 0 0 0 0 0 0 0 0 0 0 0 0 0 0 0 0 0 0 0 0 0 0 0 0 0 0 0 0 0 0 0 0 0 0 0
18 0 9 3 4 0 0 0 0 0 0 0 0 0 0 0 0 0 0 0 0 0 0 0 0 0 0 0 0 0 0 0 0 0 0 0 0 0 0 0 0 0 0 0 0 0 0 0 0 0 0 0 0 0 0 0 0 0 0 0 0 0 0
20 6 15 5 12 40 1 0 12 1 0 0 0 0 0 0 0 0 0 0 0 0 0 0 0 0 0 0 0 0 0 0 0 0 0 0 0 0 0 0 0 0 0 0 0 0 0 0 0 0 0 0 0 0 0 0 0 0 0 0 0 0 0
0 3 24 5 0 316 44 0 11 20 3 0 2 0 0 0 0 151 0 0 0 0 0 0 0 0 0 0 0 0 0 0 0 0 0 0 0 0 0 0 0 0 0 0 0 0 0 0 0 0 0 0 0 0 0 0 0 0 0 0 0 0 0
44 0 92 34 0 17 160 31 10 2 62 20 21 0 0 6 1 24 0 0 0 0 0 0 0 0 0 0 0 0 0 0 0 0 0 0 0 0 0 0 0 0 0 0 0 0 0 0 0 0 0 0 0 0 0 0 0 0 0 0 0 0 0
164 17 116 150 1 0 81 91 52 4 27 25 20 0 0 1 26 12 1 0 0 0 0 0 0 0 0 0 0 0 0 0 0 0 0 0 0 0 0 0 0 0 0 0 0 0 0 0 0 0 0 0 0 0 0 0 0 0 0 0 0 0 0
506 333 403 328 53 47 67 81 104 8 19 16 38 96 7 0 26 33 6 4 0 0 0 0 0 0 0 0 0 0 0 0 0 0 0 0 0 0 0 0 0 0 0 0 0 0 0 0 0 0 0 0 0 0 0 0 0 0 0 0 0 0 0
477 438 381 397 347 350 248 344 400 361 110 13 38 194 207 24 11 24 10 0 0 0 0 0 0 0 0 0 0 0 0 0 0 0 0 0 0 0 0 0 0 0 0 0 0 0 0 0 0 0 0 0 0 0 0 0 0 0 0 0 0 0 0
574 455 365 37 77 72 298 480 391 421 407 373 73 180 276 236 30 4 10 0 0 0 0 0 0 0 0 0 0 0 0 0 0 0 0 0 0 0 0 0 0 0 0 0 0 0 0 0 0 0 0 0 0 0 0 0 0 0 0 0 0 0 0
154 446 15 163 133 47 44 137 26 111 151 64 50 262 282 306 307 274 243 31 1 1 0 0 0 0 0 0 0 0 0 0 0 0 0 0 0 0 0 0 0 0 0 0 0 0 0 0 0 0 0 0 0 0 0 0 0 0 0 0 0 0 0
521 644 569 531 495 234 111 160 196 191 133 152 191 188 88 54 144 225 292 271 240 235 4 0 125 188 98 76 0 0 0 0 0 0 0 0 0 0 0 0 0 0 0 0 0 0 0 0 0 0 0 0 0 0 0 0 0 0 0 0 0 0 0
895 814 665 569 542 549 451 453 605 529 424 322 201 197 209 129 157 135 68 118 187 78 186 192 140 227 214 204 174 146 78 16 0 0 0 0 0 0 0 0 0 0 0 0 0 0 0 0 0 0 0 0 0 0 0 0 0 0 0 0 0 0 0
724 645 567 569 503 582 708 718 721 664 589 433 330 176 76 113 120 12 8 289 288 108 86 95 61 208 184 137 145 118 41 10 54 0 0 0 0 0 0 0 0 0 0 0 0 0 0 0 0 0 0 0 0 0 0 0 0 0 0 0 0 0 0
1081 874 746 703 650 686 794 797 864 872 801 735 612 551 494 493 438 385 346 352 333 302 204 157 22 179 272 92 20 18 96 118 112 30 26 75 43 0 0 0 0 0 0 0 0 0 0 0 0 0 0 0 0 0 0 0 0 0 0 0 0 0 0
1194 1091 902 776 734 789 1055 1054 982 974 985 955 843 662 525 550 546 495 422 374 418 476 454 358 176 53 23 239 1 0 0 95 127 118 108 85 123 109 0 0 0 0 0 0 0 0 0 0 0 0 0 0 0 0 0 0 0 0 0 0 0 0 0
1074 868 654 590 626 707 831 1054 978 813 750 757 718 699 777 804 759 686 619 542 481 470 475 455 375 314 129 95 216 0 0 0 12 66 106 0 0 0 0 0 0 0 0 0 0 0 0 0 0 0 0 0 0 0 0 0 0 0 0 0 0 0 0
188 698 536 477 510 564 699 822 818 717 721 830 860 876 932 937 948 904 752 607 601 640 653 622 612 615 493 309 203 50 11 0 0 59 94 86 88 87 18 48 9 0 0 0 0 1 3 2 2 0 0 0 0 0 0 0 0 0 0 0 0 0 0
0 0 0 0 1 1 158 429 744 808 893 968 968 900 949 997 974 907 909 916 876 835 829 778 662 578 502 418 340 300 170 48 8 2 43 36 76 74 72 21 25 6 6 8 6 4 5 7 1 0 0 0 0 0 0 0 0 0 0 0 0 0 0
0 0 0 0 0 0 0 0 0 0 4 168 608 880 1003 1041 966 956 939 917 913 854 733 693 685 610 463 389 378 329 208 14 13 12 2 0 48 64 68 61 24 9 14 15 12 10 9 6 1 0 0 0 0 0 0 0 0 0 0 0 0 0 0
0 0 0 0 0 0 0 0 0 0 0 0 9 220 667 996 1047 998 974 951 855 732 648 570 551 538 508 482 449 412 235 225 204 216 106 0 56 0 0 0 27 9 6 6 9 11 12 9 5 1 0 0 0 0 0 0 0 0 0 0 0 0 0
0 0 0 0 0 0 0 0 0 0 0 0 0 12 140 770 938 1002 1005 942 854 743 665 598 534 491 445 405 393 385 380 270 209 63 0 57 0 0 0 0 16 13 4 2 1 10 7 2 0 0 0 0 0 0 0 0 0 0 0 0 0 0 0
0 0 0 0 0 0 0 0 0 0 0 0 0 0 0 202 449 600 764 750 646 618 524 475 408 351 314 275 244 275 346 150 0 54 0 0 0 0 0 0 5 2 0 0 1 0 0 0 0 0 0 0 0 0 0 0 0 0 0 0 0 0 0
0 0 0 0 0 0 0 0 0 0 0 0 0 0 0 0 184 363 410 417 424 408 374 327 286 250 240 255 225 199 148 0 57 9 1 11 0 0 0 0 0 0 0 0 0 0 0 0 0 0 0 0 0 0 0 0 0 0 0 0 0 0 0
0 0 0 0 0 0 0 0 0 0 0 0 0 0 0 0 0 89 220 275 304 314 295 237 198 190 199 205 130 87 60 39 10 4 4 3 4 6 4 2 2 4 1 6 0 0 0 0 0 0 0 0 0 0 0 0 0 0 0 0 0 0 0
0 0 0 0 0 0 0 0 0 0 0 0 0 0 0 0 0 0 42 158 207 220 213 193 127 0 36 99 98 74 49 26 6 2 6 20 23 20 17 16 15 4 6 2 0 0 0 0 0 0 0 0 0 0 0 0 0 0 0 0 0 0 0
0 0 0 0 1 4 0 0 0 0 0 0 0 0 0 0 0 0 0 5 98 123 135 142 0 0 71 56 38 37 62 38 36 27 21 11 3 7 4 0 4 0 0 0 0 0 0 0 0 0 0 0 0 0 0 0 0 0 0 0 0 0 0
1 1 0 0 0 0 0 0 0 0 0 0 0 0 0 0 0 0 0 0 76 90 1 0 7 77 72 64 62 68 36 12 15 18 15 3 3 2 3 1 0 0 0 0 0 0 0 0 0 0 0 0 0 0 0 0 0 0 0 0 0 0 0
0 0 0 0 0 0 0 0 0 0 0 0 0 0 0 0 0 0 0 0 0 0 0 0 31 7 0 0 1 1 2 4 4 5 10 1 6 3 0 0 1 0 0 0 0 0 0 0 0 0 0 0 0 0 0 0 0 0 0 0 0 0 0
0 0 0 0 0 0 0 0 0 0 0 0 0 0 0 0 0 0 0 0 0 0 0 0 0 0 0 0 1 1 2 6 7 8 6 5 2 2 1 0 0 1 1 0 0 0 0 0 0 0 0 0 0 0 0 0 0 0 0 0 1 3 4
0 0 0 0 0 0 11 0 0 0 0 0 0 0 0 0 0 0 0 31 8 0 0 0 0 0 0 0 0 2 8 2 2 1 0 0 0 0 1 3 2 0 0 0 0 0 0 0 0 0 0 0 0 0 0 0 0 0 0 0 3 6 8

ECMWFFLT1_con_mucape_042.txt.gz
CAPE
0 0 0 0 0 0 0 0 0 0 0 0 0 0 0 0 0 0 0 0 0 0 0 0 0 0 0 0 0 0 0 0 0 79 390 51 145 434 594 468 340 276 441 409 453 250 314 374 398 235 592 568 444 361 439 609 518 355 274 521 533 587 668
0 0 0 0 0 0 0 0 0 0 0 0 0 0 0 0 0 0 0 0 0 0 0 0 0 0 0 0 0 0 0 0 0 0 0 0 153 343 217 1 0 76 227 287 327 324 320 23 4 23 1 0 326 369 560 287 256 429 181 64 145 481 522
0 0 0 0 0 0 0 0 0 0 0 0 0 0 0 0 0 0 0 0 0 0 0 0 0 0 0 0 0 0 0 0 0 0 0 0 0 0 0 68 74 93 25 134 159 186 152 72 0 0 0 0 0 0 224 311 198 253 313 190 81 0 47
0 0 0 0 0 0 0 0 0 0 0 0 0 0 0 0 0 0 0 0 0 0 0 0 0 0 0 0 0 0 0 0 0 0 0 0 0 0 0 0 26 14 0 0 0 20 20 0 0 0 4 1 0 0 0 0 38 193 264 191 75 36 48
0 0 0 0 0 0 0 0 0 0 0 0 0 0 0 0 0 0 0 0 0 0 0 0 0 0 0 0 0 0 0 0 0 0 0 0 0 0 0 0 0 0 0 0 0 0 0 0 0 0 0 0 0 0 0 0 0 0 10 6 1 7 44
0 0 0 0 0 0 0 0 0 0 0 0 0 0 0 0 0 0 0 0 0 0 0 0 0 0 0 0 0 0 0 0 0 0 0 0 0 0 0 0 0 0 0 0 0 0 0 0 0 0 0 0 0 0 0 0 0 0 0 0 0 0 0
0 0 0 0 0 0 0 0 0 0 0 0 0 0 0 0 0 0 0 0 0 0 0 0 0 0 0 0 0 0 0 0 0 0 0 0 0 0 0 0 0 0 0 0 0 0 0 0 0 0 0 0 0 0 0 0 0 0 0 0 0 0 0
0 0 0 0 0 0 0 0 0 0 0 0 0 0 0 0 0 0 0 0 0 0 0 0 0 0 0 0 0 0 0 0 0 0 0 0 0 0 0 0 0 0 0 0 0 0 0 0 0 0 0 0 0 0 0 0 0 0 0 0 0 0 0
0 0 0 0 0 0 0 0 0 0 0 0 0 0 0 0 0 0 0 0 0 0 0 0 0 0 0 0 0 0 0 0 0 0 0 0 0 0 0 0 0 0 0 0 0 0 0 0 0 0 0 0 0 0 0 0 0 0 0 0 0 0 0
0 0 0 0 0 0 0 0 0 0 0 0 0 0 0 0 0 0 0 0 0 0 0 0 0 0 0 0 0 0 0 0 0 0 0 0 0 0 0 0 0 0 0 0 0 0 0 0 0 0 0 0 0 0 0 0 0 0 0 0 0 0 0
38 0 0 0 0 0 0 0 0 0 0 0 0 0 0 0 0 0 0 0 0 0 0 0 0 0 0 0 0 0 0 0 0 0 0 0 0 0 0 0 0 0 0 0 0 0 0 0 0 0 0 0 0 0 0 0 0 0 0 0 0 0 0
67 0 0 3 7 8 0 0 0 0 0 0 0 0 0 0 0 0 0 0 0 0 0 0 0 0 0 0 0 0 0 0 0 0 0 0 0 0 0 0 0 0 0 0 0 0 0 0 0 0 0 0 0 0 0 0 0 0 0 0 0 0 0
28 14 6 0 1 11 8 2 119 130 0 0 0 0 0 0 0 0 0 0 0 0 0 0 0 0 0 0 0 0 0 0 0 0 0 0 0 0 0 0 0 0 0 0 0 0 0 0 0 0 0 0 0 0 0 0 0 0 0 0 0 0 0
2 88 223 0 0 5 103 17 16 105 5 0 1 1 0 0 0 0 0 0 0 0 0 0 0 0 0 0 0 0 0 0 0 0 0 0 0 0 0 0 0 0 0 0 0 0 0 0 0 0 0 0 0 0 0 0 0 0 0 0 0 0 0
25 212 210 4 6 9 3 3 8 11 4 7 27 36 23 10 0 0 0 0 0 0 0 0 0 0 0 0 0 0 0 0 0 0 0 0 0 0 0 0 0 0 0 0 0 0 0 0 0 0 0 0 0 0 0 0 0 0 0 0 0 0 0
155 324 387 148 13 8 0 0 4 0 6 26 28 13 5 11 19 11 0 0 0 0 0 0 0 0 0 0 0 0 0 0 0 0 0 0 0 0 0 0 0 0 0 0 0 0 0 0 0 0 0 0 0 0 0 0 0 0 0 0 0 0 0
456 409 407 470 443 3 1 1 110 22 191 0 9 0 0 1 7 7 13 113 140 160 162 30 7 8 0 0 0 0 0 0 0 0 0 0 0 0 0 0 0 0 0 0 0 0 0 0 0 0 0 0 0 0 0 0 0 0 0 0 0 0 0
559 563 500 394 276 16 16 27 48 330 236 102 0 0 0 0 0 0 145 194 213 219 210 196 178 176 165 74 0 0 0 0 0 0 0 0 0 0 0 0 0 0 0 0 0 0 0 0 0 0 0 0 0 0 0 0 0 0 0 0 0 0 0
420 437 479 440 381 78 29 24 184 35 180 1 0 0 8 15 283 301 299 319 330 321 302 268 236 220 217 237 234 221 202 133 0 0 0 0 0 0 0 0 0 0 0 0 0 0 0 0 0 0 0 0 0 0 0 0 0 0 0 0 0 0 0
590 546 509 558 547 461 501 410 308 8 6 11 0 27 4 4 14 13 15 80 189 284 299 298 295 280 262 257 247 247 237 174 103 0 0 0 0 0 0 0 0 0 0 0 0 0 0 0 0 0 0 0 0 0 0 0 0 0 0 0 0 0 0
647 682 666 585 492 500 465 343 608 602 547 202 47 54 17 80 20 28 18 6 1 0 0 0 0 192 187 276 265 254 236 218 175 137 37 0 0 0 0 0 0 0 0 2 0 0 0 0 0 0 0 0 0 0 0 0 0 0 0 0 0 0 0
653 697 730 742 673 612 635 656 724 752 790 768 708 668 612 566 555 558 536 478 398 292 177 0 0 0 0 0 0 0 182 214 202 184 136 0 0 0 0 0 0 0 24 14 4 3 5 4 5 4 0 0 0 0 0 0 0 0 0 0 0 0 0
886 1054 1045 924 824 795 761 783 866 928 964 976 978 993 972 907 840 749 759 722 662 596 546 467 469 500 497 459 378 300 282 252 228 203 177 67 0 108 67 82 71 54 42 20 6 8 10 12 10 8 3 0 0 0 0 0 0 0 0 0 0 0 0
1007 1023 920 754 656 619 701 754 848 989 1050 977 851 695 697 760 805 847 864 905 908 840 741 663 616 624 652 636 572 476 406 297 241 219 210 220 200 136 134 132 95 68 59 42 13 10 10 10 8 7 4 0 0 0 0 0 0 0 0 0 0 0 0
0 266 361 336 278 250 423 618 721 783 766 702 667 681 785 867 894 908 917 977 954 935 968 930 888 880 830 770 680 610 561 486 405 307 247 238 159 77 132 108 74 34 59 24 1 2 6 7 5 6 6 2 0 0 0 0 0 0 0 0 0 0 0
0 0 0 0 0 0 0 0 4 6 34 39 87 230 392 571 784 872 981 1039 1025 990 976 899 816 686 635 652 638 616 599 528 424 236 0 148 87 14 33 85 37 4 2 8 10 12 10 7 4 8 5 2 0 0 0 0 0 0 0 0 0 0 0
0 0 0 0 0 0 0 0 0 0 0 0 1 90 179 324 488 703 955 1128 1081 996 935 798 703 614 522 461 445 431 448 454 466 435 299 0 0 16 63 38 18 10 2 2 2 3 3 6 7 8 6 2 0 0 0 0 0 0 0 0 0 0 0
0 0 0 0 0 0 0 0 0 0 0 0 0 0 7 194 386 668 884 1114 1107 1065 933 732 658 563 504 454 387 336 318 356 360 342 326 249 0 82 6 12 5 3 3 2 7 4 1 4 1 4 2 2 0 0 0 0 0 0 0 0 0 0 0
0 0 0 0 0 0 0 0 0 0 0 0 0 0 0 0 294 485 698 979 1099 1079 906 689 562 498 385 254 135 0 44 182 203 192 134 0 0 0 0 5 2 3 2 1 4 6 6 0 0 0 1 0 0 0 0 0 0 0 0 0 0 0 0
0 0 0 0 0 0 0 0 0 0 0 0 0 0 0 0 0 241 375 597 821 894 682 494 399 352 270 162 12 3 98 64 80 68 36 0 9 3 2 5 6 6 1 1 5 4 1 0 1 2 9 1 0 0 0 0 0 0 0 0 0 0 0
0 0 0 0 0 0 0 0 0 0 0 0 0 0 0 0 0 28 242 356 477 527 448 388 342 277 201 145 0 0 0 41 26 29 29 17 11 4 3 6 9 12 4 3 2 0 3 6 6 2 0 0 0 0 0 0 0 0 0 0 0 0 0
0 0 0 0 0 0 0 0 0 0 0 0 0 0 0 0 0 0 89 194 236 264 265 241 224 181 158 115 0 0 0 2 2 4 9 8 7 4 6 6 12 12 7 12 12 4 0 0 0 0 0 0 0 0 0 0 0 0 0 0 0 0 0
0 0 0 0 0 0 0 0 0 0 0 0 0 0 0 0 0 0 0 10 106 122 142 146 143 139 125 0 0 1 2 0 0 0 5 9 10 7 8 10 13 2 4 4 1 0 0 0 0 0 0 0 0 0 0 0 0 0 0 0 0 0 0
0 0 0 0 0 0 0 0 0 0 0 0 0 0 0 0 0 0 0 0 0 0 38 46 93 94 70 37 10 4 5 6 8 10 10 9 11 15 15 15 14 4 3 2 0 0 0 0 0 0 0 0 0 0 0 0 0 0 0 0 0 0 0
0 0 0 0 0 0 0 0 0 0 0 0 0 0 0 0 0 0 0 0 0 0 0 0 4 57 52 45 21 12 17 12 12 9 2 2 4 5 6 7 8 7 0 1 0 0 0 0 0 0 0 0 0 0 0 0 0 0 0 0 0 0 0
0 0 0 0 0 0 0 0 0 0 0 0 0 0 0 0 0 0 0 0 0 0 0 36 24 11 0 0 0 1 2 1 1 0 1 4 5 10 4 5 4 2 3 2 0 0 1 0 0 0 0 0 0 0 0 0 0 0 0 0 0 0 0
0 0 0 0 0 0 0 0 0 0 0 0 0 0 0 0 0 0 0 0 0 0 19 10 6 2 0 0 0 0 0 0 1 5 2 8 4 4 1 0 0 2 0 0 0 0 0 0 0 0 0 0 0 0 0 0 0 0 0 0 0 0 0

ECMWFFLT1_con_mucape_045.txt.gz
CAPE
0 0 0 0 0 0 0 0 0 0 0 0 0 0 0 0 0 0 0 0 0 0 0 0 0 0 0 180 417 429 355 341 132 3 416 554 631 596 616 550 558 498 478 489 513 215 48 364 16 0 344 215 522 501 748 717 697 441 346 357 463 418 426
0 0 0 0 0 0 0 0 0 0 0 0 0 0 0 0 0 0 0 0 0 0 0 0 0 0 0 0 95 0 0 0 0 0 0 0 103 398 520 535 412 352 385 471 427 363 379 0 32 0 60 43 199 236 317 368 434 421 210 51 25 279 442
0 0 0 0 0 0 0 0 0 0 0 0 0 0 0 0 0 0 0 0 0 0 0 0 0 0 0 0 0 0 0 0 0 0 0 0 0 0 0 0 0 0 0 199 264 274 276 178 111 60 0 13 11 1 0 0 0 0 264 94 0 24 108
0 0 0 0 0 0 0 0 0 0 0 0 0 0 0 0 0 0 0 0 0 0 0 0 0 0 0 0 0 0 0 0 0 0 0 0 0 0 0 0 0 0 0 0 0 0 30 89 119 0 0 0 0 0 0 0 0 24 38 0 0 0 0
0 0 0 0 0 0 0 0 0 0 0 0 0 0 0 0 0 0 0 0 0 0 0 0 0 0 0 0 0 0 0 0 0 0 0 0 0 0 0 0 0 0 0 0 0 0 0 0 0 0 0 0 0 0 0 0 0 0 0 0 0 0 0
0 0 0 0 0 0 0 0 0 0 0 0 0 0 0 0 0 0 0 0 0 0 0 0 0 0 0 0 0 0 0 0 0 0 0 0 0 0 0 0 0 0 0 0 0 0 0 0 0 0 0 0 0 0 0 0 0 0 0 0 0 0 0
0 0 0 0 0 0 0 0 0 0 0 0 0 0 0 0 0 0 0 0 0 0 0 0 0 0 0 0 0 0 0 0 0 0 0 0 0 0 0 0 0 0 0 0 0 0 0 0 0 0 0 0 0 0 0 0 0 0 0 0 0 0 0
0 0 0 0 0 0 0 0 0 0 0 0 0 0 0 0 0 0 0 0 0 0 0 0 0 0 0 0 0 0 0 0 0 0 0 0 0 0 0 0 0 0 0 0 0 0 0 0 0 0 0 0 0 0 0 0 0 0 0 0 0 0 0
0 0 0 0 0 0 0 0 0 0 0 0 0 0 0 0 0 0 0 0 0 0 0 0 0 0 0 0 0 0 0 0 0 0 0 0 0 0 0 0 0 0 0 0 0 0 0 0 0 0 0 0 0 0 0 0 0 0 0 0 0 0 0
0 0 0 0 0 0 0 0 0 0 0 0 0 0 0 0 0 0 0 0 0 0 0 0 0 0 0 0 0 0 0 0 0 0 0 0 0 0 0 0 0 0 0 0 0 0 0 0 0 0 0 0 0 0 0 0 0 0 0 0 0 0 0
0 0 0 0 0 0 0 0 0 0 0 0 0 0 0 0 0 0 0 0 0 0 0 0 0 0 0 0 0 0 0 0 0 0 0 0 0 0 0 0 0 0 0 0 0 0 0 0 0 0 0 0 0 0 0 0 0 0 0 0 0 0 0
0 0 0 0 0 0 0 0 0 0 0 0 0 0 0 0 0 0 0 0 0 0 0 0 0 0 0 0 0 0 0 0 0 0 0 0 0 0 0 0 0 0 0 0 0 0 0 0 0 0 0 0 0 0 0 0 0 0 0 0 0 0 0
0 0 0 0 0 0 0 0 0 0 0 0 0 0 0 0 0 0 0 0 0 0 0 0 0 0 0 0 0 0 0 0 0 0 0 0 0 0 0 0 0 0 0 0 0 0 0 0 0 0 0 0 0 0 0 0 0 0 0 0 0 0 0
0 88 0 0 0 0 3 0 0 0 0 0 0 0 0 0 0 0 0 0 0 0 0 0 0 0 0 0 0 0 0 0 0 0 0 0 0 0 0 0 0 0 0 0 0 0 0 0 0 0 0 0 0 0 0 0 0 0 0 0 0 0 0
0 0 0 0 0 0 0 0 1 0 0 0 0 0 0 0 0 0 0 0 0 0 0 0 0 0 0 0 0 0 0 0 0 0 0 0 0 0 0 0 0 0 0 0 0 0 0 0 0 0 0 0 0 0 0 0 0 0 0 0 0 0 0
0 96 0 0 0 0 1 0 0 0 1 0 0 0 0 0 0 0 0 0 0 0 0 0 0 0 0 0 0 0 0 0 0 0 0 0 0 0 0 0 0 0 0 0 0 0 0 0 0 0 0 0 0 0 0 0 0 0 0 0 0 0 0
22 29 27 0 0 0 0 0 0 0 0 0 0 0 0 2 2 0 0 0 0 0 0 1 1 0 0 0 0 0 0 0 0 0 0 0 0 0 0 0 0 0 0 0 0 0 0 0 0 0 0 0 0 0 0 0 0 0 0 0 0 0 0
3 15 22 0 0 0 0 0 0 3 25 7 0 0 0 0 0 4 14 1 0 0 0 0 0 1 0 0 0 0 0 0 0 0 0 0 0 0 0 0 0 0 0 0 0 0 0 0 0 0 0 0 0 0 0 0 0 0 0 0 0 0 0
321 271 17 137 324 305 271 205 0 3 2 0 14 15 3 0 89 2 1 0 4 0 19 32 228 257 236 213 190 33 89 131 0 0 0 0 0 0 0 0 0 0 0 0 0 0 0 0 0 0 0 0 0 0 0 0 0 0 0 0 0 0 0
395 364 339 371 296 80 219 377 10 0 0 1 9 10 22 35 25 39 27 4 22 23 8 226 322 360 359 318 276 251 243 194 223 0 0 0 0 0 0 0 0 0 0 0 4 4 2 2 2 2 0 0 0 0 0 0 0 0 0 0 0 0 0
362 479 516 477 420 239 266 140 126 320 93 66 6 16 26 35 38 51 37 34 17 34 29 204 269 366 372 365 343 312 296 302 296 272 246 214 192 153 108 26 0 0 0 0 4 5 5 6 5 5 4 1 0 0 0 0 0 0 0 0 0 0 0
82 336 275 41 12 22 231 286 0 0 58 0 0 0 25 5 91 106 11 16 31 53 250 258 18 13 0 41 45 42 0 45 265 259 267 244 210 172 147 103 0 0 0 12 8 6 7 9 8 8 8 6 4 0 0 0 0 0 0 0 0 0 0
147 379 376 362 170 319 154 211 128 154 162 142 124 279 290 269 252 213 101 366 512 582 636 650 607 533 488 450 398 284 100 245 253 238 248 238 243 208 164 136 123 111 81 60 24 8 5 5 6 7 8 8 6 2 0 0 0 0 0 0 0 0 0
584 635 849 775 615 592 579 474 540 622 673 698 698 712 607 394 371 498 554 630 655 811 934 927 867 762 636 559 508 496 515 539 475 435 429 366 332 266 224 178 162 140 128 101 66 28 9 8 8 6 5 7 10 7 3 1 0 0 0 0 0 0 0
0 81 177 12 0 0 0 145 333 383 438 416 286 364 374 404 532 628 695 775 825 857 946 886 887 848 733 665 598 508 414 500 588 581 528 513 458 388 331 279 236 187 152 105 73 49 28 13 10 10 11 13 15 15 11 6 2 0 0 0 0 0 0
0 0 0 0 0 0 0 0 0 0 0 0 0 0 0 96 169 265 380 534 704 870 969 944 878 748 640 591 502 436 430 358 411 449 428 444 419 379 309 292 266 194 130 81 70 43 42 41 16 14 16 20 20 16 13 11 3 0 0 0 0 0 0
0 0 0 0 0 0 0 0 0 0 0 0 0 0 0 0 72 179 304 457 641 879 1009 967 849 679 548 434 386 337 364 387 363 368 395 423 369 238 128 62 124 143 106 79 10 33 25 25 25 10 11 15 11 4 11 6 2 1 0 0 0 0 0
0 0 0 0 0 0 0 0 0 0 0 0 0 0 0 0 0 199 269 339 486 732 926 970 838 570 388 346 326 277 236 233 237 259 261 257 248 205 160 0 0 0 14 32 10 12 13 7 17 11 10 14 9 14 7 2 1 0 0 0 0 0 0
0 0 0 0 0 0 0 0 0 0 0 0 0 0 0 0 128 179 183 206 267 404 619 775 805 624 387 235 131 0 0 0 0 0 0 0 0 0 0 0 0 0 12 4 4 8 14 21 25 11 14 11 19 2 6 10 1 0 0 0 0 0 0
0 0 0 0 0 0 0 0 0 0 0 0 0 0 0 0 0 0 46 142 181 260 388 413 420 351 260 174 110 0 0 0 0 0 0 0 0 0 0 0 0 0 0 2 4 7 12 16 16 15 21 9 12 5 3 1 2 0 0 0 0 0 0
0 0 0 0 0 0 0 0 0 0 0 0 0 0 0 0 0 0 0 0 143 177 257 256 254 230 197 147 0 0 0 0 0 0 0 0 0 1 3 1 0 2 6 6 6 7 13 18 20 6 3 4 4 5 2 0 0 0 0 0 0 0 0
0 0 0 0 0 0 0 0 0 0 0 0 0 0 0 0 0 0 0 0 0 81 102 92 88 77 0 0 0 0 0 0 0 0 0 0 0 2 3 4 4 4 6 9 8 8 5 0 0 0 0 0 0 1 0 0 0 0 0 0 0 0 0
0 0 0 0 0 0 0 0 0 0 0 0 0 0 0 0 0 0 0 0 0 0 0 0 0 0 0 0 0 0 0 0 0 0 0 0 0 0 2 6 12 12 4 1 1 1 1 11 10 6 5 2 0 0 0 0 0 0 0 0 0 0 0
0 0 0 0 0 0 0 0 0 0 0 0 0 0 0 0 0 0 0 0 0 0 0 0 0 0 0 2 26 3 3 1 0 0 0 1 3 1 2 5 4 2 4 5 6 6 0 1 0 0 0 0 0 0 0 0 0 0 0 0 0 0 0
0 0 0 0 0 0 0 0 0 0 0 0 0 0 0 0 0 0 0 0 0 0 0 0 0 0 0 14 36 6 2 0 0 0 0 0 0 2 4 9 10 7 3 3 1 8 3 2 0 0 0 0 0 0 0 0 0 0 0 0 0 0 0
0 0 0 0 0 0 0 0 0 0 0 0 0 0 0 0 0 0 0 0 0 0 0 0 0 0 20 32 21 7 3 2 4 5 4 6 6 3 0 0 0 0 0 7 12 3 0 0 0 0 0 0 0 0 0 0 0 0 0 0 0 0 0
0 0 0 0 0 0 0 0 0 0 0 0 0 0 0 0 0 0 0 0 0 0 0 2 14 18 12 5 3 2 1 0 0 0 0 0 0 0 0 4 3 4 2 2 2 0 0 0 0 0 0 0 0 0 0 0 0 0 0 0 0 0 0

ECMWFFLT1_con_mucape_048.txt.gz
CAPE
0 0 0 0 0 0 0 0 0 0 0 0 0 0 0 0 93 368 357 0 0 0 0 0 0 0 248 461 522 409 267 116 2 279 412 468 469 471 482 473 528 527 480 522 0 21 5 161 10 185 216 351 455 386 604 601 518 498 426 427 457 476 412
0 0 0 0 0 0 0 0 0 0 0 0 0 0 0 0 0 0 0 0 0 0 0 0 0 0 0 242 316 266 78 0 86 350 407 493 393 442 298 184 4 0 210 0 133 46 0 0 0 0 123 245 390 355 409 273 243 89 185 58 96 11 8
0 0 0 0 0 0 0 0 0 0 0 0 0 0 0 0 0 0 0 0 0 0 0 0 0 0 0 0 0 0 0 0 0 0 0 0 179 14 0 0 0 0 0 0 0 0 0 5 6 0 10 57 68 0 0 60 42 0 0 0 0 0 0
0 0 0 0 0 0 0 0 0 0 0 0 0 0 0 0 0 0 0 0 0 0 0 0 0 0 0 0 0 0 0 0 0 0 0 0 0 0 0 0 0 0 0 0 0 0 0 0 6 0 0 0 3 0 0 0 0 0 0 0 0 0 0
0 0 0 0 0 0 0 0 0 0 0 0 0 0 0 0 0 0 0 0 0 0 0 0 0 0 0 0 0 0 0 0 0 0 0 0 0 0 0 0 0 0 0 0 0 0 0 0 0 0 5 0 0 0 0 0 0 0 0 0 0 0 0
0 0 0 0 0 0 0 0 0 0 0 0 0 0 0 0 0 0 0 0 0 0 0 0 0 0 0 0 0 0 0 0 0 0 0 0 0 0 0 0 0 0 0 0 0 0 0 0 0 0 0 0 0 0 0 0 0 0 0 0 0 0 0
0 0 0 0 0 0 0 0 0 0 0 0 0 0 0 0 0 0 0 0 0 0 0 0 0 0 0 0 0 0 0 0 0 0 0 0 0 0 0 0 0 0 0 0 0 0 0 0 0 0 0 0 0 0 0 0 0 0 0 0 0 0 0
0 0 0 0 0 0 0 0 0 0 0 0 0 0 0 0 0 0 0 0 0 0 0 0 0 0 0 0 0 0 0 0 0 0 0 0 0 0 0 0 0 0 0 0 0 0 0 0 0 0 0 0 0 0 0 0 0 0 0 0 0 0 0
0 0 0 0 0 0 0 0 0 0 0 0 0 0 0 0 0 0 0 0 0 0 0 0 0 0 0 0 0 0 0 0 0 0 0 0 0 0 0 0 0 0 0 0 0 0 0 0 0 0 0 0 0 0 0 0 0 0 0 0 0 0 0
43 0 0 0 0 0 0 0 0 0 0 0 0 0 0 0 0 0 0 0 0 0 0 0 0 0 0 0 0 0 0 0 0 0 0 0 0 0 0 0 0 0 0 0 0 0 0 0 0 0 0 0 0 0 0 0 0 0 0 0 0 0 0
275 0 0 0 0 0 0 0 0 0 0 0 0 0 0 0 0 0 0 0 0 0 0 0 0 0 0 0 0 0 0 0 0 0 0 0 0 0 0 0 0 0 0 0 0 0 0 0 0 0 0 0 0 0 0 0 0 0 0 0 0 0 0
123 0 0 0 0 0 0 0 0 0 0 0 0 0 0 0 0 0 0 0 0 0 0 0 0 0 0 0 0 0 0 0 0 0 0 0 0 0 0 0 0 0 0 0 0 0 0 0 0 0 0 0 0 0 0 0 0 0 0 0 0 0 0
0 0 0 0 0 0 0 0 0 0 0 0 0 0 0 0 0 0 0 0 0 0 0 0 0 0 0 0 0 0 0 0 0 0 0 0 0 0 0 0 0 0 0 0 0 0 0 0 0 0 0 0 0 0 0 0 0 0 0 0 0 0 0
0 0 0 0 0 0 0 0 0 0 0 0 0 0 0 0 0 0 0 0 0 0 0 0 0 0 0 0 0 0 0 0 0 0 0 0 0 0 0 0 0 0 0 0 0 0 0 0 0 0 0 0 0 0 0 0 0 0 0 0 0 0 0
0 0 0 0 0 0 0 0 0 0 2 0 0 0 0 0 0 0 0 0 0 0 0 0 0 0 0 0 0 0 0 0 0 0 0 0 0 0 0 0 0 0 0 0 0 0 0 0 0 0 0 0 0 0 0 0 0 0 0 0 0 0 0
18 26 12 3 0 0 0 0 0 2 2 1 1 0 0 0 0 0 0 0 0 0 0 0 0 0 0 0 0 0 0 0 0 0 0 0 0 0 0 0 0 0 0 0 0 0 0 0 0 0 0 0 0 0 0 0 0 0 0 0 0 0 0
118 97 88 20 0 0 0 0 0 0 1 0 0 0 0 0 0 0 0 0 0 0 0 0 0 0 0 0 0 66 36 36 16 0 0 0 0 0 0 0 0 0 0 0 0 0 0 0 0 0 0 0 0 0 0 0 0 0 0 0 0 0 0
124 88 105 36 0 0 0 0 0 0 6 22 6 2 0 0 0 0 0 0 0 1 5 0 0 0 0 0 0 0 0 0 30 49 0 0 0 31 18 3 0 0 0 0 0 0 0 0 0 0 0 0 0 0 0 0 0 0 0 0 0 0 0
146 139 127 43 26 0 0 153 208 168 156 177 152 109 0 0 0 0 0 2 2 0 1 6 7 3 0 0 0 0 0 0 28 18 17 113 18 64 61 39 17 2 2 0 0 0 2 2 2 1 1 1 0 0 0 0 0 0 0 0 0 0 0
276 31 107 71 13 2 0 0 120 268 266 193 0 0 0 0 1 9 24 22 12 0 0 5 6 13 5 0 0 0 0 0 0 2 165 166 59 0 0 0 0 17 8 4 4 2 0 0 1 1 1 0 0 0 0 0 0 0 0 0 0 0 0
300 66 60 72 0 0 0 303 304 284 0 0 0 0 2 9 154 10 19 33 47 40 22 15 8 1 0 7 2 2 0 0 4 20 4 121 68 60 58 116 34 0 0 0 0 1 1 4 4 4 2 2 2 2 3 2 1 0 0 0 0 0 0
512 411 60 2 9 44 238 264 234 276 284 281 308 308 7 48 4 0 5 7 2 2 0 0 0 1 4 14 5 8 6 0 30 2 8 2 0 35 174 139 0 0 0 0 0 0 2 7 12 12 15 14 11 12 9 8 8 5 3 0 0 0 0
604 498 46 384 169 265 127 104 0 108 81 5 7 3 153 374 337 292 280 261 111 0 0 120 256 288 367 370 322 296 307 355 340 281 248 11 4 86 179 186 202 172 47 0 0 16 15 17 20 20 19 18 14 13 11 11 12 12 6 0 0 0 0
382 324 287 382 359 303 354 331 326 327 340 378 412 526 595 586 554 507 399 298 315 404 518 572 417 532 688 693 664 627 530 482 437 396 357 331 308 264 233 227 231 236 192 6 6 65 30 22 21 19 17 15 16 15 11 9 9 5 0 1 1 0 0
410 469 552 664 578 450 396 361 396 430 510 558 558 529 524 543 443 357 326 367 422 464 573 729 766 727 695 632 540 530 545 440 300 272 278 388 447 416 391 363 289 258 232 174 85 89 44 60 45 22 13 9 21 18 10 5 0 7 1 2 1 0 0
238 243 87 31 56 0 109 189 225 184 76 127 0 0 0 0 160 164 187 235 321 483 667 777 812 751 669 553 417 323 291 271 261 241 251 283 321 342 340 324 301 265 240 205 91 5 14 18 54 54 56 23 12 5 3 7 9 3 4 4 0 0 0
0 0 0 0 0 0 0 0 0 0 0 0 0 0 0 0 0 0 132 169 223 350 536 771 838 778 645 426 322 269 227 223 255 274 278 264 294 327 330 283 212 172 147 153 152 110 81 0 14 18 8 2 2 8 11 6 2 0 4 2 0 0 0
0 0 0 0 0 0 0 0 0 0 0 0 0 0 0 0 0 0 0 67 29 126 222 445 658 722 578 337 266 259 205 37 137 138 134 170 198 227 224 208 206 166 125 102 102 82 65 56 37 29 26 14 11 9 8 6 6 6 1 1 0 0 0
0 0 0 0 0 0 0 0 0 0 0 0 0 0 0 0 0 0 0 0 0 0 0 204 331 406 358 236 42 36 0 0 0 0 0 0 0 0 0 0 0 26 0 0 0 0 10 11 8 10 10 7 8 10 11 6 1 0 0 0 0 0 0
0 0 0 0 0 0 0 0 0 0 0 0 0 0 0 0 0 0 0 0 0 0 0 0 102 100 69 0 0 0 0 0 0 0 0 0 0 0 0 0 0 0 0 0 0 0 1 2 4 6 8 9 11 11 6 2 0 0 0 0 0 0 0
0 0 0 0 0 0 0 0 0 0 0 0 0 0 0 0 0 0 0 0 0 0 0 0 0 0 0 0 0 0 0 0 0 0 0 0 0 0 0 0 0 0 0 0 0 0 1 2 3 4 6 8 4 2 1 0 0 0 0 0 0 0 0
0 0 1 0 0 0 0 0 0 0 0 0 0 0 0 0 0 0 0 0 0 0 0 0 0 0 0 0 0 0 0 0 0 0 0 0 0 0 0 0 0 2 1 2 2 3 5 4 3 2 1 0 0 0 0 0 0 0 0 0 0 0 0
0 0 0 0 0 0 0 0 0 0 0 0 0 0 0 0 0 0 0 0 0 0 0 0 0 0 0 0 0 0 0 0 0 0 0 0 0 0 0 0 0 0 1 5 5 7 6 1 0 0 0 0 0 0 0 0 0 0 0 0 0 0 0
1 0 0 0 0 0 0 0 0 0 0 0 0 0 0 0 0 0 0 0 0 0 0 0 0 0 0 0 0 14 4 3 2 2 1 1 2 5 5 2 0 0 3 7 6 4 3 0 0 0 0 0 0 0 0 0 0 0 0 0 0 0 0
5 1 0 0 0 0 0 0 0 0 0 0 0 0 0 0 0 0 0 0 0 0 0 0 0 0 0 0 1 4 4 4 4 4 6 7 8 7 5 4 2 0 2 7 11 14 11 8 0 0 0 0 0 0 0 0 0 0 0 0 0 0 0
6 2 0 0 0 0 0 0 0 0 0 0 0 0 0 0 0 0 0 0 0 0 0 0 0 0 0 0 4 4 4 5 6 2 1 6 8 9 5 4 5 6 7 3 0 1 0 0 0 0 0 0 0 0 0 0 0 0 0 0 0 0 0
3 3 1 0 0 0 0 0 0 0 0 0 0 0 0 0 0 0 0 0 0 0 0 0 0 0 0 0 2 2 0 0 0 0 0 0 0 0 0 0 0 0 0 1 0 0 0 0 0 0 0 0 0 0 0 0 0 0 0 0 0 0 0

ECMWFFLT1_con_mucape_051.txt.gz
CAPE
656 310 199 115 54 2 0 0 0 0 0 0 1 0 140 223 207 101 53 30 9 1 10 105 280 348 552 455 327 254 188 390 586 700 843 442 844 845 677 682 596 194 465 407 515 1003 889 397 92 0 0 6 408 283 293 320 290 289 365 318 260 170 248
386 233 123 54 12 2 0 0 0 0 0 0 0 4 5 21 1 0 4 3 8 5 0 3 24 190 560 711 605 627 580 208 349 364 765 850 859 917 478 500 348 181 42 131 359 775 1034 436 147 34 0 0 0 0 73 1 9 10 4 178 32 0 9
318 211 156 70 17 40 6 0 0 0 0 0 0 0 0 0 0 0 1 10 42 5 0 2 6 16 16 3 9 36 85 66 105 347 420 307 416 321 452 384 156 20 2 5 89 181 227 175 65 0 0 0 158 2 5 2 10 13 12 1 0 0 0
420 282 179 80 9 36 6 1 3 0 0 0 0 0 0 0 14 18 19 4 4 1 0 0 1 0 0 0 0 2 10 50 59 36 12 29 23 15 11 8 1 2 1 1 11 74 151 80 0 0 0 0 1 0 7 5 1 8 10 6 6 4 2
484 420 380 207 98 41 17 2 0 0 0 0 1 2 6 15 43 30 2 1 0 1 0 0 0 0 0 0 0 0 0 0 0 0 3 7 7 1 3 2 0 0 0 0 0 11 55 7 2 0 0 0 0 0 0 0 0 0 0 0 0 0 0
546 565 509 320 165 55 12 6 5 0 0 0 0 0 2 90 87 6 1 0 0 0 0 0 0 0 0 0 0 0 0 0 0 4 0 1 6 0 0 0 0 0 0 0 0 0 22 20 0 0 0 0 0 0 0 0 0 0 0 0 0 0 0
597 604 467 275 146 74 27 22 17 3 0 4 4 40 0 3 83 126 36 0 0 0 0 0 0 0 0 0 0 0 0 0 0 0 0 0 0 0 0 0 0 0 0 0 0 0 0 4 3 0 0 0 0 0 0 0 0 0 0 0 0 0 0
520 457 396 287 90 28 9 24 21 25 11 0 7 2 0 17 41 41 34 1 0 0 0 0 0 0 0 0 0 0 0 0 0 0 0 0 0 0 0 0 0 0 0 0 0 0 0 0 0 0 0 0 0 0 0 0 0 0 0 0 0 0 0
362 269 81 6 72 103 20 26 20 44 32 5 0 0 2 19 66 51 20 11 4 0 0 0 0 0 0 0 0 0 0 0 0 0 0 0 0 0 0 0 0 0 0 0 0 0 0 0 0 0 0 0 0 0 0 0 0 0 0 0 0 0 0
522 374 117 3 0 1 20 63 39 23 20 17 5 25 7 14 52 50 21 26 24 12 0 0 0 0 0 0 0 0 0 0 0 0 0 0 0 0 0 0 0 0 0 0 0 0 0 0 0 0 0 0 0 0 0 0 0 0 0 0 0 0 0
575 387 270 89 0 0 5 20 47 11 13 33 34 24 38 7 16 6 36 32 36 18 1 0 0 0 0 0 0 0 0 0 0 0 0 0 0 0 0 0 0 0 0 0 0 0 0 0 0 0 0 0 0 0 0 0 0 0 0 0 0 0 0
497 349 297 66 8 20 11 21 36 119 96 35 24 42 54 24 31 4 16 11 21 12 0 0 0 0 0 0 0 0 0 0 0 0 0 0 0 0 0 0 0 0 0 0 0 0 0 0 0 0 0 0 0 0 0 0 0 0 0 0 0 0 0
388 318 287 38 17 43 26 38 92 94 148 47 82 73 81 32 10 2 0 0 2 1 0 0 0 0 0 2 0 0 0 0 0 0 0 0 0 0 0 0 0 0 0 0 0 0 0 0 0 0 0 0 0 0 0 0 0 0 0 0 0 0 0
360 358 243 78 113 92 68 38 77 167 36 72 24 23 35 38 11 0 0 0 0 4 2 1 0 0 0 2 13 18 0 0 0 0 0 0 0 0 0 0 0 0 0 0 0 0 0 0 0 0 0 0 0 0 0 0 0 0 0 0 0 0 0
416 424 164 97 72 44 87 58 68 5 68 68 36 26 2 160 116 44 15 0 0 0 0 0 0 0 0 0 0 1 44 0 0 0 0 0 0 0 0 0 0 0 0 0 0 0 0 0 0 0 0 0 0 0 0 0 0 0 0 0 0 0 0
481 484 299 275 236 188 279 216 46 121 173 111 65 90 156 222 177 172 149 133 79 67 32 8 8 3 2 0 0 0 0 2 0 0 0 0 0 0 0 0 0 0 0 0 0 0 0 0 0 0 0 0 0 0 0 0 0 0 0 0 0 0 0
448 447 482 492 613 495 398 423 240 235 178 277 247 307 309 273 272 324 324 260 247 262 205 198 125 58 22 5 1 0 0 0 0 0 0 0 0 0 0 0 0 0 0 0 0 0 0 0 0 0 0 0 0 0 0 0 0 0 0 0 0 0 0
489 551 673 672 682 546 590 680 526 357 443 435 523 660 459 259 226 181 390 329 362 368 326 259 195 150 124 68 27 25 9 0 4 0 0 2 0 0 0 0 0 0 0 0 0 0 0 0 0 0 0 0 0 0 0 0 0 0 0 0 0 0 0
510 534 567 637 734 769 762 638 572 686 626 645 697 706 816 647 484 488 539 549 551 506 416 306 230 267 241 211 148 92 70 34 1 0 0 0 0 0 0 0 0 0 0 2 0 0 0 0 0 0 0 0 0 0 0 0 0 0 0 0 0 0 0
461 459 534 638 672 685 670 723 590 549 545 645 709 767 706 660 786 747 723 720 627 555 466 438 518 484 348 285 274 216 198 127 31 0 0 0 0 0 0 0 0 0 0 0 0 0 0 0 0 0 0 0 0 0 0 0 0 0 0 0 0 0 0
632 454 529 567 663 766 785 788 776 740 650 751 799 745 731 809 857 713 823 718 613 428 414 410 454 448 462 494 420 298 171 130 133 51 10 0 0 0 44 0 0 0 0 0 26 1 0 0 0 0 0 0 0 0 0 0 0 0 0 0 0 0 0
733 551 445 160 329 707 918 901 719 679 695 768 854 701 695 674 639 633 563 623 488 403 420 605 595 470 567 432 352 308 162 91 175 185 64 35 0 0 0 0 0 0 0 0 0 0 0 0 0 0 0 0 0 0 0 0 0 0 0 0 0 0 0
640 631 491 578 615 660 330 832 819 670 606 612 612 646 544 487 450 598 593 533 472 405 420 367 192 0 0 161 337 339 381 356 272 283 295 343 334 275 212 0 0 0 0 80 0 0 0 0 0 0 0 0 0 0 2 2 2 0 0 0 0 0 1
649 605 796 675 726 189 100 438 654 625 560 495 499 444 422 398 461 499 428 424 390 336 297 455 494 526 624 630 577 480 525 546 474 469 450 424 434 421 346 86 0 70 120 0 0 0 0 0 8 1 0 0 0 0 2 5 8 0 4 5 5 6 6
682 670 637 467 440 439 399 107 108 80 238 126 134 224 512 443 323 248 268 334 409 322 369 479 647 700 573 512 436 344 322 359 340 312 366 266 204 195 278 365 385 335 216 0 0 0 4 0 0 1 1 5 31 18 12 6 5 2 0 2 2 3 4
621 488 331 64 145 350 58 33 366 108 254 465 359 138 77 22 40 57 261 403 157 384 600 718 763 675 547 472 383 328 222 200 211 283 260 248 213 227 251 275 309 346 349 338 317 194 10 0 0 0 0 63 52 28 15 8 0 1 0 0 0 2 2
472 304 177 53 97 71 48 96 166 184 140 66 122 37 13 25 0 0 1 15 13 44 308 625 700 664 567 383 296 263 209 199 166 129 7 0 6 12 77 219 264 286 257 219 202 188 169 151 110 16 35 24 18 9 7 7 6 2 0 0 0 0 0
0 0 0 16 68 94 90 47 16 4 39 88 103 48 67 47 0 0 0 0 67 14 0 244 362 439 444 345 230 238 200 94 0 0 0 0 0 0 0 0 0 85 144 164 150 119 88 103 83 0 0 3 3 3 1 1 0 0 0 0 0 0 0
0 0 0 9 23 15 24 26 18 2 2 0 0 0 0 0 0 0 0 28 169 59 0 0 93 169 192 55 0 4 0 0 0 0 0 0 0 0 0 0 0 0 0 0 0 0 24 0 0 0 0 1 2 0 0 0 0 1 0 0 0 0 0
0 0 0 9 13 28 30 20 5 1 30 18 39 26 1 0 0 7 4 21 193 56 0 0 0 0 0 0 0 1 0 0 0 0 0 0 0 0 0 0 0 0 0 0 0 0 0 0 0 0 1 0 0 0 0 0 0 0 0 0 0 0 0
0 2 42 51 69 26 9 9 5 0 164 127 58 0 0 0 0 0 0 0 0 1 0 0 0 0 0 0 0 0 0 0 0 0 0 0 0 0 0 0 0 0 0 0 0 0 0 1 0 0 0 0 0 1 1 1 0 0 0 0 0 0 0
0 0 0 1 44 108 171 112 0 0 3 28 2 0 0 0 0 0 0 0 0 0 0 0 0 0 0 0 0 0 0 0 0 0 0 0 0 0 0 0 0 0 0 0 0 0 0 0 0 1 3 1 2 2 0 0 0 0 0 0 0 0 0
0 0 0 0 0 32 0 0 0 0 0 0 0 0 0 0 0 0 0 0 0 0 0 0 0 0 0 0 0 0 0 0 0 0 0 0 0 0 0 0 0 0 0 0 0 1 0 2 3 2 0 0 0 0 0 0 0 0 0 0 0 0 0
93 123 78 10 0 0 0 0 0 0 0 0 0 0 0 0 0 0 0 0 0 0 0 0 0 0 0 0 0 0 0 0 0 0 0 0 0 0 0 0 0 0 0 0 0 0 0 0 0 0 0 1 0 0 0 0 0 0 0 0 0 0 0
22 114 2 3 1 0 0 0 2 10 0 0 0 0 0 0 0 0 0 0 0 0 0 0 0 0 0 0 0 0 0 0 0 0 0 0 0 0 0 0 0 0 0 0 0 0 0 1 2 2 0 0 0 0 0 0 0 0 0 0 0 0 0
18 27 58 74 69 31 0 0 0 0 2 0 0 0 0 0 0 0 0 0 0 0 0 0 0 0 0 0 0 0 0 0 0 0 0 0 0 0 0 0 0 0 1 1 2 2 0 0 0 0 0 0 0 0 0 0 0 0 0 0 0 0 0
13 48 110 72 142 107 0 1 0 0 1 1 0 0 0 0 0 0 0 0 0 0 0 0 0 0 0 0 0 0 0 0 1 0 0 0 0 0 0 0 0 0 0 0 0 0 0 0 0 0 0 0 0 0 0 0 0 0 0 0 0 0 0

ECMWFFLT1_con_mucape_054.txt.gz
CAPE
687 822 834 616 350 125 114 102 101 103 36 16 28 18 14 35 134 123 65 8 0 0 1 6 46 210 401 502 618 834 711 846 1300 1344 1303 1304 1376 1332 1328 1408 1155 1070 1225 1384 1095 732 513 466 277 217 301 346 92 158 32 37 5 49 75 111 259 482 294
778 746 493 228 183 151 125 109 76 22 23 54 12 2 3 2 15 14 2 0 0 0 0 0 23 159 254 186 148 214 464 632 844 1037 1407 1344 1228 1271 1173 763 764 935 912 1191 1505 1200 785 725 604 403 107 2 0 0 0 0 0 0 0 0 0 0 6
732 527 347 240 174 112 106 104 48 22 0 0 0 0 0 0 0 0 0 0 0 0 4 44 80 35 20 16 23 60 334 446 483 650 704 837 769 784 417 520 446 300 332 928 1216 1132 1203 963 769 492 177 57 0 0 0 0 0 3 12 3 0 0 0
865 658 423 230 94 83 59 46 38 8 0 0 0 0 0 0 0 0 0 0 0 0 0 3 0 0 0 2 5 70 217 189 208 482 415 368 176 159 100 52 29 29 64 136 748 1034 915 742 387 146 0 0 0 0 0 0 2 1 4 6 3 0 0
1006 739 409 266 184 113 102 63 7 0 0 0 0 0 0 0 0 0 0 0 0 0 0 0 0 0 0 0 4 7 12 56 74 57 81 34 11 4 2 0 0 0 0 0 18 145 433 618 348 10 0 0 0 0 0 0 0 0 0 0 0 0 0
984 723 486 314 288 162 43 2 0 0 0 0 0 0 0 0 0 0 0 0 0 1 0 0 0 0 0 0 0 0 2 2 3 7 6 13 3 0 0 0 0 0 0 0 0 6 43 95 66 9 0 0 0 0 0 0 0 0 0 0 0 0 0
1072 918 556 397 270 87 4 0 0 0 0 0 0 0 0 0 0 0 0 0 0 0 0 0 0 0 0 0 0 0 0 0 0 0 0 0 0 0 0 0 0 0 0 0 0 4 6 0 0 2 1 1 0 0 0 0 0 0 0 0 0 0 0
1158 945 584 372 280 107 11 0 0 0 0 0 0 0 0 0 0 0 0 0 0 0 0 0 0 0 0 0 0 0 0 0 0 0 0 0 0 0 0 0 0 0 0 0 0 0 0 5 0 1 0 0 0 0 0 0 0 0 0 0 0 0 0
1008 974 664 390 345 294 30 0 1 1 0 4 0 0 10 0 0 0 0 0 0 0 0 0 0 0 0 0 0 0 0 0 0 0 0 0 0 0 0 0 0 0 0 0 0 0 0 0 5 5 0 0 0 0 0 0 0 0 0 0 0 0 0
1341 1128 836 730 576 305 90 1 8 23 39 19 6 26 46 43 0 1 1 15 12 0 0 0 0 0 0 0 0 0 0 0 0 0 0 0 0 0 0 0 0 0 0 0 0 0 0 0 0 0 0 0 0 0 0 0 0 0 0 0 0 0 0
1266 1134 999 924 737 358 159 21 73 65 53 58 92 81 91 103 40 6 7 22 27 10 1 0 0 0 0 0 0 0 0 0 0 0 0 0 0 0 0 0 0 0 0 0 0 0 0 0 0 0 0 0 0 0 0 0 0 0 0 0 0 0 0
1337 1190 954 764 604 404 213 72 38 25 86 85 26 52 44 22 10 31 13 16 35 32 12 6 4 0 0 0 0 0 0 0 0 0 0 0 0 0 0 0 0 0 0 0 0 0 0 0 0 0 0 0 0 0 0 0 0 0 0 0 0 0 0
1214 1212 1085 867 582 375 185 59 17 55 114 45 57 61 18 1 0 20 6 4 23 23 37 36 41 54 48 22 6 0 0 0 0 0 0 0 0 0 0 0 0 0 0 0 0 0 0 0 0 0 0 0 0 0 0 0 0 0 0 0 0 0 0
1151 1078 998 866 598 418 206 67 75 66 40 64 90 61 48 8 0 22 24 11 20 75 51 61 71 77 107 109 94 13 0 0 0 0 0 0 0 0 0 0 0 0 0 0 0 0 0 0 0 0 0 0 0 0 0 0 0 0 0 0 0 0 0
1201 1093 1064 950 771 584 338 238 156 60 97 123 91 42 26 46 27 48 56 99 134 133 156 130 143 166 111 147 115 117 121 40 19 2 0 0 0 0 0 0 0 0 0 0 0 0 0 0 0 0 0 0 0 0 0 0 0 0 0 0 0 0 0
1002 1058 1058 959 947 691 442 418 434 263 91 194 67 38 25 85 114 123 215 238 220 245 236 264 300 291 275 275 266 258 228 173 157 147 81 38 3 0 0 0 0 0 0 0 0 0 0 0 0 0 0 0 0 0 0 0 0 0 0 0 0 0 0
1157 1144 1148 972 995 780 520 479 311 200 170 178 106 138 146 128 217 339 337 329 372 395 385 470 448 439 437 426 434 457 396 374 319 256 176 121 24 9 1 0 0 0 0 0 0 0 0 0 0 0 0 0 0 0 3 5 1 1 4 1 0 0 0
1063 1153 1187 1036 1107 992 934 827 483 304 314 305 219 329 391 395 474 460 580 498 490 588 602 620 594 579 654 620 523 518 476 458 495 431 359 235 70 105 66 50 29 0 0 0 0 0 0 0 0 0 0 0 0 0 0 0 2 5 24 8 0 0 0
1187 1242 1211 1178 1238 1079 1002 836 731 553 565 438 530 578 551 613 551 530 516 377 532 672 618 590 546 581 606 711 650 653 648 651 626 561 556 483 364 308 262 195 117 33 4 0 4 0 0 0 0 0 0 0 0 0 0 0 0 4 2 0 1 0 0
1130 1153 1225 1255 1356 1085 1068 1075 1010 937 778 650 790 759 737 850 792 612 566 640 736 768 765 640 720 784 790 794 794 814 882 762 725 739 693 619 558 490 428 380 347 229 1 1 8 3 1 2 3 1 5 0 0 0 0 0 0 1 3 3 0 3 0
1101 1262 1242 1280 1381 1261 1196 1227 956 935 802 824 847 740 876 976 1067 810 1050 1017 1027 954 951 908 973 1041 930 1077 1046 1010 1034 994 920 852 777 595 579 562 520 458 420 416 352 70 21 27 15 2 0 0 0 0 0 0 0 0 0 0 0 6 1 2 1
973 1047 1140 1137 1178 1255 1178 1070 1097 926 897 996 1045 1031 1075 1131 1152 923 1052 1176 1056 1028 955 1103 1356 1207 1291 1067 1056 1169 1074 1062 1044 1076 1110 1056 944 774 680 653 592 657 549 170 10 3 3 0 0 0 0 0 1 0 1 0 0 0 1 2 2 4 10
1054 1018 927 1085 1156 1251 1218 1330 1204 1072 1100 1096 1007 1072 1093 1135 1016 1060 1108 1156 1332 1354 1305 1303 504 0 11 737 1285 1092 1176 1203 1190 1245 1214 1227 1136 1024 933 887 753 195 46 0 0 37 83 0 0 0 3 0 0 0 2 3 0 1 1 3 10 0 0
953 902 650 821 986 1042 968 857 778 696 737 732 839 1213 1351 1161 1094 1124 1226 1450 1355 1184 927 462 359 331 396 465 755 1283 1408 1410 1270 1177 1137 1168 1126 1126 1046 855 850 360 51 157 172 148 0 0 3 0 0 0 0 0 0 0 0 0 0 0 0 1 2
933 1003 1049 1015 999 959 776 410 359 411 567 596 704 794 1015 1082 1354 1370 1291 1261 1327 1208 721 420 503 648 519 482 425 768 834 707 658 558 515 414 356 419 446 562 651 497 348 166 161 63 22 0 0 0 0 0 0 0 0 4 1 0 0 11 4 1 0
916 725 767 676 737 764 196 748 533 689 684 760 942 968 1222 1241 1121 1368 1503 1371 1161 936 445 540 592 633 525 310 379 667 539 537 441 442 434 335 351 331 428 280 387 251 105 118 184 184 10 0 0 0 0 0 0 0 5 21 25 13 0 7 6 5 0
1110 875 748 675 626 655 794 842 1000 953 874 827 822 908 793 968 763 646 497 442 570 703 688 705 757 621 472 400 279 534 660 573 389 351 279 366 370 378 402 369 220 172 133 24 28 0 0 0 0 0 0 0 0 0 2 2 3 5 3 1 0 1 1
421 357 426 602 694 677 634 819 771 774 732 501 404 189 267 218 271 156 127 77 144 532 281 579 666 637 490 319 286 329 566 437 299 250 171 108 86 147 188 279 236 95 78 32 16 0 0 0 0 0 0 0 0 0 0 1 0 0 0 0 0 0 0
73 147 193 220 277 321 451 240 194 141 82 49 68 169 146 70 117 164 230 85 36 44 22 131 276 332 448 293 217 625 246 165 128 73 22 8 6 13 24 48 55 12 5 0 0 0 0 0 0 0 0 0 0 0 0 0 2 0 0 0 0 0 0
19 46 42 28 34 118 170 169 106 40 31 12 11 6 39 74 27 11 34 38 26 26 38 0 0 0 0 0 0 162 122 60 66 41 13 1 0 0 0 0 1 0 0 0 0 0 0 0 1 0 0 0 0 0 0 0 1 2 2 2 1 0 0
0 0 6 1 36 55 22 19 27 14 7 8 6 12 11 7 12 16 9 4 80 40 50 0 0 0 0 0 0 192 72 44 40 6 0 0 0 0 0 0 0 0 0 0 0 0 0 0 8 2 0 1 0 0 0 0 0 0 0 0 0 0 0
0 0 0 17 49 38 30 18 20 22 10 6 7 3 0 0 6 4 21 80 1 394 65 0 0 0 0 0 4 148 30 56 19 3 0 0 0 0 0 0 0 0 0 0 0 0 0 0 3 0 1 1 0 0 0 0 0 0 0 0 0 0 0
0 0 0 63 75 28 32 20 46 28 22 0 5 0 0 0 6 0 16 36 65 181 140 34 0 0 0 0 0 14 30 12 2 2 0 0 0 0 0 0 0 0 0 0 0 0 0 0 0 0 0 0 0 0 0 0 0 0 0 0 0 0 0
0 0 0 0 0 27 6 0 174 295 194 31 22 11 5 0 2 0 4 27 48 121 147 96 0 0 0 0 0 12 66 7 7 0 0 0 1 0 0 0 0 0 0 0 0 0 0 0 0 0 0 0 0 0 0 0 0 0 0 0 0 0 0
10 18 5 4 106 120 115 92 237 284 69 53 50 16 14 0 0 0 1 8 78 59 0 74 0 0 0 0 0 0 8 5 3 0 0 0 0 3 0 0 0 0 0 0 0 0 0 0 0 0 0 0 0 0 0 0 0 0 0 0 0 0 0
131 80 116 127 50 28 178 168 116 88 44 40 41 43 10 0 0 0 0 0 8 23 11 0 0 0 0 0 0 0 0 0 0 15 0 0 0 6 0 0 0 0 0 0 0 0 0 0 0 0 0 0 0 0 0 0 0 0 0 0 0 0 0
83 164 153 162 115 122 179 173 199 129 94 59 53 68 18 3 0 0 1 0 0 8 8 0 0 0 0 0 0 0 0 0 0 1 0 0 1 2 0 0 0 0 0 0 0 0 0 0 0 0 0 0 0 0 0 0 0 0 0 0 0 0 0

ECMWFFLT1_con_mucape_057.txt.gz
CAPE
509 750 553 317 152 120 86 70 43 28 17 43 66 27 67 74 79 46 14 1 0 0 0 3 99 128 96 161 214 220 286 645 930 970 597 462 373 388 907 1007 1153 1158 980 670 622 863 363 281 408 339 253 118 15 0 0 0 0 0 0 11 41 106 72
630 592 311 136 172 175 171 41 17 38 95 29 6 5 0 0 0 0 0 0 0 0 0 6 35 51 38 33 73 205 204 272 345 595 802 815 527 469 772 775 720 518 780 774 789 838 578 561 439 284 143 19 0 0 0 0 0 0 0 0 2 16 26
422 236 126 222 223 300 258 60 6 3 4 4 0 0 0 0 0 0 0 0 6 0 0 0 0 0 0 0 13 154 174 134 161 196 242 250 202 225 85 127 210 156 309 552 561 772 644 724 322 193 191 164 10 0 0 0 0 0 0 0 0 2 0
416 300 260 184 180 182 57 67 47 12 0 0 0 0 0 0 0 0 0 1 4 0 0 0 0 0 0 0 0 6 19 9 3 6 0 0 0 0 0 0 0 3 3 53 171 495 350 365 538 280 188 61 0 0 0 0 0 0 1 0 1 2 0
515 357 280 254 143 130 149 151 71 10 0 0 0 0 0 0 0 0 0 0 0 0 0 0 0 0 0 0 0 0 0 0 0 0 0 0 0 0 0 0 0 0 0 0 2 39 419 572 254 164 14 0 0 0 0 0 0 0 0 0 0 0 0
515 318 271 227 205 198 129 39 14 0 0 0 0 0 0 0 0 0 0 0 0 0 0 0 0 0 0 0 0 0 0 0 0 0 0 0 0 0 0 0 0 0 0 0 2 0 112 319 21 3 0 1 0 0 0 0 0 0 0 0 0 0 0
474 345 227 258 156 85 29 15 3 0 0 0 0 0 0 0 0 0 0 0 0 0 0 0 0 0 0 0 0 0 0 0 0 0 0 0 0 0 0 0 0 0 0 0 0 0 0 0 1 6 6 1 0 0 0 0 0 0 0 0 0 0 0
582 310 276 239 160 36 5 8 1 0 0 0 0 0 0 0 0 0 0 0 0 0 0 0 0 0 0 0 0 0 0 0 0 0 0 0 0 0 0 0 0 0 0 0 0 0 2 3 6 4 1 1 9 6 1 0 0 0 0 0 0 0 0
610 407 266 246 136 36 24 10 6 5 0 0 2 0 0 0 0 0 0 0 0 0 0 0 0 0 0 0 0 0 0 0 0 0 0 0 0 0 0 0 0 0 0 0 0 0 0 0 0 0 0 8 2 0 0 0 0 0 0 0 0 0 0
705 444 252 317 180 67 71 40 21 17 9 0 13 11 0 0 0 0 0 0 0 0 0 0 0 0 0 0 0 0 0 0 0 0 0 0 0 0 0 0 0 0 0 0 0 0 0 0 0 0 2 6 12 5 2 0 0 0 0 0 0 0 0
599 541 410 373 211 75 105 109 121 56 11 2 17 37 24 13 2 0 1 1 0 0 0 0 0 0 0 0 0 0 0 0 0 0 0 0 0 0 0 0 0 0 0 0 0 0 0 0 0 0 0 0 0 7 17 2 0 0 0 0 0 0 0
777 382 525 424 222 100 75 173 144 95 52 9 5 40 34 19 12 4 5 3 9 0 0 0 0 0 0 0 0 0 0 0 0 0 0 0 0 0 0 0 0 0 0 0 0 0 0 0 0 0 0 0 0 0 0 0 0 0 0 0 0 0 0
1040 876 644 437 224 117 76 162 119 148 47 12 20 21 15 17 19 11 2 0 0 6 2 25 21 6 13 8 2 0 0 0 0 0 0 0 0 0 0 0 0 0 0 0 0 0 0 0 0 0 0 0 0 0 0 0 0 0 0 0 0 0 0
1328 905 505 436 196 155 118 109 139 175 34 17 34 20 9 11 10 17 12 6 19 58 78 121 123 188 146 144 63 39 39 20 4 0 0 0 0 0 0 0 0 0 0 0 0 0 0 0 0 0 0 0 0 0 0 0 0 0 0 0 0 0 0
1442 1127 1213 363 202 102 48 27 114 66 54 24 38 10 4 7 15 22 10 10 31 45 96 182 202 216 232 266 208 164 160 118 100 59 22 0 0 0 0 0 0 0 0 0 0 0 0 0 0 0 0 0 0 0 0 0 0 0 0 0 0 0 0
1244 1411 1289 761 340 92 70 33 23 30 64 38 21 14 7 18 21 36 39 46 60 87 90 158 310 294 323 320 276 335 324 260 222 216 204 78 14 4 9 5 2 0 0 0 0 0 0 0 0 0 0 0 0 0 0 1 1 0 0 2 0 0 0
1202 1258 1332 1096 265 130 78 147 54 43 22 45 21 15 25 24 41 67 74 74 78 139 304 411 437 489 471 546 530 499 464 415 473 388 321 277 194 77 86 65 95 37 4 8 4 0 0 0 0 0 0 0 0 1 2 0 0 3 5 4 0 9 0
1399 1546 1569 1248 949 297 124 216 166 23 14 16 1 5 35 42 80 99 197 120 298 289 397 444 477 508 577 645 684 576 560 533 564 546 523 441 228 268 178 137 172 122 72 37 36 7 0 0 0 0 0 2 1 3 6 9 102 67 82 32 2 1 0
1427 1432 1361 1180 999 520 139 129 131 119 124 37 32 21 79 74 115 124 237 236 408 387 355 400 445 469 556 686 729 762 654 600 568 543 528 631 516 468 369 332 367 220 107 96 144 91 151 4 0 0 0 0 5 7 14 96 7 77 48 75 45 8 0
1119 1222 1152 1232 1072 690 213 95 55 19 59 8 79 153 212 186 227 263 352 294 255 404 387 443 493 472 493 586 616 638 834 699 720 786 734 683 690 663 636 621 636 502 405 254 214 194 132 58 10 1 0 0 0 5 8 11 26 56 42 33 27 0 5
1070 1247 1262 1056 1078 500 593 292 85 6 56 107 176 216 264 205 483 738 625 239 265 436 416 511 543 629 634 683 626 823 930 1034 1022 777 947 786 747 678 744 734 743 663 613 612 439 257 541 303 28 1 0 0 0 0 1 18 4 2 7 2 0 1 1
641 842 896 1114 1087 668 758 570 375 144 194 171 216 311 566 668 692 524 442 373 470 628 793 818 642 572 1276 806 755 860 987 606 653 622 604 691 662 625 779 854 811 806 1062 562 347 62 273 51 164 71 16 0 0 0 0 0 0 1 0 0 2 7 1
846 1179 1161 913 1118 1177 1130 1179 1144 807 455 315 730 1070 671 487 519 610 373 809 1043 1290 1069 642 640 766 716 758 666 243 206 789 633 509 811 539 842 662 882 908 826 578 544 414 324 130 0 0 0 34 167 67 0 0 12 122 5 2 0 0 0 3 0
924 855 856 1001 804 446 627 604 715 976 881 780 871 849 592 315 35 355 420 659 796 1120 1154 947 639 394 0 0 468 703 533 267 447 583 803 692 966 609 402 631 790 522 418 205 28 0 0 0 0 0 0 0 2 215 13 0 1 0 0 0 1 0 0
735 661 532 603 701 577 735 616 649 842 1130 1085 1034 938 1083 782 558 640 620 644 496 702 736 375 0 44 396 181 135 912 847 564 545 390 474 502 318 222 395 678 744 844 789 732 483 64 0 0 0 0 0 0 0 0 0 0 0 3 1 4 0 1 1
718 530 555 501 490 523 614 676 560 594 560 793 872 964 1206 1099 856 807 806 718 536 630 581 277 402 502 373 139 164 433 705 178 182 171 262 168 128 68 104 112 361 521 311 37 46 295 0 0 0 0 0 0 0 0 0 0 0 1 2 3 1 0 0
886 713 475 417 320 328 331 395 160 38 626 864 931 908 1159 1264 761 10 339 571 406 473 490 386 578 428 305 0 0 26 663 77 96 69 88 91 84 165 165 108 48 302 337 106 164 95 12 0 0 0 0 0 0 0 0 0 0 0 5 3 0 0 0
461 783 674 508 304 290 465 587 412 657 683 807 743 644 543 307 419 383 256 300 466 479 651 666 579 507 232 55 0 5 435 190 90 128 62 18 28 89 128 156 74 55 78 97 19 290 70 0 0 0 0 0 0 0 0 0 0 0 0 0 0 0 0
446 424 298 243 298 202 366 502 509 414 454 416 278 210 101 44 1 0 0 1 73 113 112 342 532 582 458 248 206 99 212 50 46 58 15 25 58 109 90 95 49 69 94 4 0 0 0 28 0 0 0 0 0 0 0 0 0 0 0 0 0 0 0
102 132 154 168 134 177 202 179 135 116 78 86 84 49 0 0 0 0 0 0 0 51 13 0 0 0 179 14 0 498 8 33 45 17 15 3 0 0 0 3 23 2 0 0 0 0 0 0 0 4 4 3 5 0 0 0 0 0 0 0 0 0 0
36 39 42 64 109 143 117 82 87 9 10 2 6 5 2 1 0 0 0 0 0 0 74 0 0 0 0 0 0 384 83 76 89 40 2 0 0 0 0 0 0 0 0 0 0 0 0 0 0 6 2 6 5 3 0 0 0 0 0 0 0 0 0
6 2 51 27 37 41 23 11 7 6 8 6 8 0 0 0 0 0 0 3 0 7 42 0 0 0 0 0 0 266 148 87 92 50 3 0 0 0 0 0 0 0 0 0 0 0 0 0 0 4 4 5 4 5 1 0 0 0 0 0 0 0 0
0 0 0 12 6 8 3 8 6 0 2 2 0 0 0 0 0 0 0 0 0 40 67 6 0 0 0 0 0 11 188 39 31 3 1 2 2 0 0 0 0 0 0 0 0 0 0 0 0 0 6 6 2 1 0 0 0 0 0 0 0 0 0
11 0 8 13 5 3 5 12 19 4 2 2 9 5 5 9 2 2 0 0 0 26 118 67 0 0 0 0 0 6 113 7 19 0 0 0 2 7 0 0 0 0 0 0 0 0 0 0 0 0 0 0 0 0 0 0 0 0 0 0 0 0 0
5 14 4 0 2 6 2 0 0 0 0 0 0 0 0 0 0 0 0 0 3 70 100 63 0 0 0 0 0 0 7 81 196 1 0 0 0 5 0 0 0 0 0 0 0 0 0 0 0 0 0 0 0 0 0 0 0 0 0 0 0 0 0
50 147 96 69 49 95 46 1 0 0 0 0 3 7 10 0 0 0 2 0 3 16 28 0 0 0 0 0 0 0 0 44 0 183 0 0 1 1 0 0 0 0 0 0 0 0 0 0 0 0 0 0 0 0 0 0 0 0 0 0 0 0 0
0 3 100 132 77 166 94 90 57 18 8 13 28 39 31 2 0 1 0 0 0 0 2 1 0 0 0 0 0 0 0 0 0 4 62 2 10 0 0 0 0 0 0 0 0 0 0 0 0 0 0 0 0 0 0 0 0 0 0 0 0 0 0

ECMWFFLT1_con_mucape_060.txt.gz
CAPE
1135 827 747 590 786 511 399 274 290 238 154 211 306 109 232 268 225 52 10 0 325 210 186 146 231 318 310 403 595 683 766 606 743 777 581 690 760 732 674 345 338 707 449 803 633 603 338 137 48 8 46 38 10 0 0 0 27 194 220 273 213 321 261
835 662 258 228 349 370 363 527 443 118 190 106 5 5 0 0 0 0 7 129 249 215 41 119 39 11 106 509 646 619 419 547 708 574 362 518 587 405 689 572 573 795 728 873 706 818 400 207 113 71 0 0 0 1 1 0 0 1 38 83 107 76 99
592 395 304 486 484 695 466 168 208 191 70 252 108 35 22 0 16 45 28 94 76 5 0 0 0 14 170 234 381 420 456 409 380 336 343 243 24 231 112 238 321 396 287 544 757 462 344 459 109 56 23 5 8 0 0 0 0 2 2 0 0 0 0
616 584 416 434 534 372 64 149 164 175 18 4 44 8 0 3 28 36 46 0 1 0 0 0 0 8 214 280 153 89 113 155 84 36 22 53 2 0 0 0 0 0 146 564 508 590 429 351 159 27 11 0 1 0 1 0 0 0 0 0 0 0 0
568 341 257 380 342 127 240 284 131 0 0 46 42 58 35 0 8 8 19 11 33 7 0 36 0 0 0 0 0 0 0 0 0 2 1 0 6 0 0 2 0 0 0 281 430 448 499 358 375 13 2 0 0 0 0 11 2 0 0 0 0 0 0
480 354 374 309 254 275 370 147 12 0 0 1 0 0 10 27 42 57 108 131 100 62 69 0 0 0 0 0 0 0 0 0 0 0 0 0 0 0 0 0 0 0 0 15 170 252 193 94 287 0 0 0 0 0 0 0 0 0 0 0 0 0 0
661 461 406 334 345 339 319 118 43 0 18 8 10 15 0 0 0 0 0 0 0 0 0 0 0 0 0 0 0 0 0 0 0 0 0 0 0 0 0 0 0 0 0 0 95 230 93 154 42 5 0 0 0 0 0 0 0 0 0 0 0 0 0
562 543 465 447 399 336 109 87 51 61 0 1 31 0 0 0 0 0 0 0 0 0 0 0 0 0 0 0 0 0 0 0 0 0 0 0 0 0 0 0 0 0 0 0 0 0 31 24 1 1 0 0 35 1 0 0 0 0 0 0 0 0 0
307 546 508 356 551 188 148 157 148 11 29 61 0 0 1 0 0 0 0 0 0 0 0 0 0 0 0 0 0 0 0 0 0 0 0 0 0 0 0 0 0 0 0 0 0 0 0 54 2 65 378 0 0 0 0 0 0 0 0 0 0 0 0
561 670 532 589 329 314 321 216 99 80 117 47 6 10 1 0 2 2 0 0 2 0 0 0 0 0 0 0 0 0 0 0 0 0 0 0 0 0 0 0 0 0 0 0 0 0 0 8 17 0 17 6 7 0 0 0 0 0 0 0 0 0 0
968 734 653 540 280 322 383 231 261 55 30 42 12 2 36 78 7 13 2 0 0 0 22 2 0 0 0 0 0 0 0 0 0 0 0 0 0 0 0 0 0 0 0 0 0 0 0 0 0 0 3 8 2 14 0 0 0 0 0 0 0 0 0
1131 642 616 422 279 316 239 295 130 61 43 36 12 46 48 18 40 26 23 19 17 14 4 0 0 0 0 0 0 0 2 0 0 0 0 0 0 0 0 0 0 0 0 0 0 0 0 0 100 0 0 0 0 18 0 0 0 0 0 0 0 0 0
878 660 414 373 288 277 287 300 215 86 42 15 85 79 29 20 29 31 32 23 27 17 10 3 8 2 18 7 17 0 0 0 0 0 0 6 0 0 0 0 0 0 0 0 0 0 0 0 0 0 0 0 0 0 0 0 0 0 0 0 0 0 0
308 658 431 450 232 233 300 241 246 174 28 36 64 56 26 26 21 18 15 13 20 43 48 118 70 172 54 98 84 10 10 3 0 0 0 0 0 0 0 0 0 0 0 0 0 0 0 0 0 0 0 0 0 0 0 0 0 0 0 11 8 0 0
463 348 575 424 279 271 414 314 362 82 46 70 32 31 24 43 42 26 15 18 37 37 93 122 212 194 198 320 171 61 70 44 41 12 4 0 0 0 3 3 0 0 0 0 0 0 0 0 0 0 0 0 0 13 26 0 0 0 0 0 0 0 0
480 471 840 345 336 150 394 381 296 150 61 71 45 35 20 54 46 41 42 34 32 56 61 154 193 353 412 326 148 185 215 299 117 62 69 10 0 1 19 4 1 0 16 19 6 13 0 0 0 0 0 0 0 0 0 1 8 2 0 0 1 0 0
478 590 1133 812 302 232 273 332 229 191 62 42 44 48 43 33 42 57 40 46 55 70 92 257 250 279 286 286 287 276 262 350 230 183 189 163 23 0 56 92 80 34 4 14 42 0 0 0 0 0 0 0 0 22 6 24 0 10 33 17 13 0 0
625 553 812 1164 621 296 261 187 118 90 142 47 31 65 49 42 45 68 191 55 76 62 209 222 307 371 354 472 450 486 335 318 458 479 540 542 412 278 79 143 173 144 36 162 0 10 8 0 0 0 0 0 0 0 25 6 11 14 16 6 43 1 0
437 492 586 605 774 452 284 220 136 70 141 58 58 109 71 41 72 118 136 101 79 142 101 340 188 270 340 472 459 466 462 308 340 246 123 178 212 168 215 190 326 276 79 61 254 143 108 71 24 0 0 2 0 11 0 36 17 78 0 0 10 1 3
220 304 758 997 906 637 234 306 261 190 103 90 134 136 201 115 254 195 122 157 191 138 356 392 492 532 422 398 271 248 56 19 72 84 129 63 163 3 13 42 252 462 210 136 197 205 109 111 108 9 0 0 0 0 71 10 0 0 6 1 0 0 0
254 437 838 866 605 543 195 243 164 109 16 25 14 12 3 209 285 351 519 395 232 262 450 595 322 633 992 358 265 323 131 9 63 57 92 105 7 170 143 35 86 323 511 366 277 314 252 291 41 11 0 11 1 0 0 0 0 0 0 0 0 0 0
516 642 803 703 572 383 76 60 35 106 124 258 341 204 330 69 416 716 477 363 389 454 328 113 0 108 581 577 386 295 292 274 334 295 212 237 346 148 4 176 308 106 275 266 235 71 0 57 166 183 200 167 0 0 0 0 0 0 0 0 0 0 0
794 760 839 617 314 292 172 41 38 882 189 190 673 1090 755 524 659 606 377 317 398 373 180 0 125 187 192 324 353 389 387 330 292 300 250 247 135 130 161 122 450 424 458 441 345 310 114 0 0 0 0 0 0 0 4 0 0 0 0 0 0 0 0
606 576 647 632 448 365 281 232 343 861 833 854 931 970 647 578 471 396 270 257 362 395 404 332 557 536 536 513 548 599 376 366 396 287 258 297 204 240 142 184 378 418 451 400 384 360 303 19 0 0 0 0 0 0 0 0 0 0 0 0 0 0 0
604 493 484 531 416 420 279 351 348 710 1028 948 837 846 604 744 609 362 420 441 349 388 227 34 506 338 187 0 259 719 816 606 620 281 374 147 156 353 535 342 698 609 504 371 306 32 0 0 0 0 0 0 0 0 0 0 0 0 0 0 0 0 0
206 339 414 476 528 416 434 330 502 602 790 936 687 522 562 682 627 505 450 430 352 144 314 386 32 224 86 113 263 386 626 698 386 472 278 236 90 106 200 463 671 494 398 264 90 0 0 0 0 0 0 0 0 0 0 0 0 0 0 0 0 0 0
382 328 325 376 420 254 504 584 584 574 707 1040 968 605 654 440 666 511 263 134 287 236 301 343 292 347 147 78 163 0 376 187 187 90 14 56 101 116 72 68 343 350 215 0 7 0 0 0 0 0 0 0 0 0 0 0 0 0 0 0 0 0 0
481 348 237 299 365 365 550 513 482 554 779 981 847 838 763 299 18 271 370 358 432 59 267 228 360 7 0 0 0 0 67 203 44 22 10 29 20 0 1 156 82 12 0 0 0 0 0 0 0 0 0 0 0 0 0 0 0 0 0 0 0 0 0
417 423 367 302 340 518 504 522 562 724 807 874 842 743 570 447 257 176 357 497 321 10 433 353 430 184 0 0 0 0 429 121 26 0 0 0 0 0 0 16 0 0 0 0 0 0 0 0 0 0 0 0 0 0 0 0 0 0 0 0 0 0 0
308 224 196 280 377 493 534 508 586 651 720 630 540 355 234 272 239 222 431 472 200 75 67 428 397 376 193 0 0 275 401 27 2 4 0 0 0 0 0 0 0 0 0 0 0 0 0 0 0 0 0 0 0 0 0 0 0 0 0 0 0 0 0
104 54 98 109 216 384 458 406 348 301 373 334 195 75 34 15 13 20 5 19 56 10 0 0 42 40 44 222 0 2 222 14 19 0 0 0 0 0 0 0 0 0 0 0 0 0 0 0 0 0 0 0 0 0 0 0 0 0 0 0 0 0 0
9 46 32 82 216 206 204 107 91 145 136 87 58 33 0 7 3 1 13 22 4 45 0 0 0 0 0 0 0 61 195 25 2 2 0 0 0 0 0 0 0 0 0 0 0 0 0 0 0 0 0 0 0 0 0 0 0 0 0 0 0 0 0
0 0 6 81 66 89 90 65 118 99 25 5 1 0 0 1 2 2 0 1 52 28 0 0 0 0 0 0 0 0 16 17 34 9 0 0 0 0 0 0 0 0 0 0 0 0 0 0 0 0 0 0 0 0 0 0 0 0 0 0 0 0 0
2 0 74 11 6 31 301 151 38 110 117 55 2 4 6 22 3 3 0 0 0 125 68 0 0 0 0 0 0 15 92 95 10 0 0 0 0 0 0 0 0 0 0 0 0 0 0 0 0 0 0 0 0 0 0 0 0 0 0 0 0 0 0
15 105 14 67 106 100 13 126 70 6 9 0 125 245 19 26 7 12 0 0 0 172 69 0 0 0 0 0 0 0 81 34 0 81 89 0 0 0 0 0 0 0 0 0 0 0 0 0 0 0 0 0 0 0 0 0 0 0 0 0 0 0 0
0 1 66 77 71 99 113 22 21 9 0 4 19 81 104 28 25 35 17 9 34 136 33 0 0 0 0 0 0 0 0 0 0 12 8 0 0 0 0 0 0 0 0 0 0 0 0 0 0 0 0 0 0 0 0 0 0 0 0 0 0 0 0
0 0 0 14 48 54 138 156 87 2 0 0 0 0 2 51 4 0 4 13 65 46 2 0 0 0 0 0 0 0 0 0 0 0 0 0 0 0 0 0 0 0 0 0 0 0 0 0 0 0 0 0 0 0 0 0 0 0 0 0 0 0 0

ECMWFFLT1_con_mucape_063.txt.gz
CAPE
75 42 6 0 0 0 0 0 0 0 0 0 0 0 23 23 0 0 0 0 0 2 0 0 0 8 156 210 317 368 498 425 208 235 351 422 296 324 384 479 543 537 382 50 1 0 0 0 0 0 0 0 0 0 0 26 26 20 79 242 150 82 1
102 14 6 2 0 0 0 0 0 1 0 0 0 0 0 0 0 0 0 0 0 2 0 0 0 6 106 89 227 218 294 297 275 374 495 594 337 241 416 344 501 520 429 215 104 0 0 0 0 0 0 0 0 0 0 0 2 28 48 61 33 0 0
3 0 0 0 0 0 0 0 0 0 0 0 0 0 0 0 0 0 0 0 0 0 0 0 0 0 0 0 0 5 0 0 0 1 4 0 164 173 370 470 650 531 368 234 164 14 0 0 0 0 0 0 0 0 0 0 0 0 0 0 0 0 0
0 0 0 0 0 0 0 0 0 0 0 0 0 0 0 0 0 0 0 0 0 0 0 0 0 0 0 0 0 0 0 0 0 0 0 0 0 0 146 460 434 438 447 293 194 0 0 0 0 0 0 0 0 0 0 0 0 0 0 0 0 0 0
0 0 0 1 0 0 0 0 0 0 0 0 0 0 0 0 0 0 0 0 0 0 0 0 0 0 0 0 0 0 0 0 0 0 0 0 0 0 0 0 0 159 245 303 202 4 0 0 0 0 0 0 0 0 0 0 0 0 0 0 0 0 0
0 0 0 0 0 0 0 0 0 0 0 0 0 0 0 0 0 0 0 0 0 0 0 0 0 0 0 0 0 0 0 0 0 0 0 0 0 0 0 0 0 0 110 324 57 8 0 0 0 0 0 0 0 0 0 0 0 0 0 0 0 0 0
0 0 0 0 0 0 0 0 0 0 0 0 0 0 0 0 0 0 0 0 0 0 0 0 0 0 0 0 0 0 0 0 0 0 0 0 0 0 0 0 0 0 0 89 48 69 31 0 0 0 0 0 0 0 0 0 0 0 0 0 0 0 0
9 0 0 0 0 0 0 0 0 0 0 0 0 0 0 0 0 0 0 0 0 0 0 0 0 0 0 0 0 0 0 0 0 0 0 0 0 0 0 0 0 0 0 0 157 177 119 1 0 0 0 0 0 0 0 0 0 0 0 0 0 0 0
20 1 0 1 0 0 0 0 0 0 0 0 0 0 0 0 0 0 0 0 0 0 0 0 0 0 0 0 0 0 0 0 0 0 0 0 0 0 0 0 0 0 0 0 0 7 48 27 0 0 0 0 0 0 0 0 0 0 0 0 0 0 0
15 5 4 5 0 0 0 0 0 0 0 0 0 0 0 0 0 0 0 0 0 0 0 0 0 0 0 0 0 0 0 0 0 0 0 0 0 0 0 0 0 0 0 0 0 0 0 0 0 0 0 0 0 0 0 0 0 0 0 0 0 0 0
48 17 15 0 0 0 0 0 0 0 0 0 0 0 0 0 0 10 0 0 0 0 0 0 0 0 0 0 0 0 0 0 0 0 0 0 0 0 0 0 0 0 0 0 0 0 0 0 0 0 0 0 0 0 0 0 0 0 0 0 0 0 0
183 38 11 3 5 2 0 0 0 0 0 0 0 0 0 0 0 0 0 0 0 0 0 0 0 0 0 0 0 0 0 0 0 0 0 0 0 0 0 0 0 0 0 0 0 0 0 0 0 0 0 0 0 0 0 0 0 0 0 0 0 0 0
227 53 10 12 19 16 4 0 0 0 0 0 0 0 0 0 0 0 0 0 0 0 0 0 0 0 0 0 0 0 0 0 0 0 0 0 0 0 0 0 0 0 0 0 0 0 0 0 0 0 0 0 0 0 0 0 0 0 0 0 0 0 0
278 67 28 44 79 38 7 2 0 0 0 0 0 0 0 0 0 0 0 0 0 0 0 0 0 1 4 0 0 0 0 0 0 0 0 0 0 0 0 0 0 0 0 0 0 0 0 0 0 0 0 0 0 0 0 0 0 0 0 0 0 0 0
354 292 72 83 125 96 26 13 4 0 1 6 2 0 0 0 0 0 0 0 1 13 10 18 21 8 1 4 21 84 2 0 0 0 0 0 0 0 0 0 0 0 0 0 0 0 0 0 0 0 0 0 0 0 0 0 0 0 0 0 0 0 0
405 582 465 99 129 164 93 48 24 7 15 16 14 1 0 0 0 0 1 2 7 23 34 71 143 112 21 10 31 8 7 0 0 11 11 0 0 0 0 0 0 0 0 0 0 0 0 0 0 0 0 0 0 0 0 0 0 0 0 0 0 0 0
380 594 745 632 99 216 152 101 76 32 24 10 32 6 2 5 3 4 4 14 60 80 118 112 162 141 54 46 165 146 167 69 14 6 11 16 7 0 0 0 0 0 0 0 0 0 0 0 0 0 0 0 0 0 0 0 0 0 0 0 0 0 0
550 630 676 621 421 168 194 103 67 30 23 17 36 19 4 4 11 16 21 19 25 83 80 47 260 197 228 213 196 156 154 104 84 93 3 9 50 0 0 0 0 0 0 0 0 0 0 0 0 0 0 0 0 0 0 0 0 0 0 0 0 0 0
422 684 639 534 370 133 137 126 68 22 14 20 77 27 0 8 7 26 21 0 0 211 288 304 297 216 251 231 238 166 176 48 60 174 176 107 0 0 0 0 0 0 2 6 2 0 0 0 0 0 0 0 0 0 0 0 0 0 0 0 0 0 0
468 518 668 355 438 223 96 94 52 39 18 25 19 39 0 27 2 2 0 2 12 178 203 227 236 239 232 226 227 163 40 16 4 10 4 0 0 1 0 2 0 0 2 25 0 0 0 0 0 0 0 0 0 0 0 0 0 0 0 6 6 6 6
371 366 585 367 301 318 92 63 0 73 23 6 11 2 2 48 0 5 30 194 100 13 0 0 132 66 129 29 106 111 31 0 2 0 0 0 0 0 2 22 7 1 31 31 7 0 0 0 0 0 0 0 0 0 0 0 0 1 3 3 3 3 0
293 367 390 386 259 341 214 94 118 200 124 16 4 2 1 68 196 58 113 94 90 7 0 0 0 164 131 35 3 144 0 0 0 1 12 17 16 0 5 8 9 8 0 280 195 190 176 0 0 0 0 0 0 0 0 0 0 0 3 0 0 0 0
0 0 0 298 357 340 350 98 109 144 406 129 110 27 52 46 13 51 152 127 15 0 0 0 0 121 155 76 13 13 0 19 21 2 9 18 8 110 206 23 252 274 308 345 318 310 277 221 192 136 0 0 0 0 0 0 0 0 0 0 0 0 0
446 0 0 0 316 18 1 0 0 42 482 306 315 268 61 30 26 18 35 230 220 119 0 0 0 165 244 286 329 1 15 24 22 20 39 3 8 55 26 177 340 376 371 378 358 331 315 303 303 306 235 0 0 0 0 0 0 0 0 0 0 0 0
285 0 0 23 139 138 0 0 17 320 805 479 418 364 60 20 2 0 6 1 0 61 0 192 412 310 328 252 143 12 31 68 51 23 74 72 40 124 136 301 354 360 365 295 82 0 101 121 116 105 0 0 0 0 0 0 0 0 0 0 0 0 0
22 1 2 0 350 326 368 158 85 640 834 557 473 421 352 31 16 1 1 129 226 14 0 0 13 0 0 224 559 595 533 67 123 23 61 32 11 131 282 388 420 428 332 177 9 0 0 0 0 0 0 0 0 0 0 0 0 0 0 0 0 0 0
257 285 314 295 298 358 340 0 462 752 732 637 529 444 374 317 204 284 274 285 296 257 0 0 0 0 0 106 303 150 121 366 257 0 0 0 0 170 367 488 405 262 86 0 0 0 0 0 0 0 0 0 0 0 0 0 0 0 0 0 0 0 0
10 1 48 352 330 294 66 348 530 606 583 578 512 517 493 310 246 0 0 238 196 0 0 0 223 0 0 169 0 0 0 0 0 0 0 0 0 0 376 254 0 0 0 0 0 0 0 0 0 0 0 0 0 0 0 0 0 0 0 0 0 0 0
235 214 64 307 335 387 396 384 448 507 468 487 471 443 76 319 319 294 0 2 5 5 69 251 250 0 0 0 0 0 0 0 0 0 0 0 0 0 54 87 0 0 0 0 0 0 0 0 0 0 0 0 0 0 0 0 0 0 0 0 0 0 0
36 1 184 251 281 359 387 383 437 372 402 463 493 423 416 362 127 23 8 77 0 0 228 315 116 0 1 3 3 1 0 0 0 0 0 0 0 0 0 0 0 0 0 0 0 0 0 0 0 0 0 0 0 0 0 0 0 0 0 0 0 0 0
208 237 129 166 262 265 329 290 388 414 432 513 448 450 301 0 235 341 353 0 0 226 354 361 193 0 0 0 0 0 0 0 0 0 0 0 0 0 0 0 0 0 0 0 0 0 0 0 0 0 0 0 0 0 0 0 0 0 0 0 0 0 0
75 156 103 275 348 372 374 420 547 614 597 431 288 203 0 0 12 342 380 0 0 367 336 407 375 202 86 0 0 0 0 0 0 0 0 0 0 0 0 0 0 0 0 0 0 0 0 0 0 0 0 0 0 0 0 0 0 0 0 0 0 0 0
0 0 25 261 308 353 311 327 430 509 402 244 0 0 0 0 7 247 248 0 0 10 239 107 410 249 263 185 0 0 0 0 0 0 0 0 0 0 0 0 0 0 0 0 0 0 0 0 0 0 0 0 0 0 0 0 0 0 0 0 0 0 0
0 0 0 0 0 128 222 189 210 230 291 233 0 0 0 0 0 0 0 0 0 0 0 0 0 0 0 0 0 0 0 0 0 0 0 0 0 0 0 0 0 0 0 0 0 0 0 0 0 0 0 0 0 0 0 0 0 0 0 0 0 0 0
1 0 0 0 0 0 0 30 17 0 0 0 0 0 0 0 0 0 0 0 0 0 0 0 0 0 0 0 0 0 0 0 0 0 0 0 0 0 0 0 0 0 0 0 0 0 0 0 0 0 0 0 0 0 0 0 0 0 0 0 0 0 0
1 0 0 0 1 2 1 0 0 0 0 0 0 0 0 0 12 0 0 0 0 0 0 0 0 0 0 0 0 0 0 0 0 0 0 0 0 0 0 0 0 0 0 0 0 0 0 0 0 0 0 0 0 0 0 0 0 0 0 0 0 0 0
0 0 0 0 0 0 0 0 0 2 0 0 0 0 0 0 0 0 1 0 0 0 0 0 0 0 0 0 0 0 0 0 0 0 0 0 0 0 0 0 0 0 0 0 0 0 0 0 0 0 0 0 0 0 0 0 0 0 0 0 0 0 0

ECMWFFLT1_con_mucape_066.txt.gz
CAPE
357 326 266 236 266 58 0 328 309 265 0 0 0 0 0 0 0 0 0 0 0 0 0 0 0 0 0 0 0 0 0 0 0 0 287 464 409 347 390 394 118 0 0 0 0 0 0 0 63 16 0 22 258 174 0 34 100 97 36 184 239 232 152
254 223 97 209 47 0 0 0 0 0 0 0 0 0 0 0 0 0 0 0 0 0 0 0 0 0 0 0 69 0 0 0 0 0 85 82 198 305 403 275 0 0 0 0 0 0 0 0 0 0 13 40 0 0 0 0 116 8 0 0 0 0 0
191 181 212 189 142 0 0 166 140 0 0 0 0 0 0 0 0 0 0 0 0 0 0 0 0 50 179 144 146 172 197 169 0 0 220 289 0 197 406 310 265 269 115 0 0 0 0 0 0 0 0 10 38 69 125 34 0 0 0 0 0 0 0
212 198 117 107 95 0 0 0 0 0 0 0 0 0 0 0 0 0 0 0 0 0 0 0 0 0 0 0 0 0 0 0 0 0 0 0 26 242 324 358 322 267 6 0 0 0 0 0 0 0 0 0 0 39 72 0 0 0 0 0 0 0 0
204 114 103 132 132 0 0 0 0 0 0 0 0 0 0 0 0 0 0 0 0 0 0 0 0 0 0 0 0 0 0 0 0 0 0 0 0 238 379 343 245 85 1 0 0 0 0 0 0 0 0 0 0 0 0 0 0 0 0 0 0 0 0
11 7 125 166 171 133 59 0 0 0 0 0 0 0 0 0 0 0 0 0 0 0 0 0 0 0 0 0 0 0 0 0 0 0 0 0 0 0 294 384 273 258 208 0 0 0 0 0 0 0 0 0 0 0 0 0 0 0 0 0 0 0 0
109 159 170 132 52 47 0 0 0 0 0 0 0 0 0 0 0 0 0 0 0 0 0 0 0 0 0 0 0 0 0 0 0 0 0 0 0 0 0 0 137 279 183 0 0 0 0 0 0 0 0 0 0 0 0 0 0 0 0 0 0 0 0
209 193 177 0 4 32 84 0 0 0 0 0 0 0 0 0 0 0 0 0 0 0 0 0 0 0 0 0 0 0 0 0 0 0 0 0 0 0 0 0 0 230 37 0 0 0 0 0 0 0 0 0 0 0 0 0 0 0 0 0 0 0 0
371 316 137 140 143 133 125 44 0 0 0 0 0 0 0 0 0 0 0 0 0 0 0 0 0 0 0 0 0 0 0 0 0 0 0 0 0 0 0 0 0 0 0 0 0 0 0 0 0 0 0 0 0 0 0 0 0 0 0 0 0 0 0
478 167 148 162 143 49 0 0 0 0 0 0 0 0 0 0 0 0 0 0 0 0 0 0 0 0 0 0 0 0 0 0 0 0 0 0 0 0 0 0 0 0 0 0 0 0 0 0 0 0 0 0 0 0 0 0 0 0 0 0 0 0 0
191 175 190 151 43 0 0 0 0 0 0 0 0 0 0 0 0 0 0 0 0 0 0 0 0 0 0 0 0 0 0 0 0 0 0 0 0 0 0 0 0 0 0 0 0 0 0 0 0 0 0 0 0 0 0 0 0 0 0 0 0 0 0
240 243 178 98 102 107 21 0 0 0 0 0 0 0 0 0 0 0 0 0 0 0 0 0 0 0 0 0 0 0 0 0 0 0 0 0 0 0 0 0 0 0 0 0 0 0 0 51 0 0 0 0 0 0 0 0 0 0 0 0 0 0 0
178 146 138 142 140 116 0 0 0 0 0 0 0 0 0 0 0 0 0 0 0 0 0 0 0 0 0 0 0 0 0 0 0 0 0 0 0 0 0 0 0 0 0 0 0 0 0 0 0 0 0 0 0 0 0 0 0 0 0 0 0 0 0
166 154 154 173 129 7 0 0 0 0 0 0 0 0 0 0 0 0 0 0 0 0 0 0 0 0 0 0 0 0 0 0 0 0 0 0 0 0 0 0 0 0 0 0 0 0 0 0 0 0 0 0 0 0 0 0 0 0 0 0 0 0 0
15 167 157 125 79 0 0 0 0 0 0 0 0 0 0 0 0 0 0 0 0 0 0 0 0 0 0 0 0 0 0 0 0 0 0 0 0 0 0 0 0 0 0 0 0 0 0 0 0 0 0 0 0 0 0 0 0 0 0 0 0 0 0
127 20 0 0 0 0 0 0 0 0 0 0 0 0 0 0 0 0 0 0 0 0 0 0 0 0 0 0 0 0 0 0 0 0 0 0 0 0 0 0 0 0 0 0 0 0 0 0 0 0 0 0 0 0 0 0 0 0 0 0 0 0 0
288 162 76 2 0 0 0 2 0 0 0 0 0 0 0 0 0 0 0 0 0 0 0 0 0 0 0 0 0 0 0 0 0 0 0 0 0 0 0 0 0 0 0 0 0 0 0 0 0 0 0 0 0 0 0 0 0 0 0 0 0 0 0
85 57 49 46 21 6 28 43 46 2 0 5 3 0 0 0 0 0 4 0 1 0 127 150 165 52 30 139 0 0 0 0 0 0 0 0 0 0 0 0 0 0 0 0 0 0 0 0 0 0 0 0 0 0 0 0 0 0 0 0 0 0 0
79 4 4 1 6 122 120 110 108 3 0 2 0 0 2 0 6 11 20 70 119 142 175 223 220 176 191 190 170 172 168 134 114 24 0 0 0 0 0 0 0 0 0 0 0 0 0 0 0 0 0 0 0 0 0 0 0 0 0 0 0 0 0
174 234 0 0 0 98 198 167 109 25 0 0 8 1 0 3 8 9 9 40 136 170 210 269 277 252 251 257 166 134 19 0 12 203 123 0 0 0 0 0 0 0 0 0 0 0 0 0 0 0 0 0 0 0 0 0 0 0 0 0 0 0 0
292 364 250 73 167 232 182 168 119 5 0 3 6 6 0 13 10 16 45 138 193 220 241 299 330 305 281 278 291 275 198 0 0 0 2 123 163 63 0 0 0 0 0 0 0 0 0 0 0 0 0 0 0 0 0 0 0 0 0 0 0 0 0
311 637 375 151 0 0 0 30 34 58 11 36 4 1 51 9 18 40 103 177 235 254 266 296 320 308 285 280 254 210 181 147 0 0 0 0 121 0 0 0 2 0 0 0 0 0 0 0 0 0 0 0 0 0 0 0 0 0 0 0 0 0 0
204 197 289 309 106 1 2 2 67 122 140 73 0 0 2 31 61 105 131 178 238 276 296 322 339 294 274 240 28 0 1 104 10 0 0 129 102 0 61 60 0 8 9 4 0 0 0 0 0 0 0 0 0 0 0 0 0 0 0 0 0 0 0
228 48 283 253 16 0 0 0 32 52 260 162 0 0 35 62 65 94 8 8 178 213 238 248 237 221 205 214 65 0 0 0 0 0 21 167 140 120 159 141 155 21 33 98 253 222 234 246 167 0 0 0 0 0 0 0 0 0 0 0 0 0 0
412 0 0 0 0 0 0 0 0 0 126 262 1 0 0 1 0 0 0 0 0 0 0 17 96 170 187 172 0 0 0 0 0 13 96 81 41 164 205 193 265 302 260 384 370 350 338 320 302 279 261 188 0 0 0 0 0 0 0 0 0 0 0
501 369 0 0 18 18 20 0 0 0 97 290 244 0 0 0 0 0 0 0 9 0 0 0 0 13 189 184 11 0 0 0 0 0 0 0 0 79 211 332 413 385 384 339 262 196 200 201 206 201 203 194 0 0 0 0 0 0 0 0 0 0 0
314 369 398 347 102 144 345 318 78 0 138 291 277 147 0 0 0 0 0 0 0 0 0 0 105 296 301 221 0 0 0 0 0 0 0 0 0 288 371 409 436 393 322 86 0 0 0 0 0 0 0 0 0 0 0 0 0 0 0 0 0 0 0
268 73 0 0 0 0 0 0 0 0 62 309 326 296 250 212 37 0 0 0 0 0 0 328 303 132 30 224 306 415 365 263 79 0 0 0 62 342 417 450 434 349 274 161 0 0 0 0 0 0 0 0 0 0 0 0 0 0 0 0 0 0 0
0 0 243 284 189 0 0 197 183 349 424 402 373 351 378 357 308 276 277 262 238 237 230 0 207 195 165 318 434 418 300 202 2 6 4 7 244 420 513 485 407 268 40 0 0 0 0 0 0 0 0 0 0 0 0 0 0 0 0 0 0 0 0
0 0 198 260 323 322 304 352 298 458 495 520 528 439 400 348 335 314 291 9 74 146 200 194 182 151 0 224 256 14 11 7 9 15 16 4 315 456 523 369 0 0 0 0 0 0 0 0 0 0 0 0 0 0 0 0 0 0 0 0 0 0 0
0 13 0 0 234 241 285 301 336 360 345 51 32 42 0 0 0 153 296 253 26 0 6 150 153 12 112 38 6 34 51 9 16 7 4 2 225 376 379 259 23 0 0 0 0 0 0 0 0 0 0 0 0 0 0 0 0 0 0 0 0 0 0
0 51 78 147 181 176 240 248 327 318 79 0 77 170 230 354 122 83 70 117 10 10 160 216 236 5 48 0 1 0 57 12 4 19 30 0 0 0 0 0 0 0 0 0 0 0 0 0 0 0 0 0 0 0 0 0 0 0 0 0 0 0 0
0 0 18 190 257 246 207 131 8 9 165 240 316 396 397 383 340 275 216 32 112 110 254 334 200 0 0 0 0 3 82 82 86 40 0 0 0 0 0 0 0 0 0 0 0 0 0 0 0 0 0 0 0 0 0 0 0 0 0 0 0 0 0
0 0 0 0 0 19 150 203 302 399 415 499 530 420 363 159 40 175 287 269 17 220 362 368 256 110 36 0 0 0 37 94 0 0 0 0 0 0 0 0 0 0 0 0 0 0 0 0 0 0 0 0 0 0 0 0 0 0 0 0 0 0 0
0 0 0 0 0 0 0 0 17 269 390 306 253 25 0 0 0 68 216 231 33 133 317 329 378 260 59 0 0 0 0 0 0 6 0 0 0 0 0 0 0 0 0 0 0 0 0 0 0 0 0 0 0 0 0 0 0 0 0 0 0 0 0
8 2 0 0 0 0 0 0 0 0 0 0 0 0 0 0 0 0 0 0 0 0 92 215 334 414 316 242 0 0 0 0 0 0 0 0 0 0 0 0 0 0 0 0 0 0 0 0 0 0 0 0 0 0 0 0 0 0 0 0 0 0 0
7 9 11 12 8 2 0 0 0 0 0 0 0 0 0 0 0 15 0 0 0 0 0 0 0 0 0 0 0 0 0 29 108 21 0 0 0 0 0 0 0 0 0 0 0 0 0 0 0 0 0 0 0 0 0 0 0 0 0 0 0 0 0

ECMWFFLT1_con_mucape_069.txt.gz
CAPE
734 678 731 756 709 724 792 680 630 668 597 464 402 433 411 341 0 0 0 0 0 0 0 0 82 189 259 314 218 301 409 420 440 451 435 469 446 368 325 195 91 52 0 0 0 0 0 31 31 108 222 220 185 171 99 136 160 129 99 141 164 138 176
542 509 518 451 391 403 476 439 518 494 338 293 296 271 67 0 0 0 0 0 0 0 0 0 0 0 209 208 230 226 308 323 357 399 406 471 436 327 308 250 0 0 0 0 0 0 0 0 12 102 128 123 69 49 34 66 109 88 120 115 96 6 0
473 403 346 297 315 316 327 356 393 278 206 196 148 0 0 0 0 0 0 0 0 0 0 0 0 232 229 211 190 176 156 180 187 273 450 463 375 357 350 0 0 0 0 0 0 0 0 0 0 53 50 14 8 5 11 19 8 12 26 51 115 82 68
363 259 228 246 182 215 306 327 244 138 161 155 126 13 0 0 0 0 0 0 0 0 0 0 0 34 32 159 157 115 112 129 178 235 270 266 302 369 338 0 0 0 0 0 0 0 0 0 1 1 1 1 6 2 0 0 0 0 2 6 5 45 58
234 176 249 162 124 186 229 232 181 155 146 66 0 0 0 0 0 0 0 0 0 0 0 0 0 0 0 0 0 0 0 0 0 46 135 150 265 387 357 0 0 0 0 0 0 0 0 0 0 0 0 1 0 0 0 4 3 10 22 42 34 44 62
158 205 259 166 180 198 224 206 158 118 7 0 0 0 0 0 0 0 0 0 0 0 0 0 0 0 0 0 0 0 0 0 0 0 8 162 269 359 406 240 0 253 0 0 0 0 0 0 0 0 0 0 0 0 0 0 0 0 0 0 0 0 2
227 233 219 150 140 140 113 90 38 0 0 0 0 0 0 0 0 0 0 0 0 0 0 0 0 0 0 0 0 0 0 0 0 0 0 0 241 343 388 395 332 117 0 0 0 0 0 0 0 0 0 0 0 0 0 0 0 0 0 0 0 0 0
294 230 0 0 0 0 0 0 0 0 0 0 0 0 0 0 0 0 0 0 0 0 0 0 0 0 0 0 0 0 0 0 0 0 0 0 0 0 212 371 94 0 0 0 0 0 0 0 0 0 0 0 0 0 0 0 0 0 0 0 0 0 0
276 126 0 130 114 91 48 0 0 0 0 0 0 0 0 0 0 0 0 0 0 0 0 0 0 0 0 0 0 0 0 0 0 0 0 0 0 0 0 139 0 44 0 0 0 0 0 0 0 0 0 0 0 0 0 0 0 0 0 0 0 0 0
192 91 123 131 134 84 58 0 0 0 0 0 0 0 0 0 0 0 0 0 0 0 0 0 0 0 0 0 0 0 0 0 0 0 0 0 0 0 0 0 0 0 0 0 0 0 0 0 0 0 0 0 0 0 0 0 0 0 0 0 0 0 0
228 306 320 221 80 0 0 0 0 0 0 0 0 0 0 0 0 0 0 0 0 0 0 0 0 0 0 0 0 0 0 0 0 0 0 0 0 0 0 0 0 0 0 0 0 0 0 0 0 0 0 0 0 0 0 0 0 0 0 0 0 0 0
469 476 383 165 14 0 22 0 0 0 0 0 0 0 0 0 0 0 0 0 0 0 0 0 0 0 0 0 0 0 0 0 0 0 0 0 0 0 0 0 0 0 0 0 0 0 0 0 0 0 0 0 0 0 0 0 0 0 0 0 0 0 0
489 385 169 74 88 86 13 0 0 0 0 0 0 0 0 0 0 0 0 0 0 0 0 0 0 0 0 0 0 0 0 0 0 0 0 0 0 0 0 0 0 0 0 0 0 0 0 0 0 0 0 0 0 0 0 0 0 0 0 0 0 0 0
358 127 0 0 0 0 0 0 0 0 0 0 0 0 0 0 0 0 0 0 0 0 0 0 0 0 0 0 0 0 0 0 0 0 0 0 0 0 0 0 0 0 0 0 0 0 0 0 0 0 0 0 0 0 0 0 0 0 0 0 0 0 0
117 0 0 0 0 0 0 0 0 0 0 0 0 0 0 0 0 0 0 0 0 0 0 0 0 0 0 0 0 0 0 0 0 0 0 0 0 0 0 0 0 0 0 0 0 0 0 0 0 0 0 0 0 0 0 0 0 0 0 0 0 0 0
0 0 0 0 0 0 0 0 0 0 0 0 0 0 0 0 0 0 0 0 0 0 0 0 0 0 0 0 0 0 0 0 0 0 0 0 0 0 0 0 0 0 0 0 0 0 0 0 0 0 0 0 0 0 0 0 0 0 0 0 0 0 0
0 0 0 0 19 0 0 0 0 0 0 0 0 0 0 0 0 0 0 0 0 0 0 0 0 0 0 0 0 0 0 0 0 0 0 0 0 0 0 0 0 0 0 0 0 0 0 0 0 0 0 0 0 0 0 0 0 0 0 0 0 0 0
0 0 0 0 0 0 0 0 0 0 0 0 0 0 0 0 0 0 0 0 0 0 0 0 0 0 0 0 0 0 0 0 0 0 0 0 0 0 0 0 0 0 0 0 0 0 0 0 0 0 0 0 0 0 0 0 0 0 0 0 0 0 0
0 0 0 0 0 0 0 0 0 0 0 0 0 0 0 0 0 0 0 0 0 0 0 0 0 0 0 0 0 0 0 0 0 0 0 0 0 0 0 0 0 0 0 0 0 0 0 0 0 0 0 0 0 0 0 0 0 0 0 0 0 0 0
36 0 0 0 0 0 0 0 0 0 0 0 0 0 0 0 0 0 0 0 0 0 0 0 0 0 0 0 0 0 0 0 0 0 0 0 0 0 0 0 0 0 0 0 0 0 0 0 0 0 0 0 0 0 0 0 0 0 0 0 0 0 0
97 64 29 0 0 0 0 0 0 0 0 0 0 0 0 0 0 0 0 0 2 1 0 141 184 60 0 0 0 0 0 0 0 0 0 0 0 0 0 0 0 0 0 0 0 0 0 0 0 0 0 0 0 0 0 0 0 0 0 0 0 0 0
82 12 2 0 0 0 0 0 0 0 0 0 0 0 0 0 0 0 0 0 9 1 0 151 230 234 134 0 0 0 0 0 0 0 0 0 0 0 0 0 0 0 0 0 0 0 0 0 0 0 0 0 0 0 0 0 0 0 0 0 0 0 0
29 74 0 0 0 0 0 0 0 0 0 0 0 0 0 14 19 2 1 1 1 0 0 46 207 262 260 220 238 241 234 220 94 0 0 0 0 0 0 0 0 0 0 0 0 0 0 0 0 0 0 0 0 0 0 0 0 0 0 0 0 0 0
0 0 171 156 75 101 127 175 165 1 6 2 0 52 62 60 37 16 1 0 0 0 0 188 260 295 324 302 281 293 280 223 8 0 0 0 0 0 0 0 0 0 0 0 0 0 0 0 0 0 0 0 0 0 0 0 0 0 0 0 0 0 0
139 65 125 0 168 177 140 105 162 74 1 0 0 1 23 26 42 18 0 0 0 0 89 191 262 325 343 343 306 268 25 0 0 0 0 0 0 0 0 0 0 0 0 0 0 0 0 0 6 51 0 0 0 0 0 0 0 0 0 0 0 0 0
200 323 319 101 0 0 1 0 48 0 0 6 2 1 0 1 1 0 0 1 0 0 9 198 252 313 356 368 322 214 141 0 0 0 0 0 0 0 0 0 0 0 0 0 0 0 1 8 201 221 207 184 158 47 0 0 0 0 0 0 0 0 0
408 333 279 298 218 0 0 0 0 0 0 69 63 0 0 0 0 0 0 0 1 0 173 256 307 352 381 370 250 198 53 0 0 0 0 0 0 0 0 0 0 0 0 0 0 236 307 337 336 316 275 208 82 69 0 0 0 0 0 0 0 0 0
415 438 422 280 225 252 43 37 36 0 0 0 0 0 0 0 0 0 0 0 0 0 196 299 339 325 276 201 160 198 199 0 0 0 0 0 0 0 0 0 34 218 275 336 371 354 331 205 0 0 0 0 0 0 0 64 33 0 0 0 0 0 0
88 328 305 318 301 290 281 287 324 273 34 0 0 0 0 146 118 72 0 0 0 0 0 196 228 202 224 229 215 199 48 0 0 0 0 0 0 0 0 111 343 411 406 363 242 1 0 0 0 0 0 0 0 0 0 0 0 0 0 0 0 0 0
43 0 2 1 64 64 0 262 287 318 351 296 173 27 154 0 0 1 0 0 0 84 77 175 240 249 254 325 311 228 206 182 0 0 0 0 0 90 247 338 435 478 400 229 71 0 0 0 0 0 0 0 0 0 0 0 0 0 0 0 0 0 0
31 8 9 136 190 235 281 259 232 234 244 239 138 34 202 0 0 0 0 0 4 15 86 52 183 263 270 265 232 254 313 290 194 16 8 0 1 240 393 464 493 448 322 137 0 0 0 0 0 0 0 0 0 0 0 0 0 0 0 0 0 0 0
0 39 57 9 0 0 176 248 279 274 320 405 408 347 276 0 0 223 300 0 0 0 0 0 0 298 302 215 193 225 250 303 98 24 21 24 89 347 520 602 541 393 74 0 0 0 0 0 0 0 0 0 0 0 0 0 0 0 0 0 0 0 0
0 0 0 95 0 0 162 171 188 235 247 278 296 203 0 9 0 0 0 0 0 6 164 23 44 34 28 84 25 26 266 306 241 167 87 15 32 463 631 646 492 127 0 0 0 0 0 0 0 0 0 0 0 0 0 0 0 0 0 0 0 0 0
0 0 0 0 0 0 1 97 170 224 214 240 233 174 214 208 156 328 275 116 0 0 5 12 41 43 35 27 18 54 300 296 245 201 192 71 223 453 617 608 321 123 0 0 0 0 0 0 0 0 0 0 0 0 0 0 0 0 0 0 0 0 0
0 0 0 0 0 0 0 0 0 0 128 176 210 248 267 265 299 244 242 277 263 0 0 2 10 11 178 251 241 238 251 228 211 218 168 11 79 278 448 317 166 87 0 0 0 0 0 0 0 0 0 0 0 0 0 0 0 0 0 0 0 0 0
0 0 0 0 0 0 0 0 0 0 0 38 45 26 0 0 0 0 0 0 256 270 0 19 283 402 346 283 241 224 199 184 186 150 154 147 96 57 150 67 0 0 0 0 0 0 0 0 0 0 0 0 0 0 0 0 0 0 0 0 0 0 0
3 0 0 0 0 0 0 0 0 0 0 0 0 0 0 0 0 0 0 0 79 171 67 4 256 392 323 180 168 174 152 150 169 156 155 183 0 0 0 0 0 0 0 0 0 0 0 0 0 0 0 0 0 0 0 0 0 0 0 0 0 0 0

ECMWFFLT1_con_mucape_072.txt.gz
CAPE
809 914 932 990 984 1000 1044 1020 972 1001 983 731 591 540 583 621 678 604 556 545 476 403 350 395 522 557 571 735 776 667 590 552 507 380 340 415 374 221 310 368 127 32 0 0 0 11 0 172 109 96 121 134 55 28 6 1 6 5 7 18 41 91 52
923 951 941 906 944 952 924 770 697 636 587 490 433 440 518 468 308 0 0 0 83 0 0 0 95 381 394 479 450 554 593 600 580 518 444 476 432 321 358 398 314 232 0 0 0 0 3 77 71 41 70 22 9 17 21 26 28 38 41 12 10 2 2
930 897 884 856 856 827 633 533 491 414 340 300 303 332 208 0 0 0 0 0 0 0 0 0 164 129 218 265 257 274 398 515 479 464 459 456 450 444 457 330 243 214 0 0 0 0 0 65 75 86 30 10 0 2 13 36 62 58 42 23 0 0 0
744 715 675 555 539 537 424 428 355 281 256 248 249 46 0 0 0 0 0 0 0 0 0 0 8 165 146 188 215 211 269 333 372 394 375 381 475 482 446 326 269 23 0 0 0 0 0 5 18 17 18 6 0 0 1 2 8 11 9 3 0 0 0
429 393 308 268 294 336 332 371 299 230 124 0 0 0 0 0 0 0 0 0 0 0 0 0 93 133 140 131 150 190 206 214 222 209 255 394 438 397 346 293 181 0 0 0 0 0 0 1 0 1 1 0 0 0 4 7 6 14 9 8 7 0 0
22 0 206 207 208 249 276 302 222 11 0 0 0 0 0 0 0 0 0 0 0 0 0 0 0 0 0 0 5 4 11 113 166 220 281 299 283 328 360 233 0 0 0 0 0 0 0 0 0 0 0 0 0 2 8 13 5 11 23 27 24 0 0
0 0 0 0 75 218 251 120 0 0 0 0 0 0 0 0 0 0 0 0 0 0 0 0 0 0 0 0 0 0 0 0 0 51 118 118 210 352 377 202 72 0 181 0 0 0 0 0 0 0 0 0 0 0 0 0 0 0 0 0 0 0 0
296 0 0 0 0 65 204 181 124 30 0 0 0 0 0 0 0 0 0 0 0 0 0 0 0 0 0 0 0 0 0 0 0 0 0 115 232 318 362 318 261 283 23 0 0 0 0 0 0 0 0 0 0 0 0 0 0 0 0 0 0 0 0
444 297 0 0 0 0 123 176 124 0 0 0 0 0 0 0 0 0 0 0 0 0 0 0 0 0 0 0 0 0 0 0 0 0 0 0 71 283 338 362 324 252 0 0 0 0 0 0 0 0 0 0 0 0 0 0 0 0 0 0 0 0 0
554 310 0 0 0 194 190 54 0 0 0 0 0 0 0 0 0 0 0 0 0 0 0 0 0 0 0 0 0 0 0 0 0 0 0 0 0 0 228 270 0 169 0 0 0 0 0 0 0 0 0 0 0 0 0 0 0 0 0 0 0 0 0
603 191 0 0 0 0 0 0 0 0 0 0 0 0 0 0 0 0 0 0 0 0 0 0 0 0 0 0 0 0 0 0 0 0 0 0 0 0 0 0 0 0 0 0 0 0 0 0 0 0 0 0 0 0 0 0 0 0 0 0 0 0 0
531 94 0 0 0 0 0 0 0 0 0 0 0 0 0 0 0 0 0 0 0 0 0 0 0 0 0 0 0 0 0 0 0 0 0 0 0 0 0 50 0 0 0 0 0 0 0 0 0 0 0 0 0 0 0 0 0 0 0 0 0 0 0
302 0 216 0 0 0 0 0 0 0 0 0 0 0 0 0 0 0 0 0 0 0 0 0 0 0 0 0 0 0 0 0 0 0 0 0 0 0 0 0 0 0 0 0 0 0 0 0 0 0 0 0 0 0 0 0 0 0 0 0 0 0 0
27 294 333 280 0 0 0 0 0 0 0 0 0 0 0 0 0 0 0 0 0 0 0 0 0 0 0 0 0 0 0 0 0 0 0 0 0 0 0 0 0 0 0 0 0 0 0 0 0 0 0 0 0 0 0 0 0 0 0 0 0 0 0
427 423 338 14 0 0 0 0 0 0 0 0 0 0 0 0 0 0 0 0 0 0 0 0 0 0 0 0 0 0 0 0 0 0 0 0 0 0 0 0 0 0 0 0 0 0 0 0 0 0 0 0 0 0 0 0 0 0 0 0 0 0 0
524 419 253 0 0 0 0 0 0 0 0 0 0 0 0 0 0 0 0 0 0 0 0 0 0 0 0 0 0 0 0 0 0 0 0 0 0 0 0 0 0 0 0 0 0 0 0 0 0 0 0 0 0 0 0 0 0 0 0 0 0 0 0
506 354 155 0 0 0 0 0 0 0 0 0 0 0 0 0 0 0 0 0 0 0 0 0 0 0 0 0 0 0 0 0 0 0 0 0 0 0 0 0 0 0 0 0 0 0 0 0 0 0 0 0 0 0 0 0 0 0 0 0 0 0 0
380 172 0 0 0 0 0 0 0 0 0 0 0 0 0 0 0 0 0 0 0 0 0 0 0 0 0 0 0 0 0 0 0 0 0 0 0 0 0 0 0 0 0 0 0 0 0 0 0 0 0 0 0 0 0 0 0 0 0 0 0 0 0
260 0 0 0 0 0 0 0 0 0 0 0 0 0 0 0 0 0 0 0 0 0 0 0 0 0 0 0 0 0 0 0 0 0 0 0 0 0 0 0 0 0 0 0 0 0 0 0 0 0 0 0 0 0 0 0 0 0 0 0 0 0 0
239 0 0 0 0 0 0 0 0 0 0 0 0 0 0 0 0 0 0 0 0 0 0 0 0 0 0 0 0 0 0 0 0 0 0 0 0 0 0 0 0 0 0 0 0 0 0 0 0 0 0 0 0 0 0 0 0 0 0 0 0 0 0
74 93 0 0 0 0 0 0 0 0 0 0 0 0 0 0 0 0 0 0 0 0 0 0 0 0 18 0 0 0 0 0 0 0 0 0 0 0 0 0 0 0 0 0 0 0 0 0 0 0 0 0 0 0 0 0 0 0 0 0 0 0 0
72 68 5 0 0 0 0 0 0 0 0 0 0 0 0 0 0 0 0 0 0 0 0 28 92 104 114 111 0 0 64 110 124 101 76 82 76 72 52 0 0 0 0 0 0 0 0 0 0 0 0 0 0 0 0 0 0 0 0 0 0 0 0
29 14 0 0 0 0 0 0 0 0 0 0 0 0 0 0 0 0 0 0 3 34 85 98 126 146 175 195 171 125 139 151 150 142 126 105 60 112 111 98 76 63 26 0 0 0 0 0 0 0 0 0 0 0 0 0 0 0 0 0 0 0 0
8 12 28 0 0 0 0 0 0 0 0 0 0 0 0 0 0 0 0 4 11 6 83 102 126 145 157 207 225 206 174 191 188 161 190 188 134 11 3 3 0 0 0 0 0 0 0 0 0 0 0 0 0 0 0 0 0 0 0 0 0 0 0
1 27 42 25 0 0 0 0 0 0 2 2 0 0 0 0 0 0 48 55 54 60 67 85 110 129 140 150 185 221 243 241 250 254 250 195 88 0 0 0 0 0 0 0 0 0 0 0 0 0 0 0 0 0 0 0 0 0 0 0 0 0 0
2 24 69 44 0 0 0 0 0 0 2 4 0 0 0 0 2 40 52 60 56 35 8 0 0 0 0 0 169 208 252 298 285 273 211 124 30 0 0 0 0 0 0 0 0 0 0 0 90 81 4 0 0 0 0 0 0 0 0 0 0 0 0
20 0 43 94 102 94 51 74 97 59 30 41 0 0 0 0 26 45 48 43 40 38 13 0 0 51 27 0 0 223 281 327 335 285 201 74 0 0 0 0 0 0 0 0 0 0 0 0 0 27 0 0 8 10 0 0 0 0 0 0 0 0 0
192 57 41 0 0 0 0 66 107 71 0 71 0 0 0 0 0 0 0 1 1 0 0 0 0 0 0 0 60 240 308 334 346 310 208 0 0 0 0 0 0 0 0 0 0 0 0 0 0 69 139 1 55 56 184 33 0 0 0 0 0 0 0
264 240 237 197 83 0 0 0 0 0 0 27 28 0 0 0 0 2 1 0 0 0 0 0 0 0 0 19 162 237 292 334 349 261 0 0 0 0 0 0 0 0 0 0 0 0 0 136 200 224 160 25 34 0 41 0 0 0 0 0 0 0 0
182 180 220 233 110 0 0 0 94 0 0 0 54 108 59 0 0 0 0 0 0 0 0 0 0 0 0 106 188 259 307 331 283 0 0 0 0 0 0 0 0 0 0 0 0 199 264 268 115 82 0 0 0 0 0 0 0 0 0 0 0 0 0
105 117 115 89 4 0 182 175 182 0 208 225 241 257 234 130 25 0 0 0 0 0 0 0 0 3 34 93 185 265 297 269 0 0 0 0 0 0 0 0 0 0 217 283 331 333 314 106 0 0 0 1 0 0 0 0 0 0 0 0 0 0 0
0 0 0 0 0 9 30 34 14 52 171 132 198 228 236 251 240 194 77 0 0 0 0 0 0 0 0 0 0 0 34 150 170 176 71 45 0 0 0 0 0 208 343 389 369 325 15 0 0 0 0 0 0 0 0 0 0 0 0 0 0 0 0
0 0 0 0 0 0 0 72 106 120 120 131 153 184 181 183 186 99 0 0 0 0 0 0 0 0 0 0 0 0 13 149 206 240 224 146 114 93 25 97 299 399 443 414 302 0 0 0 0 0 0 0 0 0 0 0 0 0 0 0 0 0 0
0 0 0 0 0 0 0 0 94 96 108 116 123 137 63 144 201 188 67 97 117 134 114 0 0 0 0 0 0 0 44 148 0 0 0 0 0 0 0 257 420 516 490 451 147 4 4 4 1 0 0 0 0 0 0 0 0 0 0 0 0 0 0
0 0 0 0 0 0 0 0 0 0 0 100 0 2 0 0 0 7 20 200 205 219 227 226 12 5 152 101 4 0 0 2 27 31 10 3 4 44 0 338 513 606 614 407 8 8 10 9 4 0 0 0 0 0 0 0 0 0 0 0 0 0 0
0 0 0 0 0 0 0 0 0 0 0 0 0 0 0 0 0 0 0 0 60 92 163 159 166 177 77 165 118 117 15 16 36 113 5 22 7 0 78 334 603 684 630 254 5 10 9 2 0 0 0 0 0 0 0 0 0 0 0 0 0 0 0
0 0 0 0 0 0 0 0 0 0 0 0 0 0 0 0 0 0 0 0 0 0 0 0 0 44 48 8 151 89 90 41 30 19 134 124 87 22 5 301 633 696 558 240 94 10 0 0 0 0 0 0 0 0 0 0 0 0 0 0 0 0 0

ECMWFFLT1_con_mucape_075.txt.gz
CAPE
1058 971 965 989 1049 1045 1132 1128 1172 1142 1033 1105 1016 982 1254 1152 1168 1116 1345 1533 1210 949 944 982 1328 1444 1456 1415 1163 974 1066 1047 1068 1110 1084 800 824 579 270 515 634 706 801 513 302 234 231 89 8 60 39 27 26 4 3 47 7 3 8 53 58 7 2
1183 999 877 846 989 1018 1121 1078 1155 1037 1019 813 948 1053 984 1020 1074 1182 1200 1202 1180 1012 796 754 951 1025 1408 1484 1116 1090 1086 1140 1205 1296 1177 1040 1084 941 417 627 614 531 364 609 513 393 336 108 12 89 6 2 2 6 10 4 4 13 18 10 4 9 5
780 846 1006 1050 1130 1200 1181 1050 940 874 734 716 662 678 707 715 731 760 855 1001 1093 780 566 682 889 1054 1245 1368 1338 1266 1270 1233 1185 1148 1200 1225 1145 1026 840 660 470 431 323 308 366 266 362 230 94 55 45 38 3 4 18 14 12 6 11 23 3 4 12
924 980 1056 1080 974 1011 938 729 738 579 542 626 610 512 515 376 476 476 655 691 757 656 466 598 941 849 1036 1143 996 993 1113 1122 1025 1158 1050 1040 1056 789 802 638 678 632 586 382 293 293 294 188 80 112 62 38 3 2 8 16 12 2 17 5 0 2 1
980 1057 1163 1098 1017 1031 799 538 378 327 307 302 484 441 375 378 490 506 532 545 413 437 455 493 485 485 493 433 580 769 849 949 1001 983 1114 1081 988 1056 878 763 906 771 674 554 452 560 408 230 130 38 24 4 0 0 6 16 3 3 4 0 0 0 0
981 960 946 965 868 718 461 355 288 359 218 340 500 525 408 452 472 464 437 477 323 230 115 109 116 58 206 301 421 463 562 633 782 965 996 1098 1051 1152 1078 760 608 431 464 542 490 541 470 338 160 58 17 1 0 2 4 6 5 2 1 0 0 0 0
934 887 818 766 660 483 420 432 486 463 423 621 433 679 362 282 424 462 377 248 97 20 25 26 4 0 16 49 49 84 61 177 300 715 954 994 1017 1018 843 568 408 372 396 416 536 602 400 311 181 43 3 7 3 1 3 18 13 3 0 0 0 0 0
817 778 593 578 510 411 509 600 495 394 434 271 344 371 80 259 125 73 131 48 3 2 0 0 0 0 0 0 0 0 0 0 19 251 498 666 743 688 761 623 434 379 339 376 496 510 442 400 219 36 6 0 2 2 0 5 1 0 0 0 0 0 0
507 410 326 356 363 372 431 539 340 307 325 214 149 84 50 54 31 41 3 0 0 0 0 0 0 0 0 0 0 0 0 0 0 120 248 508 750 847 808 603 398 279 310 367 432 479 336 384 218 62 20 5 0 1 1 0 0 0 0 0 0 0 0
361 396 268 104 204 272 358 446 309 98 88 147 41 21 4 1 10 0 0 0 0 0 0 0 0 0 0 0 0 0 0 0 0 0 0 270 399 503 609 594 546 205 247 421 386 418 400 262 117 38 6 9 7 0 0 0 0 0 0 0 0 0 0
503 567 366 160 71 271 248 110 56 2 32 10 1 0 1 0 0 0 0 0 0 0 0 0 0 0 0 0 0 0 0 0 0 0 0 32 115 353 384 363 246 164 182 308 407 333 246 134 28 8 5 12 4 0 0 0 0 0 0 0 0 0 0
613 293 144 67 41 65 41 74 139 70 0 0 0 0 0 0 0 0 1 0 0 0 0 0 0 0 0 0 0 0 0 0 0 0 0 13 40 284 464 481 337 210 147 286 262 185 162 39 13 0 0 0 0 0 0 0 0 0 0 0 0 0 0
700 358 30 34 65 104 54 77 51 9 3 0 10 13 0 0 0 0 0 0 0 0 0 0 0 0 0 0 0 0 0 0 0 0 0 0 0 240 422 426 287 167 106 159 180 121 28 19 3 0 0 0 0 0 0 0 0 0 0 0 0 0 0
704 366 22 126 149 109 111 76 78 73 0 0 0 1 0 0 0 0 0 0 0 0 0 0 0 0 0 0 0 0 0 0 0 0 0 0 0 68 180 217 181 139 101 160 198 147 37 13 1 2 0 0 0 0 0 0 0 0 0 0 0 0 0
653 312 189 222 185 179 76 103 108 0 9 0 1 0 0 0 0 0 0 0 0 0 0 0 0 0 0 0 0 3 11 0 0 0 0 0 0 0 93 136 20 16 40 171 209 147 86 20 5 2 0 0 0 0 0 0 0 0 0 0 0 0 0
486 275 290 255 113 10 60 71 15 40 4 0 0 0 0 0 0 0 0 0 0 0 0 0 0 0 1 0 0 7 64 44 10 5 1 0 0 0 3 57 69 48 45 188 201 176 144 59 20 7 2 0 0 0 0 0 0 0 0 0 0 0 0
312 350 348 268 1 0 1 12 11 27 0 0 0 0 0 0 0 0 0 0 0 0 0 0 0 0 0 0 0 0 0 37 39 19 0 0 0 4 4 8 18 49 75 284 208 218 145 170 109 44 17 4 7 0 0 0 0 0 0 0 0 0 0
367 456 393 250 0 0 0 0 0 1 2 6 0 0 0 0 0 0 0 0 0 0 0 0 0 0 12 12 1 5 2 7 68 37 107 80 51 42 141 99 1 10 130 298 192 201 131 169 96 94 55 8 6 1 0 0 0 0 0 0 0 0 0
506 500 345 120 0 0 0 0 0 3 2 0 4 0 0 0 0 0 0 0 0 0 0 1 0 0 2 19 101 168 143 90 88 93 154 101 30 132 118 102 71 28 21 149 213 204 136 155 77 66 37 7 2 0 0 0 0 0 0 0 0 0 0
282 309 120 0 0 0 0 0 0 0 6 18 18 3 3 0 8 1 0 6 6 16 23 38 76 130 64 53 82 140 287 248 207 296 350 218 242 297 196 140 198 146 105 68 102 87 87 132 101 82 52 33 0 0 0 0 0 0 0 0 0 0 0
213 228 54 0 0 0 0 0 4 7 5 38 50 11 4 6 17 19 38 20 42 76 106 100 122 184 157 189 243 340 357 444 336 324 434 404 479 419 343 294 222 199 208 139 118 138 92 76 50 60 46 33 8 6 3 0 0 0 0 0 0 0 0
13 24 15 0 0 0 0 0 0 4 11 46 98 57 68 43 27 12 30 110 74 116 127 184 215 203 188 191 398 392 382 363 463 430 421 424 401 410 478 485 359 287 233 57 0 28 25 35 63 74 20 3 4 10 16 1 0 0 0 0 0 0 0
90 47 13 0 0 1 9 4 7 7 8 9 21 76 78 84 55 49 69 152 263 235 200 158 34 36 61 232 357 542 600 675 559 567 603 600 477 400 512 582 506 21 0 0 0 0 0 0 0 114 53 8 3 14 14 11 4 0 0 0 0 0 0
69 13 66 0 0 0 9 83 48 25 32 14 32 14 36 34 97 116 123 243 330 307 278 127 63 93 123 156 446 564 468 459 596 698 805 753 720 627 478 290 485 77 0 0 0 0 0 0 0 0 0 0 0 12 11 32 14 23 0 0 0 0 0
0 0 0 0 0 0 0 0 5 13 59 43 23 22 33 30 11 84 151 159 278 348 284 5 72 94 118 142 170 379 675 574 560 642 670 693 755 670 584 424 277 194 133 9 0 0 0 0 0 0 0 0 0 0 0 65 89 46 9 14 7 4 21
0 0 0 0 0 0 0 0 0 16 64 66 55 56 6 10 4 165 248 201 250 134 147 3 41 54 83 114 128 140 604 828 770 784 743 776 704 729 635 435 279 59 9 0 0 0 0 0 0 0 0 0 0 0 0 0 0 2 2 3 1 1 11
0 0 0 0 0 0 0 0 0 0 0 1 150 81 83 0 193 274 268 242 192 96 97 57 58 58 58 80 101 123 285 766 890 916 865 788 832 803 711 566 391 179 13 0 0 0 0 0 0 0 0 39 65 30 7 0 0 0 4 3 54 29 0
0 0 0 0 0 0 0 7 5 0 4 19 152 157 188 174 152 164 236 270 354 243 50 54 58 56 53 48 65 88 105 330 516 704 812 836 849 848 740 595 513 394 66 0 0 0 0 0 0 0 0 0 47 49 42 16 12 0 0 4 59 0 0
46 0 0 0 22 45 60 40 0 0 9 1 0 4 17 62 95 88 56 108 216 314 30 0 0 35 42 47 46 43 58 138 375 505 547 548 512 514 458 417 370 255 24 0 0 0 0 0 0 0 0 0 43 35 0 13 13 10 7 2 0 0 0
114 69 0 28 88 110 116 66 0 0 25 0 0 5 0 0 0 25 21 49 173 210 44 0 0 0 25 40 44 37 2 27 138 374 486 346 241 269 224 142 172 94 1 0 0 0 0 0 0 0 0 0 0 90 34 5 8 5 49 67 0 0 0
36 18 4 0 5 33 105 101 70 0 3 32 38 0 0 5 0 0 0 7 19 163 82 1 0 0 0 2 0 0 4 35 120 138 213 214 247 254 198 146 41 19 0 0 0 0 0 0 0 0 0 0 24 40 13 11 8 4 0 0 0 0 2
30 32 22 14 0 0 44 108 109 113 149 170 170 156 62 72 58 54 132 116 105 44 49 101 107 114 92 46 0 0 0 14 134 229 170 228 252 77 56 59 37 7 0 24 0 0 39 58 0 89 131 96 2 0 10 0 0 0 0 0 0 0 0
0 0 0 0 0 0 0 0 0 0 112 143 160 170 160 136 130 137 121 120 132 126 134 129 113 82 77 27 53 0 0 0 86 130 59 76 98 113 118 81 0 1 0 55 88 108 170 226 0 8 0 0 0 0 0 0 0 0 0 0 0 0 0
0 0 0 0 0 0 0 0 0 1 1 1 1 0 0 0 0 31 77 103 2 0 0 0 69 85 29 0 0 0 0 1 28 61 45 0 16 4 3 0 0 0 0 30 97 179 249 259 116 0 0 0 0 0 0 0 0 0 0 0 0 0 0
0 0 0 0 0 0 0 0 0 0 0 0 1 1 0 0 2 0 0 0 0 0 0 2 5 75 39 12 5 0 0 1 0 1 0 0 3 2 3 1 3 0 0 20 133 25 30 113 12 0 0 0 1 4 4 0 0 0 0 0 0 0 0
0 1 1 0 0 0 0 0 0 0 0 0 0 0 0 0 0 0 0 0 0 0 0 0 0 19 26 33 77 73 39 24 0 1 2 91 5 10 2 2 3 2 0 41 150 69 73 11 2 2 0 0 2 0 0 0 0 0 0 0 0 0 0
2 3 3 2 1 0 0 0 0 0 0 0 0 0 0 0 0 0 0 0 0 0 0 0 0 0 0 0 0 0 0 10 0 0 4 42 76 4 1 2 3 6 0 30 181 68 24 4 0 0 1 2 3 0 0 0 0 0 0 0 0 0 0

ECMWFFLT1_con_mucape_078.txt.gz
CAPE
1207 1386 1643 1745 1802 1627 1652 1722 1971 2186 1867 1398 1890 1998 2100 1761 1877 1905 1851 1795 1802 1601 1548 1620 1780 1798 1749 1673 1540 1288 1118 1123 1198 1081 815 804 855 945 1055 1164 1286 1300 1116 999 762 722 610 546 390 197 102 287 156 15 42 68 150 94 89 79 226 148 310
1495 1480 1480 1461 1613 1689 1832 1844 1587 1383 1302 1188 1130 1304 1299 1072 1229 1426 1747 1649 1422 985 766 882 1612 1894 1978 1964 1744 1432 1301 1227 1225 1137 605 832 988 1115 1224 849 787 758 805 887 770 651 644 608 464 391 37 15 10 7 9 32 11 47 87 56 75 28 33
1557 1484 1489 1418 1507 1715 1934 1799 1334 1148 1090 1202 1260 1126 1035 968 889 898 822 696 811 510 307 282 427 998 1862 2039 1803 1561 1439 1265 1322 1162 958 512 657 501 764 771 769 682 621 666 691 603 468 622 314 313 369 254 21 3 16 60 68 18 21 15 77 36 1
1716 1620 1595 1656 1808 1984 1663 1160 1163 978 835 848 965 1007 911 642 765 631 483 479 484 485 298 290 514 341 688 1131 1849 1878 1641 1470 1388 1489 1263 847 787 884 801 861 860 745 608 479 517 408 447 532 486 261 265 266 61 4 1 4 17 18 18 26 31 6 0
1309 1540 1868 2057 2004 1739 1212 1053 864 799 815 776 801 736 784 752 768 690 629 542 458 433 415 365 324 229 386 532 784 1236 1726 1778 1575 1453 1739 1494 1265 1137 1126 1037 1024 840 487 543 391 449 631 626 507 305 115 16 8 8 1 2 1 23 52 76 18 1 0
1649 1590 1680 1908 1676 1401 1088 936 919 700 662 746 740 711 842 890 716 724 604 488 460 475 415 374 422 374 443 504 652 859 1030 1468 1767 1665 1484 1594 1423 1310 1158 1120 775 642 639 720 591 524 580 626 515 323 244 117 45 15 14 0 4 1 2 1 0 0 0
1866 1928 1684 1590 1482 1369 1130 1024 863 768 662 741 678 650 653 752 629 599 639 480 499 504 501 479 506 516 517 210 458 528 909 1246 1627 1706 1733 1824 1694 1589 1503 1308 1164 1023 889 840 770 689 662 657 459 396 214 72 15 8 8 5 0 0 0 0 0 0 0
1907 1756 1569 1532 1493 1454 1339 1006 772 593 594 547 554 720 688 774 789 664 520 390 364 493 500 456 397 408 359 50 103 284 228 332 991 1399 1394 1634 1786 1691 1665 1430 1202 1069 990 888 919 715 527 581 467 382 160 67 30 21 29 10 1 0 0 0 2 0 0
1426 1470 1434 1383 1516 1320 957 755 689 554 490 573 672 754 916 759 644 520 332 278 228 324 289 218 143 57 52 38 15 120 90 92 564 1147 992 1420 1689 1868 1769 1481 1114 993 1012 956 849 682 457 510 522 415 160 79 73 100 149 61 28 0 2 2 0 0 0
1650 1331 1356 1306 1409 1212 945 718 594 574 736 647 733 877 849 732 549 413 232 186 161 145 94 50 22 2 22 64 82 251 225 304 210 180 332 622 1724 1835 1778 1444 1247 1075 1008 1038 772 736 703 688 552 425 101 46 97 122 79 4 0 0 0 0 0 0 0
1548 1568 1425 1412 1393 1352 1151 804 865 769 604 647 653 740 737 810 755 356 157 75 115 121 93 1 0 0 3 11 46 81 145 183 114 124 237 418 1279 1648 1576 1468 1260 984 1081 1122 1026 1040 944 758 186 7 14 21 6 4 5 8 0 1 0 0 0 0 0
932 885 891 1012 1265 1170 1158 964 706 607 814 651 501 646 697 663 504 231 90 22 49 71 70 37 0 0 0 0 0 0 94 23 0 8 223 653 933 1154 1447 1318 996 1043 1122 1243 1162 974 687 140 4 2 0 3 2 0 0 0 2 0 0 0 0 0 0
1097 814 831 982 1114 1051 941 801 758 834 635 375 392 525 471 472 297 149 62 1 0 0 0 0 0 0 0 0 0 0 0 0 0 7 172 442 340 717 968 876 517 951 1027 1090 874 472 287 30 2 0 0 0 0 0 0 0 0 0 0 0 0 0 0
1078 736 835 1138 959 890 851 797 668 498 384 271 433 507 474 297 147 100 8 0 0 0 0 0 0 0 0 0 0 0 0 0 0 4 106 421 190 232 91 190 370 596 782 498 298 336 79 40 8 0 0 0 0 0 0 8 3 0 0 0 0 0 0
1314 913 1089 1147 856 787 748 717 609 373 193 337 480 455 309 206 128 33 0 0 0 0 0 0 0 0 0 0 0 0 0 0 0 2 54 14 253 200 262 52 15 344 296 183 204 52 42 10 0 0 0 0 0 0 0 0 0 0 0 0 0 0 0
1237 1303 1196 976 803 628 691 626 564 288 191 226 397 344 238 200 101 3 0 0 0 0 0 0 0 0 0 0 0 0 0 0 0 0 8 12 5 75 218 267 324 438 268 238 218 9 22 6 0 0 0 0 0 0 0 0 0 0 0 0 0 0 0
1231 1191 1139 945 766 559 561 490 377 220 155 142 203 293 256 149 70 2 0 0 0 0 0 0 0 0 0 0 0 0 0 0 0 0 0 0 2 10 32 177 288 448 436 335 172 35 40 12 1 0 0 3 0 0 0 0 0 0 0 0 0 0 0
1277 1218 1130 864 993 754 600 461 353 232 197 154 136 205 149 131 45 1 0 0 0 0 0 0 0 0 0 0 0 0 0 0 0 0 4 4 2 11 21 17 24 124 372 263 311 113 36 71 8 6 1 0 0 0 0 0 0 0 0 0 0 0 0
1234 1319 1166 1109 1082 812 562 455 421 282 162 140 117 86 113 88 18 0 0 0 0 0 0 0 0 0 0 1 1 1 0 1 0 0 2 2 5 21 22 16 22 30 109 155 144 214 105 192 48 27 34 6 1 0 0 0 0 0 0 0 0 0 0
858 600 685 940 870 599 447 381 299 180 117 107 74 32 58 66 14 0 0 0 0 0 0 0 0 0 1 27 49 66 70 62 60 57 40 28 25 20 10 17 38 38 16 5 15 81 204 257 180 147 49 116 22 5 5 0 0 0 0 0 0 0 0
276 232 193 241 352 449 526 469 238 128 83 66 37 11 6 28 15 1 0 0 0 0 0 0 3 24 34 60 82 122 152 149 154 186 223 204 244 205 120 52 18 14 8 10 13 30 63 57 22 150 72 153 100 11 17 18 6 0 0 0 0 0 0
157 138 147 38 122 241 299 314 309 236 132 92 63 15 0 5 11 8 0 0 6 28 18 35 74 110 154 142 194 182 192 179 196 246 304 361 368 364 324 306 247 204 1318 280 0 358 288 213 251 5 54 204 294 169 85 28 13 4 2 0 0 0 0
120 104 199 148 48 131 257 330 250 164 149 138 99 18 2 5 3 5 0 0 8 60 82 281 525 11 130 406 338 338 310 324 380 434 416 415 439 408 400 477 655 39 0 0 0 0 0 0 0 391 663 366 324 236 287 197 59 42 5 0 0 0 0
37 130 89 284 52 44 126 179 112 71 128 127 120 63 47 64 31 3 2 52 129 140 190 713 0 0 0 0 594 542 486 449 535 574 580 606 579 526 597 493 938 583 25 0 34 0 0 0 0 0 0 0 34 1102 366 315 261 183 20 0 0 0 0
70 22 3 15 19 8 0 41 43 48 59 122 139 69 113 57 108 58 59 121 241 203 560 0 0 0 0 0 6 585 573 474 510 585 647 662 653 707 697 748 781 1031 634 428 442 149 3 0 0 0 0 0 0 0 62 830 1063 368 69 1 3 1 0
0 0 2 0 0 12 0 66 94 131 256 274 128 169 159 190 155 186 193 182 217 220 531 1 0 0 0 0 0 325 633 846 713 680 776 775 866 1035 1131 1082 1139 1153 843 340 175 268 360 93 0 0 0 0 0 0 0 0 0 186 804 12 22 22 8
2 2 0 0 0 6 0 26 36 96 142 122 181 238 238 313 204 180 147 210 214 234 652 24 0 0 0 0 0 39 472 792 1139 1071 1005 1041 1178 1248 1255 1279 1187 1298 1195 856 422 288 468 405 121 10 5 5 25 10 0 0 0 0 0 422 387 280 174
19 19 14 9 10 0 1 0 19 79 192 301 326 222 298 338 519 478 499 358 343 558 89 0 0 0 0 0 0 3 454 877 1042 1057 1009 950 356 402 1234 1370 1342 1195 1277 1201 708 457 569 472 308 224 196 217 355 251 58 39 36 58 23 304 705 1115 513
42 26 94 111 97 57 69 114 130 86 239 268 262 246 282 418 453 553 516 516 534 698 66 0 0 0 0 0 0 46 423 701 808 752 823 950 1014 1188 1387 1471 1562 1303 1159 1243 670 96 90 583 424 345 275 400 413 114 0 0 0 0 0 587 315 422 496
0 10 106 58 19 13 54 112 91 120 148 214 296 275 339 446 468 548 555 554 685 468 150 0 0 0 0 0 0 129 452 557 576 842 945 1072 1227 1251 1247 1292 1156 844 668 971 978 163 0 3 400 413 433 438 261 22 0 0 0 0 0 0 0 2 0
0 0 1 3 2 23 3 8 42 243 321 369 331 381 463 382 236 276 414 486 299 618 289 0 0 0 0 0 0 96 389 498 627 741 932 1159 1278 1092 1059 674 418 643 621 1402 425 110 0 0 171 429 549 406 242 18 0 0 0 0 0 0 0 0 2
0 0 0 0 2 3 5 50 100 98 278 313 263 276 290 528 376 251 156 71 29 545 182 1 1 0 0 0 0 34 134 339 609 893 984 1066 1179 984 1064 554 192 176 353 1047 225 38 0 0 79 398 567 544 295 75 0 0 0 0 0 0 0 0 0
0 0 0 0 0 0 31 23 9 22 57 78 79 86 66 102 119 96 80 74 81 94 116 79 3 3 5 4 3 2 21 271 359 460 592 613 681 1014 763 757 293 14 91 82 88 90 83 64 17 393 642 559 281 31 0 0 0 2 3 0 0 0 0
0 0 0 0 0 0 0 0 0 0 2 9 15 10 56 77 52 22 1 0 0 0 1 1 0 0 1 2 2 1 36 101 166 258 475 438 560 625 737 551 366 1 0 0 1 6 2 0 0 18 139 170 111 13 0 6 0 0 1 0 0 0 0
0 0 0 0 0 0 0 0 0 0 0 0 0 0 0 1 1 1 6 4 18 1 0 0 0 0 0 1 6 1 0 47 45 2 112 451 395 439 397 364 252 0 0 0 1 4 6 34 89 0 1 0 0 0 3 6 2 7 0 2 9 4 4
0 0 0 0 0 0 0 0 0 0 0 0 0 0 0 0 0 0 0 0 0 0 0 0 0 0 0 0 0 1 2 2 0 0 45 145 185 98 157 102 36 29 14 1 0 0 0 3 24 10 3 0 1 0 0 0 2 11 20 20 3 4 1
0 0 0 0 0 0 0 0 0 0 0 0 0 0 0 0 0 0 0 0 0 0 0 0 0 0 0 0 0 0 0 0 0 0 42 111 82 14 10 46 0 0 0 0 0 0 0 0 0 22 14 3 0 0 0 0 0 3 12 1 4 0 2

ECMWFFLT1_con_mucape_081.txt.gz
CAPE
1090 1185 891 1194 1321 1163 1333 1385 1584 1614 1563 1309 1320 1042 1095 1217 1205 1422 1346 1325 1074 1225 943 1172 1250 1167 1055 738 1030 1002 1044 856 1152 1117 969 680 1111 961 913 1050 1150 798 1049 724 558 491 537 402 164 440 603 556 473 218 352 463 384 116 455 510 550 373 140
549 1042 649 812 910 1330 1641 1636 1206 1664 1622 1441 1351 1175 1171 1233 1355 1472 1434 1431 1194 1080 617 1154 1077 1031 1204 1300 1482 1397 1456 980 873 1098 1080 1082 612 1029 811 920 744 711 763 820 822 538 623 453 422 301 382 241 174 158 112 164 204 172 270 319 182 33 11
979 754 1044 1094 1522 1204 1370 1463 1409 1635 1708 1517 1627 1465 1377 1115 1310 1646 1699 1681 1444 1264 220 687 1157 1194 1245 1350 1369 1325 1191 924 995 1322 1067 1253 1604 897 1287 698 748 737 640 706 661 362 538 546 415 396 376 260 131 47 80 129 142 209 308 145 38 14 2
713 694 804 841 832 940 822 1253 1019 1195 1291 889 1077 1084 848 785 648 623 593 692 491 386 212 273 315 1159 1500 1286 1652 1790 1665 1537 1508 1215 1259 1068 1150 780 900 1148 614 642 588 747 664 713 402 463 365 252 369 275 21 6 27 108 186 191 205 42 0 0 0
773 726 808 626 904 925 805 1023 962 805 771 876 981 819 753 655 610 514 457 401 348 331 201 169 188 158 312 952 1476 1493 1345 1664 1364 1312 1193 1456 1180 999 1118 1107 1367 905 836 953 443 540 524 544 504 393 143 118 63 17 1 48 150 229 171 11 0 0 0
467 783 887 979 1197 1517 1068 1068 678 817 844 814 799 910 760 623 458 526 432 329 332 296 233 200 229 208 149 302 526 1455 1356 1170 955 936 906 1053 981 1070 401 899 769 520 897 916 760 550 724 1229 410 530 289 195 68 7 0 63 257 198 2 0 0 0 1
612 690 906 809 880 945 1073 952 793 937 804 742 640 658 686 458 388 402 410 372 337 406 405 459 336 263 340 202 474 511 1351 1320 1219 1520 1117 901 1196 546 1114 1012 719 543 1197 1058 677 481 632 542 462 278 187 136 112 37 18 27 13 6 0 0 0 0 0
600 870 724 761 980 996 1061 763 692 638 671 564 581 553 428 437 418 391 407 330 339 520 506 542 475 464 315 227 234 270 276 938 1507 1253 1062 1402 1314 894 859 984 1324 1202 1291 1465 560 547 520 343 210 193 264 146 63 106 48 3 0 1 0 0 0 0 0
601 658 674 752 985 788 740 690 671 526 464 458 475 480 498 498 384 329 204 215 317 413 403 393 339 238 220 115 162 234 204 207 1143 1285 1146 1885 1797 1801 1574 1090 902 1002 1109 661 530 715 543 436 539 425 466 311 229 164 24 4 1 0 0 0 0 0 0
970 708 662 1117 1180 853 740 643 399 374 405 697 471 482 491 340 284 151 147 180 314 411 364 277 219 202 134 128 146 166 127 209 223 200 456 1412 1711 1671 1370 1213 926 712 729 683 574 546 599 579 533 466 413 406 331 75 68 23 6 0 0 0 0 0 0
942 934 857 1026 1082 831 709 560 505 455 373 525 432 456 462 436 398 173 159 79 209 274 234 137 73 81 101 115 101 125 172 213 219 233 254 511 1472 1655 1253 1002 838 665 813 392 890 566 507 410 368 356 258 295 216 379 209 15 0 0 0 0 0 0 0
991 945 996 1007 1011 746 545 458 528 467 448 405 417 426 550 464 364 169 70 39 136 244 146 63 23 2 18 75 74 111 90 113 68 129 115 255 613 1477 1339 1416 1011 932 910 962 840 825 848 393 50 117 59 83 146 170 33 7 3 0 0 0 0 0 0
645 740 499 1031 780 734 518 453 417 462 520 390 492 541 433 472 308 120 39 43 101 215 170 23 0 0 0 0 0 0 0 0 0 5 57 174 165 735 1484 1170 942 1098 1095 1022 954 736 223 16 1 3 0 0 27 128 25 7 6 2 0 0 0 0 0
698 494 732 702 566 587 421 312 427 481 426 430 504 448 440 463 152 62 5 1 9 35 64 13 1 0 0 0 0 0 0 0 0 0 34 90 95 324 260 339 793 1273 1285 650 282 163 7 0 0 0 0 4 4 1 1 5 0 0 0 0 0 0 0
515 472 464 446 361 471 506 381 471 388 288 311 446 319 422 269 103 20 0 0 0 0 0 8 0 0 0 0 0 0 0 0 0 6 36 37 114 78 168 189 299 992 308 90 136 1 0 0 0 0 0 0 0 0 0 5 0 0 0 0 0 0 0
664 750 599 488 416 403 427 393 317 359 212 334 399 420 320 165 74 14 0 0 0 0 0 0 0 0 0 0 0 0 0 0 12 42 26 24 20 23 44 92 321 351 171 70 30 1 0 0 0 0 0 0 0 0 12 21 0 5 1 0 0 0 0
815 583 605 406 391 395 476 442 321 192 207 286 428 319 207 101 71 4 0 0 0 0 0 0 0 0 0 0 0 0 0 0 8 9 10 6 2 19 31 49 69 94 88 59 21 4 0 0 2 3 0 0 0 0 0 0 0 6 0 0 0 0 0
952 577 521 400 360 345 402 399 210 91 150 224 238 288 168 123 54 2 0 0 0 0 0 0 0 0 0 0 0 0 0 0 1 0 2 3 0 9 8 22 19 29 61 43 32 25 22 2 0 3 1 1 0 0 0 0 0 0 0 0 0 0 0
826 858 527 433 363 262 324 346 188 117 53 80 222 264 167 146 24 1 0 0 0 0 0 0 0 0 0 0 0 0 0 0 0 1 0 0 4 4 11 6 19 38 36 62 47 28 63 23 7 12 0 0 0 0 0 0 1 2 0 0 0 0 0
890 882 958 708 450 359 336 300 235 189 121 118 143 203 138 164 9 0 0 0 0 0 0 0 0 0 0 0 0 0 0 0 0 0 0 0 0 2 3 5 12 21 25 29 45 55 98 118 65 50 44 23 18 1 0 0 0 2 0 0 0 0 0
695 771 870 943 431 386 345 308 171 146 125 126 85 40 108 93 6 0 0 0 0 0 0 0 0 0 2 24 13 21 25 27 24 22 35 18 10 7 10 7 6 4 14 46 248 65 186 39 44 66 56 79 62 48 35 5 2 3 1 1 0 0 0
483 590 563 738 536 352 375 264 151 105 101 117 24 7 47 64 1 0 0 0 0 0 0 1 8 40 154 212 150 140 167 135 164 203 230 203 192 130 72 42 7 493 312 34 0 39 154 213 798 87 44 65 67 41 45 57 36 11 1 0 0 1 0
278 390 236 410 500 289 212 234 132 88 43 33 25 6 7 16 2 0 0 0 0 12 18 569 129 105 182 226 380 286 239 271 170 288 357 428 395 372 406 286 704 230 0 0 0 0 0 0 0 14 61 461 347 85 59 41 46 46 48 19 4 0 0
235 214 153 245 380 193 236 221 150 65 52 48 16 19 5 12 2 28 0 21 82 112 419 290 0 0 8 144 1070 718 344 429 569 460 442 545 599 436 458 207 533 715 19 0 0 0 0 0 0 0 0 0 10 156 946 327 64 122 68 52 43 9 6
119 117 19 90 78 27 200 66 56 55 88 85 23 24 12 16 6 18 2 20 97 81 308 0 0 0 0 0 114 497 583 521 409 624 333 552 537 586 439 484 616 665 272 186 193 123 4 0 0 0 0 0 0 0 0 172 675 961 761 489 91 84 89
29 19 62 45 0 0 0 52 242 352 537 333 30 17 31 16 26 15 37 69 141 108 442 0 0 0 0 0 0 82 203 617 464 391 468 503 474 515 428 510 328 496 691 455 291 528 594 257 22 0 0 0 0 0 0 0 0 59 615 537 309 699 108
0 0 0 53 0 10 18 6 33 19 87 322 339 249 71 59 42 60 50 112 128 203 215 0 0 0 0 0 0 56 228 376 607 617 486 538 789 989 344 169 165 551 129 238 306 710 327 404 753 490 143 84 100 388 0 0 0 0 0 44 367 618 946
4 0 0 1 2 8 8 26 138 346 493 434 332 338 211 240 548 409 330 193 140 505 0 0 0 0 0 0 0 5 316 395 652 809 838 940 1027 532 699 614 691 351 641 622 510 391 418 386 555 750 763 602 393 272 483 487 239 230 88 156 121 340 1182
167 2 0 0 0 4 8 0 46 180 493 631 644 725 834 518 417 456 482 296 410 173 14 0 0 0 0 0 0 28 399 545 391 303 241 401 553 681 940 955 743 730 305 78 241 513 494 845 372 542 670 634 488 437 661 501 252 81 0 0 149 474 753
102 52 154 37 36 32 21 42 32 58 92 260 432 727 640 816 645 617 506 453 324 311 46 0 0 0 0 0 0 178 302 177 66 85 112 191 133 243 829 805 708 267 248 447 534 543 594 395 244 225 270 400 540 469 995 499 312 107 0 0 0 0 0
90 23 27 63 252 334 359 255 94 201 284 318 288 290 388 489 588 457 454 372 378 206 223 82 10 0 0 0 0 213 625 415 306 324 331 309 255 342 407 347 234 148 150 259 284 486 480 377 275 275 257 245 316 411 559 153 277 9 0 0 0 0 0
4 4 8 8 47 94 185 354 382 126 201 482 565 501 371 565 358 369 316 174 133 162 167 144 63 2 3 1 1 24 143 254 318 427 345 258 608 282 645 199 189 168 277 140 209 246 364 256 327 260 216 325 498 76 520 0 137 0 0 0 0 0 0
2 0 1 8 1 15 10 50 102 66 180 182 116 89 184 225 173 234 253 284 292 334 187 92 60 57 2 4 7 8 4 199 288 430 436 530 382 353 236 215 55 145 186 116 0 0 0 2 4 142 103 460 714 234 0 0 0 0 0 0 0 0 0
0 0 0 0 1 2 12 5 1 70 49 43 74 111 157 70 39 174 165 172 56 121 58 41 0 1 2 2 1 1 11 183 298 69 218 238 276 248 494 65 5 113 36 36 11 0 0 0 0 0 1 168 376 85 0 0 0 0 0 0 0 0 0
0 0 0 0 0 0 0 0 2 6 3 14 15 117 112 109 5 10 12 8 26 0 0 0 0 0 0 0 0 2 0 0 32 20 58 312 283 355 389 276 209 108 88 42 0 0 0 0 0 0 0 0 0 0 20 29 0 0 0 0 0 0 0
0 0 0 0 0 0 0 0 0 0 0 0 0 0 0 0 12 7 6 7 33 10 0 0 0 0 0 0 0 0 0 0 0 0 8 65 111 147 263 159 25 3 0 0 0 0 0 0 0 0 0 0 0 0 0 0 0 0 0 0 0 0 0
0 0 0 0 0 0 0 0 0 0 0 0 0 0 0 0 0 0 5 6 7 0 1 0 0 0 0 0 0 0 0 0 0 0 0 0 0 0 0 0 0 0 0 0 0 0 0 0 0 0 0 0 0 0 0 0 1 1 2 0 0 0 0

ECMWFFLT1_con_mucape_084.txt.gz
CAPE
1515 1115 1016 904 1315 1122 1031 1208 1343 1387 1380 1105 605 597 974 1126 1009 1421 1077 1414 1167 1375 1304 1366 1262 1282 1055 1182 1055 1204 1443 1644 1294 785 938 683 909 946 964 1039 1004 1171 835 818 364 488 181 134 244 189 184 110 223 331 306 248 255 288 261 359 396 339 433
1548 1302 1117 935 776 1089 823 778 773 666 696 736 585 578 702 1220 1118 1160 1217 1431 1352 982 1011 1154 1809 886 1226 1222 1122 1493 1301 1162 1679 1489 1288 1048 705 755 984 1143 989 1012 1008 980 820 380 352 216 231 195 158 150 232 220 204 192 122 228 255 13 582 84 0
1008 1110 1117 1090 1024 819 586 706 675 609 841 604 392 387 347 1003 1369 1348 1340 1453 1635 1236 792 938 1059 1343 1274 1490 1291 1332 1300 1276 1490 1504 1354 1191 1245 1104 1334 1239 1030 664 407 495 674 617 534 280 252 224 185 202 95 136 252 73 136 142 118 142 229 0 0
959 1121 908 719 712 766 810 844 749 558 679 703 566 793 735 1212 1399 1087 1154 932 1238 1237 689 784 981 1406 1605 1300 1355 1369 1496 1434 1432 1295 1398 1159 1430 1198 1058 1393 1110 743 508 178 476 545 578 455 233 220 197 81 44 97 158 233 118 116 15 21 4 0 0
1158 1063 874 740 612 988 1217 1173 1108 958 1052 746 842 750 1251 960 1210 1107 925 784 654 831 644 695 838 1072 1414 1324 1253 1745 1507 1414 1449 1520 1454 1208 1280 1204 1274 1192 1177 1046 1134 719 664 675 352 522 140 127 46 7 27 34 69 123 391 17 4 0 0 0 0
1194 908 879 727 701 1029 988 824 754 682 927 1036 1275 1098 1109 1015 1005 933 806 852 870 1066 916 438 594 956 1000 1039 990 1084 1390 1362 1462 1446 1555 1423 1335 1090 1366 1284 1122 851 995 636 405 775 994 560 138 60 15 9 4 12 32 98 19 20 0 0 0 0 0
1085 894 678 577 1042 1408 1243 1042 1055 930 773 1054 1084 1108 961 834 879 975 918 841 827 554 586 828 593 437 592 466 831 1063 1256 1367 1462 1247 1318 1346 1470 1312 1447 1142 1095 802 1114 1072 782 702 683 579 274 84 9 1 6 13 8 29 17 1 0 0 0 0 0
905 883 1075 1270 1259 1151 1097 1243 974 913 978 932 885 974 957 873 875 901 758 688 775 885 782 646 654 401 226 295 393 986 1117 920 876 1526 1245 1187 1389 1227 1320 1130 1455 947 1321 977 979 482 522 724 279 119 22 5 16 1 1 2 1 0 0 0 0 0 0
914 932 1049 1230 1544 1345 960 976 859 958 1043 1001 838 856 878 750 744 600 527 633 597 732 771 652 574 475 651 475 443 646 752 787 847 1099 1043 1246 1003 1456 1412 1272 1138 1163 1287 822 739 743 378 436 465 198 100 20 4 0 0 0 2 0 0 0 0 0 0
1008 999 964 1092 1124 621 456 495 883 1011 1026 966 951 903 898 762 652 430 447 518 768 703 638 641 507 280 464 410 450 748 643 604 694 622 453 1409 1073 1465 1642 1319 1268 1339 928 808 663 1068 720 386 419 428 209 216 73 0 0 0 0 0 0 0 0 0 0
953 909 1010 1043 637 486 548 528 704 854 923 827 810 757 786 726 604 516 347 525 649 544 459 333 116 180 471 422 410 408 396 612 422 577 850 1110 1183 1084 1330 1110 1100 880 827 963 1002 927 780 612 443 497 386 356 358 9 0 0 0 0 0 0 0 0 0
961 956 1049 998 817 862 736 685 832 785 666 661 592 737 627 460 479 286 250 299 364 424 333 420 120 97 395 281 644 273 258 449 549 564 694 1098 1413 1350 1176 1148 1026 840 904 1018 984 808 751 584 546 313 192 288 314 497 29 0 0 0 0 0 0 0 0
778 736 738 548 384 388 512 613 649 603 609 505 689 618 508 376 265 125 123 238 373 254 150 17 77 165 196 204 145 244 306 138 105 252 186 512 632 1176 1154 1177 894 891 1124 846 786 728 382 427 334 92 134 202 243 312 53 0 0 0 0 0 0 0 0
642 521 521 406 284 214 505 459 596 714 479 754 681 653 477 320 128 87 87 124 228 330 81 65 73 40 19 2 499 0 0 0 1 175 173 250 305 530 470 584 1008 970 1053 784 637 448 216 158 175 134 17 96 123 126 11 0 0 0 0 0 0 0 0
829 698 558 317 247 302 404 451 644 451 531 601 683 571 455 330 116 42 23 47 93 77 34 30 2 0 0 61 0 0 0 0 34 7 95 131 260 327 495 394 952 1027 637 328 278 16 42 0 1 1 1 12 22 16 4 0 0 0 0 0 0 0 0
508 526 413 412 444 254 499 572 488 583 557 593 586 572 402 210 80 30 8 11 5 4 8 24 10 58 24 1 0 0 85 229 79 156 131 65 40 188 404 500 610 511 283 240 210 91 0 0 0 0 0 0 0 5 4 0 0 0 0 0 0 0 0
1138 328 241 349 539 582 667 588 468 396 362 396 406 694 350 126 88 31 4 0 0 0 5 6 12 4 0 0 0 0 50 57 86 125 89 29 10 93 239 466 411 370 263 157 250 48 0 1 40 0 1 1 0 8 16 12 0 0 0 0 0 0 0
838 1004 739 746 785 729 762 615 446 316 536 601 496 280 203 184 63 6 3 0 0 0 0 0 2 0 1 0 1 6 0 7 73 141 251 51 188 106 189 200 178 202 232 160 228 10 0 20 4 4 0 0 0 15 15 13 0 0 0 0 0 0 0
682 661 1017 827 782 771 639 454 486 393 393 447 432 286 189 107 14 0 0 0 0 0 0 0 0 0 0 0 3 4 16 22 60 46 0 3 5 50 222 186 287 180 136 210 173 127 52 17 12 2 2 0 0 0 6 0 5 0 0 0 0 0 0
365 319 1051 674 692 575 493 315 222 163 263 398 414 315 199 118 34 0 0 0 0 0 0 0 0 0 0 0 0 14 12 20 40 0 17 19 33 58 36 102 205 261 151 146 176 115 118 204 225 158 79 7 41 0 0 3 0 0 0 0 0 0 0
254 366 770 704 476 452 499 334 252 141 211 315 328 217 127 53 30 7 0 0 0 0 0 0 0 0 0 1 10 0 26 41 4 0 111 118 38 73 204 99 182 181 210 229 202 149 276 193 114 63 147 88 136 134 9 0 30 16 0 0 0 0 0
549 752 862 817 538 389 377 510 320 223 315 243 185 197 185 50 20 3 0 2 0 5 140 164 11 2 131 25 52 70 42 121 87 67 131 187 102 38 156 164 236 214 201 231 283 223 58 323 562 358 391 188 213 50 66 150 60 13 15 2 1 0 0
472 611 751 652 405 327 316 300 319 186 211 90 93 156 163 55 6 8 0 4 54 180 21 0 0 0 0 36 148 316 380 193 349 304 283 436 319 389 358 315 240 89 0 0 0 0 0 0 0 80 164 208 288 518 271 116 83 65 42 33 11 3 0
450 473 363 315 386 256 256 452 154 83 115 51 91 87 195 74 20 42 0 60 167 150 0 0 0 0 0 0 94 572 316 333 338 503 411 232 465 247 292 165 216 237 138 146 133 0 0 0 0 0 0 0 2 143 357 819 683 557 562 124 52 12 4
413 375 304 154 58 144 250 302 238 262 310 119 209 90 92 76 14 111 79 256 216 1 0 0 0 0 0 33 98 139 724 503 756 164 229 310 200 212 180 126 133 147 169 96 242 72 31 0 0 0 0 0 0 0 2 74 222 290 886 491 222 182 251
331 284 216 131 72 38 35 42 114 258 179 92 298 222 111 238 67 90 245 165 94 0 0 0 0 0 0 66 209 176 232 579 444 666 429 228 121 111 123 143 7 19 275 210 199 173 199 219 210 228 10 0 0 0 0 0 0 42 522 713 609 396 254
201 268 161 107 70 11 0 0 0 6 62 291 269 272 257 261 313 275 278 70 0 0 0 0 0 0 0 0 0 26 152 364 799 404 251 189 110 58 173 300 154 181 492 302 89 93 219 177 162 113 222 232 150 28 0 0 0 0 0 14 145 304 626
100 19 29 27 34 0 33 9 2 4 190 400 251 143 192 371 352 255 137 20 0 0 0 0 0 0 0 0 0 2 227 498 535 708 365 363 247 290 244 485 368 640 704 474 223 226 212 112 32 48 113 196 202 279 307 248 46 0 0 0 0 0 30
0 0 6 13 20 17 14 30 44 176 426 355 356 370 402 320 178 198 144 13 7 54 5 0 0 0 0 0 0 9 297 473 524 411 424 435 478 654 642 377 1021 832 624 754 226 0 19 111 99 56 46 139 238 123 156 121 437 374 293 155 0 0 0
21 0 0 0 5 7 15 35 144 274 247 195 247 373 471 553 499 200 108 44 20 0 0 0 0 0 0 0 0 94 440 353 224 268 272 361 334 264 416 512 805 362 305 384 46 37 177 208 77 24 23 106 284 390 227 263 10 208 343 331 324 185 52
46 44 1 1 36 104 58 9 54 65 97 116 200 416 456 293 214 157 137 114 98 12 0 0 0 0 0 0 0 0 70 200 323 402 300 430 498 359 316 284 269 236 201 165 92 0 72 22 271 334 282 238 256 212 451 429 316 174 206 282 351 332 173
24 29 34 26 38 38 118 153 100 165 156 238 326 337 238 234 152 94 88 104 84 79 92 106 68 0 0 0 0 0 3 15 201 318 278 265 419 376 322 130 4 108 113 143 131 132 117 242 237 154 180 154 191 344 435 308 294 194 0 0 0 0 68
7 1 2 13 7 44 165 186 279 193 214 257 277 363 295 174 144 170 196 147 132 101 99 92 74 64 10 2 4 5 4 118 95 156 179 179 144 160 278 172 0 3 3 35 88 108 50 0 0 0 0 4 103 233 70 0 201 0 0 0 0 0 0
0 0 32 36 27 46 50 32 58 136 116 164 96 116 102 170 176 114 54 48 49 31 2 17 24 13 13 21 9 6 11 10 89 89 74 44 33 1 38 122 63 70 83 71 56 44 0 0 0 0 0 0 0 111 56 183 199 0 0 0 0 0 0
2 0 0 0 0 0 22 29 8 18 3 3 42 22 69 46 165 128 57 58 13 0 0 0 0 0 0 0 1 6 3 3 1 0 2 4 17 0 0 61 77 69 62 51 24 0 0 0 0 0 0 0 0 0 0 0 0 0 0 0 0 0 0
0 0 0 1 0 0 0 0 2 73 70 25 61 109 153 126 80 52 70 14 0 0 0 0 0 0 0 0 0 0 0 0 0 0 0 0 0 6 0 0 0 0 0 0 0 0 0 0 0 0 0 0 0 0 0 0 0 0 0 0 0 0 0
0 0 0 0 0 0 0 0 0 0 0 0 20 146 154 66 87 84 79 18 0 0 0 0 0 0 0 0 0 0 0 0 0 0 0 0 0 0 0 0 0 0 0 0 0 0 0 0 0 0 0 0 0 0 0 0 2 1 3 4 3 2 2

ECMWFFLT1_con_mucape_087.txt.gz
CAPE
803 801 807 739 808 986 949 882 976 987 889 906 719 529 431 648 845 1118 974 733 916 792 924 802 566 530 478 435 535 638 536 625 796 854 878 1056 952 1036 1088 679 654 385 294 410 104 158 174 224 186 235 165 146 207 208 200 235 160 51 55 44 36 37 0
889 906 894 890 962 1040 948 873 773 902 881 848 722 449 500 696 626 1002 1026 1069 904 1045 921 1053 562 550 558 518 524 626 786 893 865 726 760 942 962 934 863 858 766 620 574 367 112 58 144 128 160 220 165 150 143 52 43 159 116 90 1 28 71 0 0
894 877 883 896 941 972 787 666 592 785 779 826 758 472 530 677 688 784 824 831 854 1030 1069 1011 854 789 775 570 629 824 898 902 750 737 716 824 815 719 850 812 778 655 557 491 184 60 86 105 129 50 70 90 48 19 24 158 106 91 84 79 0 0 0
1020 882 777 755 769 772 774 610 621 719 734 713 555 453 600 644 731 502 506 710 722 722 881 838 766 745 821 793 960 802 874 1020 1068 967 823 742 606 915 1047 837 698 649 565 609 406 172 88 54 83 67 25 20 11 22 0 13 56 57 59 0 0 0 0
1096 924 849 716 678 702 752 723 649 571 720 610 466 252 284 422 574 570 657 525 697 779 516 704 980 714 799 971 977 1013 1016 1076 1036 894 862 979 864 939 858 815 593 296 420 584 477 258 254 59 64 30 0 7 58 48 10 12 67 40 11 0 0 0 0
1081 952 896 747 720 677 661 702 624 580 616 580 370 54 353 438 477 475 378 430 422 667 382 843 1075 1028 1009 1003 956 1176 1087 1036 1076 1047 977 985 894 894 728 604 438 471 383 468 523 429 291 36 22 2 0 0 59 64 83 109 118 12 0 0 0 0 0
1047 993 1017 904 763 894 747 645 705 653 775 762 598 327 345 432 328 291 381 553 252 628 399 577 774 966 945 1000 822 976 1086 1128 1184 1147 1018 982 1000 873 875 908 803 645 447 258 459 481 371 140 95 0 0 67 80 41 72 94 4 0 0 0 0 0 0
843 874 807 780 987 1115 1034 816 761 723 676 534 488 394 357 424 566 536 397 155 109 52 374 406 585 755 690 801 784 899 1000 1102 1125 1069 1124 1002 936 936 806 794 784 677 705 337 571 379 339 300 213 95 0 0 47 43 12 41 2 0 0 0 0 0 0
794 831 868 1030 1059 917 958 814 659 612 753 714 556 493 477 499 400 252 323 314 155 140 66 144 156 182 518 633 601 673 786 852 941 967 1126 1090 884 766 802 759 848 819 758 667 654 406 312 246 209 40 0 0 0 2 0 0 0 0 0 0 0 0 0
922 912 1064 1205 1109 990 845 712 704 604 614 598 521 586 440 332 253 255 112 116 135 141 93 46 54 57 408 501 622 696 666 674 911 922 809 938 1129 1158 995 871 1081 882 580 572 506 405 340 327 217 140 0 0 0 0 0 0 0 0 0 0 0 0 0
830 1067 1155 1146 1019 860 652 525 716 685 524 525 578 476 300 280 248 264 97 254 238 107 120 164 56 56 20 207 558 594 569 702 718 698 719 812 877 1192 1131 980 961 630 478 593 419 375 335 343 262 0 0 0 0 0 0 0 0 0 0 0 0 0 0
926 909 993 1008 1052 731 444 417 678 606 534 539 440 317 228 216 6 31 214 279 282 231 110 26 7 30 19 134 421 461 573 582 486 657 710 750 739 952 1122 882 780 604 663 646 376 294 320 280 179 3 6 0 0 0 0 0 0 0 0 0 0 0 0
960 807 809 770 734 519 382 542 394 372 352 360 354 253 175 4 1 20 212 188 136 102 2 0 15 7 10 4 2 14 135 400 516 713 793 945 1101 959 1019 799 780 670 614 556 397 268 291 230 189 64 1 2 1 0 0 0 0 0 0 0 0 0 0
851 776 743 596 552 428 455 418 385 367 338 312 176 45 110 43 0 4 144 122 62 0 0 15 2 0 0 0 2 2 53 320 496 773 860 854 882 876 852 754 606 685 588 423 435 372 304 302 320 246 131 40 2 0 0 0 0 0 0 0 0 0 0
762 743 625 433 374 313 318 313 320 304 240 161 261 110 101 75 4 6 118 138 20 4 7 0 0 0 0 0 0 0 0 13 15 162 561 645 711 710 657 703 687 562 483 414 308 344 407 385 305 186 142 147 0 0 0 0 0 0 0 0 0 0 0
640 655 434 382 334 311 302 279 227 250 301 227 335 142 112 14 2 2 104 94 16 9 2 0 0 0 0 0 0 12 0 0 0 155 287 336 429 538 646 674 606 552 456 439 410 116 227 237 76 3 2 53 0 0 2 6 3 0 0 0 0 0 0
606 529 395 345 312 341 258 180 54 307 251 308 320 167 72 4 0 0 72 75 0 3 1 1 0 0 0 0 0 0 0 0 2 1 0 217 330 561 691 661 555 539 365 297 202 102 0 3 28 85 76 0 0 0 11 0 0 0 0 0 0 0 0
602 477 298 300 326 357 135 46 36 261 274 284 232 169 15 0 0 0 0 0 0 0 0 0 0 0 0 0 0 0 0 0 2 4 0 237 310 394 440 438 285 112 7 30 57 0 0 0 1 31 62 8 0 0 0 0 0 0 0 0 0 0 0
508 325 211 245 334 297 89 280 210 180 218 238 221 141 14 0 0 0 0 0 0 0 0 0 0 0 0 0 0 0 0 0 0 0 0 5 20 256 311 148 5 2 5 20 17 2 4 0 0 0 39 24 0 0 0 0 0 0 0 0 0 0 0
367 272 288 364 357 178 30 126 128 172 227 208 168 65 10 0 0 0 0 0 0 0 0 0 0 0 0 0 0 0 0 0 0 0 0 0 0 0 0 0 0 0 4 1 0 2 0 0 0 0 0 0 0 0 0 0 0 0 0 0 0 0 0
352 493 349 210 186 130 154 10 85 233 238 187 155 16 1 0 0 0 0 0 0 0 0 0 0 0 0 0 0 0 0 0 0 0 0 0 0 0 0 0 0 0 0 23 0 0 38 29 1 0 0 0 0 0 0 0 0 0 0 0 0 0 0
297 408 238 199 202 197 71 1 0 179 152 111 15 6 1 0 0 0 0 0 0 0 0 0 0 0 0 0 0 0 0 0 0 0 0 0 0 0 0 0 0 4 84 106 87 65 0 11 2 0 0 15 20 13 2 4 0 0 0 0 0 0 0
229 217 224 248 245 68 20 1 1 142 126 74 9 4 0 0 0 0 0 0 0 0 0 0 0 0 0 11 27 26 12 9 3 0 0 0 3 52 86 52 120 44 0 68 95 12 0 0 0 0 5 79 8 99 128 106 38 0 0 0 0 0 0
224 199 226 183 13 2 8 2 0 0 0 0 6 0 0 0 0 0 0 0 0 0 0 0 12 170 189 170 164 87 15 0 0 0 0 0 4 115 118 95 90 101 33 7 0 0 0 0 0 0 0 0 0 0 6 116 201 258 258 120 76 0 0
188 159 146 156 112 8 40 14 7 8 10 17 0 0 0 0 0 0 0 0 0 0 0 124 153 158 194 216 221 224 191 104 1 146 179 156 156 178 151 124 115 30 146 203 82 0 26 0 0 0 0 0 0 0 0 0 0 73 147 143 151 131 66
135 117 156 151 105 57 0 1 10 15 11 5 6 9 5 0 0 0 0 0 0 0 0 0 161 182 182 182 212 232 226 215 198 158 144 167 54 126 84 9 95 1 3 200 88 38 51 108 115 12 141 150 116 88 85 73 0 0 0 18 204 176 171
1 119 125 104 50 21 0 0 0 3 7 8 11 8 0 0 0 0 0 0 0 0 0 0 0 136 218 199 185 214 245 242 220 170 153 118 72 73 106 92 47 48 96 110 28 98 44 31 7 10 8 42 35 0 35 110 125 78 0 0 0 1 19
277 109 118 87 59 49 0 0 0 0 8 8 2 0 0 0 0 0 0 0 30 5 42 40 16 0 108 205 194 127 189 276 123 126 191 154 91 129 184 176 197 205 310 294 134 4 18 7 33 33 10 7 6 91 86 14 16 104 151 218 202 39 24
318 244 159 100 61 29 31 10 6 0 0 0 0 0 0 0 0 0 0 0 12 42 13 7 18 40 39 50 100 11 0 94 226 237 222 116 132 218 254 258 369 332 337 241 28 0 0 0 0 0 0 0 6 2 78 109 116 127 133 181 268 289 262
152 178 161 136 86 30 44 40 22 0 14 56 79 66 31 30 40 23 0 0 0 19 0 0 0 0 4 24 40 2 173 174 170 182 182 220 275 325 369 497 572 334 238 196 142 0 0 0 0 122 154 159 138 139 44 25 101 178 213 216 191 152 204
0 0 12 37 57 18 31 30 15 23 91 103 81 60 45 18 18 28 45 42 12 78 49 22 0 0 0 0 0 0 21 151 180 188 174 170 167 229 301 325 269 96 0 0 0 0 0 0 0 0 0 10 165 186 70 0 204 232 210 205 174 149 118
6 8 1 7 12 11 6 32 53 115 148 112 79 67 39 4 33 3 4 5 8 5 33 22 36 22 0 0 0 0 37 105 135 140 176 217 241 211 175 34 0 0 0 0 0 0 0 0 0 0 0 0 0 0 0 0 0 0 0 0 0 0 21
6 4 1 8 23 32 51 85 116 161 171 138 85 47 55 71 26 4 3 8 9 5 8 25 64 70 68 24 34 44 76 102 127 142 115 117 122 137 123 106 0 0 0 0 0 0 0 0 0 0 0 0 0 0 0 0 0 0 0 0 0 0 0
3 2 15 16 32 60 78 112 138 179 193 186 118 65 59 61 31 51 53 46 45 44 47 48 44 22 21 25 29 59 30 31 54 96 101 96 94 81 4 0 27 9 59 35 0 0 0 0 0 0 0 0 0 0 0 0 0 0 0 0 0 0 0
0 2 0 0 0 0 42 107 116 152 169 207 138 97 73 56 39 16 0 10 0 0 0 0 0 0 0 0 0 0 0 0 2 2 1 2 0 0 0 0 0 0 0 0 0 0 0 0 0 0 0 0 0 0 0 0 0 0 0 0 0 0 0
1 0 1 0 0 5 10 3 0 17 43 73 48 10 39 26 17 3 1 0 0 0 0 0 0 1 1 1 0 0 1 5 5 2 0 0 0 0 0 0 0 0 0 0 0 0 0 0 0 0 0 0 0 0 0 0 0 0 0 1 2 2 0
2 1 0 0 0 7 3 5 2 8 11 18 36 21 3 4 0 0 0 0 0 0 0 0 0 0 0 0 0 0 0 0 0 0 0 0 0 0 0 0 0 0 0 0 0 0 0 0 0 0 0 0 0 0 0 0 0 0 0 0 5 6 8

ECMWFFLT1_con_mucape_090.txt.gz
CAPE
702 719 820 770 780 771 850 911 916 961 1023 909 845 706 606 590 549 569 624 635 560 576 645 538 512 643 663 559 554 621 538 509 494 485 470 379 452 456 459 562 491 349 75 0 27 81 109 192 148 95 154 210 222 85 146 87 168 0 0 0 0 43 88
646 700 777 763 821 812 844 953 929 926 1002 1056 888 728 843 634 762 794 730 648 571 738 797 639 480 513 675 671 591 598 565 470 574 509 466 442 453 466 479 476 481 361 160 4 10 29 60 206 152 126 80 169 203 243 298 243 177 101 0 32 27 68 1
666 729 843 823 810 874 850 823 853 986 944 922 821 688 693 818 874 934 876 762 599 734 983 767 577 426 580 690 599 562 544 452 657 595 582 553 505 501 587 504 417 362 6 214 4 0 8 12 149 113 64 56 53 181 214 144 171 84 69 0 0 0 0
719 700 859 852 884 889 942 839 834 897 1007 957 785 649 576 634 759 1016 1032 985 848 878 899 918 587 576 503 477 474 558 458 479 519 694 601 644 586 641 671 485 159 89 318 334 0 1 1 0 81 111 94 141 24 33 157 148 117 72 23 0 0 0 0
782 816 873 829 839 872 849 890 931 900 909 905 852 690 570 658 635 884 1048 1003 848 885 1028 926 614 575 650 500 558 488 488 479 485 588 566 601 717 671 631 531 218 0 0 14 0 0 0 1 63 143 176 147 4 49 112 138 93 53 5 0 0 0 0
795 857 892 840 775 854 830 882 895 864 803 841 891 759 628 672 726 768 936 853 844 899 1044 849 688 664 746 598 478 571 680 597 468 569 463 522 686 640 802 614 565 457 359 195 0 0 0 0 7 10 15 14 21 104 135 127 64 4 0 1 0 0 0
764 794 878 761 795 888 866 833 807 833 772 782 841 734 618 743 779 721 667 752 631 772 843 851 782 793 743 692 725 692 838 781 763 752 568 615 552 800 856 676 649 584 489 503 340 191 0 0 0 6 0 0 0 0 81 65 26 0 0 0 0 0 0
767 772 809 691 688 846 906 807 780 809 838 866 801 587 520 532 651 691 665 602 558 624 586 910 929 811 869 846 881 818 889 907 922 817 741 650 680 753 674 622 605 470 41 425 476 346 290 206 0 0 0 0 38 2 43 25 24 8 0 0 0 0 0
923 839 905 749 586 655 863 875 779 674 703 766 606 442 449 552 586 605 523 477 470 570 560 986 1005 936 952 873 926 976 858 1005 1064 936 934 826 776 747 642 520 428 485 365 322 548 458 409 411 281 0 0 0 1 4 25 24 15 8 0 0 0 0 0
860 879 848 730 697 567 722 834 822 673 705 620 419 469 492 475 424 484 468 370 393 563 585 900 981 979 1000 925 890 955 992 1087 1110 991 942 904 868 794 736 620 655 599 580 127 460 530 516 466 337 102 0 0 0 0 5 6 5 0 0 0 0 0 0
874 877 773 809 686 804 763 765 750 755 683 517 422 468 498 549 563 581 452 290 415 552 466 582 772 866 952 928 845 937 1030 1062 953 958 971 918 854 780 573 626 574 622 643 404 359 454 489 442 353 299 0 0 0 0 0 0 0 0 0 0 0 0 0
716 808 725 668 872 1078 1034 862 730 620 522 500 473 498 530 558 563 439 281 276 263 396 429 445 523 616 684 679 706 791 825 796 765 806 937 908 765 727 623 793 683 594 579 597 531 449 406 376 348 278 0 0 0 0 0 0 0 0 0 0 0 0 0
747 754 711 960 956 944 866 610 605 568 555 537 569 569 491 405 343 317 282 294 261 240 244 252 310 487 547 602 685 698 671 704 724 693 671 810 897 924 718 842 796 481 542 542 512 501 408 350 181 254 0 0 0 0 0 0 0 0 0 0 0 0 0
822 821 853 1086 875 784 569 465 538 685 606 576 542 447 424 374 339 315 335 319 307 293 270 240 287 332 381 519 533 521 596 620 627 669 644 727 850 958 759 819 582 432 494 461 417 408 368 348 178 77 0 0 0 0 0 0 0 0 0 0 0 0 0
802 786 1017 1058 831 576 406 320 374 352 489 510 522 424 414 326 214 331 350 311 298 309 238 190 204 199 302 387 402 418 454 483 679 655 664 730 717 792 741 685 556 518 562 440 294 369 354 351 226 115 0 89 0 0 0 0 0 0 0 0 0 0 0
826 984 902 966 865 433 342 416 455 460 341 424 387 390 227 212 246 316 327 268 240 245 157 185 193 223 260 225 205 283 364 456 700 769 754 766 772 791 740 654 579 538 537 466 292 302 334 265 197 117 106 167 71 0 0 0 0 0 0 0 0 0 0
763 710 836 805 687 356 295 436 406 319 303 240 10 210 158 163 152 275 278 199 171 108 118 176 167 0 0 0 23 103 205 383 587 642 799 765 761 683 566 536 485 493 440 424 278 242 322 293 295 346 304 204 152 109 0 0 0 0 6 0 0 0 0
633 695 688 566 471 180 172 366 226 282 258 233 170 132 140 90 143 185 197 156 112 70 87 72 0 0 0 0 0 0 0 240 260 465 526 648 705 678 576 572 448 248 336 250 260 356 373 389 378 316 221 226 215 168 46 0 0 0 0 0 0 0 0
703 678 556 476 398 274 281 173 135 220 265 179 163 143 0 73 137 155 161 136 84 56 54 11 0 0 0 0 0 0 0 0 191 274 294 380 533 616 558 447 438 332 303 180 0 0 161 199 156 0 109 110 173 184 104 36 0 0 0 0 0 0 0
621 523 337 260 179 74 56 125 164 218 298 270 208 104 0 17 120 170 142 90 58 0 0 0 0 0 0 0 0 0 0 0 0 180 277 357 512 553 482 345 255 53 0 0 0 0 0 0 0 0 0 9 120 128 111 12 0 0 0 0 0 0 0
522 293 281 247 56 86 141 198 274 282 291 289 234 0 0 0 42 110 78 2 0 0 0 0 0 0 0 0 0 0 0 0 164 225 242 322 353 264 136 0 0 0 0 0 0 0 0 0 0 0 0 0 0 109 117 90 0 0 0 0 0 0 0
574 240 172 200 241 222 229 237 290 311 264 266 146 0 0 0 0 8 0 0 0 0 0 0 0 0 0 0 0 0 0 94 62 0 99 242 243 189 0 0 0 0 0 0 0 0 0 0 0 0 0 0 0 0 67 60 52 3 0 0 0 0 0
506 270 234 295 296 202 202 100 0 83 207 194 0 0 0 0 0 0 0 0 0 0 0 0 0 0 0 0 0 0 0 0 0 0 0 43 87 66 0 0 0 0 34 0 0 0 0 0 0 0 0 0 0 0 0 31 55 45 0 0 0 0 0
283 224 207 130 224 42 0 67 92 238 206 134 0 0 0 0 0 0 0 0 0 0 0 0 0 0 0 0 0 0 0 0 0 0 0 0 0 0 0 0 0 17 0 0 19 72 0 0 0 0 0 0 16 0 0 0 0 0 0 0 0 0 0
275 202 152 96 54 4 26 186 232 233 168 59 0 0 0 0 0 0 0 0 0 0 0 0 0 39 88 97 88 44 0 0 0 0 0 0 0 0 0 0 0 11 30 48 50 18 2 0 40 38 0 0 0 0 0 30 70 70 114 107 55 40 28
137 81 70 63 19 4 135 149 176 153 81 40 0 0 0 0 0 0 0 3 4 6 18 134 146 140 138 142 146 155 157 150 144 139 31 0 0 0 0 8 0 9 107 114 3 11 117 115 116 102 102 140 130 96 78 69 7 0 0 0 43 67 62
119 110 46 43 11 0 0 150 138 118 64 44 0 0 0 0 0 0 79 119 151 166 174 174 177 183 187 184 178 164 164 180 187 204 199 107 74 0 52 43 0 1 2 4 3 19 17 0 0 0 0 0 28 31 81 89 95 110 127 121 95 68 2
121 120 96 53 0 5 0 0 98 114 61 35 0 0 0 0 0 0 45 134 176 184 187 193 197 192 193 196 189 186 181 168 148 161 160 165 166 144 28 31 156 88 52 82 52 0 0 0 0 0 0 0 0 0 0 0 0 93 105 104 121 147 151
127 78 115 44 14 28 16 0 0 0 0 0 0 0 0 0 0 0 0 28 115 166 195 210 204 198 211 192 222 200 180 169 146 135 118 120 157 184 220 257 262 161 164 136 128 46 0 0 0 0 0 0 0 0 0 0 0 25 133 158 180 190 179
53 63 37 67 16 5 27 13 0 0 8 10 22 7 10 5 12 45 51 54 54 55 75 118 177 221 242 237 223 195 151 124 199 208 202 206 221 259 314 356 392 246 199 212 182 60 0 0 0 0 0 0 0 0 39 0 0 0 86 148 179 180 180
61 63 36 31 14 6 9 0 17 2 10 30 47 52 54 53 49 39 0 9 33 0 0 0 0 15 74 127 147 128 108 153 162 170 187 199 221 276 399 436 413 318 250 172 0 0 0 0 0 0 0 0 0 0 0 0 29 87 0 0 12 17 20
14 22 37 48 23 17 17 10 0 12 14 39 47 62 72 76 76 69 69 74 66 60 19 0 0 0 0 20 48 130 139 163 173 174 186 184 195 198 208 229 169 134 8 1 0 0 0 0 0 0 0 0 0 0 0 0 0 0 0 0 0 0 1
2 22 18 2 24 19 18 19 29 25 28 35 39 45 58 61 66 69 46 7 68 71 56 0 0 0 0 0 5 36 136 164 168 176 180 162 160 144 142 125 102 78 3 0 0 0 0 0 0 0 0 0 0 0 0 0 0 0 0 0 0 0 0
0 3 2 2 12 6 36 35 27 34 30 22 17 19 24 24 29 15 0 0 0 0 28 15 0 1 1 0 0 0 0 91 126 135 124 116 121 106 99 103 90 50 0 0 1 0 0 0 0 0 0 0 0 0 0 0 0 0 0 0 0 0 0
8 11 14 4 16 23 42 42 31 30 26 18 14 16 17 20 22 22 12 4 0 0 0 3 0 1 1 20 58 68 87 97 114 126 128 119 117 106 85 54 20 0 0 0 0 0 0 0 0 0 0 0 0 0 0 0 0 0 0 0 0 0 0
2 6 6 7 2 10 26 54 50 48 43 30 26 22 20 14 6 0 0 0 0 0 0 0 0 0 0 0 2 11 14 15 7 25 23 23 4 4 0 0 0 0 0 0 0 0 0 0 0 0 0 0 0 0 0 0 0 0 0 0 0 0 1
6 0 3 4 3 2 11 10 6 58 50 41 26 30 20 5 2 0 0 0 0 0 0 0 0 0 0 0 1 2 2 2 0 0 1 0 0 0 0 0 0 0 0 0 0 0 0 0 0 0 0 0 0 0 0 0 0 0 0 0 0 0 1

ECMWFFLT1_con_mucape_093.txt.gz
CAPE
823 816 812 782 708 720 573 576 588 614 585 732 756 761 793 687 658 704 634 652 623 632 578 530 551 510 434 422 373 379 345 272 275 281 296 356 340 296 211 239 373 120 0 0 0 1 20 68 41 37 101 140 184 256 156 193 195 238 233 243 266 236 170
814 870 849 771 746 654 800 564 579 638 604 664 793 837 826 670 479 432 495 556 619 587 508 468 464 454 469 480 440 431 423 388 328 217 218 362 370 316 280 0 316 198 0 0 0 0 7 78 40 51 54 100 159 150 140 159 166 178 208 223 200 173 20
849 893 788 737 711 667 682 506 620 679 726 697 660 761 731 616 524 485 476 558 558 498 487 530 505 526 531 524 480 494 482 474 462 460 395 380 388 116 0 0 88 0 0 0 0 0 0 0 0 33 46 68 90 121 193 194 143 142 80 8 15 5 2
874 797 747 600 742 736 674 624 636 578 587 722 708 706 604 549 526 467 520 534 528 473 491 535 454 492 576 554 530 550 540 504 501 436 447 412 379 196 0 62 327 0 0 0 0 0 0 1 4 16 43 79 136 143 221 201 135 110 84 83 8 1 0
690 791 772 735 778 778 694 619 621 627 674 652 712 705 633 575 591 615 641 603 540 503 641 659 502 387 482 586 575 539 540 535 462 442 510 478 400 362 389 390 181 0 0 0 0 0 0 0 0 8 30 42 81 102 177 150 77 51 26 0 0 0 13
516 609 764 770 764 751 615 575 645 669 648 655 805 690 617 688 674 736 778 786 625 566 714 780 656 490 369 428 590 605 523 464 410 493 588 526 422 408 465 465 324 0 0 0 0 0 0 0 0 6 14 29 20 46 118 79 28 22 19 0 0 0 7
716 661 649 711 710 691 590 582 611 568 603 706 741 697 631 552 610 723 838 862 782 706 742 739 742 598 437 439 414 425 433 391 384 452 596 582 522 523 513 459 5 0 0 0 0 0 0 0 0 0 0 2 8 118 121 55 22 14 0 0 0 0 3
1062 968 732 750 763 723 669 637 616 606 631 738 742 753 680 559 551 596 769 901 908 766 781 853 836 544 491 560 428 454 397 485 433 432 564 552 536 588 523 478 428 76 0 0 0 0 0 0 0 0 0 0 21 96 86 65 36 1 0 0 0 0 6
1122 1043 870 800 850 737 746 665 633 669 711 795 791 798 747 641 567 603 631 842 860 794 824 939 808 610 627 634 457 238 483 582 520 374 466 459 476 536 615 644 489 459 265 248 232 360 132 0 0 0 0 1 13 18 51 58 24 8 0 0 0 0 0
1162 1026 892 860 856 852 773 710 683 780 849 845 853 857 834 699 595 685 706 670 696 671 775 860 812 703 697 667 538 513 644 634 552 573 654 574 541 497 662 620 478 401 466 309 0 0 200 0 0 0 38 0 0 8 2 14 14 0 0 0 0 0 0
1079 939 870 934 928 926 800 747 686 778 850 857 827 838 807 585 526 616 658 551 608 521 638 634 689 795 697 653 694 694 692 771 791 774 740 726 658 578 644 569 435 331 0 0 0 326 439 408 345 345 247 0 0 0 0 0 0 0 0 0 0 0 0
968 918 789 842 932 904 801 667 651 725 770 812 828 868 730 442 466 572 600 478 439 439 472 415 694 843 720 724 705 747 684 816 863 834 834 840 773 726 686 646 503 455 473 472 329 387 469 469 451 356 68 44 0 0 0 0 0 0 0 0 0 0 0
888 837 773 818 860 840 745 651 737 796 807 778 720 651 451 465 529 526 433 350 284 327 413 421 747 826 789 794 772 754 795 852 922 874 852 836 824 765 688 519 456 444 481 493 390 317 372 436 454 365 267 0 0 0 0 0 0 0 0 0 0 0 0
807 710 731 779 875 810 650 581 718 765 746 727 623 456 482 467 461 424 396 194 268 317 434 441 595 658 728 807 746 719 807 870 809 704 819 840 816 722 615 514 567 458 433 461 446 368 375 397 416 361 260 224 158 0 0 0 0 0 0 0 0 0 0
715 643 669 741 797 645 530 604 536 754 768 597 382 452 476 521 502 515 240 217 279 377 403 363 418 462 557 560 541 604 669 617 573 562 613 695 735 709 548 612 715 532 405 443 462 457 455 432 405 355 282 23 179 144 102 0 0 0 0 0 0 0 0
631 684 661 648 652 709 535 722 757 756 636 490 432 373 362 355 512 358 266 235 217 240 343 343 293 295 415 428 471 464 505 518 548 566 536 600 747 810 722 657 610 402 372 425 391 383 393 414 382 385 141 0 0 0 0 0 0 0 0 0 0 0 0
495 654 664 606 606 688 844 771 748 618 541 530 505 401 346 370 318 325 290 218 198 26 0 0 138 288 296 373 323 333 379 428 550 568 558 596 651 721 664 609 438 344 412 457 351 323 340 375 399 244 0 0 0 0 0 0 0 0 0 0 0 0 0
465 539 602 521 631 735 830 673 630 522 633 576 540 408 355 316 336 252 223 206 203 206 178 141 170 158 221 280 243 264 274 344 552 576 577 595 641 646 609 544 429 428 471 497 381 0 0 348 381 312 101 142 0 92 51 0 0 0 0 0 0 0 0
498 618 491 480 497 665 723 640 527 587 655 612 496 388 245 226 0 220 223 207 162 167 122 135 140 159 201 189 89 140 179 198 393 548 670 640 661 571 534 501 340 388 350 386 355 86 279 314 307 292 314 344 318 276 237 211 165 114 50 0 0 0 0
527 518 509 551 521 586 607 498 408 555 601 585 378 182 55 0 75 210 226 160 118 102 110 140 164 188 158 0 0 26 36 41 230 354 519 621 625 589 404 389 115 0 0 0 122 287 298 330 354 368 382 387 349 304 266 269 238 145 69 14 0 0 0
560 569 545 540 421 386 316 286 455 517 428 292 117 137 0 0 0 162 212 123 97 70 105 124 30 0 0 0 0 0 0 0 0 278 366 468 435 493 402 361 250 0 0 0 0 0 4 170 0 0 0 0 134 173 251 228 179 79 66 12 0 0 0
521 565 559 412 282 262 330 536 357 302 127 118 111 0 0 0 0 164 164 107 86 60 72 36 0 0 0 0 0 0 0 0 110 193 252 369 483 446 284 194 0 0 0 0 0 0 0 0 0 0 0 0 0 0 189 183 148 24 0 0 0 0 0
445 552 474 289 150 130 200 204 173 218 116 123 102 0 0 0 64 137 145 85 72 56 46 0 0 0 0 0 0 0 0 0 84 163 248 330 362 228 155 50 0 0 0 0 0 0 0 0 0 0 0 0 0 0 86 102 88 112 53 87 58 0 0
483 418 282 150 47 42 171 105 145 90 0 126 109 0 0 0 0 106 41 94 70 44 0 0 0 0 0 0 0 0 0 0 48 175 228 264 212 81 81 4 0 0 0 0 0 0 0 0 0 0 0 0 0 0 0 0 0 0 0 0 0 0 0
384 212 173 103 97 127 22 58 95 113 37 104 0 0 0 0 0 32 0 19 25 7 0 0 0 0 0 0 0 0 0 134 133 137 181 179 121 0 0 0 0 0 0 0 0 0 0 0 0 0 0 0 0 0 0 0 0 0 0 0 0 0 0
474 314 178 106 168 182 70 58 70 151 101 0 0 0 0 0 0 0 0 0 0 0 0 0 0 0 0 0 0 0 0 0 0 98 95 94 35 0 0 0 0 0 0 0 0 0 0 0 0 0 0 60 11 3 2 0 0 0 0 0 0 0 4
360 415 276 214 258 124 117 88 122 156 15 0 0 0 0 0 0 0 0 0 0 0 0 0 0 0 0 0 0 0 0 0 0 43 63 64 0 0 0 0 0 21 22 0 0 0 0 0 0 0 0 0 0 0 0 20 51 53 36 0 0 0 0
212 250 254 222 186 68 4 72 136 144 65 0 0 0 0 0 0 0 0 0 0 0 0 0 0 0 0 0 0 0 0 0 0 0 0 70 79 19 107 106 116 81 30 5 3 0 0 0 0 0 0 0 0 0 0 0 0 20 59 59 11 62 71
171 188 59 54 107 34 70 129 169 134 126 0 0 0 0 0 0 0 0 0 0 0 0 0 0 0 0 0 0 0 0 0 0 0 0 0 0 0 0 0 0 0 0 0 0 0 0 69 0 0 0 0 0 0 0 0 0 0 0 0 43 97 115
67 33 62 39 20 35 69 59 0 112 32 0 0 0 0 0 0 0 0 0 0 0 76 87 100 106 115 125 125 132 152 157 47 59 156 93 130 193 210 161 38 37 129 136 116 57 29 0 0 0 0 0 0 0 0 0 0 27 22 28 57 58 91
90 110 83 80 29 30 41 41 56 0 0 0 0 0 0 0 0 0 43 74 103 116 142 147 152 143 136 135 140 78 0 27 16 157 138 116 173 199 205 254 225 189 149 0 0 0 0 0 0 0 0 0 0 0 0 0 0 12 15 77 77 3 3
16 57 54 62 34 7 40 27 89 7 17 0 0 0 0 8 48 72 88 105 135 154 164 182 188 196 180 158 145 134 0 0 0 99 149 160 176 175 203 230 210 147 36 0 0 0 0 0 0 0 0 0 0 0 0 0 0 0 0 0 0 0 0
18 18 17 28 31 14 5 28 65 4 0 0 0 2 14 37 68 86 110 149 161 181 208 226 241 244 217 178 180 0 0 0 0 4 4 18 150 152 176 157 98 6 3 0 0 0 1 0 1 1 0 0 0 0 0 0 0 0 0 0 0 0 0
12 6 7 4 6 8 9 12 12 8 2 0 4 0 0 11 13 34 43 44 65 62 76 134 130 130 114 118 104 73 0 0 0 0 0 127 143 156 143 116 70 8 0 0 0 0 0 0 0 0 0 0 0 0 0 0 0 0 0 0 0 0 0
4 3 4 1 5 9 9 4 13 12 22 8 20 10 0 0 0 27 0 0 0 0 0 24 0 58 118 154 158 131 128 134 135 139 147 141 139 119 110 84 73 0 0 0 1 25 16 2 0 0 1 0 0 0 0 0 0 0 0 0 0 0 0
8 6 15 5 10 3 8 9 16 19 19 18 15 19 12 4 0 6 24 3 5 0 2 21 27 39 57 90 134 152 153 138 137 139 113 91 87 32 66 67 73 70 43 34 28 27 4 1 0 0 0 0 0 0 0 0 0 0 0 0 0 0 0
14 13 16 27 27 17 18 17 19 18 18 20 11 4 3 0 0 0 0 0 0 1 7 6 8 31 57 86 100 101 112 103 109 115 105 87 78 55 47 38 35 23 14 14 2 0 0 0 0 0 0 0 0 0 0 0 0 0 0 0 0 0 0

ECMWFFLT1_con_mucape_096.txt.gz
CAPE
786 697 754 856 877 791 758 602 496 534 547 556 416 436 524 496 452 396 367 441 568 620 613 702 766 748 695 533 442 414 429 417 392 296 273 287 219 234 247 292 0 0 0 0 2 24 38 31 76 109 188 251 220 277 220 126 148 200 183 139 93 43 23
731 723 731 816 790 687 670 537 492 496 560 602 415 323 498 668 690 460 420 511 656 757 790 851 822 773 661 525 476 440 410 379 325 285 272 300 259 258 74 265 0 0 0 0 0 0 29 49 46 97 96 126 190 226 174 156 171 170 84 54 53 16 2
738 784 752 701 689 751 781 665 634 568 544 586 462 395 431 584 623 492 591 625 656 714 773 779 774 693 653 590 503 463 407 340 288 273 265 292 52 0 0 0 0 0 0 0 0 0 2 3 46 41 71 93 96 101 151 117 130 94 30 62 49 2 3
778 756 763 710 739 808 729 705 641 549 497 570 591 540 507 600 554 492 599 687 721 688 690 668 627 559 558 560 538 507 446 399 384 327 300 283 314 318 337 290 193 33 16 6 6 0 1 1 18 32 82 111 86 80 106 129 135 66 18 4 2 4 4
708 692 674 677 756 752 693 636 549 498 505 603 578 598 644 707 496 460 552 654 612 628 684 653 581 558 545 530 543 568 524 498 476 433 408 427 405 392 395 374 288 273 267 261 33 1 0 2 41 48 94 106 92 78 122 146 106 21 11 5 0 0 3
705 725 736 785 800 740 656 590 490 548 556 511 544 504 652 627 524 525 519 498 514 602 638 550 544 569 527 554 583 588 554 545 544 518 526 499 487 450 429 416 345 332 348 277 0 0 0 0 15 25 67 121 89 55 141 152 22 4 0 0 0 0 2
930 890 878 833 776 669 561 542 500 534 562 529 593 542 636 690 599 571 551 508 549 600 588 519 547 581 488 504 594 616 598 606 586 577 542 492 508 513 450 404 356 389 379 301 236 162 0 0 2 25 20 46 82 82 83 52 0 0 0 0 0 0 3
998 960 925 833 684 568 619 564 504 554 546 526 544 555 668 691 627 586 538 512 582 617 573 511 656 678 542 424 435 524 618 639 586 535 500 460 549 549 428 377 415 426 366 290 241 171 182 130 8 11 11 11 24 67 1 13 0 0 0 0 0 0 2
1039 1019 981 891 857 801 628 543 489 542 604 622 607 543 638 671 647 595 602 675 742 768 623 575 710 736 667 536 452 466 494 536 482 403 414 485 614 577 468 466 480 402 321 259 236 221 287 280 234 6 12 26 92 34 15 14 2 1 0 0 0 0 0
959 1019 1039 1019 995 858 729 586 519 441 593 586 598 551 660 671 638 614 649 715 852 862 762 617 674 731 741 586 536 497 460 460 452 448 424 517 591 542 562 547 466 423 317 269 297 362 361 324 294 213 198 61 77 45 11 10 1 0 0 0 0 0 0
812 937 976 973 889 804 653 616 608 446 491 483 436 579 712 716 665 574 541 588 729 829 852 749 743 869 762 563 606 531 463 440 485 492 434 464 490 496 511 610 623 509 452 429 447 386 328 332 341 270 238 117 9 34 6 5 12 0 0 0 0 0 0
664 777 847 845 798 759 692 584 672 580 530 458 488 660 744 776 730 680 588 560 582 714 794 793 783 857 766 636 644 588 480 469 581 558 526 585 561 546 512 620 592 444 411 393 257 228 282 388 385 330 240 159 149 32 0 20 0 0 0 0 0 0 0
501 664 778 718 763 676 707 693 641 605 572 538 597 708 785 818 817 739 606 610 677 655 674 700 731 798 745 701 683 600 632 650 673 678 711 715 712 660 601 621 601 478 365 411 375 294 332 412 412 396 342 183 138 108 67 45 10 2 0 0 4 0 0
522 550 682 740 414 514 730 688 678 743 632 604 718 814 816 805 819 692 520 568 647 568 586 592 628 569 708 736 656 662 695 652 736 760 753 789 802 772 692 686 626 474 444 461 460 350 317 369 403 406 360 253 173 116 59 51 0 0 0 0 0 0 0
540 475 471 467 32 354 603 715 773 730 653 570 752 843 830 820 807 553 466 575 584 486 497 491 430 540 794 754 730 738 734 690 784 821 803 793 815 792 744 639 411 391 401 405 407 355 288 318 366 407 375 252 185 140 116 14 12 0 0 0 0 0 0
579 358 228 141 170 134 332 613 714 739 647 688 801 828 778 720 558 479 527 495 347 308 351 385 405 604 766 736 768 765 727 781 833 805 752 799 781 763 725 537 476 474 388 368 398 389 375 386 388 386 354 263 193 89 153 129 56 0 0 0 0 0 0
536 492 410 482 358 320 373 505 608 657 666 738 800 743 694 517 480 488 405 293 151 0 0 368 401 478 539 568 590 584 626 746 747 606 624 699 692 644 480 512 611 559 357 362 372 369 357 374 374 349 348 290 218 177 162 136 98 0 0 0 0 0 0
527 451 436 516 433 236 305 454 594 600 607 684 771 740 557 458 430 358 276 237 203 217 346 334 316 341 362 387 396 452 495 517 509 514 552 588 694 696 655 568 592 394 316 373 348 302 296 328 346 361 300 235 0 0 48 0 37 35 0 0 0 0 0
415 410 408 490 487 378 578 587 588 682 742 748 779 623 488 383 368 353 260 230 209 0 0 258 292 256 272 316 344 332 372 391 503 530 529 577 657 690 651 557 412 309 365 450 359 0 194 297 325 333 284 195 195 111 0 0 0 120 138 0 0 0 0
444 408 416 532 633 561 697 727 689 778 813 770 648 528 448 297 347 339 298 283 218 0 0 0 0 0 231 258 271 266 259 332 544 557 562 585 618 631 597 525 390 398 403 415 295 0 89 293 310 293 266 234 258 258 228 0 0 136 54 0 0 0 0
494 422 469 540 519 568 686 765 652 729 744 588 491 450 346 366 366 313 309 102 0 0 0 0 0 0 0 44 215 186 186 239 455 600 614 599 592 516 458 446 337 110 75 141 175 0 0 0 202 290 288 295 318 328 318 280 236 212 206 186 0 0 0
485 517 520 475 441 471 566 734 665 595 566 477 385 261 336 363 217 168 0 0 134 147 150 137 143 143 157 191 173 120 122 140 247 402 573 614 567 421 380 327 0 0 0 0 0 0 0 0 0 0 0 0 42 58 276 314 276 212 181 33 0 0 0
344 469 590 586 524 439 572 695 719 560 513 520 451 320 313 184 196 0 0 142 134 112 121 138 145 165 182 170 75 0 48 69 156 292 462 445 425 377 293 155 0 0 0 0 0 0 0 0 0 0 0 0 0 0 0 0 108 180 138 77 34 0 0
290 390 478 538 520 468 455 603 629 413 388 606 446 201 102 172 165 0 0 57 105 108 102 128 157 86 5 0 0 0 0 47 158 252 379 430 298 213 154 0 0 0 0 0 0 0 0 0 0 0 0 0 0 0 0 0 6 6 5 4 3 0 0
285 406 476 527 458 281 309 255 290 322 393 373 197 88 96 102 12 0 0 81 79 80 92 120 63 0 0 0 0 0 0 0 150 260 346 323 193 179 60 0 0 0 0 0 0 0 0 0 0 0 0 0 0 0 0 0 0 0 0 0 0 0 0
284 294 327 332 177 152 165 222 287 286 153 102 47 113 55 0 0 0 0 0 15 42 51 56 35 0 0 0 0 0 0 0 124 193 265 216 0 108 89 0 0 0 0 0 0 0 0 0 0 0 0 0 0 0 0 0 0 0 0 0 0 0 0
233 199 168 141 86 66 60 143 102 58 92 47 17 7 0 0 0 0 70 75 34 21 41 44 17 0 0 0 0 15 0 0 0 114 194 154 62 0 0 0 0 0 0 0 0 0 0 0 0 0 0 0 0 0 0 0 0 0 0 0 0 0 0
169 232 213 130 67 77 70 141 75 84 82 61 0 0 0 0 0 0 0 0 65 64 53 47 0 0 0 0 0 0 95 29 0 0 0 0 0 0 0 0 0 0 0 0 0 0 0 0 0 0 0 0 0 0 0 0 0 0 0 0 0 0 0
181 155 216 152 107 144 102 77 70 84 74 35 0 0 0 0 0 0 0 0 6 49 53 0 0 0 0 0 0 50 121 41 0 0 0 0 0 0 0 0 0 32 0 0 0 0 0 0 0 0 0 0 0 0 0 0 0 0 0 0 0 0 0
119 104 103 140 135 190 155 51 37 42 53 9 16 35 0 0 0 0 0 0 0 0 0 0 0 0 0 0 81 107 86 0 0 0 0 0 0 0 0 0 0 0 0 0 0 0 0 0 0 0 0 0 0 0 0 0 0 0 0 0 0 0 0
47 25 31 8 12 48 102 41 66 9 49 0 43 5 0 0 0 0 0 0 0 0 0 0 0 0 0 0 0 9 0 0 0 63 0 0 0 0 0 0 0 0 0 0 0 0 0 0 0 0 0 0 1 0 0 0 0 0 0 0 0 0 0
10 28 38 19 10 10 9 21 15 4 34 28 42 0 0 0 0 0 0 0 0 0 0 0 0 0 0 0 0 0 0 0 0 0 0 0 91 91 79 114 132 24 0 0 0 0 0 0 0 0 0 0 4 8 2 0 1 0 0 0 0 0 0
13 11 21 38 39 20 22 9 10 12 2 24 36 0 0 0 0 0 0 0 0 0 0 0 0 50 53 59 60 42 0 0 0 0 102 65 1 58 96 32 65 51 2 4 3 3 1 0 0 0 0 0 0 0 0 2 1 0 0 0 0 0 0
5 6 2 5 16 12 12 24 24 10 11 27 15 0 0 0 0 0 10 22 5 13 86 91 105 116 128 154 158 23 0 0 0 39 58 37 0 8 0 0 0 0 2 2 0 0 0 0 0 0 0 0 0 1 2 0 0 0 0 0 0 0 0
2 1 1 2 3 3 4 10 36 7 3 8 18 5 2 45 53 56 60 78 98 120 128 144 166 191 188 159 121 0 0 0 0 0 3 2 0 0 0 5 61 50 1 0 0 0 0 0 0 0 0 2 7 4 0 1 0 0 0 0 0 0 0
4 8 4 4 5 2 2 0 2 3 2 10 17 10 22 52 63 79 100 110 133 131 0 9 102 109 60 0 47 35 14 0 0 0 0 0 0 73 107 105 81 56 42 43 57 51 28 24 32 31 22 22 2 0 0 0 0 0 0 0 0 0 0
10 6 20 23 2 1 0 0 0 6 18 20 26 21 9 2 1 3 6 37 68 19 15 3 0 48 76 64 76 6 0 38 0 0 0 20 67 70 64 62 63 63 59 53 40 32 31 33 23 10 0 0 0 0 0 0 0 0 0 0 0 0 0

ECMWFFLT1_con_mucape_102.txt.gz
CAPE
1811 2046 2274 2203 2030 1876 1753 1557 1516 1381 1253 1027 1034 865 783 694 831 618 575 647 977 547 713 694 964 944 1209 872 731 773 262 610 930 875 947 792 720 551 622 950 428 790 1106 849 976 455 283 353 496 734 736 342 731 686 254 300 263 415 541 834 797 526 506
1893 1997 2070 2048 2138 2116 1808 1625 1642 1476 1117 921 959 840 685 671 666 573 600 679 900 517 372 1013 654 1222 1183 921 923 364 459 782 802 696 753 695 830 711 700 827 778 578 464 819 824 726 418 391 171 191 504 664 646 463 337 485 372 491 346 547 375 281 181
1867 1820 1929 1903 2032 2194 1844 1513 1574 1584 1442 1100 890 819 837 670 786 537 815 783 426 932 910 517 662 1070 1227 687 1364 1332 1336 1197 1031 886 1026 717 829 887 819 520 456 820 250 282 647 584 555 588 326 273 1017 371 482 640 435 405 623 546 410 349 155 192 104
1815 1810 2036 1936 1849 1910 2055 1874 1680 1505 1358 1298 1237 831 1051 768 691 724 927 957 930 563 704 1056 1013 1032 1219 1311 1277 1445 1565 1451 1080 1066 888 956 1047 406 387 747 706 820 579 468 465 452 584 523 462 314 310 516 1082 532 428 184 253 410 282 291 164 52 15
1752 1765 1801 1753 2060 1989 1778 1597 1563 1432 1353 1038 819 777 882 1078 1112 1032 972 663 1046 1182 1365 803 549 862 1072 1152 1261 1254 1296 1281 1272 1301 970 1140 980 360 611 716 758 562 606 772 736 405 540 573 471 429 298 141 391 292 126 180 110 64 66 78 14 3 4
1811 1806 1684 1725 1964 1394 1566 1402 1322 1566 1102 1097 967 907 1019 809 1062 1528 1092 935 1099 1213 1226 724 769 1010 592 875 1170 1077 945 1121 1315 1189 1000 349 409 742 1126 1185 826 563 523 1023 754 312 456 562 537 517 450 457 565 468 229 154 106 40 42 2 5 1 4
1686 1721 1784 1537 1861 1800 1657 1476 1840 1396 1186 990 979 847 983 994 734 703 843 807 1013 1003 1079 642 494 516 648 514 586 603 1061 1160 863 461 1011 1358 898 990 1258 975 996 482 593 820 465 961 638 698 564 615 590 501 408 262 267 317 262 172 33 1 0 0 3
1594 1654 1618 1641 1878 1404 1503 1978 1984 1364 1172 1114 986 1014 906 1008 622 726 748 600 819 1279 1057 456 454 645 725 622 650 746 405 654 452 956 547 665 1012 999 827 523 660 808 592 449 622 703 617 680 614 658 637 554 381 371 310 252 330 314 140 20 1 0 5
1566 1544 1543 1585 1736 1340 1504 1498 1601 1470 1195 1193 1052 861 871 895 799 915 566 698 1195 1397 583 489 516 515 674 696 798 988 467 425 374 611 603 1247 1060 1010 1255 1119 546 513 665 620 654 709 576 590 662 742 669 561 540 457 376 442 354 259 171 76 19 8 3
1269 1233 1283 1426 1466 1172 1205 1335 1442 1570 1412 1190 1053 919 897 909 965 717 582 580 690 771 587 658 1058 652 605 1118 613 438 337 402 534 528 998 1014 1113 1099 686 640 914 780 1116 876 772 742 827 684 637 741 622 928 606 355 302 493 432 372 206 141 93 7 0
1205 1241 1443 1314 1113 1144 1178 1068 1359 1631 1624 1420 1010 825 996 1080 988 975 974 891 743 1368 1375 1166 1032 536 951 413 450 538 532 629 553 539 611 982 987 938 1004 1115 702 601 858 1020 972 1036 988 976 823 802 666 355 808 433 517 309 429 452 334 329 225 30 0
1300 1240 1284 1291 1355 1276 1330 1220 1254 1449 1407 1240 1067 915 909 876 1036 1212 901 734 829 677 990 1192 1170 955 1085 701 612 538 335 499 635 932 679 1000 1048 929 285 600 830 1069 973 1048 1098 1172 1169 1115 1008 856 611 442 509 774 572 402 398 452 476 370 349 77 0
933 711 1081 1396 1692 971 1201 1192 940 937 1123 955 1050 973 783 804 970 1218 998 752 701 749 1140 760 983 900 842 451 309 379 714 767 790 624 586 316 722 720 894 871 301 821 992 1071 1092 1040 1136 1084 1063 795 638 691 753 855 490 280 240 636 549 421 250 41 2
1040 1160 1177 1292 1332 1020 932 875 920 840 838 987 921 853 592 725 911 877 813 613 806 609 512 715 744 698 943 1210 686 696 890 794 534 1027 926 454 724 835 1039 593 760 821 985 925 817 983 965 991 1096 914 766 618 652 750 616 515 382 534 421 399 261 7 0
1152 1003 918 1040 1126 967 914 985 1014 736 935 1000 884 744 724 735 922 1013 1197 1113 570 668 514 779 548 537 779 1126 1186 1359 1308 775 597 648 860 757 1025 865 888 714 543 732 770 866 860 716 864 904 865 841 746 536 1054 946 705 358 251 227 397 197 66 1 0
901 984 1062 913 552 832 863 918 929 908 953 1064 984 744 887 875 912 1082 1162 1078 1106 754 697 740 490 356 712 943 1025 1170 1044 919 457 571 802 730 775 775 954 883 837 919 886 844 938 813 840 888 708 499 574 506 346 453 554 418 330 169 121 72 20 0 0
654 584 934 599 667 909 821 814 784 868 939 1004 754 979 1021 1016 996 892 1205 1023 866 832 823 870 473 594 730 885 1056 1182 885 574 370 489 690 749 679 890 1183 1030 989 1077 1064 948 994 970 974 902 706 450 430 344 469 436 682 636 433 67 31 12 0 0 0
636 683 498 593 580 772 684 668 690 785 1011 1020 1006 983 904 1019 1026 1079 890 893 1035 767 681 798 737 641 797 822 1039 1216 1168 646 496 1011 798 640 926 1092 1123 1080 1060 1188 1034 1005 1126 1096 882 1093 656 504 452 474 554 703 789 682 473 138 23 0 1 0 0
464 550 546 527 619 532 483 700 716 585 655 821 825 875 900 950 998 1210 993 812 870 950 826 711 516 776 651 575 748 715 674 416 349 524 1084 1106 1062 1167 1221 1166 1183 1124 1156 1107 1245 1077 1061 1150 679 694 641 556 544 736 795 701 526 217 61 9 0 0 0
395 411 466 530 744 555 533 510 575 602 510 682 899 862 798 944 993 1251 786 731 635 621 760 1056 478 603 628 741 676 660 592 586 780 1074 1325 1193 1165 1189 1263 1107 1270 1159 1226 1228 1203 1274 1323 1034 973 867 868 738 652 758 879 635 333 219 131 84 7 0 0
204 315 495 514 445 558 471 470 462 609 595 480 719 554 587 1084 737 704 774 955 688 864 950 664 672 565 581 662 734 587 754 1392 1196 1321 1500 1297 1298 1330 1210 1239 1215 1121 1062 1129 1376 1432 1359 1194 1087 1167 1031 1098 819 818 778 580 404 380 313 254 105 36 24
166 171 274 336 329 276 410 564 583 551 550 674 441 340 619 447 925 736 634 585 770 888 873 776 398 388 438 386 740 1275 1572 1230 1410 1578 1591 1463 1484 1329 1058 1006 1157 1012 832 584 623 808 1140 875 1124 1140 1006 1047 744 862 699 648 471 426 400 334 182 106 46
175 232 244 292 276 272 250 269 311 357 411 462 666 505 406 460 574 502 442 436 723 714 527 723 581 619 316 545 967 1319 1403 1589 1604 1641 1568 1634 1624 1463 1386 1415 782 650 743 754 674 683 802 732 578 881 1323 1341 946 802 739 660 490 423 436 330 298 204 157
144 240 278 49 298 279 248 230 174 272 375 432 551 425 410 502 378 366 349 281 488 746 695 496 240 533 571 379 452 820 1231 1499 1514 1561 1625 1658 1625 1526 1274 646 465 416 377 324 242 304 424 382 486 584 673 820 1023 1795 1209 876 610 604 444 308 327 342 281
159 183 30 20 20 18 193 105 99 96 139 183 161 233 379 390 353 391 301 219 345 441 793 296 122 260 446 550 490 484 592 886 1312 1347 1348 1353 1313 953 660 543 378 343 258 182 180 102 0 0 0 0 116 362 509 579 598 1090 946 841 719 480 465 436 405
79 32 22 66 86 11 68 108 92 58 58 154 143 130 247 361 322 271 159 100 164 216 315 144 200 214 256 370 509 441 274 396 455 561 788 644 960 857 673 586 593 384 169 26 8 5 0 0 0 0 0 0 0 0 274 391 366 580 551 507 493 379 296
3 3 2 55 49 23 29 31 73 114 143 166 148 188 365 302 269 229 115 50 70 24 0 114 115 76 150 193 303 370 263 419 456 502 596 735 950 929 791 694 474 175 49 81 73 30 7 1 18 100 177 109 73 79 0 0 1 23 430 498 397 564 479
4 4 2 10 37 48 26 35 26 66 111 140 196 218 208 226 143 34 43 31 24 24 47 110 130 119 115 135 157 290 399 541 476 526 684 926 892 765 679 496 330 269 272 278 217 147 252 339 480 503 393 247 74 0 0 0 49 202 416 520 571 527 368
5 5 3 1 46 31 38 24 12 4 14 70 95 158 138 75 20 23 18 10 39 62 68 78 109 107 86 83 123 573 942 903 825 717 610 740 618 606 405 331 405 457 473 511 176 250 370 454 450 442 303 147 24 0 0 0 0 0 32 30 0 0 0
4 4 4 2 1 0 2 20 22 9 2 10 29 49 53 32 9 22 22 15 20 28 2 75 74 0 0 2 207 520 850 737 746 553 363 314 334 307 328 437 654 621 521 289 132 180 202 284 414 387 339 235 88 0 0 0 0 0 0 0 0 0 0
3 3 4 3 2 1 1 7 2 2 0 4 9 11 27 44 30 11 34 23 27 13 1 31 48 0 0 0 332 816 644 651 553 367 230 124 94 23 137 229 264 321 210 50 0 0 191 572 490 392 365 229 110 28 0 0 0 0 0 0 0 0 0
2 4 3 2 3 2 2 1 1 3 6 28 36 32 33 50 51 63 52 39 28 31 27 51 65 46 0 105 464 565 368 324 204 198 190 91 16 61 40 53 49 29 8 0 0 0 143 344 506 293 299 217 70 13 1 0 0 0 0 0 0 0 0
3 5 5 4 2 2 2 1 1 11 13 17 14 14 17 29 45 66 64 64 27 6 23 47 69 81 30 36 93 380 186 157 68 46 142 134 61 54 2 10 14 0 25 13 6 0 28 202 348 303 206 117 7 0 0 4 22 0 0 0 3 2 2
1 2 3 2 3 2 3 2 1 5 7 4 2 0 0 15 27 35 36 55 57 42 22 32 9 83 12 0 0 9 95 102 36 0 72 143 105 70 0 8 18 29 22 19 4 3 1 2 0 14 2 4 1 0 0 2 0 0 6 6 4 1 0
4 2 1 2 9 3 3 2 2 3 0 1 1 0 0 13 23 35 42 3 42 57 57 48 38 0 58 59 76 84 81 72 69 0 0 95 94 55 1 2 1 0 0 10 0 18 20 10 3 1 1 0 0 1 1 0 0 0 0 0 0 0 0
0 2 4 1 1 1 1 1 1 1 2 2 1 2 8 14 26 34 44 47 52 52 59 73 76 69 72 79 81 104 34 0 0 0 0 0 1 2 1 0 1 2 6 6 6 6 2 0 0 2 1 0 0 0 0 0 0 7 3 0 0 0 0
0 0 1 3 1 4 2 2 0 0 4 1 1 3 11 20 32 45 52 55 58 62 68 69 64 77 75 81 101 96 88 64 4 3 8 4 2 0 3 1 1 1 3 4 12 9 5 8 10 7 4 0 0 0 0 0 0 0 0 0 0 0 0

ECMWFFLT1_con_mucape_105.txt.gz
CAPE
1983 2027 2160 2122 2060 1855 1966 2085 1897 2128 2130 1839 1646 1482 1380 1175 1279 1244 1190 1087 1179 1321 1299 1031 450 614 1032 977 1288 1268 1356 1146 1112 606 590 353 277 485 1070 772 764 1303 947 418 612 784 479 329 247 380 338 346 564 479 577 951 616 449 310 240 402 332 613
1832 1969 1934 1767 1811 1929 2012 1679 1924 1864 1759 1632 1596 1435 1385 1250 1030 1356 1057 773 1241 1109 1155 616 464 597 375 495 517 986 1442 1815 1548 1063 1012 827 670 458 209 184 1321 925 792 720 570 458 595 464 739 320 541 740 504 607 620 445 366 458 523 666 525 512 519
1583 1675 1798 1931 1912 1925 1198 1336 1467 1819 1826 1795 1682 1387 1471 1351 1242 1044 1141 1211 699 670 1004 652 1108 1019 1150 1149 1298 824 1107 1580 1475 1153 1106 478 542 803 524 802 972 783 483 339 417 381 480 763 409 384 645 375 655 233 535 334 351 336 469 579 515 344 226
1666 1448 1702 2004 2177 1431 1249 1327 1302 1430 1716 1696 1765 1604 1475 1417 1359 1244 1316 760 518 641 671 678 470 457 572 966 634 899 1212 1125 1177 996 651 512 858 908 774 1302 1092 826 684 562 321 548 344 340 411 447 424 335 463 260 916 489 635 297 278 619 133 125 116
1768 1536 1467 1823 1984 1947 1397 1163 1185 1521 1841 1726 1814 1505 1555 1487 1397 1294 1169 852 738 807 788 775 763 580 615 718 1086 1126 1019 1096 775 905 1080 757 865 984 1493 1215 1037 837 764 625 782 491 311 205 605 603 321 327 314 306 254 315 403 332 200 160 100 80 9
1767 1559 1758 1757 1543 1355 1325 1441 1470 1669 1701 1648 1544 1515 1692 1552 1245 1359 1278 1472 1092 996 1002 774 588 484 783 636 558 482 546 881 796 523 379 760 490 489 763 1186 1265 725 730 756 851 716 461 849 682 933 762 573 575 234 290 253 180 186 102 70 43 3 4
1658 1817 1556 1483 990 1273 1375 1166 1408 1645 1653 1642 1504 1469 1627 1424 1216 1269 1407 1015 1129 843 683 624 582 787 518 469 379 333 262 545 438 497 550 408 692 899 1757 1591 783 765 677 402 662 674 1049 719 306 590 577 606 553 131 242 244 252 118 74 58 0 5 2
1639 1476 1707 1239 1183 1402 1615 1776 1642 1684 1553 1310 1208 1315 1438 1512 1319 1258 1252 1343 938 903 688 655 726 951 476 517 383 609 837 334 378 417 596 1017 1388 1628 1121 647 474 709 488 600 836 706 681 685 329 382 646 431 331 309 239 189 191 200 137 69 0 4 0
1438 1452 1455 1694 1710 1899 1795 1621 1630 1549 1257 1451 1524 1308 1254 1297 1254 1181 1003 766 826 809 713 745 782 822 748 538 519 1123 675 983 832 466 542 473 976 928 649 454 507 592 744 540 706 873 746 790 855 400 523 254 274 318 263 172 191 276 63 65 1 2 1
1321 1363 1322 1471 1784 1782 1872 1640 1258 1635 1304 1147 1102 1000 1474 1258 1279 1154 1086 1271 1075 1006 674 856 929 857 723 759 1166 1152 1236 1139 1118 964 889 954 524 649 479 456 799 879 912 957 1218 643 935 734 530 621 364 732 351 504 327 218 200 258 64 33 6 2 2
1300 1248 1302 1323 1522 1507 1434 1058 1202 1508 1294 1136 938 919 1430 1184 1211 1109 912 1198 1060 1129 1267 1059 818 761 793 882 800 653 930 680 658 586 793 648 434 407 467 342 404 752 1031 1476 989 1160 1093 954 785 545 720 387 595 318 262 320 482 351 166 103 9 2 4
1215 1254 1300 1137 1212 1296 1149 1121 1282 1014 819 859 964 1160 855 1248 1217 1119 958 1334 902 748 845 1011 636 714 663 691 629 692 592 547 512 529 591 449 430 309 369 392 522 616 1614 1205 873 890 958 858 835 700 763 517 520 589 586 570 402 328 201 123 38 0 3
911 1030 1057 1060 1159 1178 1100 812 828 807 743 740 949 771 1264 876 876 875 1244 814 877 1051 824 665 512 551 496 575 648 618 633 586 539 592 688 503 374 283 341 554 884 1267 1120 741 866 754 732 762 941 1017 560 720 563 984 410 309 512 478 516 242 110 14 0
1066 1067 1041 1194 1117 1052 806 668 684 714 611 598 530 928 1151 938 823 1139 1142 779 859 1004 715 778 432 471 314 309 661 528 570 525 556 514 338 740 456 406 562 274 852 733 788 928 772 977 974 556 478 627 516 956 776 804 470 437 428 419 284 206 67 1 2
1045 1043 1145 1711 1464 900 747 708 357 507 780 480 604 1144 985 992 1014 1071 1178 1027 727 544 912 638 395 451 181 316 678 722 622 663 480 445 444 495 426 539 464 380 380 806 782 803 914 533 903 1008 982 935 627 514 946 770 1143 384 177 576 284 137 60 5 0
882 863 964 1192 1183 964 800 853 763 567 626 538 466 942 1004 909 878 572 481 841 689 738 601 472 933 530 416 585 722 711 666 760 605 506 423 484 360 503 446 842 385 693 1004 641 823 812 1041 751 873 346 530 382 496 843 305 308 439 540 406 210 46 2 3
705 834 837 897 852 799 820 626 314 255 562 661 528 517 1046 547 702 530 578 1106 1155 874 1008 645 555 725 681 789 540 462 488 379 389 264 292 449 394 601 756 822 810 873 489 652 863 1124 766 610 863 563 529 450 401 801 485 417 242 172 130 13 0 1 0
583 678 746 867 774 793 794 608 509 420 751 539 544 952 732 940 812 480 464 600 866 546 692 315 483 419 657 632 781 597 258 366 357 423 454 431 657 330 412 504 507 944 804 640 580 1050 870 704 497 441 442 307 368 618 584 338 127 64 73 4 0 3 0
425 570 656 677 701 793 925 774 599 670 531 418 685 574 579 630 577 461 631 657 656 730 363 483 443 400 362 491 502 534 172 350 577 392 700 776 381 467 805 404 518 628 1172 840 951 923 690 613 381 538 241 222 340 489 283 340 82 18 0 0 2 0 0
239 361 481 497 618 632 789 886 646 474 678 368 364 556 300 404 714 706 460 582 599 513 601 978 1126 1170 1112 712 457 357 250 508 608 846 882 736 668 674 372 298 383 668 921 984 719 873 910 1039 487 1504 231 713 481 486 499 289 107 4 4 0 2 0 0
178 263 364 475 504 517 472 490 752 498 319 309 315 322 512 560 572 610 557 431 459 585 807 1074 977 1132 1250 1018 1085 882 674 818 911 928 635 619 447 348 363 676 731 464 513 829 1228 844 1039 607 348 211 755 524 569 630 466 348 229 22 18 2 0 0 0
229 334 415 390 394 499 506 572 688 720 530 525 392 294 263 374 511 464 424 460 491 518 662 818 646 869 1026 799 1396 1096 926 805 1116 735 519 369 328 213 264 801 656 943 694 510 528 655 735 507 497 651 172 137 323 683 392 402 202 87 91 21 2 0 0
172 257 352 308 338 261 246 394 537 530 541 425 351 375 410 379 400 369 349 454 522 684 643 690 656 691 823 824 864 874 578 749 665 485 296 558 500 234 844 670 274 448 460 409 15 455 499 345 378 841 269 276 255 677 600 446 247 250 165 78 62 0 1
79 94 229 253 276 237 194 149 301 483 523 425 212 295 272 358 284 347 371 332 316 404 458 442 387 476 423 225 377 487 647 559 474 275 314 213 205 370 693 414 448 408 428 399 382 523 561 466 183 263 181 378 613 1465 387 912 273 308 193 179 75 1 9
30 33 82 88 97 63 50 26 46 57 67 241 177 100 196 201 134 194 291 374 424 588 536 528 375 332 193 199 200 466 356 291 151 159 273 303 420 761 938 843 686 717 500 514 513 555 600 440 356 554 588 487 457 293 371 584 775 469 312 199 504 469 226
8 10 6 7 7 6 6 4 4 13 24 25 26 69 204 131 122 140 227 281 293 331 402 438 474 395 292 203 176 168 231 234 224 224 626 473 816 1086 724 492 797 730 408 418 458 557 610 521 375 390 445 394 396 423 334 221 208 482 605 596 222 208 168
10 8 5 4 4 2 3 3 5 6 16 56 53 60 52 66 90 107 136 154 138 221 215 323 434 333 352 314 254 138 103 227 273 444 365 549 901 649 504 865 554 294 237 251 289 229 231 185 62 68 139 142 142 143 386 351 244 541 678 678 405 353 536
8 7 5 3 3 2 2 2 3 4 3 10 60 67 50 88 89 67 84 111 50 100 41 57 58 154 197 309 270 7 42 175 86 341 614 563 513 642 422 405 586 391 331 153 198 119 73 111 182 292 185 1 0 0 0 281 287 370 580 530 399 345 273
6 5 5 3 3 3 5 5 5 4 3 4 5 50 84 64 68 24 74 72 80 74 22 101 119 188 116 167 144 339 564 200 188 274 529 404 196 596 561 354 263 222 199 174 6 0 83 376 344 263 37 0 0 0 0 0 0 0 72 218 203 28 30
4 4 4 2 3 4 5 4 4 4 4 3 2 16 42 35 8 10 88 68 28 1 43 96 100 90 124 80 77 340 257 133 322 566 478 216 200 216 280 233 209 265 302 16 46 138 166 226 312 193 128 53 0 0 0 0 0 0 0 0 0 0 0
4 4 6 4 3 3 4 4 4 6 3 2 2 4 6 7 6 4 3 2 13 7 25 81 92 123 110 90 109 224 74 90 305 271 273 268 220 187 180 226 295 240 70 34 140 158 165 984 251 258 235 99 22 0 0 0 0 0 0 0 0 0 0
2 3 4 6 7 5 4 3 7 14 10 6 8 9 3 4 6 6 11 12 10 12 27 40 66 76 63 138 161 145 121 64 170 235 154 180 206 160 220 300 267 208 0 64 84 92 147 169 344 199 176 185 96 25 0 0 0 0 0 0 0 0 0
4 4 4 3 3 5 4 3 14 23 21 4 2 3 9 2 0 2 4 8 4 7 6 19 12 38 115 111 125 102 71 122 107 84 51 103 165 134 95 175 106 2 0 0 24 62 74 78 258 145 148 102 104 1 0 8 33 9 20 0 0 0 0
4 3 3 3 2 2 1 2 3 17 7 0 0 0 0 15 10 3 2 2 6 10 11 11 22 30 68 95 86 98 106 117 0 0 0 0 0 49 50 0 0 13 0 0 0 106 134 117 70 70 0 0 0 139 25 0 0 0 0 0 0 0 1
2 3 3 2 2 2 1 1 1 1 1 1 1 2 4 9 2 3 3 13 13 15 24 24 19 25 49 67 70 89 96 106 85 0 0 0 0 1 0 1 0 0 0 0 0 9 54 0 0 0 0 0 0 0 0 0 0 0 0 0 0 1 2
0 0 0 0 0 1 0 0 1 1 2 1 0 2 9 14 18 10 2 8 14 23 35 32 28 32 44 54 53 58 80 80 49 0 0 1 1 22 58 38 20 33 13 35 33 34 31 15 0 1 0 0 0 0 0 0 0 0 0 0 4 7 4
0 1 2 1 0 1 0 2 0 0 1 0 1 2 12 17 24 33 29 23 2 10 21 26 39 44 51 55 52 58 69 70 71 57 1 4 2 2 2 16 34 43 29 0 25 22 3 6 9 4 2 0 0 0 0 0 0 0 0 0 1 1 0

ECMWFFLT1_con_mucape_108.txt.gz
CAPE
2088 2279 2232 2480 2423 2406 2275 2482 2352 2493 2370 1995 2090 1838 1713 1661 1578 1477 1258 856 693 699 632 708 668 639 570 518 470 495 453 392 374 258 339 392 439 499 829 610 1030 559 577 515 946 452 369 279 261 322 315 389 412 546 410 600 510 371 404 391 524 423 573
2022 2172 1962 1951 2142 2260 2196 2262 2364 2147 2272 2237 1977 1927 1815 1609 1479 1524 1356 1191 942 675 591 692 663 640 564 520 453 484 365 329 271 345 295 302 415 665 615 754 694 458 533 761 389 703 694 389 310 238 279 292 357 383 488 428 378 600 460 522 593 404 270
2016 2073 1898 2197 2031 2096 2160 2335 2070 2078 2202 2233 2183 1916 1841 1614 1556 1469 1418 1384 1181 1072 759 711 744 735 633 518 432 421 369 293 306 347 320 398 410 459 664 729 703 425 548 720 641 730 625 652 376 277 276 295 320 305 342 311 528 494 395 327 322 336 336
1892 1872 1821 1572 1874 1800 1885 1959 1963 1903 1842 1996 2162 1988 1859 1625 1642 1520 1434 1414 1242 1293 1192 1030 764 704 642 483 420 423 414 519 399 522 356 275 384 582 513 707 418 362 292 550 684 559 423 475 445 295 334 259 352 347 475 567 470 381 504 247 202 258 187
1910 1786 1746 1265 1139 1414 1445 1931 2107 1921 1606 1634 2000 2011 1946 1527 1641 1556 1282 1439 1281 1013 946 1080 875 744 580 548 480 456 506 500 539 590 521 434 424 265 467 207 219 343 305 185 410 556 297 567 374 340 378 294 308 346 441 494 427 396 211 317 95 108 52
1866 1716 1551 1468 1415 1004 1061 1342 1718 1818 1800 1767 1768 1408 1115 1064 1008 1348 1481 1390 1185 950 816 802 906 851 855 765 562 532 474 420 535 492 556 654 626 264 439 401 251 248 212 372 837 609 681 1456 663 425 366 297 311 260 350 421 419 180 147 132 79 37 14
1776 1624 2052 1347 1298 1414 1268 1300 1449 1468 1517 1650 1437 1002 966 746 860 1359 1476 1332 978 930 901 921 877 836 904 894 652 594 575 577 626 745 605 675 511 396 797 365 420 488 527 814 1020 808 386 320 491 281 344 268 254 221 297 317 281 208 83 79 68 34 0
1690 1658 1563 1655 1758 1677 1616 1551 1581 1682 1690 1507 1194 998 919 673 732 1033 1192 1177 1143 942 844 801 869 861 859 775 628 586 560 728 710 512 634 690 397 212 359 470 638 970 769 615 729 638 452 367 367 291 258 245 146 208 256 295 204 149 54 26 21 0 0
1305 1319 1335 1456 1638 1856 1894 1818 1678 1653 1535 1395 1150 1023 1010 854 676 538 903 1007 962 965 891 916 742 758 738 593 461 454 422 514 629 491 541 384 340 328 457 932 926 916 860 765 617 932 449 369 1038 326 352 287 216 139 160 80 189 137 88 15 6 1 0
1274 1222 1282 1352 1489 1528 1612 1794 1485 1490 1419 1167 1007 1041 1008 903 759 772 703 879 895 907 946 804 709 615 620 507 577 533 395 292 336 384 391 380 349 436 802 790 514 665 725 856 1239 981 447 303 392 1248 511 394 295 191 175 109 96 96 50 3 0 0 0
1182 1181 1285 1388 1441 1396 1430 1668 1593 1408 1084 1165 786 767 789 808 800 648 718 703 819 825 772 776 590 668 541 566 506 570 444 408 273 266 311 359 582 682 812 576 574 749 878 1293 608 521 1363 423 350 314 372 501 371 340 187 133 136 117 48 5 0 0 0
1175 1141 1119 1225 1257 1220 1258 1340 1367 1291 1094 1024 872 592 600 519 374 472 590 727 771 795 813 744 651 647 674 564 541 643 464 378 373 328 348 400 485 632 516 505 542 542 763 992 671 707 1027 905 398 232 346 750 235 174 337 188 160 169 57 0 0 0 0
868 982 1079 1169 1161 1137 1190 1148 1046 961 954 947 854 562 521 445 387 459 486 597 633 742 730 789 578 640 740 620 567 502 484 547 519 392 381 355 468 397 340 321 330 341 399 592 743 955 853 846 706 458 454 250 367 408 261 95 54 190 617 114 6 0 0
724 735 827 979 1085 1066 1096 1076 1003 996 796 725 694 624 408 312 298 332 481 562 528 608 653 725 627 713 583 585 510 488 388 532 408 496 458 494 405 348 284 257 253 239 375 597 786 802 664 766 942 781 380 380 285 731 282 27 39 319 270 310 62 1 0
635 646 746 837 955 932 951 928 996 990 879 734 644 456 441 309 285 318 341 376 505 656 632 615 434 432 549 535 456 395 420 397 367 416 552 466 464 296 383 308 400 423 493 702 827 762 634 796 805 614 624 585 716 911 486 376 368 134 228 248 46 0 0
276 365 523 750 847 808 733 784 678 734 587 459 619 325 448 375 141 293 469 380 325 504 566 686 702 580 486 451 421 477 459 488 295 476 487 488 482 435 530 428 412 421 500 574 877 718 792 783 584 518 530 473 721 558 522 430 318 212 128 179 37 1 0
124 217 327 467 600 725 722 685 663 724 606 684 588 473 665 445 289 408 432 346 406 471 605 562 560 607 501 334 459 519 421 381 629 578 482 556 485 467 380 339 345 376 507 533 600 893 637 592 455 483 439 106 484 702 629 318 343 254 152 82 1 0 0
86 159 242 376 527 661 626 893 789 415 560 562 459 390 709 648 451 604 581 533 554 472 462 526 657 611 486 287 318 446 574 626 658 592 562 552 625 492 408 452 389 366 343 325 474 608 447 565 379 326 336 356 298 238 331 308 380 443 170 86 2 0 0
87 182 277 387 540 637 619 512 330 354 482 412 608 642 563 595 700 608 462 476 464 518 535 403 464 625 539 465 459 431 526 562 490 463 517 517 461 603 427 445 396 435 355 271 373 491 339 341 264 246 309 318 199 91 94 327 289 297 163 34 7 0 0
134 243 318 447 543 535 513 590 447 347 338 536 470 288 407 514 477 471 523 607 488 464 508 531 472 499 578 502 546 565 491 419 526 351 472 758 654 619 546 339 451 385 332 296 302 250 334 622 242 324 307 215 266 301 27 107 64 202 87 1 0 0 0
120 121 293 352 440 468 416 387 625 577 477 452 279 340 436 450 398 364 461 456 422 539 567 405 276 251 362 422 462 529 599 524 453 625 772 506 573 549 462 342 298 314 285 308 416 343 483 339 282 267 236 307 325 49 291 397 253 28 19 0 0 0 0
59 14 95 74 184 183 139 160 208 253 354 382 403 243 210 439 633 614 572 490 408 450 520 612 407 401 546 484 320 397 398 374 336 435 637 646 628 434 338 419 241 313 242 266 276 224 435 472 316 340 267 431 287 194 440 410 318 48 0 15 0 0 0
16 15 3 2 30 23 12 22 22 36 104 300 272 114 87 283 286 386 500 487 478 441 452 511 460 528 520 490 396 302 327 370 345 490 682 667 391 309 292 492 318 251 289 314 394 431 553 543 396 380 310 316 329 436 443 452 250 166 27 28 0 0 0
13 12 10 8 7 4 3 3 2 2 3 24 64 61 122 209 160 239 325 456 446 438 451 514 540 378 545 695 661 430 416 383 315 422 704 548 362 277 327 320 420 364 395 525 631 471 486 400 296 165 272 448 642 757 376 146 330 147 331 330 94 0 0
11 11 1 3 5 4 5 3 1 2 32 35 12 33 113 152 34 6 229 325 290 332 288 404 399 380 368 359 316 476 514 565 535 447 408 425 259 249 208 236 345 298 331 333 413 524 410 302 224 0 227 295 326 378 248 281 383 227 307 161 238 350 217
9 8 3 2 1 3 4 3 3 2 2 42 43 44 8 3 1 1 104 218 258 176 266 351 365 338 238 157 132 248 439 409 538 226 116 150 199 268 331 238 197 274 146 222 399 410 298 210 203 207 277 315 282 259 195 235 201 161 568 562 277 308 423
9 9 3 2 2 3 5 4 7 6 4 3 4 22 5 1 2 4 3 3 144 260 284 219 288 240 172 166 130 66 166 596 449 360 206 173 159 313 344 316 344 385 256 340 414 393 298 341 367 346 356 347 264 241 378 275 239 236 235 105 256 243 272
4 4 2 3 3 1 4 4 4 4 3 2 3 4 3 7 4 3 2 8 48 122 180 204 238 280 284 223 210 76 40 49 130 99 127 98 160 308 258 338 345 300 291 458 473 459 372 272 337 447 449 434 399 384 302 307 266 197 149 138 207 156 188
2 0 1 4 2 0 3 3 3 3 1 1 3 3 2 2 3 2 3 10 21 74 147 223 166 172 121 240 154 55 44 38 63 87 116 130 189 171 169 279 200 165 155 140 443 381 125 274 256 250 243 259 350 335 368 305 264 256 223 252 191 182 206
1 1 1 1 1 2 3 4 4 3 2 2 3 4 2 2 2 2 2 3 16 30 55 116 83 86 104 130 60 48 68 37 40 52 124 188 154 204 138 152 172 104 130 153 88 148 156 164 69 0 0 0 0 72 163 328 298 258 205 217 230 202 178
2 1 2 2 2 2 2 3 4 11 4 2 3 2 2 2 2 1 1 2 3 3 18 10 36 64 63 38 20 14 20 24 80 2 74 124 181 173 106 129 106 26 71 128 149 142 137 78 30 0 0 0 0 0 0 76 211 218 208 117 0 0 15
1 2 0 0 1 1 1 5 6 4 6 3 3 3 1 2 2 2 2 3 0 15 32 34 53 50 42 57 47 53 70 66 47 39 74 94 94 149 130 110 102 68 83 141 203 156 121 172 173 44 5 0 0 0 0 0 0 0 0 0 0 0 0
0 0 0 2 1 1 0 2 9 4 2 4 4 3 2 2 2 5 4 2 2 5 16 6 15 30 42 37 60 75 67 65 55 35 47 103 93 55 85 131 139 89 132 98 69 111 132 102 12 0 3 4 0 0 0 0 0 0 0 0 0 0 0
1 0 0 0 0 0 0 0 2 5 0 0 0 1 2 2 1 3 4 2 1 1 2 4 9 11 20 31 36 36 32 28 19 28 40 73 96 90 41 24 81 57 100 106 103 104 22 0 0 0 0 0 14 0 0 0 0 0 0 0 0 0 0
0 1 0 0 0 0 0 0 0 0 1 0 0 0 0 0 1 1 2 1 1 0 0 0 1 10 18 28 36 27 22 18 4 5 17 18 11 12 3 0 34 63 33 42 35 26 17 0 24 30 7 1 0 0 0 0 0 0 0 0 0 0 0
0 0 0 0 0 0 0 0 0 0 0 0 0 0 0 0 0 0 0 1 1 3 6 2 2 0 1 3 10 6 1 0 2 8 13 14 17 14 17 26 29 22 59 26 4 1 10 8 0 0 0 5 5 0 0 0 0 0 0 0 0 0 0
0 0 0 1 0 0 0 0 1 0 0 0 0 0 0 0 1 2 0 4 0 0 2 0 0 0 0 0 0 0 0 0 0 0 0 9 20 24 26 22 11 4 6 14 6 2 7 5 4 10 6 1 0 0 0 1 5 3 2 0 0 0 0

ECMWFFLT1_con_mucape_111.txt.gz
CAPE
1576 1762 1690 1850 1871 1546 1623 1748 1800 1558 1545 1569 1498 1388 1288 1157 1192 1104 928 949 970 1101 1064 1019 952 911 897 864 767 741 680 639 600 476 328 265 250 281 222 176 170 162 345 298 174 174 230 237 219 176 270 265 243 313 320 165 64 49 36 42 213 243 170
1644 1522 1791 1667 1805 1855 1609 1519 1903 1776 1622 1393 1242 1094 1169 1120 1052 1034 1008 1006 882 939 952 895 872 830 845 817 763 728 625 623 586 462 347 291 276 245 233 169 99 223 214 188 260 187 183 169 128 106 158 195 161 248 313 169 75 23 69 69 308 348 108
1579 1510 1709 1742 1563 1585 1677 1684 1749 1672 1579 1340 1022 1040 1084 661 656 943 913 958 1040 1033 970 856 789 711 689 743 751 665 584 548 492 392 368 343 277 184 258 281 127 228 276 146 145 166 115 47 125 100 75 88 62 143 257 111 314 239 71 199 214 341 202
1544 1633 1563 1489 1387 1261 1208 1276 1620 1601 1481 1178 1064 1014 789 486 819 843 731 802 974 1001 1060 1075 1014 607 614 531 746 701 644 479 417 371 350 373 340 210 270 288 229 244 248 245 218 218 125 109 116 89 76 63 145 175 220 195 267 325 260 128 303 254 290
1869 1686 1554 1397 1378 1300 1190 1096 1021 1474 1632 1286 1264 1255 987 695 733 880 847 775 832 987 1086 1054 1020 948 725 514 539 703 657 502 504 422 359 345 338 215 193 336 409 473 340 397 426 165 224 28 167 66 130 171 76 45 137 234 184 194 278 288 308 253 149
1708 1664 1549 1442 1232 1225 1180 1184 1124 1129 1085 1188 1068 990 971 1023 917 794 670 743 738 806 923 991 967 895 944 1043 983 760 711 627 492 411 344 276 295 199 221 354 354 284 314 285 436 317 141 166 19 24 145 140 134 160 144 118 19 220 330 113 16 1 14
1315 1110 1114 1402 1242 1179 1196 1291 1249 1224 1209 1230 1116 1059 1065 981 974 946 844 778 678 705 621 816 894 821 880 973 859 680 493 568 470 451 414 415 392 246 281 358 305 382 439 255 270 288 238 371 96 141 210 68 113 194 258 226 136 175 239 10 8 0 0
828 790 799 879 1222 1387 1449 1360 1364 1463 1471 1342 1099 971 915 908 889 883 794 580 583 535 590 605 651 750 674 741 825 725 662 574 556 447 454 546 452 328 303 278 263 204 262 286 208 269 283 387 304 243 240 216 171 201 215 236 152 46 174 132 2 2 0
818 793 720 704 690 789 1014 1261 1406 1346 1178 1099 1039 901 785 669 612 606 617 636 665 532 451 407 423 622 685 636 730 718 673 620 669 539 506 539 575 450 293 199 176 144 137 285 254 435 456 300 269 60 141 58 62 163 147 147 154 20 3 8 10 1 0
661 639 582 684 758 719 785 932 1109 1124 1055 974 921 785 631 494 424 391 331 298 456 574 452 427 417 274 608 717 670 669 646 535 522 544 565 587 484 427 391 342 244 252 329 283 404 525 603 455 284 53 70 240 6 128 154 135 119 0 15 19 10 0 5
303 346 404 433 445 372 617 729 671 714 706 709 700 689 611 506 418 357 274 251 306 436 502 340 413 407 428 674 730 657 602 617 635 586 534 595 556 546 479 449 371 507 683 729 482 582 555 337 280 168 37 222 92 7 5 10 0 0 1 8 23 0 0
211 204 205 210 214 279 558 607 638 597 583 565 536 542 614 568 420 39 46 219 264 346 354 538 667 674 537 467 616 698 619 534 440 454 590 597 532 446 432 403 589 595 811 830 588 502 525 392 252 253 67 185 150 180 0 0 0 0 0 0 0 0 4
187 140 130 94 135 430 440 410 489 564 558 566 518 440 262 458 174 138 141 240 374 422 359 362 484 644 668 572 574 720 446 422 325 367 453 392 424 495 367 550 751 758 718 700 618 505 354 307 288 244 225 236 161 185 152 42 52 82 0 0 0 0 1
4 10 6 26 72 269 337 320 418 330 444 477 431 312 150 158 213 180 107 140 275 383 453 346 414 580 679 662 640 615 428 483 455 449 392 342 286 454 445 707 759 743 694 783 683 544 402 349 313 259 258 215 177 205 120 133 140 0 0 20 0 0 0
0 0 2 0 28 94 260 83 129 380 148 185 177 399 405 381 403 389 294 71 91 188 36 274 461 615 695 715 655 628 384 402 493 460 346 354 422 493 587 696 671 641 489 595 636 596 530 406 457 293 214 187 251 220 27 174 133 0 52 0 0 0 0
6 11 33 25 0 149 227 219 112 146 122 132 178 186 264 150 390 384 332 420 288 278 232 213 305 531 558 572 628 605 575 443 488 436 432 446 477 507 550 548 522 480 409 407 485 670 787 631 441 405 228 183 111 66 75 1 85 94 0 0 0 0 0
7 7 57 107 38 189 247 204 109 63 29 59 335 305 323 131 166 405 371 425 532 477 388 475 511 519 523 526 474 536 565 474 439 462 446 494 519 557 526 492 439 402 430 386 573 595 681 504 381 514 409 38 126 123 91 21 5 78 0 0 0 0 0
6 8 22 103 176 159 141 75 122 85 56 85 307 310 288 281 395 482 513 466 422 421 443 456 574 585 575 477 415 456 459 346 268 328 348 464 578 590 529 471 429 440 393 418 475 546 476 413 310 366 362 308 248 285 207 158 115 0 0 0 0 0 0
4 3 5 8 29 14 12 18 46 104 154 165 186 195 201 266 284 344 297 430 505 407 472 448 503 508 562 470 411 432 460 276 248 302 384 425 566 590 563 560 439 407 435 434 512 526 404 362 305 386 269 315 266 0 137 0 1 0 0 0 0 0 0
10 1 5 5 1 0 0 0 2 35 47 96 122 96 64 60 303 320 279 217 296 384 359 469 528 613 583 474 358 412 390 392 396 305 332 368 387 480 559 571 448 419 430 450 499 475 527 420 477 426 315 235 182 191 122 139 65 92 38 0 0 0 0
8 3 2 0 0 0 0 2 1 1 3 2 8 77 42 77 168 252 354 444 398 392 327 401 461 480 535 320 374 342 261 428 469 508 396 340 467 406 474 437 395 449 450 410 391 457 561 532 436 455 258 238 273 188 98 231 185 174 98 0 0 0 0
13 9 5 1 0 3 4 1 2 0 0 1 2 27 4 19 4 4 153 336 352 328 328 335 376 354 264 306 363 347 355 397 324 241 294 281 260 368 490 450 440 428 504 414 299 326 378 422 295 302 257 210 109 38 118 154 146 171 95 0 0 0 0
10 8 4 0 3 7 8 1 1 1 0 1 3 3 3 3 1 0 1 2 142 406 454 346 459 327 367 436 415 385 291 349 202 174 283 430 194 281 386 512 382 288 346 323 301 346 307 333 322 308 182 169 140 98 22 3 137 134 53 0 0 0 0
8 3 2 3 7 8 5 1 1 1 1 2 4 6 4 3 3 2 2 2 172 268 399 526 576 610 557 437 447 358 321 300 206 304 507 398 154 178 454 372 294 246 264 195 223 324 337 422 439 275 178 48 88 81 2 48 117 61 0 0 0 0 0
9 5 3 6 7 5 1 1 1 1 2 2 3 8 14 4 2 1 1 25 93 178 328 364 432 485 561 535 456 365 340 151 344 242 321 318 250 125 212 188 278 253 212 246 269 267 267 400 404 278 87 0 0 0 0 193 161 48 0 0 0 0 0
4 6 6 5 3 4 2 1 2 3 3 2 1 1 1 1 0 1 1 0 26 78 187 255 305 418 341 240 195 266 191 91 98 96 166 133 198 188 117 182 276 284 332 358 422 339 400 357 251 181 182 0 0 0 153 160 6 10 0 0 4 2 0
2 4 6 2 2 5 4 3 2 4 4 2 1 1 0 0 0 0 1 1 1 64 141 210 246 185 127 92 56 58 18 60 57 110 72 97 96 160 178 202 176 267 277 275 416 358 223 350 284 140 136 161 75 118 194 96 0 7 1 0 0 0 0
4 4 2 1 1 4 5 3 3 3 4 3 2 2 1 0 0 2 1 0 21 42 103 208 182 116 50 38 38 27 45 60 57 66 103 77 89 158 174 187 194 224 176 225 228 156 169 128 113 127 114 17 0 0 0 6 0 0 0 0 0 0 0
5 3 2 0 0 1 2 2 4 4 3 3 2 1 1 1 2 6 9 2 11 36 94 227 120 48 48 34 21 23 22 32 52 96 104 96 116 148 160 164 176 187 162 192 144 88 51 54 113 149 138 134 0 0 50 84 91 62 0 21 0 0 0
5 3 2 0 0 0 0 2 4 4 4 3 2 1 1 0 0 0 21 20 4 6 2 9 20 13 25 31 43 48 51 55 60 83 116 108 126 168 141 136 96 95 112 163 119 85 126 175 202 213 183 181 164 121 33 0 0 0 0 0 0 0 0
3 3 1 0 0 0 0 0 5 6 5 3 2 1 0 0 0 0 2 1 7 4 6 12 13 16 19 29 37 27 28 36 41 34 34 56 110 105 104 89 78 85 106 63 59 108 30 77 138 168 160 309 261 244 181 144 121 104 8 0 0 0 0
2 2 1 1 0 0 0 0 0 1 4 5 4 1 0 0 0 1 1 2 2 4 7 13 27 29 27 35 34 21 20 20 18 21 16 10 26 67 76 74 60 60 72 64 95 74 32 7 0 0 0 172 189 161 158 180 189 164 150 128 116 109 23
0 0 0 2 2 1 1 0 0 0 0 0 2 3 1 0 0 1 5 6 3 0 1 1 5 9 19 16 17 14 14 14 14 12 12 26 28 53 62 56 46 55 41 66 82 75 60 30 8 1 0 0 0 0 0 104 121 154 168 172 170 0 6
0 0 0 1 2 1 0 0 0 0 0 0 0 0 0 0 0 0 3 5 3 0 2 4 2 7 4 0 0 0 0 0 4 12 8 2 10 23 34 55 43 64 33 43 80 74 58 29 8 0 0 0 0 2 6 12 10 1 32 3 0 0 0
0 0 0 0 0 0 0 0 0 0 0 0 0 0 0 0 0 0 0 0 0 0 0 0 0 0 0 0 0 0 0 0 0 0 0 0 0 0 1 1 17 42 53 55 80 94 63 54 44 7 7 0 0 0 0 0 4 0 0 0 0 0 0
0 1 1 0 0 0 0 0 0 0 0 0 0 0 0 0 0 0 0 0 0 0 0 0 0 0 0 0 0 0 0 0 0 0 0 0 1 2 0 5 3 6 5 33 31 26 13 15 20 13 6 1 1 0 0 0 0 0 0 0 0 0 0
0 0 0 0 0 0 0 0 0 0 0 0 0 0 0 1 0 0 0 0 0 0 0 0 0 0 0 0 0 0 0 0 0 0 0 0 0 0 0 0 0 0 2 9 13 17 11 8 2 4 3 3 3 2 0 0 1 3 3 1 0 0 0

ECMWFFLT1_con_mucape_114.txt.gz
CAPE
1458 1413 1334 1298 1357 1385 1560 1547 1515 1169 898 739 1029 1117 1005 909 1000 1110 1019 879 696 550 649 756 875 980 962 901 842 863 896 894 897 735 688 553 461 370 418 354 245 170 183 132 148 152 41 120 106 151 150 148 105 112 68 0 0 20 0 120 116 0 0
1394 1470 1452 1478 1515 1565 1558 1485 1459 1248 1235 798 582 716 950 1097 1220 1150 1014 951 906 794 688 631 606 782 881 835 803 796 807 833 836 808 598 615 570 500 394 238 279 240 210 123 154 149 61 62 70 50 48 171 71 121 169 98 0 0 0 85 178 32 0
1292 1285 1386 1394 1308 1221 1187 1117 1040 981 932 874 691 591 821 894 970 949 859 769 767 801 832 811 663 637 697 740 744 726 700 724 776 723 720 735 560 464 411 393 255 160 179 134 71 136 88 50 103 154 174 162 54 190 201 238 185 148 0 25 143 212 0
1407 1562 1537 1420 1280 1186 1128 1080 1096 1032 983 958 905 819 874 941 887 745 617 540 491 500 599 716 744 775 808 785 715 668 662 656 678 669 688 681 441 454 482 381 231 146 192 89 115 132 135 64 35 115 160 162 71 151 244 266 190 144 0 159 18 247 6
1519 1430 1366 1270 1184 1100 1064 1073 1042 1022 980 946 906 832 895 928 956 936 844 739 613 617 703 727 646 648 762 819 767 774 651 553 537 606 598 556 468 461 461 391 287 261 225 147 108 128 156 150 91 81 108 98 76 46 142 238 246 174 0 2 20 163 244
1367 1468 1157 1032 944 924 911 870 855 898 866 907 1007 947 942 920 874 870 872 876 839 815 803 732 627 548 493 642 601 585 613 490 384 469 564 590 496 358 346 364 324 306 290 216 126 117 163 176 136 59 56 45 48 50 49 68 185 0 167 146 173 67 308
1004 951 951 768 787 860 887 950 975 930 957 1080 1111 1035 959 851 749 652 629 636 617 622 664 664 623 565 490 509 528 498 485 487 221 240 449 511 403 310 302 366 318 279 228 225 134 83 114 118 102 21 29 34 25 55 75 93 117 148 163 221 201 212 243
645 649 631 614 643 625 631 628 786 940 1071 1164 1141 978 825 680 555 444 380 345 354 372 392 464 517 481 456 450 324 277 287 274 280 332 618 516 498 395 288 342 308 292 276 284 195 164 121 102 109 123 56 18 31 63 64 76 106 118 151 161 219 200 240
590 566 540 510 522 517 489 527 632 711 814 810 769 728 604 189 109 0 68 281 245 213 160 155 185 259 389 415 396 400 300 160 216 570 552 444 449 434 410 440 347 224 227 286 303 248 299 197 81 120 116 66 58 72 90 74 89 113 122 93 18 101 133
463 407 145 150 368 403 396 364 480 449 426 455 421 21 8 9 1 0 96 253 210 166 98 83 100 202 163 271 367 350 284 225 388 558 500 488 482 457 404 355 458 494 200 298 378 406 391 117 58 103 129 20 57 83 77 114 108 93 92 111 179 19 98
176 222 115 58 156 213 345 82 83 4 19 1 0 1 1 1 2 59 222 256 259 190 106 127 201 207 163 180 302 246 245 415 453 568 521 527 490 448 399 350 394 392 305 229 301 353 277 171 187 190 119 85 20 39 52 91 102 57 20 0 159 0 0
120 122 0 0 0 0 3 0 0 0 0 0 0 0 0 0 0 15 188 188 181 151 110 121 141 182 194 259 234 298 402 461 460 496 514 481 467 458 432 434 354 390 380 153 116 92 221 158 195 272 278 222 213 163 0 2 2 0 0 0 0 0 6
0 0 0 0 116 144 0 0 0 0 0 0 0 0 0 0 0 179 186 208 207 228 119 145 327 244 224 297 362 290 338 489 530 543 524 518 524 484 486 402 322 316 343 290 124 101 117 219 339 324 233 238 253 242 196 154 0 0 0 0 0 67 76
17 92 144 173 199 219 198 191 170 166 0 0 0 0 0 0 0 0 0 8 226 389 277 110 119 307 274 219 269 371 356 392 542 599 548 522 537 484 481 453 374 307 343 404 299 295 268 276 413 494 306 282 223 207 175 149 97 0 0 0 0 116 87
82 151 171 141 110 92 86 90 126 7 1 0 0 0 0 0 149 198 271 299 374 409 460 410 228 162 246 320 317 408 436 347 384 406 370 446 495 487 442 385 339 323 334 456 430 527 564 470 450 299 215 179 212 234 155 122 100 15 0 0 0 0 0
56 61 51 24 14 2 2 35 66 95 42 17 81 2 142 14 136 199 293 309 323 410 468 391 348 330 229 233 311 375 386 413 390 444 386 287 299 331 339 340 343 393 335 325 426 405 316 267 328 331 181 215 231 206 164 161 148 100 75 92 0 0 0
7 8 7 4 1 0 0 0 3 35 28 2 3 13 9 8 118 172 177 104 236 110 461 469 360 382 415 375 358 374 390 382 432 480 379 392 397 356 309 267 259 331 341 388 555 512 408 390 398 331 266 282 260 238 172 155 148 148 5 0 3 103 0
4 5 5 1 0 0 0 0 2 5 4 3 4 17 4 15 22 82 66 7 4 49 387 372 343 395 400 360 361 410 389 336 459 426 345 234 329 334 294 252 287 292 378 402 412 496 401 497 349 304 293 260 249 238 220 218 180 146 181 109 98 49 0
0 0 0 0 0 0 1 4 4 5 4 3 3 3 3 3 3 1 1 0 0 60 270 247 421 423 356 316 360 436 401 296 214 138 213 233 361 395 431 412 386 390 282 244 271 278 277 290 518 483 386 364 273 219 190 178 156 174 112 85 90 83 0
1 0 0 0 0 2 4 4 4 4 4 7 5 3 2 1 2 2 0 0 1 8 220 201 214 225 114 248 272 316 302 148 246 220 172 183 343 479 548 559 492 544 417 305 271 201 256 366 392 446 431 435 348 227 136 140 134 130 97 18 92 47 0
3 0 0 2 3 2 3 4 4 5 6 6 4 4 2 2 1 1 1 1 1 1 208 58 0 71 298 340 282 379 305 253 287 290 272 274 343 404 507 517 497 507 485 414 384 336 361 352 408 498 392 372 392 322 198 184 150 101 100 79 47 52 38
2 0 2 4 1 2 1 2 4 4 4 5 6 6 2 2 1 0 0 0 1 0 144 233 81 321 326 255 229 251 165 304 330 381 427 354 275 271 348 434 390 398 345 390 362 358 352 433 395 383 347 290 352 318 257 164 200 148 97 30 20 8 35
1 3 4 4 3 2 2 1 1 1 1 0 1 1 0 0 1 1 0 0 3 2 91 394 395 370 336 373 268 178 232 265 277 256 318 355 366 359 370 350 378 285 210 250 312 354 318 300 403 408 310 306 256 248 210 132 153 160 119 40 0 50 20
6 5 7 7 4 3 2 1 0 0 0 0 0 0 0 0 1 1 1 1 0 57 6 71 492 341 369 367 265 229 163 146 104 146 187 210 279 296 247 264 299 294 240 230 229 244 302 257 350 382 392 338 223 205 194 168 147 139 107 70 0 0 0
6 2 8 10 5 2 1 0 1 0 0 0 0 1 1 1 0 0 0 1 0 1 77 162 273 282 366 296 198 156 135 116 172 168 198 185 180 149 203 254 287 243 191 173 218 272 345 258 229 216 200 209 190 165 100 140 186 186 149 90 84 61 10
2 2 8 7 4 1 1 1 0 1 1 2 2 2 1 1 0 0 0 0 0 11 144 230 254 171 168 142 96 78 75 102 133 186 134 132 136 124 138 141 128 153 182 188 174 175 283 304 239 274 291 212 149 106 146 122 126 216 151 0 54 84 6
0 0 2 5 3 3 2 2 1 1 1 2 3 4 2 1 1 0 0 0 2 115 139 160 59 20 28 25 29 26 42 58 92 86 81 96 128 125 118 113 134 202 230 274 273 223 214 264 394 404 205 119 120 104 104 98 69 91 50 60 37 61 0
1 0 0 3 4 3 2 1 1 0 0 0 0 2 5 4 1 0 7 17 67 27 38 47 34 11 5 13 17 30 46 60 49 52 50 63 107 117 162 154 141 166 232 227 299 283 253 289 354 360 270 129 93 105 102 66 27 8 55 69 4 0 0
2 1 1 1 4 5 4 2 1 0 0 0 0 0 6 10 16 24 31 24 37 44 38 28 35 1 1 18 31 33 29 25 30 34 35 53 77 120 132 117 141 193 177 189 198 246 255 291 275 222 176 171 55 76 56 34 3 60 0 1 26 7 4
2 1 1 0 0 2 7 5 3 0 0 0 0 0 0 8 15 17 14 25 39 47 30 4 0 0 0 1 0 0 0 0 0 1 7 35 97 129 130 111 63 80 96 134 121 104 92 156 97 185 134 161 135 133 81 105 92 58 5 4 10 0 0
2 2 1 0 0 0 0 2 4 2 0 0 0 0 4 7 12 12 11 17 46 36 38 9 0 0 0 0 0 0 0 0 3 6 3 31 35 51 60 86 59 65 61 73 72 82 80 78 118 118 85 79 27 50 20 14 5 30 9 8 10 2 1
6 5 4 2 0 0 0 1 1 0 0 0 0 0 0 2 2 2 5 8 7 32 48 42 8 0 0 0 0 0 0 0 0 0 0 7 15 23 42 61 68 80 82 85 95 54 40 35 51 63 37 34 58 52 30 4 3 0 22 10 22 0 0
5 4 3 1 0 0 0 0 0 0 0 0 0 0 0 0 0 2 5 0 0 0 1 0 0 0 0 0 0 0 0 0 0 0 0 1 10 10 2 3 12 29 58 41 31 6 16 20 41 37 50 50 54 46 0 34 50 36 45 48 0 5 0
4 3 3 0 0 0 0 0 0 0 0 0 0 0 0 0 0 0 0 0 0 0 0 0 0 0 0 0 0 0 0 0 0 0 0 0 4 4 6 17 10 12 12 19 13 14 13 18 27 28 32 44 48 15 8 47 89 66 32 20 32 2 39
2 2 3 2 2 1 1 0 0 0 0 0 0 0 0 0 0 0 0 0 0 0 0 0 0 0 0 0 0 0 0 0 0 0 0 0 0 2 0 0 7 18 14 9 9 5 9 12 13 10 7 6 3 4 18 20 32 35 35 46 24 16 0
0 2 2 2 2 1 1 0 0 0 0 0 0 0 0 0 0 0 0 0 0 0 0 0 0 0 0 0 0 0 0 0 0 0 0 0 0 0 0 0 0 1 2 1 0 1 0 0 0 1 3 3 2 2 2 2 2 2 6 8 5 0 0
0 0 1 0 0 0 0 0 0 0 0 0 0 0 0 0 0 0 0 0 0 0 0 0 3 2 3 4 2 0 0 0 0 0 0 0 0 0 0 1 2 4 8 13 16 14 8 1 0 1 1 1 1 0 1 1 0 0 0 0 0 0 1

ECMWFFLT1_con_mucape_117.txt.gz
CAPE
1174 1273 1375 1460 1453 1487 1432 1311 1242 1243 1180 1046 1017 1027 872 616 521 671 822 960 982 984 960 918 850 770 810 916 946 920 896 908 854 808 609 725 702 591 522 433 299 207 237 131 104 69 56 81 69 93 116 104 64 133 204 156 110 82 67 0 0 0 0
1261 1302 1362 1466 1407 1331 1291 1242 1176 1143 1095 1044 977 913 875 765 592 585 645 708 794 890 915 878 806 748 741 738 820 946 987 875 802 853 709 802 708 683 565 479 400 334 186 123 128 116 53 50 70 68 88 106 110 42 148 98 91 93 83 0 0 0 0
1400 1401 1488 1498 1432 1330 1232 1151 1100 1046 1013 984 983 952 894 853 820 747 720 772 764 712 663 616 521 446 468 545 612 736 842 911 921 839 778 660 679 739 670 503 346 202 139 61 36 120 136 69 97 75 97 102 102 80 82 86 88 81 75 18 0 0 0
1594 1579 1530 1467 1324 1216 1114 997 918 901 877 858 826 800 749 754 759 770 720 783 758 754 744 734 702 629 562 537 570 650 697 708 770 796 705 622 602 606 645 676 566 357 98 106 54 76 142 110 82 70 71 99 126 86 47 102 78 80 94 89 11 0 0
1534 1544 1457 1329 1194 1121 986 914 843 815 950 875 864 885 817 791 703 765 761 712 640 568 562 542 555 556 556 584 608 624 661 661 678 767 845 720 659 637 618 610 513 495 229 216 191 175 139 127 107 112 80 91 93 49 64 65 86 99 110 108 0 5 0
1368 1312 1318 1195 1095 964 832 752 747 746 820 865 906 936 901 871 834 776 679 562 260 0 0 196 218 222 233 312 370 423 469 551 521 472 495 297 306 352 408 302 222 169 171 246 187 192 200 173 112 128 79 63 63 67 54 58 80 89 95 114 114 104 78
1223 1243 1178 977 837 691 553 486 618 636 741 848 904 940 938 893 796 676 546 266 139 221 169 141 123 117 127 202 282 283 297 352 490 519 408 300 190 288 269 327 279 258 181 230 230 227 204 145 112 81 92 75 68 72 72 78 102 104 25 0 127 119 96
734 732 789 605 526 518 488 448 430 414 453 558 632 676 705 658 573 460 0 0 55 116 107 72 57 80 94 93 167 221 250 253 406 496 409 338 358 322 198 221 326 64 147 243 244 223 209 238 112 82 67 53 53 67 64 81 118 40 36 117 133 14 134
700 594 471 421 406 395 365 328 324 308 296 356 398 174 167 129 0 0 0 0 34 83 72 82 98 98 90 62 72 154 195 198 323 425 406 373 254 74 200 263 207 222 209 245 254 256 274 242 214 148 119 111 36 40 67 54 67 96 108 132 68 19 125
306 122 343 385 366 267 0 0 0 0 0 0 0 0 0 0 0 0 0 0 98 72 59 66 86 78 67 68 86 134 152 200 241 320 368 341 206 74 385 349 328 296 223 230 220 198 208 243 250 158 102 140 82 36 45 49 44 65 103 94 101 54 14
315 314 311 100 0 0 0 0 0 0 0 0 0 0 0 0 0 0 56 0 18 2 27 72 63 60 46 76 139 176 178 336 352 355 351 194 112 238 234 74 219 409 324 296 302 246 170 179 222 123 109 147 94 31 11 18 48 63 67 84 73 78 31
105 32 0 31 135 106 18 17 25 33 34 0 0 0 0 43 42 104 78 59 57 58 65 75 91 80 44 80 126 181 195 267 329 274 167 160 199 279 204 252 393 297 330 348 323 295 240 159 280 230 209 166 101 28 88 29 29 26 46 55 84 60 82
32 79 98 0 83 19 7 8 53 94 82 80 74 96 106 102 96 71 57 70 128 166 152 190 252 209 111 77 120 286 266 265 315 337 298 271 337 332 266 206 344 343 269 301 293 359 323 231 217 331 388 384 184 63 78 56 18 0 12 54 64 109 132
56 84 71 39 5 2 1 1 14 35 28 3 4 21 53 34 33 52 62 92 152 132 115 153 257 297 203 139 120 144 182 306 306 321 328 293 292 324 339 317 277 320 300 272 304 346 318 199 143 196 305 280 221 138 95 96 107 38 0 14 0 78 145
27 14 9 2 1 0 0 1 0 2 0 3 4 2 3 6 14 41 52 41 47 26 72 157 294 374 335 209 164 170 180 242 260 268 297 279 265 237 269 224 28 201 327 243 272 335 329 209 115 130 205 222 236 200 176 154 184 165 111 47 81 14 134
5 4 4 2 0 0 0 0 2 3 4 4 4 4 9 9 8 8 14 22 7 1 102 182 214 283 335 327 244 185 189 243 278 261 261 275 269 240 199 187 190 250 331 242 280 270 347 344 268 238 184 184 254 335 304 246 243 233 159 71 29 66 0
6 3 3 1 0 0 0 0 3 3 3 7 5 5 4 4 3 2 2 1 1 0 130 178 188 215 278 300 296 245 207 223 252 247 191 113 25 209 186 98 97 164 308 339 299 284 322 391 439 389 335 318 418 417 303 240 241 258 244 109 77 128 151
1 1 0 0 0 0 2 4 4 3 3 5 6 5 4 4 3 3 3 2 63 114 116 139 165 160 173 191 176 166 210 241 243 145 50 6 126 248 287 268 193 196 247 288 274 282 352 410 482 514 488 429 437 376 272 224 239 236 252 164 110 114 116
0 0 0 0 1 2 3 5 4 6 4 3 5 5 4 3 3 1 1 1 1 16 100 120 111 63 49 73 62 59 283 174 114 78 30 227 227 248 270 358 372 352 216 201 278 338 363 395 419 396 302 247 246 240 226 232 258 240 189 176 159 76 91
0 0 1 1 2 2 2 3 2 2 3 4 4 4 1 1 1 1 1 1 0 0 60 114 129 53 26 24 2 31 0 0 14 0 172 191 209 208 186 196 299 360 311 279 306 323 362 353 341 419 398 290 210 235 294 304 279 220 176 178 162 121 98
0 1 1 1 1 1 1 1 1 1 1 1 1 0 0 0 0 0 0 0 2 19 124 255 83 112 91 123 0 1 36 55 73 209 272 210 168 128 193 266 365 400 353 458 478 446 323 274 271 309 335 305 259 279 302 311 314 259 158 102 122 174 140
3 5 5 5 4 1 0 0 0 0 0 0 1 0 0 0 0 0 0 0 2 13 94 200 255 59 338 76 98 45 26 59 0 192 268 255 227 191 203 224 271 271 346 442 501 457 386 305 242 228 236 285 355 307 331 274 232 221 164 188 162 129 122
8 8 6 4 2 1 1 1 1 1 0 0 1 1 0 0 0 0 0 1 42 45 156 0 1 168 317 10 1 0 1 1 1 1 141 104 160 176 211 203 246 232 222 283 413 446 387 346 297 316 355 341 279 331 354 372 287 208 184 182 172 156 103
6 8 7 3 3 2 1 1 1 1 0 1 2 2 0 0 0 1 1 31 100 164 200 199 161 136 132 1 4 0 1 1 53 194 120 91 116 183 196 155 168 185 240 279 230 217 249 270 239 191 246 294 287 333 347 334 346 279 214 172 174 154 139
5 4 3 2 2 1 0 1 0 0 0 0 0 1 3 1 0 1 14 94 183 188 146 114 76 63 29 0 0 1 0 0 109 168 108 162 146 122 144 148 161 211 222 246 233 215 196 196 192 176 207 249 236 223 231 246 285 273 235 214 172 158 135
4 5 2 1 1 1 0 0 0 0 0 0 0 0 2 2 0 2 59 131 106 41 1 3 1 0 0 0 0 0 0 0 1 35 34 63 76 101 92 53 54 100 139 154 175 171 199 278 268 228 185 188 163 180 218 213 212 182 208 188 183 195 156
1 4 2 1 0 0 0 0 0 0 0 0 0 0 0 1 0 2 4 23 45 40 8 8 2 11 18 10 0 0 0 0 0 0 11 24 34 38 46 89 80 82 138 201 182 204 165 179 244 256 213 164 146 180 180 151 145 139 133 148 176 211 131
1 3 4 2 2 1 0 0 0 0 0 0 0 0 0 0 0 0 1 18 33 25 0 0 9 12 15 3 0 0 0 0 0 0 0 7 16 19 49 86 77 86 111 157 200 250 206 166 209 235 205 153 145 183 148 130 118 133 126 133 157 184 159
2 1 2 3 2 2 1 0 0 0 0 0 0 0 0 0 0 0 0 2 8 6 2 0 11 21 17 0 0 0 0 0 0 0 0 1 4 8 5 12 16 37 59 85 104 145 170 153 148 147 158 141 158 126 123 121 112 108 105 110 108 115 125
5 1 0 0 0 0 1 0 0 0 1 3 0 0 0 0 1 0 0 0 0 0 2 4 2 2 5 0 0 0 0 0 0 0 0 1 0 0 0 0 8 11 15 38 58 47 52 59 66 98 103 124 124 98 66 63 84 96 78 57 28 59 74
3 1 0 0 0 0 0 0 0 0 0 0 0 0 1 4 3 1 0 4 5 7 6 3 2 11 10 0 0 0 0 0 0 0 0 0 1 0 0 0 0 0 1 8 30 25 14 11 30 29 38 65 74 72 48 31 37 60 64 43 20 16 38
4 1 0 0 0 0 0 0 0 0 0 0 0 0 0 0 0 0 0 1 1 0 0 0 0 0 0 0 0 0 0 0 0 0 0 0 0 0 0 0 0 0 2 14 23 16 8 3 2 11 31 46 44 54 33 19 13 4 4 12 8 10 0
2 0 0 0 0 0 0 0 0 0 0 0 0 0 0 0 0 0 0 0 0 0 0 0 0 0 0 0 0 0 0 0 0 3 3 0 0 0 0 0 0 0 0 8 13 18 17 16 16 12 10 5 0 2 6 8 13 10 21 14 8 4 10
1 0 0 0 0 0 0 0 0 0 0 0 0 0 0 0 0 0 0 0 0 0 0 0 0 0 0 0 0 0 0 0 0 0 0 0 0 0 0 0 2 10 6 0 0 0 0 0 4 1 0 0 2 3 6 8 6 6 7 5 16 6 7
2 1 0 0 0 0 0 0 0 0 0 0 0 0 0 0 0 0 0 0 0 0 0 0 0 0 0 0 0 0 0 0 0 0 0 0 0 0 0 0 2 9 8 2 0 0 0 0 0 0 0 0 0 0 1 0 0 0 0 1 1 1 3
2 1 0 0 0 0 0 0 0 0 0 0 0 0 0 0 0 0 0 0 0 3 4 6 5 4 8 8 6 4 1 0 0 0 0 0 0 0 4 5 6 8 9 6 2 0 0 0 0 0 0 0 0 0 0 0 0 0 0 0 0 0 0
2 0 0 0 0 0 0 0 0 0 0 0 0 0 0 0 0 0 0 0 0 0 0 2 3 3 5 6 6 5 1 0 3 0 0 0 0 0 2 3 6 5 1 2 4 3 1 0 0 0 0 0 0 0 0 0 0 0 0 0 0 0 0

ECMWFFLT1_con_mucape_120.txt.gz
CAPE
1164 1173 1225 1328 1300 1281 1250 1226 1157 1082 1022 968 926 910 872 856 833 792 761 763 747 692 655 670 657 577 540 594 816 821 627 774 706 644 645 416 394 381 336 261 117 200 318 263 180 54 42 46 61 103 86 129 177 190 179 169 241 172 60 92 38 0 0
1209 1248 1270 1329 1336 1259 1154 1078 1010 942 884 845 813 780 757 714 662 687 655 659 641 665 644 582 500 458 149 210 342 556 603 549 809 913 827 616 458 447 469 364 314 315 272 376 394 270 149 87 56 76 65 65 96 101 134 125 155 206 118 111 68 0 0
1415 1406 1343 1296 1224 1130 1061 1009 948 876 796 822 889 857 829 792 769 742 720 694 650 611 498 498 60 92 110 140 207 258 462 488 480 604 640 822 745 566 569 540 479 167 202 238 293 344 232 114 67 70 80 69 43 87 106 136 116 158 142 56 67 0 0
1309 1282 1274 1252 1204 1179 1107 1008 905 795 679 776 827 852 872 859 841 846 808 744 633 522 385 311 250 139 43 30 66 112 146 196 329 455 484 486 634 773 769 725 632 459 322 228 191 345 373 140 78 52 54 72 71 95 78 90 128 122 168 136 66 43 29
1384 1234 1082 1002 928 767 678 630 651 715 684 686 754 796 797 789 784 753 691 586 446 309 0 145 97 42 19 17 31 50 92 160 280 421 480 497 636 710 760 743 602 455 380 269 307 466 556 283 82 51 58 62 76 86 107 84 88 151 178 171 49 85 39
1198 1143 1128 1095 914 732 644 524 466 444 438 426 424 443 458 466 492 504 462 393 322 0 0 0 4 43 27 49 67 98 134 177 251 310 367 366 292 313 399 563 494 358 407 332 250 230 158 127 174 116 46 59 134 115 81 89 102 118 158 162 117 94 67
1082 942 779 655 519 465 405 321 302 278 30 153 298 317 300 284 259 126 0 0 0 0 0 0 0 0 14 15 42 68 90 172 209 240 260 278 287 278 312 320 278 204 266 261 236 260 159 149 97 75 65 65 82 114 82 55 104 96 64 76 116 92 1
760 718 656 534 437 341 0 0 8 146 208 42 0 0 0 0 0 0 25 77 48 26 33 31 14 6 12 29 42 55 95 106 196 226 248 266 305 293 294 336 341 299 238 228 195 156 213 106 116 82 83 78 61 82 82 63 58 8 84 102 102 1 30
807 691 490 366 311 193 37 111 134 113 89 75 0 0 0 0 0 0 0 36 18 8 4 6 15 21 29 40 52 36 62 120 122 166 188 239 280 299 276 271 284 205 108 65 170 138 154 138 92 64 76 70 73 115 76 48 37 34 57 36 3 0 7
696 528 119 211 0 24 38 35 17 25 48 19 56 52 22 44 80 93 63 40 25 21 20 32 44 41 63 78 73 56 56 89 126 144 239 265 296 313 344 330 261 169 120 112 125 118 108 104 92 79 81 66 84 105 65 50 59 78 78 58 43 13 13
424 146 62 4 20 7 2 0 0 1 22 14 3 1 4 16 34 37 25 28 32 34 47 93 124 137 143 142 147 85 80 121 171 216 281 316 352 392 399 321 185 129 101 140 84 74 94 118 97 94 78 82 89 72 99 37 67 88 104 86 74 57 70
366 0 0 4 4 2 0 1 3 6 7 7 7 5 4 6 7 13 22 32 43 43 53 58 49 48 72 95 148 158 70 94 140 203 282 312 332 318 295 240 183 230 234 172 86 76 94 90 104 125 108 90 93 121 100 62 43 47 65 92 91 89 97
68 7 10 6 3 2 1 1 1 0 5 9 10 15 16 19 20 17 17 35 56 68 68 60 53 168 211 232 280 272 133 100 115 150 186 289 287 282 252 256 295 289 217 210 250 137 84 93 96 112 104 98 65 47 100 111 43 16 31 76 75 72 78
10 6 5 5 4 2 2 1 0 1 5 10 18 14 18 12 6 5 5 6 6 10 20 99 150 158 191 185 253 308 267 147 144 192 252 265 268 254 258 285 281 192 243 185 229 154 79 83 91 113 108 97 102 88 79 108 79 49 29 22 40 38 31
4 4 2 1 0 0 0 0 0 5 5 16 12 8 6 3 3 2 2 4 8 36 80 69 99 173 175 202 248 304 321 310 242 260 267 265 287 263 235 202 182 134 206 213 151 140 126 62 78 145 136 115 120 148 130 173 183 66 66 52 48 28 18
4 4 2 2 1 0 0 1 4 6 4 7 7 6 4 2 2 1 1 1 3 4 32 46 76 87 132 129 136 147 163 169 219 246 263 268 251 226 186 134 141 85 134 166 141 129 172 177 111 117 135 110 98 222 306 305 210 100 90 102 86 77 26
1 1 1 0 0 0 3 4 4 2 3 2 5 4 4 1 1 1 2 2 4 4 5 16 47 69 59 36 50 73 82 103 125 145 145 135 130 102 74 92 132 117 120 116 147 171 312 282 190 196 186 148 146 195 273 265 140 129 132 135 143 119 79
1 0 0 0 1 3 4 3 3 2 2 3 3 3 3 1 1 2 3 2 4 6 16 34 46 112 84 61 31 21 55 77 38 33 62 45 70 160 199 208 192 190 205 173 114 155 226 290 206 199 274 243 205 178 235 209 183 195 220 218 246 176 108
0 0 1 2 3 2 1 1 1 0 0 0 1 1 0 0 1 1 2 1 5 8 24 72 120 117 115 126 53 10 31 24 211 237 149 116 140 265 281 198 221 211 189 201 181 195 196 219 237 235 280 317 287 287 295 296 318 342 324 296 255 249 137
3 3 4 2 1 1 0 1 0 0 0 0 0 0 0 0 1 0 1 4 6 3 75 191 90 204 158 94 77 26 15 9 29 53 177 203 196 158 191 218 212 212 208 304 249 201 139 162 209 294 325 338 340 298 315 431 370 372 298 246 230 195 194
6 9 8 3 1 1 1 1 1 1 2 2 1 1 1 4 2 2 5 4 28 114 192 148 0 0 1 3 24 30 3 4 3 123 235 215 220 208 173 205 218 242 268 233 199 210 109 162 149 149 191 324 390 325 243 244 231 240 237 250 248 235 173
15 8 3 2 2 1 1 1 2 3 2 3 3 3 4 4 4 7 6 43 74 18 0 0 1 0 1 2 2 2 1 2 2 1 1 60 139 184 180 177 222 213 195 203 218 260 333 332 193 168 163 171 197 224 248 266 230 201 245 227 207 172 162
12 5 2 1 1 1 1 1 2 1 1 2 4 4 4 4 4 4 58 104 7 0 0 1 1 1 2 1 1 1 1 1 0 39 92 154 130 131 181 163 199 210 218 204 179 203 272 295 276 208 238 224 205 215 230 279 239 254 229 205 198 223 181
4 4 2 1 2 1 1 0 0 0 0 2 2 4 4 5 4 14 55 4 0 0 0 0 0 0 0 0 1 1 1 1 0 3 43 62 84 70 77 98 125 168 192 223 237 196 181 175 175 168 158 142 126 150 190 238 248 218 234 202 208 222 207
2 2 1 1 1 1 1 1 0 0 0 0 1 2 2 0 3 27 9 2 0 0 0 0 1 1 0 0 0 1 1 1 1 0 1 11 19 21 35 48 50 108 181 232 216 227 186 150 135 123 130 115 104 109 120 143 163 210 208 184 190 188 189
2 1 1 1 2 2 0 1 0 2 1 0 1 2 1 2 8 8 4 2 1 0 0 0 0 0 0 0 0 0 1 1 1 1 0 10 11 12 18 34 50 66 86 124 172 170 178 132 127 142 129 130 103 114 114 113 119 110 130 153 196 194 180
1 1 1 2 2 2 0 0 0 1 1 1 0 0 0 0 0 1 2 7 7 4 0 0 0 0 0 0 0 0 1 1 2 1 1 1 2 1 1 8 11 16 22 52 91 110 108 112 95 116 113 118 103 79 75 90 86 88 96 91 85 88 125
0 0 1 2 1 0 1 1 0 1 1 0 0 0 0 0 0 0 0 0 1 6 0 0 0 0 0 0 0 0 0 1 1 1 2 1 0 1 0 2 3 1 6 10 6 12 24 41 37 56 85 114 103 100 99 95 62 58 56 68 70 64 52
0 0 0 1 1 0 0 0 0 2 2 1 0 0 0 0 0 0 2 2 1 0 0 0 0 0 0 0 0 0 0 0 1 0 1 1 0 0 1 1 1 0 0 0 0 0 6 10 7 14 39 57 81 87 70 68 68 53 53 53 53 57 50
0 0 1 1 1 0 0 0 0 1 1 1 0 0 0 0 0 0 0 2 4 0 0 0 0 0 0 0 0 0 0 0 0 0 0 0 0 0 0 1 1 2 2 0 0 0 0 0 6 12 23 29 40 58 33 15 18 24 34 57 68 62 52
0 0 0 0 0 0 0 1 0 1 0 0 0 0 0 0 0 0 0 0 0 0 0 0 0 0 0 0 0 0 0 0 0 0 0 0 0 0 0 0 0 0 0 0 0 0 0 0 0 1 6 9 22 20 18 16 19 23 15 14 25 33 37
0 0 0 0 0 0 1 0 0 1 0 1 0 1 0 0 0 0 0 0 0 0 0 0 0 0 0 0 0 0 0 0 0 0 0 0 0 0 0 0 0 0 0 0 0 0 0 0 0 0 0 1 1 0 0 4 6 8 7 3 3 4 13
0 0 0 0 0 0 0 0 0 1 0 1 1 0 0 0 0 0 0 0 0 0 0 0 0 0 0 0 0 0 0 0 0 0 0 0 1 0 0 0 0 0 0 0 0 0 0 0 0 0 0 0 0 1 0 0 0 0 0 0 0 3 5
0 0 0 0 0 0 0 0 0 0 0 0 0 0 0 0 0 0 0 0 0 0 0 0 0 0 0 0 0 0 0 0 0 0 0 0 1 0 3 0 2 1 0 0 0 0 0 0 0 0 0 0 0 0 0 0 0 0 0 0 0 1 3
0 0 0 0 0 0 0 0 0 0 0 0 0 0 0 0 0 0 0 0 0 0 0 0 0 0 0 0 0 0 0 0 0 0 0 0 1 1 2 5 7 11 9 4 0 0 0 0 0 0 0 0 0 0 0 0 0 0 0 0 0 0 0
3 1 0 0 0 0 0 0 0 0 0 0 0 0 0 0 0 0 0 0 0 0 0 0 0 0 0 0 0 0 0 0 0 0 0 0 0 1 4 5 6 10 11 8 4 2 0 0 0 0 0 0 0 0 0 0 0 0 0 0 0 0 0
3 3 1 0 0 0 0 0 0 0 0 0 0 0 0 0 0 0 0 0 0 0 0 0 0 0 0 0 0 0 0 0 0 0 0 0 0 0 0 0 0 0 0 0 0 0 0 0 0 0 0 0 0 0 0 0 0 0 0 0 0 0 0